# Wetter Temperatur Luftdruck Luftfeuchtigkeit Sichtweite Windgeschwindigkeit Windrichtung Zeit
1 Haze 31 1005 66 10000 5.14 150 07:29 02.10.2022
2 Haze 30 1009 70 10000 4.12 340 02:54 02.10.2022
3 Haze 28 1009 78 10000 4.12 340 00:45 02.10.2022
4 Haze 27 1009 83 10000 2.57 0 23:43 01.10.2022
5 Haze 25 1008 94 10000 1.54 0 22:31 01.10.2022
6 Clouds 25 1007 94 10000 1.54 0 19:58 01.10.2022
7 Clouds 26 1008 89 10000 5.14 140 17:49 01.10.2022
8 Clouds 26 1008 89 10000 3.09 140 16:29 01.10.2022
9 Clear 26 1009 88 10000 6.16 132 14:19 01.10.2022
10 Clouds 28 1008 83 10000 7.2 140 12:57 01.10.2022
11 Clouds 28 1008 83 10000 7.2 140 12:29 01.10.2022
12 Clouds 28 1008 83 10000 7.2 140 12:29 01.10.2022
13 Clouds 26 1007 87 10000 7.6 148 11:19 01.10.2022
14 Haze 28 1006 83 10000 7.72 160 10:31 01.10.2022
15 Haze 29 1006 79 10000 10.29 160 09:27 01.10.2022
16 Haze 31 1006 66 10000 7.72 160 08:41 01.10.2022
17 Haze 31 1009 70 10000 4.12 220 03:55 01.10.2022
18 Haze 31 1009 70 10000 4.12 220 03:28 01.10.2022
19 Haze 27 1009 83 10000 1.54 0 23:33 30.09.2022
20 Clouds 25 1008 94 10000 1.03 0 22:19 30.09.2022
21 Clouds 25 1008 94 10000 1.03 0 22:19 30.09.2022
22 Clouds 25 1008 94 10000 2.57 130 21:22 30.09.2022
23 Clear 25 1008 87 10000 1 77 20:42 30.09.2022
24 Clouds 26 1008 89 10000 2.57 140 19:30 30.09.2022
25 Clouds 27 1008 83 10000 5.14 120 17:27 30.09.2022
26 Clouds 27 1009 89 10000 7.72 160 14:55 30.09.2022
27 Clouds 28 1009 78 10000 7.72 160 13:24 30.09.2022
28 Clouds 27 1009 84 10000 7.09 136 11:56 30.09.2022
29 Haze 30 1006 74 10000 5.14 170 09:50 30.09.2022
30 Haze 31 1006 70 10000 5.14 170 08:20 30.09.2022
31 Haze 32 1010 62 10000 7.72 220 04:24 30.09.2022
32 Clouds 29 1012 70 10000 1.45 217 02:22 30.09.2022
33 Clouds 24 1010 100 10000 5.14 330 22:23 29.09.2022
34 Clouds 24 1009 100 10000 1.54 0 21:25 29.09.2022
35 Clouds 25 1009 94 10000 1.54 0 19:58 29.09.2022
36 Clouds 25 1009 94 10000 1.54 0 18:30 29.09.2022
37 Clouds 25 1009 94 10000 1.54 0 18:30 29.09.2022
38 Clouds 26 1011 89 10000 4.12 130 16:29 29.09.2022
39 Clouds 27 1011 89 10000 4.12 150 15:37 29.09.2022
40 Clouds 27 1011 89 10000 5.14 140 14:59 29.09.2022
41 Clouds 28 1010 89 10000 5.14 150 12:54 29.09.2022
42 Clouds 31 1007 66 10000 5.14 150 08:51 29.09.2022
43 Clouds 32 1009 66 10000 5.14 200 05:35 29.09.2022
44 Clouds 30 1011 70 10000 5.14 320 02:37 29.09.2022
45 Clouds 25 1010 94 10000 2.57 310 23:29 28.09.2022
46 Clouds 24 1009 94 10000 3.09 340 22:22 28.09.2022
47 Clouds 24 1008 100 10000 2.06 340 21:25 28.09.2022
48 Clouds 25 1008 88 10000 2.07 348 19:57 28.09.2022
49 Clouds 25 1008 94 10000 1.54 0 17:19 28.09.2022
50 Clouds 25 1010 94 10000 1.54 0 14:35 28.09.2022
51 Clouds 25 1008 94 10000 1.54 0 11:49 28.09.2022
52 Haze 25 1008 94 10000 5.14 120 10:22 28.09.2022
53 Haze 31 1006 70 10000 5.14 180 07:53 28.09.2022
54 Haze 31 1006 70 10000 5.14 190 06:27 28.09.2022
55 Haze 29 1009 74 10000 5.14 330 01:47 28.09.2022
56 Haze 29 1009 74 10000 5.14 330 01:25 28.09.2022
57 Clouds 23 1008 100 10000 2.06 0 22:49 27.09.2022
58 Clouds 24 1007 94 10000 1.54 0 21:20 27.09.2022
59 Clouds 24 1007 94 10000 2.57 0 20:34 27.09.2022
60 Clouds 24 1007 94 10000 3.6 320 19:40 27.09.2022
61 Clouds 24 1007 94 10000 2.06 0 17:47 27.09.2022
62 Clouds 24 1008 100 10000 1.54 0 16:56 27.09.2022
63 Clouds 24 1008 94 10000 1.54 0 15:18 27.09.2022
64 Clouds 24 1009 94 10000 2.57 340 13:53 27.09.2022
65 Clouds 25 1009 94 10000 5.14 30 12:37 27.09.2022
66 Haze 28 1007 83 10000 7.72 160 10:35 27.09.2022
67 Haze 31 1005 70 10000 7.72 150 07:55 27.09.2022
68 Haze 30 1008 70 10000 6.17 180 04:52 27.09.2022
69 Haze 30 1009 70 10000 4.12 330 01:40 27.09.2022
70 Haze 25 1008 88 10000 2.06 330 23:52 26.09.2022
71 Haze 25 1008 88 10000 2.06 330 23:24 26.09.2022
72 Clear 24 1007 89 10000 1.39 40 21:20 26.09.2022
73 Clouds 24 1007 94 10000 3.09 340 19:49 26.09.2022
74 Clouds 25 1007 94 10000 1.03 0 18:55 26.09.2022
75 Clouds 25 1007 90 10000 3.2 117 17:25 26.09.2022
76 Clouds 27 1008 83 10000 5.14 160 15:23 26.09.2022
77 Clouds 28 1007 83 10000 5.14 130 12:31 26.09.2022
78 Haze 29 1006 79 10000 4.63 150 10:43 26.09.2022
79 Haze 29 1006 79 10000 4.63 150 10:23 26.09.2022
80 Haze 29 1005 74 10000 7.72 150 09:57 26.09.2022
81 Haze 29 1005 74 10000 7.72 150 09:27 26.09.2022
82 Haze 31 1005 74 10000 7.72 140 08:59 26.09.2022
83 Haze 32 1007 70 10000 7.72 190 05:30 26.09.2022
84 Haze 30 1009 74 10000 4.12 350 01:57 26.09.2022
85 Haze 25 1009 94 10000 1.54 0 23:23 25.09.2022
86 Clouds 24 1007 100 10000 2.57 340 21:44 25.09.2022
87 Clouds 24 1007 100 10000 4.12 330 20:57 25.09.2022
88 Clouds 24 1007 100 10000 4.12 330 20:33 25.09.2022
89 Clouds 25 1007 94 10000 1.54 0 18:44 25.09.2022
90 Clouds 25 1007 94 10000 1.54 0 18:24 25.09.2022
91 Clouds 26 1008 94 10000 5.14 160 16:59 25.09.2022
92 Clouds 27 1008 89 10000 5.14 160 15:50 25.09.2022
93 Clouds 27 1009 89 10000 5.14 150 14:35 25.09.2022
94 Clouds 27 1008 89 10000 5.14 150 13:45 25.09.2022
95 Haze 29 1006 79 10000 7.72 170 10:37 25.09.2022
96 Haze 30 1005 74 10000 7.72 140 09:21 25.09.2022
97 Haze 32 1006 62 10000 7.72 190 06:53 25.09.2022
98 Haze 31 1008 66 10000 7.72 200 04:28 25.09.2022
99 Haze 24 1008 100 10000 1.03 0 23:36 24.09.2022
100 Clouds 24 1007 94 10000 1.54 0 21:19 24.09.2022
101 Clouds 24 1007 100 10000 2.06 0 19:33 24.09.2022
102 Clouds 24 1007 100 10000 1.54 0 18:44 24.09.2022
103 Clouds 25 1008 94 10000 1.54 0 16:43 24.09.2022
104 Clouds 25 1009 94 10000 1.54 0 15:23 24.09.2022
105 Clouds 26 1009 94 10000 1.54 0 14:27 24.09.2022
106 Clouds 26 1008 94 10000 2.57 160 12:59 24.09.2022
107 Clouds 26 1008 94 10000 2.57 160 12:22 24.09.2022
108 Haze 27 1006 83 10000 7.72 170 09:58 24.09.2022
109 Haze 28 1006 78 10000 7.72 160 08:51 24.09.2022
110 Haze 29 1006 70 10000 7.72 170 07:40 24.09.2022
111 Haze 30 1008 66 10000 2.57 190 04:50 24.09.2022
112 Haze 29 1009 61 10000 2.57 200 03:44 24.09.2022
113 Clouds 24 1009 85 10000 1.97 96 22:48 23.09.2022
114 Clouds 22 1008 94 10000 2.57 310 21:32 23.09.2022
115 Clouds 22 1008 94 10000 2.06 0 20:57 23.09.2022
116 Clouds 22 1008 94 10000 2.06 0 20:23 23.09.2022
117 Clouds 23 1008 94 10000 1.54 0 18:51 23.09.2022
118 Clouds 23 1010 94 10000 2.57 0 15:29 23.09.2022
119 Clouds 25 1009 78 10000 1.03 0 11:28 23.09.2022
120 Haze 26 1008 73 10000 1.54 340 09:35 23.09.2022
121 Haze 29 1009 70 10000 5.14 0 05:59 23.09.2022
122 Clouds 27 1011 83 10000 1.54 0 00:41 23.09.2022
123 Clouds 25 1010 94 10000 1.54 0 23:22 22.09.2022
124 Clouds 24 1009 100 10000 2.57 160 22:27 22.09.2022
125 Clouds 24 1008 100 10000 1.54 0 21:18 22.09.2022
126 Clouds 24 1008 100 10000 1.54 0 19:58 22.09.2022
127 Clouds 25 1009 94 10000 2.57 250 17:28 22.09.2022
128 Haze 26 1009 83 10000 2.57 350 12:52 22.09.2022
129 Haze 27 1007 78 10000 2.57 340 10:36 22.09.2022
130 Haze 31 1007 66 10000 5.14 140 08:56 22.09.2022
131 Haze 31 1007 66 10000 7.72 140 06:57 22.09.2022
132 Haze 31 1010 66 10000 7.72 160 04:36 22.09.2022
133 Clouds 24 1010 94 10000 1.54 0 23:31 21.09.2022
134 Clouds 24 1008 94 10000 1.54 0 21:50 21.09.2022
135 Clouds 24 1008 94 10000 1.54 0 20:34 21.09.2022
136 Clouds 25 1009 94 10000 1.54 0 17:50 21.09.2022
137 Clouds 25 1010 94 10000 2.57 160 16:53 21.09.2022
138 Haze 25 1010 88 10000 1.54 0 14:37 21.09.2022
139 Haze 25 1010 88 10000 5.14 350 12:54 21.09.2022
140 Haze 25 1010 94 10000 2.57 0 11:29 21.09.2022
141 Haze 25 1009 88 10000 2.57 0 10:29 21.09.2022
142 Haze 27 1008 83 10000 5.14 340 09:21 21.09.2022
143 Haze 31 1007 66 10000 5.14 210 07:41 21.09.2022
144 Haze 30 1011 70 10000 2.06 270 02:48 21.09.2022
145 Haze 30 1011 70 10000 2.06 270 02:28 21.09.2022
146 Clouds 27 1011 76 10000 1.49 260 00:34 21.09.2022
147 Clouds 25 1010 83 10000 1.24 14 23:18 20.09.2022
148 Clouds 25 1008 85 10000 1.28 73 20:52 20.09.2022
149 Clouds 25 1008 94 10000 1.54 0 19:32 20.09.2022
150 Clouds 25 1009 100 10000 2.57 200 16:28 20.09.2022
151 Clouds 25 1009 100 10000 5.14 150 14:46 20.09.2022
152 Clouds 26 1009 94 10000 2.57 180 13:28 20.09.2022
153 Clouds 27 1008 89 3000 5.14 110 09:50 20.09.2022
154 Haze 32 1006 66 10000 5.14 130 08:27 20.09.2022
155 Clouds 30 1007 66 10000 5.54 165 05:24 20.09.2022
156 Clouds 30 1010 66 10000 4.12 170 03:59 20.09.2022
157 Clouds 23 1010 94 10000 1.54 0 22:59 19.09.2022
158 Clouds 23 1010 94 10000 1.54 0 22:18 19.09.2022
159 Clouds 23 1009 100 10000 2.57 320 20:51 19.09.2022
160 Clouds 23 1009 100 10000 2.57 320 20:31 19.09.2022
161 Clouds 23 1010 94 10000 2.57 320 17:45 19.09.2022
162 Clouds 25 1011 87 10000 1.71 116 15:34 19.09.2022
163 Clouds 24 1011 94 10000 1.03 0 13:32 19.09.2022
164 Clouds 25 1010 88 10000 3.09 350 11:25 19.09.2022
165 Haze 29 1008 79 10000 9.26 160 08:51 19.09.2022
166 Clouds 30 1009 74 10000 2.57 180 07:25 19.09.2022
167 Haze 29 1013 70 10000 2.57 0 01:55 19.09.2022
168 Haze 26 1011 89 10000 1.54 0 23:22 18.09.2022
169 Clouds 26 1010 89 10000 1.54 0 21:44 18.09.2022
170 Clouds 26 1009 89 10000 1.54 0 20:25 18.09.2022
171 Clouds 25 1009 94 10000 1.54 0 18:33 18.09.2022
172 Clouds 26 1010 89 10000 1.54 0 17:39 18.09.2022
173 Clouds 25 1011 88 10000 1.27 20 15:46 18.09.2022
174 Clouds 28 1010 83 10000 2.06 0 13:51 18.09.2022
175 Clouds 28 1010 83 10000 2.57 320 12:35 18.09.2022
176 Clouds 28 1009 83 10000 2.57 200 11:24 18.09.2022
177 Clouds 31 1010 70 10000 6.17 180 04:26 18.09.2022
178 Clear 30 1011 66 10000 2.06 0 01:25 18.09.2022
179 Clear 27 1011 83 10000 1.54 0 00:23 18.09.2022
180 Clouds 23 1009 100 10000 2.06 0 21:40 17.09.2022
181 Clouds 25 1009 88 10000 1.83 28 19:43 17.09.2022
182 Clouds 25 1009 88 10000 1.83 28 19:43 17.09.2022
183 Clouds 24 1010 94 10000 1.54 0 18:57 17.09.2022
184 Clouds 26 1010 87 10000 1.03 104 16:18 17.09.2022
185 Clouds 26 1011 87 10000 1.21 129 13:56 17.09.2022
186 Haze 27 1008 89 10000 5.14 150 10:57 17.09.2022
187 Haze 30 1008 74 10000 0.65 337 08:55 17.09.2022
188 Haze 32 1008 66 10000 7.72 230 06:24 17.09.2022
189 Clouds 26 1010 81 10000 0.87 1 00:20 17.09.2022
190 Haze 25 1009 100 10000 1.54 0 22:52 16.09.2022
191 Clouds 25 1008 100 10000 5.14 320 21:22 16.09.2022
192 Clouds 25 1008 100 10000 1.54 0 19:50 16.09.2022
193 Clouds 26 1009 89 10000 2.57 330 16:38 16.09.2022
194 Clouds 26 1009 89 10000 2.06 0 14:58 16.09.2022
195 Clouds 26 1009 83 10000 2.06 0 13:43 16.09.2022
196 Clouds 27 1007 89 10000 2.06 0 11:31 16.09.2022
197 Haze 31 1005 70 10000 5.14 160 08:19 16.09.2022
198 Smoke 32 1005 66 10000 5.14 170 07:18 16.09.2022
199 Haze 32 1006 62 10000 7.72 190 06:34 16.09.2022
200 Haze 30 1010 74 10000 5.14 200 02:38 16.09.2022
201 Clouds 25 1009 94 10000 1.03 0 22:43 15.09.2022
202 Clouds 25 1008 94 10000 1.03 0 20:57 15.09.2022
203 Clouds 25 1008 90 10000 2.09 111 19:48 15.09.2022
204 Clouds 25 1009 88 10000 2.68 119 18:29 15.09.2022
205 Clouds 26 1009 89 10000 1.03 0 17:31 15.09.2022
206 Clouds 26 1010 89 10000 2.06 170 16:37 15.09.2022
207 Clouds 26 1010 89 10000 5.14 140 14:20 15.09.2022
208 Clouds 27 1009 78 10000 5.14 150 12:20 15.09.2022
209 Haze 29 1007 74 10000 5.14 150 09:52 15.09.2022
210 Haze 32 1007 62 10000 5.14 150 07:50 15.09.2022
211 Haze 32 1010 66 10000 5.14 200 03:52 15.09.2022
212 Haze 26 1011 94 10000 1.54 0 23:43 14.09.2022
213 Haze 25 1010 94 10000 1.54 0 21:26 14.09.2022
214 Haze 26 1010 89 10000 1.03 0 19:33 14.09.2022
215 Haze 26 1010 89 10000 2.57 140 18:30 14.09.2022
216 Clear 26 1011 89 10000 6.17 150 16:40 14.09.2022
217 Clear 26 1011 89 10000 5.14 160 15:29 14.09.2022
218 Clouds 27 1011 89 10000 5.14 150 13:35 14.09.2022
219 Haze 28 1010 83 10000 4.63 140 10:47 14.09.2022
220 Haze 29 1009 79 10000 7.72 130 09:27 14.09.2022
221 Haze 32 1010 62 10000 5.66 200 06:50 14.09.2022
222 Haze 32 1010 62 10000 5.66 200 06:31 14.09.2022
223 Haze 32 1012 62 10000 3.09 220 03:21 14.09.2022
224 Clouds 27 1013 73 10000 2.12 192 01:41 14.09.2022
225 Clouds 27 1013 73 10000 0.78 194 01:19 14.09.2022
226 Clouds 25 1013 88 10000 1.54 0 23:55 13.09.2022
227 Clouds 25 1013 88 10000 1.54 0 23:37 13.09.2022
228 Clouds 24 1013 82 10000 1.54 27 23:19 13.09.2022
229 Clouds 25 1012 83 10000 3.6 30 22:32 13.09.2022
230 Clouds 24 1011 94 10000 1.54 0 21:39 13.09.2022
231 Clouds 25 1011 94 10000 1.54 0 18:59 13.09.2022
232 Clouds 25 1011 94 10000 1.54 0 16:42 13.09.2022
233 Clouds 26 1012 89 10000 1.54 0 15:31 13.09.2022
234 Clouds 26 1011 89 10000 1.54 0 13:41 13.09.2022
235 Clouds 27 1010 83 10000 5.14 140 11:23 13.09.2022
236 Haze 30 1009 74 10000 10.29 160 08:18 13.09.2022
237 Haze 30 1013 70 10000 5.14 210 02:27 13.09.2022
238 Fog 23 1012 100 300 1.54 0 23:23 12.09.2022
239 Fog 23 1011 100 10000 1.54 0 22:44 12.09.2022
240 Clouds 23 1010 100 10000 1.54 0 21:35 12.09.2022
241 Clouds 23 1010 100 10000 1.54 0 20:22 12.09.2022
242 Clouds 24 1010 94 10000 1.54 350 18:24 12.09.2022
243 Clouds 24 1012 94 10000 2.57 320 15:50 12.09.2022
244 Clouds 25 1011 94 10000 1.54 0 12:30 12.09.2022
245 Clouds 26 1009 89 10000 5.14 330 10:30 12.09.2022
246 Rain 27 1008 94 10000 7.72 140 07:40 12.09.2022
247 Haze 31 1010 70 10000 7.72 200 04:36 12.09.2022
248 Haze 29 1012 74 10000 5.14 320 02:24 12.09.2022
249 Haze 25 1010 94 10000 2.57 350 22:46 11.09.2022
250 Clouds 25 1009 94 10000 3.09 320 21:27 11.09.2022
251 Clouds 25 1009 94 10000 2.06 0 20:44 11.09.2022
252 Clouds 25 1009 94 10000 2.06 0 19:39 11.09.2022
253 Clouds 25 1009 94 10000 2.06 0 19:18 11.09.2022
254 Clouds 25 1010 94 10000 1.54 0 17:28 11.09.2022
255 Clouds 26 1011 89 10000 1.54 0 15:51 11.09.2022
256 Clouds 26 1010 88 10000 4.89 130 13:22 11.09.2022
257 Clouds 27 1009 94 10000 7.72 140 11:25 11.09.2022
258 Haze 30 1007 74 10000 7.72 170 08:19 11.09.2022
259 Haze 31 1008 70 10000 7.72 190 05:19 11.09.2022
260 Clouds 25 1010 94 10000 1.54 0 23:50 10.09.2022
261 Clouds 25 1009 94 10000 1.54 0 22:21 10.09.2022
262 Clouds 26 1008 94 10000 2.06 0 20:33 10.09.2022
263 Clouds 25 1009 94 10000 1.54 0 19:43 10.09.2022
264 Clouds 25 1009 94 10000 1.54 0 19:24 10.09.2022
265 Clouds 25 1009 88 10000 1.03 0 17:27 10.09.2022
266 Clouds 26 1010 83 10000 1.54 0 15:35 10.09.2022
267 Clouds 27 1009 83 10000 5.14 160 13:36 10.09.2022
268 Clouds 27 1009 83 10000 7.72 160 12:29 10.09.2022
269 Clouds 29 1008 79 10000 7.72 160 10:28 10.09.2022
270 Haze 30 1008 74 10000 7.72 180 08:41 10.09.2022
271 Haze 30 1008 74 10000 7.72 180 08:20 10.09.2022
272 Haze 31 1011 70 10000 5.14 220 03:43 10.09.2022
273 Haze 25 1011 94 10000 1.54 0 23:36 09.09.2022
274 Haze 24 1010 94 10000 1.03 0 22:31 09.09.2022
275 Clouds 25 1010 94 10000 2.06 320 20:49 09.09.2022
276 Clouds 25 1010 94 10000 1.54 0 19:52 09.09.2022
277 Clouds 25 1010 91 10000 2.64 104 19:22 09.09.2022
278 Clouds 27 1011 83 10000 5.14 170 16:52 09.09.2022
279 Clouds 27 1012 83 10000 7.72 160 14:42 09.09.2022
280 Clouds 28 1012 78 10000 6.69 180 13:18 09.09.2022
281 Haze 28 1009 83 10000 5.14 160 10:37 09.09.2022
282 Haze 30 1009 74 10000 2.57 150 07:25 09.09.2022
283 Haze 31 1012 70 10000 5.14 210 03:31 09.09.2022
284 Haze 25 1012 100 10000 1.54 0 22:33 08.09.2022
285 Clouds 26 1011 94 10000 2.57 310 21:51 08.09.2022
286 Clouds 24 1011 92 10000 1.46 357 20:46 08.09.2022
287 Clouds 25 1010 91 10000 0.91 71 20:24 08.09.2022
288 Clouds 26 1011 94 10000 1.54 0 18:34 08.09.2022
289 Clouds 26 1012 94 10000 2.57 160 16:49 08.09.2022
290 Clouds 27 1012 89 10000 5.14 170 14:50 08.09.2022
291 Clouds 27 1012 83 10000 5.14 160 13:27 08.09.2022
292 Clouds 27 1011 89 10000 5.14 160 12:35 08.09.2022
293 Haze 28 1010 89 10000 5.14 130 10:58 08.09.2022
294 Haze 29 1009 79 10000 5.66 140 09:20 08.09.2022
295 Clouds 31 1010 70 10000 8.23 160 06:43 08.09.2022
296 Haze 31 1013 70 10000 1.54 0 02:37 08.09.2022
297 Haze 31 1013 70 10000 1.54 0 02:19 08.09.2022
298 Haze 30 1013 74 10000 1.54 0 01:58 08.09.2022
299 Clouds 25 1011 94 10000 1.54 0 22:55 07.09.2022
300 Clouds 25 1011 94 10000 1.54 0 21:43 07.09.2022
301 Clouds 25 1011 94 10000 1.54 0 21:18 07.09.2022
302 Clouds 26 1010 89 10000 1.54 0 19:54 07.09.2022
303 Clouds 26 1010 89 10000 2.57 120 18:40 07.09.2022
304 Clouds 27 1011 83 10000 5.14 140 15:21 07.09.2022
305 Haze 28 1008 83 10000 7.72 160 10:50 07.09.2022
306 Haze 28 1008 83 10000 7.72 160 10:24 07.09.2022
307 Haze 31 1007 70 10000 10.29 160 07:36 07.09.2022
308 Haze 32 1010 66 10000 5.66 150 04:39 07.09.2022
309 Haze 27 1012 89 10000 3.09 340 00:25 07.09.2022
310 Clouds 25 1010 100 10000 2.06 0 21:45 06.09.2022
311 Clouds 25 1010 100 10000 2.06 0 21:24 06.09.2022
312 Clouds 26 1009 89 10000 1.54 0 18:53 06.09.2022
313 Clouds 26 1009 89 10000 1.54 0 18:23 06.09.2022
314 Clouds 26 1010 89 10000 1.03 0 17:23 06.09.2022
315 Clouds 26 1010 89 10000 2.06 0 16:38 06.09.2022
316 Clouds 26 1010 89 10000 3.09 150 15:23 06.09.2022
317 Clouds 27 1011 83 10000 3.6 120 13:45 06.09.2022
318 Clouds 27 1011 83 10000 3.6 120 13:24 06.09.2022
319 Clouds 27 1010 83 10000 5.14 140 12:31 06.09.2022
320 Haze 28 1008 83 10000 10.29 160 10:45 06.09.2022
321 Haze 29 1007 79 10000 12.86 150 08:50 06.09.2022
322 Haze 30 1007 74 10000 12.35 160 07:49 06.09.2022
323 Clouds 31 1010 66 10000 5.14 170 03:31 06.09.2022
324 Clouds 25 1010 94 10000 1.54 0 23:27 05.09.2022
325 Haze 25 1009 94 10000 1.54 0 22:21 05.09.2022
326 Clouds 25 1009 94 10000 1.54 0 20:35 05.09.2022
327 Clouds 25 1009 94 10000 2.57 110 19:20 05.09.2022
328 Clouds 25 1009 94 10000 1.54 0 18:45 05.09.2022
329 Clouds 25 1009 94 10000 1.54 0 18:21 05.09.2022
330 Clouds 26 1010 89 10000 5.14 150 16:37 05.09.2022
331 Rain 26 1011 89 10000 7.72 130 15:47 05.09.2022
332 Clouds 26 1011 90 10000 4.86 131 13:25 05.09.2022
333 Clouds 27 1010 89 10000 7.72 140 12:27 05.09.2022
334 Haze 29 1008 74 10000 7.72 170 09:44 05.09.2022
335 Clouds 32 1008 62 10000 7.72 200 06:41 05.09.2022
336 Haze 27 1012 89 10000 2.57 320 01:56 05.09.2022
337 Clouds 25 1010 94 10000 2.57 340 22:59 04.09.2022
338 Clouds 25 1010 94 10000 2.57 340 22:27 04.09.2022
339 Clouds 25 1009 100 10000 1.54 0 20:44 04.09.2022
340 Clouds 25 1009 100 10000 2.57 320 19:32 04.09.2022
341 Clouds 26 1010 89 10000 1.54 0 17:55 04.09.2022
342 Clouds 27 1010 89 10000 1.54 0 16:42 04.09.2022
343 Clouds 26 1011 87 10000 3.75 136 14:29 04.09.2022
344 Clouds 27 1010 83 10000 5.14 160 13:28 04.09.2022
345 Clouds 27 1010 83 10000 5.14 160 13:28 04.09.2022
346 Clouds 28 1009 78 10000 5.14 170 11:52 04.09.2022
347 Clouds 30 1008 70 10000 2.57 190 09:56 04.09.2022
348 Clouds 30 1007 70 10000 5.14 160 07:27 04.09.2022
349 Clouds 28 1009 70 10000 2.8 209 04:00 04.09.2022
350 Clouds 25 1009 100 10000 2.57 0 23:40 03.09.2022
351 Clouds 25 1008 94 10000 5.14 310 22:21 03.09.2022
352 Clouds 25 1008 94 10000 5.14 320 21:23 03.09.2022
353 Clouds 25 1008 94 10000 5.14 320 21:23 03.09.2022
354 Rain 26 1009 94 10000 2.06 0 18:59 03.09.2022
355 Clouds 26 1009 89 10000 1.54 0 17:25 03.09.2022
356 Clouds 26 1009 89 10000 2.57 160 16:26 03.09.2022
357 Clouds 26 1009 94 10000 2.57 180 14:44 03.09.2022
358 Clouds 26 1009 94 10000 2.57 140 13:50 03.09.2022
359 Clouds 28 1007 83 10000 5.14 190 11:51 03.09.2022
360 Clouds 29 1006 79 10000 5.14 200 09:56 03.09.2022
361 Clouds 31 1006 70 10000 5.14 260 07:57 03.09.2022
362 Clouds 31 1008 66 10000 1.54 0 04:57 03.09.2022
363 Clouds 31 1009 74 10000 2.57 0 03:57 03.09.2022
364 Clouds 24 1009 94 10000 1.54 0 23:49 02.09.2022
365 Clouds 24 1009 94 10000 2.57 330 22:39 02.09.2022
366 Rain 24 1008 94 10000 4.12 320 20:57 02.09.2022
367 Rain 24 1008 94 10000 4.12 320 20:27 02.09.2022
368 Rain 24 1010 94 10000 2.57 340 18:59 02.09.2022
369 Rain 24 1010 94 10000 2.57 340 18:59 02.09.2022
370 Rain 24 1010 94 10000 2.57 340 18:27 02.09.2022
371 Rain 23 1011 100 10000 5.14 340 17:30 02.09.2022
372 Rain 23 1011 100 10000 5.14 340 17:30 02.09.2022
373 Rain 24 1011 94 10000 2.57 100 16:45 02.09.2022
374 Clouds 27 1010 83 10000 2.57 20 13:51 02.09.2022
375 Clouds 28 1008 83 10000 5.14 20 11:36 02.09.2022
376 Clouds 29 1008 79 10000 5.14 250 09:46 02.09.2022
377 Clouds 30 1007 70 10000 5.14 220 08:55 02.09.2022
378 Clouds 32 1007 66 10000 6.17 200 07:24 02.09.2022
379 Clouds 32 1007 66 10000 7.72 240 06:34 02.09.2022
380 Haze 31 1011 66 10000 7.2 330 02:34 02.09.2022
381 Clouds 24 1009 94 10000 2.57 320 22:24 01.09.2022
382 Clouds 25 1008 88 10000 2.57 320 21:39 01.09.2022
383 Clouds 25 1008 88 10000 2.57 320 21:20 01.09.2022
384 Clouds 25 1008 88 10000 2.57 320 20:31 01.09.2022
385 Clouds 25 1009 94 10000 2.57 350 18:37 01.09.2022
386 Clouds 25 1009 94 10000 1.54 0 16:55 01.09.2022
387 Clouds 26 1009 89 10000 1.54 0 15:26 01.09.2022
388 Rain 26 1009 83 10000 1.54 0 13:33 01.09.2022
389 Rain 26 1008 83 10000 5.14 20 12:55 01.09.2022
390 Rain 26 1008 83 10000 5.14 30 11:51 01.09.2022
391 Rain 26 1008 83 10000 5.14 30 11:20 01.09.2022
392 Haze 30 1008 74 10000 5.14 150 09:32 01.09.2022
393 Haze 30 1007 70 10000 5.14 150 06:41 01.09.2022
394 Haze 29 1009 79 10000 4.12 200 03:59 01.09.2022
395 Haze 28 1009 83 10000 2.06 0 01:30 01.09.2022
396 Haze 28 1009 83 10000 2.06 0 01:30 01.09.2022
397 Haze 28 1009 83 10000 2.06 0 01:30 01.09.2022
398 Haze 28 1009 83 10000 2.06 0 01:30 01.09.2022
399 Haze 28 1009 83 10000 2.06 0 01:30 01.09.2022
400 Haze 28 1009 83 10000 2.06 0 01:30 01.09.2022
401 Haze 28 1009 83 10000 2.06 0 01:30 01.09.2022
402 Haze 28 1009 83 10000 2.06 0 01:30 01.09.2022
403 Clouds 25 1008 94 10000 1.54 0 22:50 31.08.2022
404 Clouds 25 1007 94 10000 1.54 0 20:44 31.08.2022
405 Clouds 26 1007 89 10000 1.54 0 18:46 31.08.2022
406 Clouds 27 1008 89 10000 5.14 140 16:41 31.08.2022
407 Clouds 27 1009 89 10000 5.14 140 15:22 31.08.2022
408 Clouds 27 1008 83 10000 6.17 130 13:28 31.08.2022
409 Clouds 28 1007 83 10000 5.14 130 11:54 31.08.2022
410 Haze 29 1006 79 10000 5.14 160 09:35 31.08.2022
411 Haze 31 1005 66 10000 5.14 160 07:39 31.08.2022
412 Haze 29 1009 74 10000 2.57 130 02:47 31.08.2022
413 Clouds 25 1008 94 10000 1.54 0 22:21 30.08.2022
414 Clouds 25 1007 94 10000 1.54 0 21:27 30.08.2022
415 Clouds 25 1007 94 10000 2.57 320 19:51 30.08.2022
416 Clouds 26 1008 89 10000 1.54 0 16:48 30.08.2022
417 Clouds 26 1008 89 10000 2.57 330 13:38 30.08.2022
418 Clouds 27 1007 89 10000 2.57 190 11:44 30.08.2022
419 Clouds 27 1007 89 10000 2.57 190 11:19 30.08.2022
420 Haze 30 1006 70 10000 8.75 140 08:51 30.08.2022
421 Haze 32 1009 58 10000 1.54 0 03:57 30.08.2022
422 Haze 27 1009 83 10000 1.54 0 00:30 30.08.2022
423 Haze 23 1008 100 10000 1.54 0 22:36 29.08.2022
424 Clouds 24 1007 94 10000 1.54 0 21:48 29.08.2022
425 Clouds 24 1007 94 10000 1.54 0 20:34 29.08.2022
426 Clouds 24 1007 94 10000 5.14 320 18:39 29.08.2022
427 Clouds 24 1008 94 10000 2.57 320 17:25 29.08.2022
428 Clouds 25 1008 94 10000 2.06 350 16:56 29.08.2022
429 Clouds 25 1008 94 10000 2.06 320 15:18 29.08.2022
430 Clouds 25 1008 94 10000 2.06 320 15:18 29.08.2022
431 Clouds 26 1008 89 10000 3.09 330 13:34 29.08.2022
432 Clouds 26 1007 83 10000 3.6 350 11:33 29.08.2022
433 Haze 28 1007 78 10000 5.14 50 10:39 29.08.2022
434 Haze 30 1006 70 10000 5.14 130 08:39 29.08.2022
435 Haze 30 1007 70 10000 5.14 200 06:25 29.08.2022
436 Clouds 30 1009 74 10000 1.54 0 01:53 29.08.2022
437 Clouds 24 1008 100 10000 1.54 0 22:55 28.08.2022
438 Clouds 25 1007 94 10000 2.06 350 21:45 28.08.2022
439 Clouds 25 1007 94 10000 1.54 0 20:58 28.08.2022
440 Clouds 26 1007 94 10000 1.54 0 19:44 28.08.2022
441 Clouds 24 1007 90 10000 1.91 108 18:22 28.08.2022
442 Clouds 25 1007 94 10000 1.54 0 17:40 28.08.2022
443 Clear 26 1008 89 10000 1.03 0 16:32 28.08.2022
444 Clouds 27 1008 89 10000 5.14 160 14:44 28.08.2022
445 Clouds 27 1008 89 10000 5.14 180 12:48 28.08.2022
446 Clouds 28 1007 83 10000 5.14 170 10:51 28.08.2022
447 Clouds 29 1007 79 10000 5.14 160 09:56 28.08.2022
448 Clouds 31 1006 66 10000 5.14 160 08:38 28.08.2022
449 Clouds 30 1007 66 10000 7.72 200 07:45 28.08.2022
450 Haze 31 1009 70 10000 4.12 180 02:59 28.08.2022
451 Haze 27 1009 83 10000 1.54 0 00:29 28.08.2022
452 Clouds 24 1008 94 10000 1.54 0 22:37 27.08.2022
453 Clouds 24 1008 100 10000 1.54 0 21:36 27.08.2022
454 Clouds 25 1007 94 10000 2.06 0 19:49 27.08.2022
455 Clouds 25 1008 94 10000 2.57 0 18:27 27.08.2022
456 Clouds 26 1009 94 10000 2.57 340 15:53 27.08.2022
457 Clouds 26 1009 94 10000 2.57 340 15:25 27.08.2022
458 Clouds 27 1008 89 10000 2.57 190 12:30 27.08.2022
459 Clouds 27 1007 83 10000 4.12 150 11:32 27.08.2022
460 Clouds 27 1007 83 10000 4.12 150 11:32 27.08.2022
461 Haze 29 1006 74 10000 5.14 150 09:49 27.08.2022
462 Haze 31 1006 66 10000 5.14 160 08:22 27.08.2022
463 Haze 30 1010 70 10000 5.14 200 03:40 27.08.2022
464 Haze 25 1009 94 10000 1.54 0 23:58 26.08.2022
465 Clouds 24 1008 94 10000 1.54 0 22:50 26.08.2022
466 Clouds 24 1007 94 10000 1.54 0 21:30 26.08.2022
467 Clouds 24 1008 94 10000 1.54 0 19:23 26.08.2022
468 Clouds 26 1009 89 10000 5.14 160 16:50 26.08.2022
469 Clouds 26 1010 89 10000 5.14 160 15:35 26.08.2022
470 Clouds 25 1010 91 10000 4.84 134 14:34 26.08.2022
471 Clouds 26 1009 89 10000 5.14 160 12:51 26.08.2022
472 Clouds 26 1008 89 10000 7.72 150 11:33 26.08.2022
473 Clouds 27 1007 83 10000 7.72 150 10:46 26.08.2022
474 Haze 30 1006 70 10000 7.72 150 07:28 26.08.2022
475 Clouds 29 1011 70 10000 7.72 140 02:30 26.08.2022
476 Haze 24 1009 94 10000 1.54 0 23:41 25.08.2022
477 Clouds 24 1009 94 10000 1.54 0 21:36 25.08.2022
478 Clouds 24 1009 90 10000 3.38 119 20:29 25.08.2022
479 Clouds 24 1009 100 10000 1.03 0 18:53 25.08.2022
480 Clouds 25 1010 88 10000 3.6 130 17:44 25.08.2022
481 Clouds 25 1010 88 10000 3.6 130 17:24 25.08.2022
482 Clouds 25 1010 94 10000 5.14 150 15:39 25.08.2022
483 Clouds 25 1010 94 10000 5.14 140 14:34 25.08.2022
484 Rain 26 1010 89 10000 5.14 120 11:54 25.08.2022
485 Clouds 26 1009 89 10000 5.14 140 10:46 25.08.2022
486 Haze 29 1007 74 10000 7.72 150 08:54 25.08.2022
487 Haze 30 1009 70 10000 5.14 170 05:20 25.08.2022
488 Haze 25 1011 94 10000 1.54 0 00:59 25.08.2022
489 Haze 24 1010 100 10000 1.54 330 23:26 24.08.2022
490 Clouds 23 1009 100 10000 2.57 0 22:22 24.08.2022
491 Clouds 23 1009 100 10000 2.57 0 21:34 24.08.2022
492 Clouds 23 1009 100 10000 2.57 0 20:32 24.08.2022
493 Clouds 24 1009 94 10000 1.54 0 18:46 24.08.2022
494 Rain 24 1010 94 10000 1.54 0 16:28 24.08.2022
495 Rain 25 1010 88 10000 2.57 350 15:51 24.08.2022
496 Clouds 26 1011 89 10000 5.14 120 12:55 24.08.2022
497 Clouds 26 1010 94 10000 7.72 150 11:24 24.08.2022
498 Clouds 27 1008 94 7000 9.26 150 09:33 24.08.2022
499 Haze 28 1008 83 10000 5.66 160 07:47 24.08.2022
500 Haze 29 1012 74 10000 4.12 160 02:25 24.08.2022
501 Clouds 25 1010 94 10000 1.54 0 22:59 23.08.2022
502 Clouds 25 1010 94 10000 1.54 0 22:29 23.08.2022
503 Clouds 25 1009 94 10000 2.57 140 21:27 23.08.2022
504 Clouds 25 1009 94 10000 2.57 140 19:54 23.08.2022
505 Clouds 25 1009 94 10000 5.14 150 18:30 23.08.2022
506 Clouds 26 1010 89 10000 5.14 160 17:46 23.08.2022
507 Clouds 26 1010 89 10000 3.6 0 16:35 23.08.2022
508 Clouds 26 1010 89 10000 5.66 160 15:20 23.08.2022
509 Clouds 26 1010 89 10000 5.14 150 13:25 23.08.2022
510 Clouds 26 1009 89 10000 7.72 140 11:21 23.08.2022
511 Haze 27 1008 89 10000 11.32 150 10:35 23.08.2022
512 Haze 27 1008 83 10000 5.14 140 09:46 23.08.2022
513 Haze 27 1008 83 10000 8.75 140 08:48 23.08.2022
514 Haze 27 1008 83 10000 8.75 140 08:20 23.08.2022
515 Haze 29 1007 74 10000 7.72 140 07:34 23.08.2022
516 Haze 31 1008 66 10000 7.72 160 06:26 23.08.2022
517 Clouds 28 1012 74 10000 1.54 0 01:55 23.08.2022
518 Clouds 28 1012 74 10000 1.54 0 01:55 23.08.2022
519 Clouds 27 1011 78 10000 1.54 0 00:27 23.08.2022
520 Clouds 25 1011 88 10000 1.54 0 23:32 22.08.2022
521 Clouds 24 1010 94 10000 1.54 0 22:32 22.08.2022
522 Clouds 25 1010 88 10000 1.54 0 21:22 22.08.2022
523 Clouds 24 1010 94 10000 2.57 140 19:47 22.08.2022
524 Clouds 24 1010 94 10000 2.57 130 18:38 22.08.2022
525 Clouds 25 1010 88 10000 5.14 170 16:31 22.08.2022
526 Clouds 26 1011 83 10000 7.72 170 15:38 22.08.2022
527 Clouds 26 1010 83 10000 7.72 160 12:57 22.08.2022
528 Rain 26 1008 89 10000 5.14 160 10:20 22.08.2022
529 Haze 29 1007 74 10000 5.14 160 07:40 22.08.2022
530 Clouds 28 1012 74 10000 1.54 0 02:50 22.08.2022
531 Clouds 24 1012 94 10000 1.54 0 00:37 22.08.2022
532 Clouds 23 1011 94 10000 1.54 0 23:43 21.08.2022
533 Clouds 24 1010 88 10000 2.57 130 21:57 21.08.2022
534 Clouds 24 1010 88 10000 2.57 130 21:21 21.08.2022
535 Clouds 23 1010 91 10000 3.91 122 20:21 21.08.2022
536 Clouds 24 1011 88 10000 5.14 120 18:59 21.08.2022
537 Clouds 24 1012 88 10000 5.14 150 16:52 21.08.2022
538 Clouds 24 1013 88 10000 5.14 150 15:52 21.08.2022
539 Clouds 25 1013 83 10000 5.14 150 14:57 21.08.2022
540 Clouds 25 1013 83 10000 5.14 150 13:51 21.08.2022
541 Clouds 26 1012 78 10000 5.14 150 12:56 21.08.2022
542 Clouds 26 1011 78 10000 10.29 160 10:41 21.08.2022
543 Clouds 26 1010 78 10000 10.29 160 09:21 21.08.2022
544 Clouds 26 1010 78 10000 10.29 160 08:46 21.08.2022
545 Clouds 26 1010 78 10000 10.29 160 08:28 21.08.2022
546 Clouds 27 1010 74 10000 10.29 150 06:37 21.08.2022
547 Haze 27 1013 65 10000 5.66 160 01:50 21.08.2022
548 Haze 22 1013 83 10000 0.51 0 23:34 20.08.2022
549 Clouds 20 1011 94 10000 1.54 0 21:55 20.08.2022
550 Clouds 21 1011 83 10000 1.54 0 20:51 20.08.2022
551 Clouds 21 1011 83 10000 1.54 0 19:44 20.08.2022
552 Clouds 22 1012 78 10000 1.54 0 18:48 20.08.2022
553 Clouds 22 1012 78 10000 1.54 0 18:26 20.08.2022
554 Clouds 22 1013 88 10000 1.54 120 17:21 20.08.2022
555 Clouds 22 1013 83 10000 1.54 0 15:57 20.08.2022
556 Clouds 24 1014 74 10000 5.66 130 14:20 20.08.2022
557 Clouds 26 1013 57 10000 7.72 140 11:56 20.08.2022
558 Clouds 26 1013 57 10000 7.72 140 11:36 20.08.2022
559 Haze 27 1012 65 10000 4.63 160 09:20 20.08.2022
560 Haze 29 1011 54 10000 5.66 160 07:30 20.08.2022
561 Haze 29 1013 65 10000 7.72 160 04:50 20.08.2022
562 Haze 24 1014 83 10000 5.14 150 00:57 20.08.2022
563 Haze 23 1013 83 10000 3.6 140 23:26 19.08.2022
564 Clouds 23 1013 83 10000 2.57 130 22:44 19.08.2022
565 Clouds 24 1012 78 10000 2.57 120 20:47 19.08.2022
566 Clouds 24 1013 83 10000 1.54 0 18:59 19.08.2022
567 Clouds 24 1013 83 10000 1.54 0 18:59 19.08.2022
568 Clouds 24 1013 83 10000 5.14 100 15:58 19.08.2022
569 Clouds 24 1013 78 10000 7.72 140 13:42 19.08.2022
570 Clouds 25 1012 78 10000 7.72 150 11:46 19.08.2022
571 Haze 26 1011 73 10000 6.17 160 10:31 19.08.2022
572 Haze 27 1010 65 10000 5.66 160 08:31 19.08.2022
573 Clouds 29 1013 48 10000 10.29 150 03:39 19.08.2022
574 Haze 25 1014 65 10000 3.6 0 00:38 19.08.2022
575 Haze 24 1013 73 10000 3.6 135 23:56 18.08.2022
576 Clouds 24 1013 73 10000 5.14 150 22:54 18.08.2022
577 Clouds 24 1013 73 10000 5.14 150 22:22 18.08.2022
578 Clouds 24 1013 73 10000 3.6 150 21:45 18.08.2022
579 Clouds 23 1012 83 10000 1.54 0 20:42 18.08.2022
580 Clouds 23 1012 78 10000 1.54 0 19:32 18.08.2022
581 Clouds 23 1012 78 10000 1.54 0 18:29 18.08.2022
582 Clouds 24 1013 73 10000 2.57 140 17:29 18.08.2022
583 Clouds 24 1014 69 10000 6.17 140 15:27 18.08.2022
584 Clouds 24 1014 73 10000 7.72 160 14:20 18.08.2022
585 Clouds 24 1014 73 10000 5.14 150 13:36 18.08.2022
586 Clouds 25 1013 69 10000 7.72 160 12:26 18.08.2022
587 Haze 25 1012 73 10000 7.72 160 10:22 18.08.2022
588 Haze 26 1012 69 10000 7.72 160 09:42 18.08.2022
589 Haze 27 1011 65 10000 9.26 160 07:24 18.08.2022
590 Haze 29 1012 58 10000 7.72 160 04:47 18.08.2022
591 Clouds 24 1013 69 10000 6.17 140 23:49 17.08.2022
592 Clouds 24 1012 69 10000 7.72 140 21:54 17.08.2022
593 Clouds 24 1012 69 10000 7.72 140 20:20 17.08.2022
594 Clouds 24 1012 73 10000 7.72 140 19:31 17.08.2022
595 Clouds 25 1012 69 10000 7.72 140 17:37 17.08.2022
596 Clouds 25 1013 69 10000 7.72 140 16:39 17.08.2022
597 Clouds 25 1013 69 10000 7.72 130 15:30 17.08.2022
598 Clouds 25 1013 69 10000 5.14 150 13:31 17.08.2022
599 Clouds 26 1012 61 10000 7.72 150 11:39 17.08.2022
600 Clouds 28 1011 54 10000 6.69 160 09:59 17.08.2022
601 Clouds 29 1010 45 10000 10.29 160 08:24 17.08.2022
602 Haze 29 1013 51 10000 5.14 210 03:39 17.08.2022
603 Haze 25 1014 69 10000 5.14 160 00:24 17.08.2022
604 Clouds 23 1013 83 10000 4.39 128 22:41 16.08.2022
605 Clouds 23 1011 88 10000 1.54 0 20:58 16.08.2022
606 Clouds 23 1011 88 10000 1.54 0 19:54 16.08.2022
607 Clear 23 1011 88 10000 2.57 0 18:43 16.08.2022
608 Clear 23 1012 88 10000 2.57 160 17:43 16.08.2022
609 Clouds 24 1012 88 10000 4.63 150 15:52 16.08.2022
610 Clouds 25 1013 78 10000 7.72 150 14:55 16.08.2022
611 Clouds 25 1013 78 10000 7.72 150 14:37 16.08.2022
612 Clouds 25 1012 83 10000 6.17 150 12:58 16.08.2022
613 Clouds 25 1010 88 8000 9.26 150 10:59 16.08.2022
614 Haze 26 1009 83 10000 10.29 160 09:50 16.08.2022
615 Clouds 27 1009 83 10000 9.26 160 08:47 16.08.2022
616 Clouds 29 1009 70 10000 9.26 160 07:58 16.08.2022
617 Clouds 28 1012 74 10000 1.54 0 02:50 16.08.2022
618 Clouds 24 1010 94 10000 1.54 0 22:31 15.08.2022
619 Clouds 24 1010 94 10000 2.57 110 21:55 15.08.2022
620 Clouds 24 1010 94 10000 2.57 110 21:34 15.08.2022
621 Clouds 25 1010 88 10000 5.14 120 20:20 15.08.2022
622 Clouds 25 1010 88 10000 7.72 140 18:42 15.08.2022
623 Clouds 25 1010 94 10000 10.29 150 17:36 15.08.2022
624 Clouds 24 1011 91 10000 3.35 124 16:22 15.08.2022
625 Clouds 26 1011 89 10000 5.14 150 13:57 15.08.2022
626 Clouds 26 1010 89 10000 5.14 150 12:37 15.08.2022
627 Clouds 26 1008 89 10000 5.14 150 10:18 15.08.2022
628 Clouds 27 1008 83 10000 7.72 180 08:42 15.08.2022
629 Clouds 29 1008 74 10000 5.14 160 06:27 15.08.2022
630 Clouds 28 1011 78 10000 5.14 150 02:40 15.08.2022
631 Clouds 25 1010 94 10000 3.09 120 22:40 14.08.2022
632 Clouds 25 1009 94 10000 5.14 160 21:39 14.08.2022
633 Clouds 25 1009 94 10000 2.57 160 20:29 14.08.2022
634 Clouds 25 1009 94 10000 2.57 160 19:32 14.08.2022
635 Clouds 25 1010 94 10000 5.14 160 18:20 14.08.2022
636 Clouds 25 1010 94 10000 5.14 160 16:55 14.08.2022
637 Clouds 25 1011 100 10000 5.14 160 15:51 14.08.2022
638 Clouds 25 1011 94 10000 5.14 150 14:37 14.08.2022
639 Clouds 25 1010 94 10000 5.14 150 13:50 14.08.2022
640 Clouds 25 1010 90 10000 5.14 143 13:24 14.08.2022
641 Clouds 26 1010 89 10000 5.14 160 12:34 14.08.2022
642 Clouds 25 1009 90 10000 5.92 148 11:18 14.08.2022
643 Clouds 29 1008 74 10000 5.14 160 08:53 14.08.2022
644 Clouds 29 1008 74 10000 7.72 160 06:23 14.08.2022
645 Clouds 27 1011 89 10000 7.72 160 03:48 14.08.2022
646 Clouds 25 1011 94 500 1.03 0 00:39 14.08.2022
647 Haze 25 1010 94 10000 2.57 160 22:56 13.08.2022
648 Clouds 24 1010 92 10000 3.63 125 21:47 13.08.2022
649 Clouds 25 1009 94 10000 1.54 180 20:47 13.08.2022
650 Clouds 25 1009 94 10000 3.6 140 19:46 13.08.2022
651 Clouds 24 1010 93 10000 4.21 134 18:19 13.08.2022
652 Rain 26 1011 89 10000 5.14 160 15:40 13.08.2022
653 Rain 26 1011 89 10000 5.14 160 14:32 13.08.2022
654 Clouds 24 1011 92 10000 4.48 139 13:46 13.08.2022
655 Haze 26 1009 89 10000 5.14 160 11:53 13.08.2022
656 Haze 27 1009 83 10000 5.14 160 10:31 13.08.2022
657 Haze 29 1008 74 10000 8.23 180 09:19 13.08.2022
658 Clouds 30 1010 66 10000 6.17 230 05:57 13.08.2022
659 Haze 23 1011 94 7000 1.54 0 00:30 13.08.2022
660 Clouds 23 1010 94 10000 1.03 0 22:23 12.08.2022
661 Clouds 24 1009 94 10000 1.54 0 20:58 12.08.2022
662 Clouds 24 1009 94 10000 1.03 0 19:43 12.08.2022
663 Clouds 24 1009 94 10000 1.03 0 18:58 12.08.2022
664 Clouds 24 1010 94 10000 2.57 140 17:57 12.08.2022
665 Clouds 25 1011 88 10000 1.54 0 16:24 12.08.2022
666 Clouds 25 1011 83 10000 2.57 170 14:47 12.08.2022
667 Clouds 26 1010 83 10000 5.14 160 12:57 12.08.2022
668 Clouds 25 1010 89 10000 5.94 139 11:19 12.08.2022
669 Haze 28 1008 78 10000 5.66 160 08:47 12.08.2022
670 Haze 29 1008 74 10000 6.69 160 07:26 12.08.2022
671 Haze 30 1011 62 10000 5.14 160 03:35 12.08.2022
672 Haze 25 1011 83 10000 2.06 0 00:28 12.08.2022
673 Haze 24 1011 83 10000 4.12 150 23:35 11.08.2022
674 Clouds 24 1010 83 10000 2.57 140 22:28 11.08.2022
675 Clouds 23 1010 88 10000 3.09 140 21:43 11.08.2022
676 Clouds 23 1010 88 10000 2.06 140 20:59 11.08.2022
677 Clouds 23 1010 88 10000 2.06 140 20:20 11.08.2022
678 Clouds 23 1010 88 10000 2.06 180 19:32 11.08.2022
679 Clouds 24 1010 83 10000 3.09 120 17:48 11.08.2022
680 Clouds 25 1010 83 10000 10.29 160 16:37 11.08.2022
681 Clouds 24 1010 85 10000 6.06 127 15:25 11.08.2022
682 Clouds 26 1010 73 10000 10.29 140 13:37 11.08.2022
683 Haze 28 1008 74 10000 10.29 150 10:58 11.08.2022
684 Haze 31 1008 58 10000 9.77 150 07:47 11.08.2022
685 Clouds 30 1010 62 10000 6.17 170 03:54 11.08.2022
686 Haze 26 1011 78 10000 5.14 150 00:50 11.08.2022
687 Clouds 24 1010 83 10000 2.57 120 22:32 10.08.2022
688 Clouds 23 1009 88 10000 2.57 140 21:25 10.08.2022
689 Clouds 23 1009 88 10000 3.6 130 20:55 10.08.2022
690 Clouds 25 1010 78 10000 3.6 140 19:31 10.08.2022
691 Clouds 25 1010 78 10000 4.12 150 18:22 10.08.2022
692 Clouds 25 1011 83 10000 7.72 130 16:41 10.08.2022
693 Clouds 25 1011 83 10000 7.72 150 13:36 10.08.2022
694 Clouds 26 1011 83 10000 7.72 150 12:44 10.08.2022
695 Haze 27 1009 78 10000 7.72 160 09:25 10.08.2022
696 Clouds 27 1009 78 10000 7.72 160 08:33 10.08.2022
697 Clouds 28 1008 74 10000 10.29 160 07:19 10.08.2022
698 Clouds 28 1011 74 10000 10.29 160 03:28 10.08.2022
699 Clouds 25 1011 83 10000 6.17 150 23:34 09.08.2022
700 Clouds 24 1011 86 10000 6.01 130 22:56 09.08.2022
701 Clear 25 1010 83 10000 5.14 140 21:36 09.08.2022
702 Clear 25 1009 83 10000 5.14 130 20:30 09.08.2022
703 Clear 25 1010 83 10000 5.14 130 18:44 09.08.2022
704 Clouds 26 1010 78 10000 7.72 140 17:28 09.08.2022
705 Clouds 26 1010 78 10000 7.72 140 17:28 09.08.2022
706 Clouds 26 1010 78 10000 7.72 140 16:40 09.08.2022
707 Rain 26 1010 78 10000 7.72 140 15:58 09.08.2022
708 Clouds 25 1010 80 10000 7.37 133 12:52 09.08.2022
709 Haze 29 1007 65 10000 11.83 160 09:39 09.08.2022
710 Haze 31 1006 55 10000 11.83 160 08:50 09.08.2022
711 Haze 32 1006 48 10000 10.29 160 07:52 09.08.2022
712 Clear 29 1009 62 10000 6.86 161 04:22 09.08.2022
713 Clouds 23 1009 88 10000 1.03 0 23:27 08.08.2022
714 Clear 22 1009 88 10000 1.54 160 22:54 08.08.2022
715 Clear 22 1009 88 10000 1.54 160 22:18 08.08.2022
716 Clouds 23 1009 88 10000 4.41 112 21:18 08.08.2022
717 Clear 24 1008 83 10000 5.14 140 19:51 08.08.2022
718 Clouds 24 1008 83 10000 5.14 150 18:45 08.08.2022
719 Haze 25 1009 78 10000 5.14 140 16:40 08.08.2022
720 Haze 26 1009 78 10000 5.14 150 15:39 08.08.2022
721 Haze 26 1009 78 10000 5.14 140 13:50 08.08.2022
722 Haze 28 1007 69 10000 7.72 150 11:58 08.08.2022
723 Haze 29 1006 70 10000 9.77 150 09:43 08.08.2022
724 Haze 32 1008 58 10000 5.66 150 05:43 08.08.2022
725 Haze 29 1010 70 10000 8.23 170 02:27 08.08.2022
726 Clouds 26 1008 83 10000 3.09 140 22:25 07.08.2022
727 Clouds 26 1008 83 10000 4.12 140 21:38 07.08.2022
728 Clouds 26 1008 83 10000 3.09 140 20:25 07.08.2022
729 Clouds 26 1008 83 10000 3.09 120 19:54 07.08.2022
730 Clouds 26 1008 83 10000 3.09 120 19:33 07.08.2022
731 Clouds 26 1008 83 10000 2.57 130 18:22 07.08.2022
732 Clouds 26 1009 89 10000 5.14 140 16:54 07.08.2022
733 Clouds 27 1009 83 10000 5.14 140 15:54 07.08.2022
734 Clouds 27 1009 83 10000 7.72 150 14:39 07.08.2022
735 Clouds 27 1008 83 10000 7.72 150 12:59 07.08.2022
736 Haze 28 1007 83 10000 5.66 170 10:59 07.08.2022
737 Haze 28 1007 83 10000 5.66 170 10:28 07.08.2022
738 Haze 32 1009 62 10000 7.72 160 04:58 07.08.2022
739 Haze 31 1010 66 10000 8.23 150 03:18 07.08.2022
740 Haze 24 1010 94 10000 1.54 340 23:30 06.08.2022
741 Clouds 25 1009 94 10000 1.54 0 22:20 06.08.2022
742 Clouds 25 1008 94 10000 2.06 0 20:20 06.08.2022
743 Clouds 25 1008 94 10000 1.54 0 19:38 06.08.2022
744 Clouds 25 1008 91 10000 1.33 75 18:19 06.08.2022
745 Clear 25 1008 94 10000 1.54 0 16:33 06.08.2022
746 Clear 26 1008 89 10000 2.57 140 13:52 06.08.2022
747 Clouds 27 1008 83 10000 2.57 140 12:50 06.08.2022
748 Clouds 27 1007 83 10000 2.57 150 11:21 06.08.2022
749 Haze 28 1006 83 10000 5.66 150 09:50 06.08.2022
750 Haze 32 1006 62 10000 8.75 150 07:36 06.08.2022
751 Haze 30 1009 70 10000 4.63 140 03:24 06.08.2022
752 Haze 25 1008 94 10000 2.57 320 23:27 05.08.2022
753 Clouds 25 1007 94 10000 1.54 0 21:51 05.08.2022
754 Clouds 25 1007 94 10000 2.57 170 19:29 05.08.2022
755 Clouds 25 1007 94 10000 1.54 0 18:44 05.08.2022
756 Clouds 25 1008 94 10000 1.54 0 17:26 05.08.2022
757 Clouds 26 1008 89 10000 1.54 0 16:43 05.08.2022
758 Clouds 26 1008 89 10000 2.57 150 15:21 05.08.2022
759 Clouds 27 1008 83 10000 4.12 150 13:43 05.08.2022
760 Clouds 27 1008 83 10000 4.12 150 13:22 05.08.2022
761 Clouds 27 1008 89 10000 6.17 150 12:24 05.08.2022
762 Haze 28 1007 83 10000 2.57 160 10:30 05.08.2022
763 Haze 31 1006 70 10000 8.75 0 07:58 05.08.2022
764 Haze 31 1006 70 10000 8.75 0 07:58 05.08.2022
765 Haze 33 1008 58 10000 5.14 190 05:30 05.08.2022
766 Fog 24 1009 100 10000 1.54 0 23:51 04.08.2022
767 Clouds 24 1008 88 10000 0.38 58 21:58 04.08.2022
768 Clouds 24 1007 88 10000 0.9 41 21:25 04.08.2022
769 Clouds 24 1007 88 10000 0.9 41 20:41 04.08.2022
770 Haze 24 1007 100 10000 1.54 0 19:21 04.08.2022
771 Haze 25 1007 94 10000 1.54 0 18:34 04.08.2022
772 Haze 25 1007 94 10000 1.54 0 17:28 04.08.2022
773 Clouds 27 1008 89 10000 6.17 140 13:35 04.08.2022
774 Clouds 28 1007 78 10000 5.66 160 11:46 04.08.2022
775 Haze 28 1007 83 10000 6.17 170 10:27 04.08.2022
776 Haze 33 1006 55 10000 7.72 190 07:50 04.08.2022
777 Haze 31 1009 66 10000 5.66 150 03:33 04.08.2022
778 Haze 28 1010 78 10000 2.06 0 01:42 04.08.2022
779 Haze 25 1009 94 10000 1.54 0 23:41 03.08.2022
780 Fog 25 1008 88 10000 0 0 21:34 03.08.2022
781 Fog 24 1007 94 10000 0 0 20:22 03.08.2022
782 Clouds 25 1007 94 10000 1.54 0 19:28 03.08.2022
783 Clouds 26 1008 89 10000 5.14 150 17:20 03.08.2022
784 Clouds 26 1009 89 10000 5.14 130 16:23 03.08.2022
785 Clouds 27 1008 83 10000 5.14 140 14:23 03.08.2022
786 Clouds 28 1006 83 10000 5.14 150 11:46 03.08.2022
787 Clouds 32 1006 66 10000 5.14 150 07:45 03.08.2022
788 Clouds 28 1009 72 10000 1.85 195 04:22 03.08.2022
789 Haze 30 1010 70 10000 5.14 200 03:24 03.08.2022
790 Smoke 26 1010 89 10000 1.54 0 00:58 03.08.2022
791 Fog 23 1009 100 10000 1.54 0 22:49 02.08.2022
792 Clouds 23 1009 94 10000 2.57 0 21:52 02.08.2022
793 Clear 24 1008 94 10000 1.31 62 20:37 02.08.2022
794 Clear 25 1008 88 10000 1.54 0 18:39 02.08.2022
795 Clouds 26 1010 89 10000 5.14 140 15:27 02.08.2022
796 Clouds 27 1009 89 10000 5.14 160 11:30 02.08.2022
797 Clouds 31 1007 66 10000 7.72 150 08:59 02.08.2022
798 Clouds 31 1007 66 10000 7.72 160 07:52 02.08.2022
799 Clouds 31 1007 66 10000 7.72 160 06:41 02.08.2022
800 Haze 31 1009 66 10000 5.14 120 04:31 02.08.2022
801 Clouds 25 1009 94 10000 0.51 0 23:35 01.08.2022
802 Clouds 24 1009 100 10000 1.54 0 22:22 01.08.2022
803 Clouds 24 1008 100 10000 2.06 0 20:47 01.08.2022
804 Clouds 24 1008 100 10000 2.57 0 19:22 01.08.2022
805 Clouds 25 1008 94 10000 3.09 0 17:57 01.08.2022
806 Clouds 25 1009 94 10000 2.57 310 16:52 01.08.2022
807 Clouds 26 1009 89 10000 2.57 130 15:51 01.08.2022
808 Clouds 26 1009 89 10000 2.57 130 15:29 01.08.2022
809 Clouds 26 1008 94 10000 2.57 150 13:45 01.08.2022
810 Clouds 27 1008 89 10000 2.57 160 11:49 01.08.2022
811 Haze 29 1007 74 10000 2.57 160 09:39 01.08.2022
812 Haze 29 1006 74 10000 7.72 140 08:21 01.08.2022
813 Haze 30 1008 70 10000 7.72 210 04:45 01.08.2022
814 Haze 28 1010 78 10000 5.14 170 02:31 01.08.2022
815 Fog 25 1009 100 3000 1.54 140 23:43 31.07.2022
816 Fog 25 1008 94 1000 3.09 320 22:36 31.07.2022
817 Clouds 24 1008 90 10000 1.37 23 20:50 31.07.2022
818 Clouds 24 1008 94 10000 2.06 0 19:40 31.07.2022
819 Clouds 25 1009 94 10000 0.51 0 17:44 31.07.2022
820 Clouds 25 1009 91 10000 2.85 117 15:30 31.07.2022
821 Clouds 26 1009 89 10000 5.14 140 13:31 31.07.2022
822 Haze 27 1007 83 10000 5.14 150 11:45 31.07.2022
823 Smoke 30 1006 74 10000 5.14 140 09:27 31.07.2022
824 Haze 31 1007 66 10000 7.72 140 06:37 31.07.2022
825 Haze 30 1009 70 10000 3.6 0 02:57 31.07.2022
826 Haze 24 1009 94 10000 1.54 0 23:29 30.07.2022
827 Clouds 25 1009 88 10000 1.54 0 22:19 30.07.2022
828 Clouds 25 1009 88 10000 1.54 0 21:40 30.07.2022
829 Clouds 24 1009 91 10000 4.31 119 20:51 30.07.2022
830 Clouds 25 1009 88 10000 4.12 150 19:58 30.07.2022
831 Clouds 25 1009 88 10000 2.57 120 18:26 30.07.2022
832 Clouds 24 1009 91 10000 5.53 126 16:54 30.07.2022
833 Clouds 25 1010 94 10000 5.14 150 15:35 30.07.2022
834 Clouds 26 1009 89 10000 5.14 145 14:32 30.07.2022
835 Clouds 26 1009 89 10000 7.72 140 12:43 30.07.2022
836 Haze 27 1008 83 10000 7.72 150 11:55 30.07.2022
837 Haze 27 1008 83 10000 7.72 150 10:20 30.07.2022
838 Haze 28 1007 78 10000 10.29 150 09:42 30.07.2022
839 Haze 30 1007 74 10000 7.72 160 07:44 30.07.2022
840 Haze 29 1010 70 10000 2.57 160 02:34 30.07.2022
841 Clouds 27 1010 78 10000 2.57 0 01:21 30.07.2022
842 Clouds 24 1008 94 10000 4.12 130 21:39 29.07.2022
843 Clouds 24 1008 88 10000 2.57 160 20:57 29.07.2022
844 Clouds 24 1008 90 10000 3.62 118 19:48 29.07.2022
845 Clouds 25 1008 88 10000 5.14 140 17:40 29.07.2022
846 Clouds 26 1009 89 10000 4.12 150 14:53 29.07.2022
847 Clouds 26 1009 89 10000 5.14 150 12:58 29.07.2022
848 Haze 28 1006 78 10000 10.29 150 09:35 29.07.2022
849 Haze 29 1006 74 10000 10.29 160 08:46 29.07.2022
850 Haze 30 1006 70 10000 7.72 150 07:30 29.07.2022
851 Haze 28 1010 74 10000 5.14 160 01:46 29.07.2022
852 Clouds 25 1008 83 10000 5.14 130 21:54 28.07.2022
853 Clouds 25 1008 88 10000 5.14 130 20:54 28.07.2022
854 Clouds 25 1008 88 10000 5.14 130 20:21 28.07.2022
855 Clouds 25 1008 88 10000 5.14 120 19:41 28.07.2022
856 Clouds 24 1008 94 10000 5.14 130 18:26 28.07.2022
857 Clouds 25 1009 88 10000 6.17 130 17:42 28.07.2022
858 Clouds 25 1009 88 10000 7.72 140 16:41 28.07.2022
859 Clouds 26 1010 83 10000 7.72 150 14:50 28.07.2022
860 Clouds 26 1009 83 10000 7.72 160 12:41 28.07.2022
861 Haze 28 1007 74 10000 7.72 150 09:34 28.07.2022
862 Haze 31 1008 66 10000 10.29 140 05:45 28.07.2022
863 Haze 31 1008 66 10000 10.29 140 05:24 28.07.2022
864 Haze 27 1010 78 10000 6.17 140 00:29 28.07.2022
865 Clouds 25 1009 88 10000 5.14 150 22:25 27.07.2022
866 Clouds 25 1009 88 10000 5.66 150 20:20 27.07.2022
867 Clouds 25 1009 88 10000 5.66 150 19:32 27.07.2022
868 Clouds 26 1010 83 10000 7.72 150 16:34 27.07.2022
869 Clouds 25 1011 94 10000 7.72 140 15:51 27.07.2022
870 Clouds 25 1010 88 10000 7.72 150 14:42 27.07.2022
871 Clouds 26 1010 83 10000 7.72 140 13:58 27.07.2022
872 Clouds 26 1009 89 10000 7.72 150 11:49 27.07.2022
873 Haze 29 1007 74 10000 10.29 160 07:53 27.07.2022
874 Haze 28 1009 78 10000 7.72 160 05:23 27.07.2022
875 Clouds 25 1010 88 10000 2.57 140 23:41 26.07.2022
876 Clouds 25 1009 88 10000 3.6 140 22:20 26.07.2022
877 Clouds 23 1009 90 10000 2.2 81 21:18 26.07.2022
878 Clouds 25 1009 88 10000 4.63 150 19:33 26.07.2022
879 Clouds 25 1009 88 10000 6.69 140 18:41 26.07.2022
880 Clouds 25 1010 88 10000 6.69 150 17:55 26.07.2022
881 Clouds 25 1010 83 10000 5.14 150 15:47 26.07.2022
882 Clouds 24 1010 88 10000 5.78 125 14:43 26.07.2022
883 Clouds 26 1010 83 10000 5.14 150 12:35 26.07.2022
884 Clouds 27 1008 78 10000 10.8 150 10:35 26.07.2022
885 Clouds 29 1007 74 10000 10.8 150 08:29 26.07.2022
886 Haze 29 1010 74 10000 7.72 130 02:25 26.07.2022
887 Clouds 26 1010 83 10000 5.14 130 00:21 26.07.2022
888 Clouds 23 1009 100 10000 2.57 130 22:40 25.07.2022
889 Haze 24 1009 94 10000 2.57 140 21:44 25.07.2022
890 Clouds 25 1008 88 10000 2.57 130 20:46 25.07.2022
891 Clouds 25 1008 88 10000 2.57 130 20:24 25.07.2022
892 Clouds 25 1009 88 10000 4.51 122 19:25 25.07.2022
893 Clouds 25 1010 94 10000 6.17 150 17:56 25.07.2022
894 Clouds 25 1010 94 10000 6.17 150 17:20 25.07.2022
895 Clouds 26 1009 89 10000 7.72 150 13:36 25.07.2022
896 Clouds 26 1008 89 10000 10.29 150 10:55 25.07.2022
897 Clouds 30 1007 70 10000 10.29 140 07:59 25.07.2022
898 Haze 29 1011 74 10000 4.12 120 01:36 25.07.2022
899 Clouds 25 1010 94 10000 4.12 150 23:45 24.07.2022
900 Clouds 25 1009 94 10000 4.63 140 22:47 24.07.2022
901 Clouds 25 1009 94 10000 7.2 150 21:42 24.07.2022
902 Clouds 25 1009 94 10000 5.14 150 20:59 24.07.2022
903 Clouds 25 1009 94 10000 5.14 150 20:41 24.07.2022
904 Clouds 26 1009 89 10000 7.2 150 19:20 24.07.2022
905 Clouds 26 1009 89 10000 7.72 150 17:57 24.07.2022
906 Clouds 26 1010 89 10000 7.72 150 15:55 24.07.2022
907 Clouds 26 1010 89 10000 7.72 150 14:47 24.07.2022
908 Clouds 26 1009 89 10000 7.72 150 13:49 24.07.2022
909 Clouds 26 1010 87 10000 6.71 140 12:28 24.07.2022
910 Clouds 26 1009 89 10000 7.72 150 11:30 24.07.2022
911 Haze 28 1008 78 10000 7.72 150 09:48 24.07.2022
912 Haze 30 1008 70 10000 7.72 160 07:57 24.07.2022
913 Haze 30 1008 70 10000 7.72 160 07:31 24.07.2022
914 Clouds 29 1011 74 10000 5.14 150 02:57 24.07.2022
915 Clouds 25 1010 94 10000 7.72 160 22:52 23.07.2022
916 Clouds 25 1009 94 10000 10.29 150 20:47 23.07.2022
917 Clouds 25 1009 94 10000 7.72 150 19:25 23.07.2022
918 Clouds 24 1010 91 10000 4.62 124 18:18 23.07.2022
919 Clouds 26 1010 89 10000 7.72 150 17:27 23.07.2022
920 Clouds 26 1010 89 10000 5.14 150 16:22 23.07.2022
921 Clouds 26 1011 89 10000 5.14 150 15:21 23.07.2022
922 Clouds 26 1011 89 10000 5.14 160 14:52 23.07.2022
923 Clouds 26 1011 89 10000 5.14 160 14:21 23.07.2022
924 Clouds 27 1009 83 10000 6.17 160 11:55 23.07.2022
925 Clouds 27 1009 89 10000 11.83 160 10:37 23.07.2022
926 Clouds 28 1008 83 10000 13.89 160 09:34 23.07.2022
927 Clouds 30 1008 74 10000 11.32 150 06:46 23.07.2022
928 Haze 30 1010 70 10000 5.14 160 03:37 23.07.2022
929 Clouds 25 1012 86 10000 1.68 105 00:27 23.07.2022
930 Clouds 25 1010 94 10000 5.14 160 21:33 22.07.2022
931 Clouds 25 1010 94 10000 2.57 140 20:31 22.07.2022
932 Clouds 26 1010 89 10000 5.14 150 18:42 22.07.2022
933 Clouds 26 1010 89 10000 5.14 150 17:39 22.07.2022
934 Clouds 26 1010 89 10000 7.2 150 15:46 22.07.2022
935 Clouds 27 1010 83 10000 7.72 160 12:47 22.07.2022
936 Haze 29 1009 70 10000 7.72 150 09:56 22.07.2022
937 Haze 29 1009 70 10000 7.72 150 09:21 22.07.2022
938 Haze 30 1008 70 10000 5.14 140 07:51 22.07.2022
939 Clouds 31 1010 62 10000 2.57 140 04:22 22.07.2022
940 Clouds 25 1011 88 10000 3.6 140 23:29 21.07.2022
941 Clouds 25 1010 94 10000 5.14 150 21:39 21.07.2022
942 Clouds 25 1009 88 10000 2.17 122 19:42 21.07.2022
943 Clouds 25 1009 89 10000 2.37 127 18:30 21.07.2022
944 Clouds 25 1010 89 10000 2.6 131 17:21 21.07.2022
945 Clouds 26 1011 89 10000 5.14 170 15:58 21.07.2022
946 Clouds 26 1011 89 10000 5.14 160 14:46 21.07.2022
947 Clouds 26 1011 89 10000 5.14 170 13:49 21.07.2022
948 Clouds 25 1010 90 10000 3.28 140 11:48 21.07.2022
949 Clouds 28 1008 78 10000 4.63 150 09:54 21.07.2022
950 Clouds 30 1008 66 10000 4.63 190 08:53 21.07.2022
951 Clouds 30 1008 70 10000 4.63 200 07:50 21.07.2022
952 Clouds 31 1008 66 10000 4.63 190 06:27 21.07.2022
953 Clouds 27 1011 75 10000 1.39 236 02:35 21.07.2022
954 Fog 24 1010 100 5000 1.54 0 22:46 20.07.2022
955 Clouds 24 1010 88 10000 1.52 127 22:18 20.07.2022
956 Clouds 24 1009 87 10000 0.9 116 20:46 20.07.2022
957 Clouds 24 1009 89 10000 0.68 34 19:46 20.07.2022
958 Clouds 24 1009 89 10000 0.93 30 18:53 20.07.2022
959 Clouds 24 1009 89 10000 0.93 30 18:30 20.07.2022
960 Clouds 25 1010 87 10000 0.71 21 17:24 20.07.2022
961 Clouds 26 1011 89 10000 1.54 0 15:32 20.07.2022
962 Clouds 26 1011 94 10000 1.54 0 14:35 20.07.2022
963 Clouds 26 1010 94 10000 4.12 150 12:51 20.07.2022
964 Clouds 27 1009 83 10000 5.14 150 10:29 20.07.2022
965 Clouds 26 1008 80 10000 2.11 202 05:52 20.07.2022
966 Clouds 25 1010 88 10000 1.54 0 00:58 20.07.2022
967 Clouds 25 1010 88 10000 1.54 0 00:40 20.07.2022
968 Clouds 23 1009 100 10000 1.03 0 22:35 19.07.2022
969 Clouds 23 1009 100 10000 2.06 0 21:54 19.07.2022
970 Clouds 23 1009 100 10000 3.09 0 20:49 19.07.2022
971 Clouds 23 1009 94 10000 2.06 0 19:22 19.07.2022
972 Clouds 23 1009 100 10000 1.54 0 18:35 19.07.2022
973 Clouds 23 1009 100 10000 1.54 0 17:53 19.07.2022
974 Rain 24 1010 100 10000 1.54 150 15:26 19.07.2022
975 Clouds 23 1010 100 10000 5.14 70 12:44 19.07.2022
976 Clouds 23 1009 100 10000 5.14 70 11:32 19.07.2022
977 Clouds 26 1008 94 10000 10.29 160 09:51 19.07.2022
978 Clouds 26 1007 89 10000 7.72 140 08:42 19.07.2022
979 Haze 29 1007 79 10000 7.72 160 07:19 19.07.2022
980 Haze 30 1008 70 10000 7.72 190 05:50 19.07.2022
981 Haze 30 1008 70 10000 7.72 190 05:18 19.07.2022
982 Clouds 28 1010 77 10000 3.9 158 02:33 19.07.2022
983 Clouds 25 1010 88 10000 2.17 105 23:50 18.07.2022
984 Clouds 24 1010 91 10000 2.55 107 23:19 18.07.2022
985 Clouds 24 1008 100 10000 1.54 0 22:26 18.07.2022
986 Clouds 25 1008 94 10000 1.03 0 21:20 18.07.2022
987 Clouds 24 1008 92 10000 3.32 116 19:54 18.07.2022
988 Clouds 25 1008 94 10000 2.06 0 18:24 18.07.2022
989 Clouds 25 1010 94 10000 1.03 0 16:28 18.07.2022
990 Clouds 24 1010 92 10000 4.73 130 15:19 18.07.2022
991 Clouds 26 1010 89 10000 5.14 160 13:31 18.07.2022
992 Clouds 26 1009 89 8000 7.72 160 11:34 18.07.2022
993 Haze 27 1008 83 10000 10.29 160 09:54 18.07.2022
994 Haze 28 1008 78 10000 10.29 150 07:49 18.07.2022
995 Haze 29 1011 74 10000 2.57 0 02:51 18.07.2022
996 Clouds 24 1010 94 10000 1.54 0 22:55 17.07.2022
997 Clouds 24 1010 94 10000 1.54 0 22:28 17.07.2022
998 Clouds 24 1010 90 10000 1.48 79 21:26 17.07.2022
999 Clouds 24 1010 90 10000 1.48 79 20:44 17.07.2022
1000 Clouds 24 1010 89 10000 2.07 100 19:49 17.07.2022
1001 Clouds 24 1010 89 10000 2.45 109 19:20 17.07.2022
1002 Clouds 24 1010 89 10000 3.07 114 17:39 17.07.2022
1003 Clouds 25 1011 94 10000 1.03 0 16:53 17.07.2022
1004 Clouds 25 1011 94 10000 1.03 0 16:27 17.07.2022
1005 Clouds 25 1011 94 10000 5.14 160 15:34 17.07.2022
1006 Clouds 27 1011 83 10000 5.14 140 13:47 17.07.2022
1007 Clouds 27 1010 83 10000 7.72 150 12:32 17.07.2022
1008 Haze 27 1009 83 10000 5.14 150 10:18 17.07.2022
1009 Haze 30 1009 66 10000 9.26 160 06:58 17.07.2022
1010 Haze 28 1012 61 10000 5.14 160 02:34 17.07.2022
1011 Haze 21 1012 88 10000 1.54 0 23:23 16.07.2022
1012 Clouds 21 1011 88 10000 2.57 140 21:57 16.07.2022
1013 Clouds 21 1011 88 10000 2.57 130 20:28 16.07.2022
1014 Clouds 23 1011 78 10000 2.57 160 18:42 16.07.2022
1015 Clouds 23 1012 78 10000 2.57 130 17:24 16.07.2022
1016 Clouds 24 1012 73 10000 5.14 130 15:41 16.07.2022
1017 Clouds 26 1011 73 10000 5.14 150 11:55 16.07.2022
1018 Haze 28 1010 65 10000 7.72 160 09:37 16.07.2022
1019 Haze 29 1010 61 10000 7.72 150 08:58 16.07.2022
1020 Haze 29 1010 61 10000 7.72 150 08:33 16.07.2022
1021 Clouds 31 1011 51 10000 7.72 160 05:59 16.07.2022
1022 Smoke 28 1012 57 10000 5.14 140 03:31 16.07.2022
1023 Haze 24 1012 73 10000 5.14 140 23:51 15.07.2022
1024 Clouds 24 1012 73 10000 5.14 140 22:44 15.07.2022
1025 Clouds 24 1012 73 10000 5.14 140 21:31 15.07.2022
1026 Clouds 24 1012 73 10000 5.14 140 21:31 15.07.2022
1027 Clouds 24 1012 69 10000 5.14 130 20:32 15.07.2022
1028 Clouds 24 1013 69 10000 5.14 130 18:44 15.07.2022
1029 Clouds 24 1013 73 10000 7.72 140 17:48 15.07.2022
1030 Clouds 24 1014 73 10000 7.72 140 14:57 15.07.2022
1031 Clouds 24 1014 74 10000 8.38 125 13:20 15.07.2022
1032 Clouds 23 1014 75 10000 8.81 125 11:48 15.07.2022
1033 Haze 24 1012 69 10000 7.72 140 10:42 15.07.2022
1034 Haze 28 1011 57 10000 7.72 150 07:42 15.07.2022
1035 Clouds 27 1014 65 10000 10.29 160 02:24 15.07.2022
1036 Clouds 25 1013 73 10000 2.57 140 00:38 15.07.2022
1037 Clouds 23 1012 83 10000 5.14 140 22:54 14.07.2022
1038 Clouds 23 1011 83 10000 5.14 140 21:56 14.07.2022
1039 Clouds 23 1011 83 10000 5.14 140 21:30 14.07.2022
1040 Clouds 23 1011 83 10000 5.14 150 20:45 14.07.2022
1041 Clouds 23 1011 83 10000 5.14 150 20:26 14.07.2022
1042 Clouds 23 1012 81 10000 8.08 129 19:45 14.07.2022
1043 Clouds 24 1013 78 10000 5.14 140 16:23 14.07.2022
1044 Clouds 23 1013 83 10000 5.14 140 15:50 14.07.2022
1045 Clouds 23 1013 83 10000 5.14 140 14:43 14.07.2022
1046 Clouds 23 1013 83 10000 5.14 140 13:21 14.07.2022
1047 Clouds 24 1012 78 10000 7.72 140 11:56 14.07.2022
1048 Clouds 24 1012 78 10000 7.72 140 11:24 14.07.2022
1049 Haze 25 1011 73 10000 5.14 140 10:37 14.07.2022
1050 Haze 26 1010 69 10000 10.29 150 07:55 14.07.2022
1051 Clouds 24 1012 88 5000 7.94 140 01:27 14.07.2022
1052 Clouds 24 1013 87 10000 7.94 140 00:54 14.07.2022
1053 Clouds 24 1010 88 10000 5.14 140 22:57 13.07.2022
1054 Clouds 24 1010 88 10000 5.14 140 22:22 13.07.2022
1055 Clouds 24 1010 89 10000 7.76 140 21:19 13.07.2022
1056 Clouds 25 1010 83 10000 5.14 150 19:58 13.07.2022
1057 Clouds 25 1010 83 10000 5.14 140 17:52 13.07.2022
1058 Clouds 25 1010 83 10000 7.72 150 16:46 13.07.2022
1059 Clouds 25 1011 89 10000 6.89 140 15:26 13.07.2022
1060 Clouds 25 1010 88 7000 7.72 140 12:56 13.07.2022
1061 Clouds 25 1010 88 7000 7.72 140 12:56 13.07.2022
1062 Smoke 25 1008 88 5000 7.72 150 10:46 13.07.2022
1063 Haze 25 1008 88 5000 7.72 150 10:25 13.07.2022
1064 Smoke 26 1008 89 5000 7.72 160 09:25 13.07.2022
1065 Haze 30 1008 66 10000 7.72 160 06:46 13.07.2022
1066 Clouds 30 1010 70 10000 5.14 160 02:38 13.07.2022
1067 Clouds 25 1010 88 10000 5.66 130 23:52 12.07.2022
1068 Clouds 24 1009 88 10000 3.09 124 21:58 12.07.2022
1069 Clouds 24 1009 88 10000 3.09 124 21:32 12.07.2022
1070 Clouds 26 1009 89 10000 2.57 140 20:41 12.07.2022
1071 Clouds 26 1009 89 10000 7.2 140 19:28 12.07.2022
1072 Clouds 27 1009 83 10000 7.2 150 17:50 12.07.2022
1073 Clouds 25 1010 86 10000 5.33 134 16:20 12.07.2022
1074 Clouds 27 1010 78 10000 7.72 140 14:31 12.07.2022
1075 Clouds 27 1009 78 10000 5.14 160 12:48 12.07.2022
1076 Clouds 27 1008 83 10000 7.72 160 11:26 12.07.2022
1077 Clouds 28 1007 78 10000 10.29 150 09:42 12.07.2022
1078 Clouds 30 1007 66 10000 7.72 170 08:23 12.07.2022
1079 Clouds 31 1007 66 10000 5.14 160 06:49 12.07.2022
1080 Clouds 32 1007 62 10000 5.14 160 05:42 12.07.2022
1081 Haze 30 1010 66 10000 3.6 150 02:32 12.07.2022
1082 Haze 24 1009 94 10000 1.03 0 23:30 11.07.2022
1083 Clouds 24 1009 88 10000 1.54 0 22:31 11.07.2022
1084 Clouds 24 1008 88 10000 5.14 140 20:41 11.07.2022
1085 Clouds 25 1008 88 10000 5.14 130 19:44 11.07.2022
1086 Clouds 25 1009 88 10000 5.14 140 18:32 11.07.2022
1087 Clouds 25 1009 88 10000 5.14 120 17:49 11.07.2022
1088 Clouds 26 1009 83 10000 5.14 145 16:20 11.07.2022
1089 Clouds 27 1010 78 10000 5.14 140 14:41 11.07.2022
1090 Clouds 27 1008 83 10000 5.14 150 11:58 11.07.2022
1091 Haze 28 1008 78 10000 10.8 160 10:35 11.07.2022
1092 Haze 30 1007 70 10000 7.2 160 09:43 11.07.2022
1093 Haze 30 1007 70 10000 6.69 150 08:34 11.07.2022
1094 Haze 30 1009 70 10000 5.14 170 05:52 11.07.2022
1095 Haze 26 1011 83 10000 5.14 150 00:22 11.07.2022
1096 Clouds 25 1009 88 10000 2.57 130 22:58 10.07.2022
1097 Clouds 25 1009 88 10000 5.14 130 21:51 10.07.2022
1098 Clouds 26 1009 89 10000 2.57 130 20:54 10.07.2022
1099 Clouds 26 1009 89 10000 5.14 130 19:50 10.07.2022
1100 Clouds 26 1009 89 10000 5.14 130 19:50 10.07.2022
1101 Clouds 26 1009 89 10000 5.14 140 18:49 10.07.2022
1102 Clouds 27 1009 83 10000 7.72 160 17:37 10.07.2022
1103 Clouds 27 1010 83 10000 7.2 160 16:57 10.07.2022
1104 Clouds 27 1010 83 10000 8.75 160 15:33 10.07.2022
1105 Clouds 27 1010 83 10000 10.29 120 14:30 10.07.2022
1106 Clouds 26 1010 88 10000 5.85 134 12:30 10.07.2022
1107 Clouds 27 1009 83 10000 9.26 160 11:25 10.07.2022
1108 Haze 29 1007 79 10000 8.75 160 08:46 10.07.2022
1109 Haze 30 1007 74 10000 8.23 150 07:59 10.07.2022
1110 Haze 30 1010 70 10000 1.54 0 02:50 10.07.2022
1111 Clouds 24 1009 94 10000 1.03 3 22:59 09.07.2022
1112 Clouds 24 1009 94 10000 1.03 3 22:25 09.07.2022
1113 Clouds 24 1009 94 10000 1.03 3 21:28 09.07.2022
1114 Clouds 25 1009 94 10000 1.03 120 18:45 09.07.2022
1115 Clouds 25 1009 94 10000 2.57 120 17:48 09.07.2022
1116 Clouds 26 1009 89 10000 2.57 120 16:58 09.07.2022
1117 Clouds 26 1010 89 10000 5.66 140 15:42 09.07.2022
1118 Clouds 25 1010 90 10000 4.36 127 14:44 09.07.2022
1119 Clouds 25 1010 89 10000 4.82 127 13:51 09.07.2022
1120 Clouds 25 1010 89 10000 5 130 12:48 09.07.2022
1121 Clouds 25 1009 88 10000 5.34 134 11:32 09.07.2022
1122 Haze 28 1007 78 10000 7.72 160 10:23 09.07.2022
1123 Haze 31 1007 66 10000 7.72 150 07:54 09.07.2022
1124 Haze 32 1008 62 10000 5.14 160 05:37 09.07.2022
1125 Haze 30 1009 66 10000 4.12 150 03:29 09.07.2022
1126 Clouds 25 1009 88 10000 1.54 0 22:59 08.07.2022
1127 Clouds 25 1008 88 10000 1.54 0 21:59 08.07.2022
1128 Clouds 24 1008 88 10000 2.06 150 20:55 08.07.2022
1129 Clouds 24 1008 88 10000 2.06 150 20:24 08.07.2022
1130 Clouds 24 1008 94 10000 2.57 140 18:29 08.07.2022
1131 Clouds 24 1008 94 10000 2.57 140 18:29 08.07.2022
1132 Clouds 25 1008 88 10000 4.12 140 17:21 08.07.2022
1133 Clouds 25 1008 88 10000 4.12 140 17:21 08.07.2022
1134 Clear 25 1010 89 10000 4.76 126 14:54 08.07.2022
1135 Clouds 26 1009 83 10000 5.14 140 13:45 08.07.2022
1136 Clouds 27 1008 83 10000 5.14 160 11:59 08.07.2022
1137 Clouds 26 1008 88 10000 7.03 135 10:37 08.07.2022
1138 Haze 30 1006 74 10000 10.8 150 08:37 08.07.2022
1139 Haze 31 1007 70 10000 10.29 160 06:50 08.07.2022
1140 Haze 30 1010 74 10000 5.14 160 01:31 08.07.2022
1141 Clouds 25 1010 81 10000 1.09 64 23:30 07.07.2022
1142 Clouds 24 1009 87 10000 1.45 57 22:35 07.07.2022
1143 Clear 25 1008 94 10000 0.51 0 20:36 07.07.2022
1144 Clouds 25 1008 90 10000 3.22 113 18:20 07.07.2022
1145 Clouds 27 1009 89 10000 2.57 0 16:53 07.07.2022
1146 Clouds 27 1009 89 10000 7.72 130 14:56 07.07.2022
1147 Clouds 28 1009 83 10000 7.72 140 13:25 07.07.2022
1148 Clouds 28 1009 83 10000 7.72 150 12:24 07.07.2022
1149 Clouds 28 1008 83 10000 7.72 150 11:45 07.07.2022
1150 Clouds 28 1008 83 10000 7.72 150 11:27 07.07.2022
1151 Clouds 28 1007 89 10000 7.72 150 10:42 07.07.2022
1152 Clouds 27 1007 85 10000 6.47 145 10:24 07.07.2022
1153 Clouds 32 1008 66 10000 7.2 130 06:58 07.07.2022
1154 Clouds 28 1011 72 10000 1.49 159 01:51 07.07.2022
1155 Clouds 26 1011 83 10000 1.57 98 23:36 06.07.2022
1156 Clouds 25 1010 87 10000 1.92 96 23:18 06.07.2022
1157 Clouds 24 1009 100 10000 1.54 0 22:52 06.07.2022
1158 Clouds 24 1009 100 10000 1.54 0 22:34 06.07.2022
1159 Clouds 24 1009 100 10000 1.54 0 20:36 06.07.2022
1160 Clouds 24 1009 100 10000 1.03 0 19:35 06.07.2022
1161 Clouds 25 1010 94 10000 1.54 0 17:32 06.07.2022
1162 Clouds 25 1010 100 10000 1.54 0 15:59 06.07.2022
1163 Rain 26 1011 94 10000 1.54 0 13:56 06.07.2022
1164 Clouds 26 1010 89 10000 1.54 0 12:30 06.07.2022
1165 Clouds 26 1010 89 10000 1.54 0 12:30 06.07.2022
1166 Clouds 26 1010 94 10000 1.54 0 11:44 06.07.2022
1167 Clouds 26 1009 86 10000 4.64 152 10:18 06.07.2022
1168 Clouds 29 1008 79 10000 7.72 190 07:44 06.07.2022
1169 Clouds 29 1008 79 10000 7.72 190 07:19 06.07.2022
1170 Clouds 27 1011 80 10000 0.66 75 01:20 06.07.2022
1171 Haze 23 1009 100 10000 1.54 0 22:44 05.07.2022
1172 Clouds 24 1008 94 10000 1.03 0 21:29 05.07.2022
1173 Clouds 24 1008 94 10000 2.06 0 20:35 05.07.2022
1174 Clouds 24 1008 94 10000 2.57 340 19:40 05.07.2022
1175 Clouds 24 1009 94 10000 0.51 0 18:23 05.07.2022
1176 Clouds 24 1009 94 10000 0.51 0 17:39 05.07.2022
1177 Clouds 25 1009 88 10000 1.14 53 16:36 05.07.2022
1178 Clouds 25 1009 88 10000 1.54 0 15:23 05.07.2022
1179 Clouds 25 1010 86 10000 0.91 100 13:36 05.07.2022
1180 Clouds 27 1009 89 10000 1.54 0 12:41 05.07.2022
1181 Haze 28 1007 83 10000 5.14 250 10:46 05.07.2022
1182 Haze 29 1006 79 10000 5.14 200 09:58 05.07.2022
1183 Haze 30 1006 74 10000 5.14 210 08:23 05.07.2022
1184 Clouds 28 1005 74 10000 3.05 245 07:20 05.07.2022
1185 Haze 31 1008 66 10000 5.14 230 04:39 05.07.2022
1186 Clouds 28 1009 72 10000 1.79 333 01:33 05.07.2022
1187 Clouds 25 1009 84 10000 1.96 5 23:38 04.07.2022
1188 Clouds 25 1007 94 10000 2.06 0 22:58 04.07.2022
1189 Clouds 25 1007 94 10000 2.06 0 22:19 04.07.2022
1190 Clouds 25 1007 94 10000 2.57 310 20:57 04.07.2022
1191 Clouds 25 1007 94 10000 2.57 310 20:37 04.07.2022
1192 Clouds 25 1007 94 10000 1.54 0 19:57 04.07.2022
1193 Clouds 25 1007 94 10000 1.54 0 19:37 04.07.2022
1194 Clouds 25 1007 94 10000 2.57 300 18:54 04.07.2022
1195 Clouds 26 1008 94 10000 2.57 180 16:58 04.07.2022
1196 Clouds 25 1008 89 10000 1.17 48 15:40 04.07.2022
1197 Clouds 25 1008 88 10000 1.1 122 14:19 04.07.2022
1198 Clouds 28 1007 83 10000 2.57 180 12:55 04.07.2022
1199 Haze 29 1005 79 10000 5.14 180 10:57 04.07.2022
1200 Haze 29 1005 79 10000 5.14 180 10:27 04.07.2022
1201 Haze 30 1004 70 10000 5.14 200 09:21 04.07.2022
1202 Haze 32 1005 62 10000 5.14 220 06:28 04.07.2022
1203 Haze 31 1007 66 10000 2.57 340 02:59 04.07.2022
1204 Haze 24 1007 94 10000 1.54 0 23:52 03.07.2022
1205 Clouds 24 1006 100 10000 1.54 0 22:29 03.07.2022
1206 Clouds 25 1006 94 10000 1.54 0 20:45 03.07.2022
1207 Clouds 24 1006 100 10000 1.54 0 19:43 03.07.2022
1208 Clouds 25 1006 88 10000 1.12 21 19:24 03.07.2022
1209 Clouds 25 1006 88 10000 0.98 30 18:23 03.07.2022
1210 Clouds 25 1007 94 10000 1.54 0 17:31 03.07.2022
1211 Clouds 26 1007 85 10000 0.77 69 15:27 03.07.2022
1212 Clouds 26 1007 85 10000 0.77 69 14:53 03.07.2022
1213 Clouds 26 1007 89 10000 1.03 0 13:50 03.07.2022
1214 Clouds 26 1006 89 10000 2.57 150 12:44 03.07.2022
1215 Clouds 27 1006 83 10000 2.57 180 11:47 03.07.2022
1216 Haze 28 1005 78 10000 5.14 180 10:51 03.07.2022
1217 Haze 28 1005 78 10000 5.14 180 10:33 03.07.2022
1218 Haze 31 1005 66 10000 5.14 200 07:38 03.07.2022
1219 Haze 31 1006 58 10000 5.14 220 05:34 03.07.2022
1220 Haze 25 1008 88 10000 2.57 260 00:26 03.07.2022
1221 Clouds 23 1007 100 10000 2.57 360 22:37 02.07.2022
1222 Clouds 23 1007 100 10000 2.57 360 22:18 02.07.2022
1223 Clouds 24 1007 94 10000 5.14 350 20:21 02.07.2022
1224 Clouds 25 1007 88 10000 5.14 350 19:49 02.07.2022
1225 Clouds 25 1007 94 10000 5.14 340 17:59 02.07.2022
1226 Clouds 25 1007 94 10000 5.14 340 17:37 02.07.2022
1227 Clouds 27 1007 83 10000 2.06 0 15:46 02.07.2022
1228 Clouds 27 1007 78 10000 2.06 0 12:56 02.07.2022
1229 Clouds 28 1007 83 10000 4.12 110 11:48 02.07.2022
1230 Haze 28 1006 83 10000 5.14 160 10:50 02.07.2022
1231 Haze 29 1006 79 10000 5.14 160 09:49 02.07.2022
1232 Haze 29 1006 79 10000 2.57 150 08:37 02.07.2022
1233 Haze 29 1006 79 10000 2.57 150 08:19 02.07.2022
1234 Haze 30 1009 66 10000 2.57 350 02:53 02.07.2022
1235 Haze 25 1009 94 10000 2.57 310 00:27 02.07.2022
1236 Clouds 24 1008 94 10000 1.54 0 22:59 01.07.2022
1237 Clouds 24 1008 94 10000 1.54 0 22:29 01.07.2022
1238 Clouds 24 1008 94 10000 1.54 0 21:37 01.07.2022
1239 Clouds 24 1008 87 10000 2.68 15 20:58 01.07.2022
1240 Clouds 24 1007 87 10000 2.26 354 20:20 01.07.2022
1241 Clouds 24 1008 94 10000 1.54 0 19:34 01.07.2022
1242 Clouds 24 1008 100 10000 2.06 0 16:40 01.07.2022
1243 Clouds 26 1009 94 10000 1.54 0 14:29 01.07.2022
1244 Clouds 26 1009 94 10000 1.54 0 13:33 01.07.2022
1245 Haze 29 1007 74 10000 5.14 200 10:53 01.07.2022
1246 Haze 29 1007 74 10000 5.14 200 10:19 01.07.2022
1247 Haze 31 1007 70 10000 2.57 200 06:21 01.07.2022
1248 Clear 28 1009 72 10000 1.38 177 02:19 01.07.2022
1249 Haze 23 1009 94 10000 1.54 0 23:34 30.06.2022
1250 Clouds 23 1009 100 10000 1.03 0 22:50 30.06.2022
1251 Clouds 23 1009 100 10000 1.03 0 22:31 30.06.2022
1252 Clouds 23 1008 100 10000 1.03 0 21:53 30.06.2022
1253 Clouds 24 1008 94 10000 1.03 0 20:45 30.06.2022
1254 Clouds 24 1008 94 10000 1.03 0 20:18 30.06.2022
1255 Clouds 23 1008 100 10000 0 0 19:47 30.06.2022
1256 Clear 24 1008 94 10000 1.03 0 18:49 30.06.2022
1257 Clear 24 1009 100 10000 1.03 0 17:49 30.06.2022
1258 Clouds 24 1009 94 10000 2.57 330 16:56 30.06.2022
1259 Clouds 24 1009 100 10000 2.57 320 15:56 30.06.2022
1260 Clouds 25 1009 94 10000 1.54 0 13:58 30.06.2022
1261 Clear 26 1008 86 10000 0.74 87 13:19 30.06.2022
1262 Clouds 26 1009 89 10000 1.54 0 12:33 30.06.2022
1263 Clouds 27 1007 78 10000 2.57 170 10:21 30.06.2022
1264 Haze 28 1007 78 10000 5.14 190 09:41 30.06.2022
1265 Haze 29 1007 79 10000 5.14 200 08:26 30.06.2022
1266 Haze 31 1006 70 10000 5.14 200 07:40 30.06.2022
1267 Haze 32 1008 58 10000 2.57 200 03:53 30.06.2022
1268 Fog 23 1008 100 10000 1.54 330 23:39 29.06.2022
1269 Fog 23 1008 100 10000 2.06 0 22:41 29.06.2022
1270 Fog 23 1008 100 10000 2.06 0 22:19 29.06.2022
1271 Clouds 24 1008 85 10000 1.54 14 20:35 29.06.2022
1272 Clouds 24 1007 86 10000 1.7 14 19:56 29.06.2022
1273 Clouds 24 1008 94 10000 1.54 0 17:55 29.06.2022
1274 Clouds 24 1008 86 10000 1.64 17 17:32 29.06.2022
1275 Clouds 24 1009 94 10000 1.54 0 16:23 29.06.2022
1276 Clouds 26 1009 94 10000 1.54 0 13:45 29.06.2022
1277 Clouds 26 1008 94 10000 2.06 130 12:38 29.06.2022
1278 Haze 30 1006 70 10000 5.14 200 09:50 29.06.2022
1279 Haze 30 1006 70 10000 5.14 200 09:26 29.06.2022
1280 Haze 31 1006 66 10000 5.14 220 06:29 29.06.2022
1281 Haze 31 1007 66 10000 5.14 220 04:44 29.06.2022
1282 Haze 24 1007 94 10000 1.54 0 00:53 29.06.2022
1283 Haze 24 1007 94 10000 1.54 0 00:34 29.06.2022
1284 Fog 23 1007 100 3000 2.06 0 22:52 28.06.2022
1285 Fog 23 1006 100 5000 1.54 0 21:59 28.06.2022
1286 Fog 23 1006 100 5000 1.54 0 21:40 28.06.2022
1287 Fog 23 1006 100 5000 1.54 0 21:22 28.06.2022
1288 Clouds 23 1006 100 10000 1.54 0 19:54 28.06.2022
1289 Clouds 23 1006 100 10000 1.54 0 19:30 28.06.2022
1290 Clouds 23 1007 94 10000 1.54 0 18:40 28.06.2022
1291 Clouds 25 1008 94 10000 1.54 0 16:58 28.06.2022
1292 Clouds 25 1008 88 10000 1.54 0 15:55 28.06.2022
1293 Clouds 25 1008 88 10000 1.54 0 14:50 28.06.2022
1294 Clouds 25 1008 88 10000 1.54 0 14:18 28.06.2022
1295 Clouds 26 1008 83 10000 1.54 0 13:45 28.06.2022
1296 Clouds 26 1007 86 10000 4.23 128 12:28 28.06.2022
1297 Haze 30 1006 70 10000 7.72 160 09:53 28.06.2022
1298 Haze 31 1006 66 10000 7.72 140 08:55 28.06.2022
1299 Haze 31 1006 66 10000 7.72 140 08:26 28.06.2022
1300 Clouds 27 1006 75 10000 2.31 198 07:20 28.06.2022
1301 Haze 30 1009 74 10000 1.54 0 02:42 28.06.2022
1302 Haze 25 1009 100 10000 2.57 0 23:51 27.06.2022
1303 Haze 25 1009 100 10000 2.57 0 23:25 27.06.2022
1304 Clouds 25 1007 100 10000 1.54 0 21:53 27.06.2022
1305 Clouds 25 1007 100 10000 1.54 0 21:21 27.06.2022
1306 Clouds 26 1007 89 10000 2.57 120 19:54 27.06.2022
1307 Clouds 26 1007 94 10000 2.57 140 18:45 27.06.2022
1308 Clouds 26 1007 94 10000 2.57 300 17:26 27.06.2022
1309 Clouds 26 1008 94 10000 1.03 0 15:43 27.06.2022
1310 Clouds 26 1008 86 10000 1.81 98 13:51 27.06.2022
1311 Clouds 27 1008 94 10000 2.57 120 12:57 27.06.2022
1312 Haze 28 1007 83 10000 5.14 160 10:51 27.06.2022
1313 Haze 30 1006 74 10000 5.14 170 09:43 27.06.2022
1314 Haze 30 1006 70 10000 5.14 170 08:38 27.06.2022
1315 Haze 31 1006 66 10000 5.14 210 07:39 27.06.2022
1316 Haze 31 1007 66 10000 5.14 240 05:19 27.06.2022
1317 Haze 29 1009 79 10000 1.54 0 01:21 27.06.2022
1318 Clouds 24 1008 94 10000 1.54 0 22:47 26.06.2022
1319 Clouds 24 1007 94 10000 1.54 0 21:23 26.06.2022
1320 Clouds 23 1007 100 10000 1.54 0 19:59 26.06.2022
1321 Clouds 24 1007 100 10000 1.54 0 18:33 26.06.2022
1322 Clouds 24 1007 100 10000 1.54 0 17:37 26.06.2022
1323 Clouds 25 1008 85 10000 1.22 35 15:31 26.06.2022
1324 Clouds 26 1008 85 10000 2.01 4 13:55 26.06.2022
1325 Clouds 26 1008 85 10000 2.04 25 13:23 26.06.2022
1326 Clouds 27 1007 89 10000 4.63 170 11:31 26.06.2022
1327 Haze 28 1005 78 10000 5.14 180 10:29 26.06.2022
1328 Haze 28 1005 78 10000 5.14 180 10:29 26.06.2022
1329 Haze 30 1005 70 10000 5.14 200 09:45 26.06.2022
1330 Haze 31 1005 66 10000 5.14 200 07:46 26.06.2022
1331 Haze 31 1008 66 10000 5.14 210 03:19 26.06.2022
1332 Haze 27 1009 89 10000 2.57 220 00:36 26.06.2022
1333 Haze 27 1009 89 10000 2.57 220 00:18 26.06.2022
1334 Haze 25 1008 94 10000 2.57 140 23:24 25.06.2022
1335 Clouds 24 1008 94 10000 2.57 140 22:28 25.06.2022
1336 Clouds 24 1007 94 10000 2.06 140 21:50 25.06.2022
1337 Clouds 24 1008 85 10000 1.34 67 21:20 25.06.2022
1338 Clouds 24 1007 100 10000 2.06 0 20:30 25.06.2022
1339 Clouds 25 1007 86 10000 1.37 35 19:55 25.06.2022
1340 Clouds 25 1007 94 10000 2.06 0 18:21 25.06.2022
1341 Clouds 24 1008 100 10000 2.06 0 17:25 25.06.2022
1342 Clouds 26 1008 89 10000 1.54 0 15:42 25.06.2022
1343 Clouds 26 1008 89 10000 2.57 160 13:51 25.06.2022
1344 Clouds 26 1007 94 10000 2.57 150 12:39 25.06.2022
1345 Clouds 26 1007 84 10000 5.32 136 10:58 25.06.2022
1346 Haze 29 1006 74 10000 5.14 150 09:22 25.06.2022
1347 Haze 30 1005 70 10000 5.14 180 08:46 25.06.2022
1348 Haze 30 1005 70 10000 5.14 180 08:46 25.06.2022
1349 Haze 30 1005 70 10000 5.14 180 08:19 25.06.2022
1350 Haze 31 1007 70 10000 5.14 230 05:23 25.06.2022
1351 Clouds 25 1009 94 10000 1.54 0 00:43 25.06.2022
1352 Clouds 24 1009 86 10000 1.54 15 23:18 24.06.2022
1353 Clear 23 1007 94 10000 1.03 0 21:57 24.06.2022
1354 Clouds 24 1008 88 10000 1.54 50 21:19 24.06.2022
1355 Clouds 24 1007 88 10000 1.61 94 20:19 24.06.2022
1356 Clouds 24 1007 88 10000 1.61 94 20:19 24.06.2022
1357 Clouds 24 1007 87 10000 3.24 123 19:22 24.06.2022
1358 Clear 24 1007 94 10000 2.57 120 18:49 24.06.2022
1359 Clear 24 1007 94 10000 2.57 120 18:30 24.06.2022
1360 Clear 25 1008 88 10000 2.57 150 17:41 24.06.2022
1361 Clouds 25 1009 88 10000 5.14 150 15:51 24.06.2022
1362 Clouds 25 1009 86 10000 5.75 124 14:28 24.06.2022
1363 Clouds 26 1010 89 10000 5.14 140 13:55 24.06.2022
1364 Clouds 27 1008 78 10000 7.72 140 11:45 24.06.2022
1365 Clouds 27 1008 78 10000 7.72 140 11:22 24.06.2022
1366 Haze 28 1007 74 10000 7.72 150 10:19 24.06.2022
1367 Haze 29 1007 74 10000 7.72 160 09:40 24.06.2022
1368 Haze 29 1006 74 10000 7.72 160 08:52 24.06.2022
1369 Haze 31 1007 70 10000 5.14 160 06:49 24.06.2022
1370 Haze 31 1007 70 10000 5.14 160 06:31 24.06.2022
1371 Haze 32 1008 62 10000 5.14 150 05:55 24.06.2022
1372 Haze 28 1010 74 10000 2.06 110 01:36 24.06.2022
1373 Clouds 23 1009 94 10000 1.54 0 22:45 23.06.2022
1374 Clouds 24 1009 88 10000 3.3 123 22:18 23.06.2022
1375 Clouds 24 1008 88 10000 5.14 150 20:54 23.06.2022
1376 Clouds 24 1008 88 10000 5.14 150 20:32 23.06.2022
1377 Clouds 24 1009 88 10000 5.14 140 18:49 23.06.2022
1378 Haze 24 1009 88 10000 5.14 150 17:45 23.06.2022
1379 Haze 25 1010 83 10000 5.14 160 16:36 23.06.2022
1380 Haze 25 1010 83 10000 5.14 160 15:31 23.06.2022
1381 Haze 25 1010 88 10000 5.14 160 14:59 23.06.2022
1382 Clouds 25 1009 87 10000 6.43 127 12:39 23.06.2022
1383 Haze 27 1009 78 10000 7.72 150 11:20 23.06.2022
1384 Haze 28 1008 78 10000 7.72 150 09:30 23.06.2022
1385 Haze 31 1008 70 10000 7.72 150 07:51 23.06.2022
1386 Haze 29 1012 70 10000 5.14 130 01:29 23.06.2022
1387 Clouds 25 1012 87 10000 4.34 111 00:25 23.06.2022
1388 Clouds 24 1012 90 10000 4.52 117 23:23 22.06.2022
1389 Clouds 25 1010 88 10000 7.72 140 21:45 22.06.2022
1390 Clouds 25 1010 88 10000 7.72 140 21:45 22.06.2022
1391 Clouds 25 1009 88 10000 7.72 130 20:52 22.06.2022
1392 Clouds 25 1009 88 10000 7.72 130 20:20 22.06.2022
1393 Clouds 25 1010 94 10000 7.72 170 19:44 22.06.2022
1394 Clouds 25 1010 94 10000 7.72 170 19:44 22.06.2022
1395 Clouds 26 1010 89 10000 7.72 160 17:50 22.06.2022
1396 Clouds 26 1011 89 10000 7.72 140 16:50 22.06.2022
1397 Clouds 26 1011 89 10000 5.14 150 15:29 22.06.2022
1398 Clouds 26 1011 89 10000 5.14 140 14:57 22.06.2022
1399 Clouds 27 1011 83 10000 7.72 150 13:49 22.06.2022
1400 Clouds 27 1011 83 10000 7.72 150 13:24 22.06.2022
1401 Clouds 26 1011 89 10000 6.72 132 12:31 22.06.2022
1402 Clouds 28 1010 78 10000 5.14 150 11:45 22.06.2022
1403 Haze 28 1009 78 10000 7.72 150 10:50 22.06.2022
1404 Haze 29 1008 79 10000 7.72 150 09:42 22.06.2022
1405 Haze 32 1008 66 10000 5.14 150 07:22 22.06.2022
1406 Haze 29 1011 79 10000 6.17 150 02:39 22.06.2022
1407 Haze 27 1010 78 10000 5.14 120 00:57 22.06.2022
1408 Clouds 23 1009 94 10000 4.12 140 22:57 21.06.2022
1409 Clouds 24 1009 88 10000 2.57 100 21:21 21.06.2022
1410 Clouds 24 1009 94 10000 5.14 160 19:30 21.06.2022
1411 Clouds 24 1009 94 10000 5.14 160 19:30 21.06.2022
1412 Clouds 25 1010 88 10000 5.14 130 17:56 21.06.2022
1413 Clouds 25 1010 88 10000 2.57 130 16:47 21.06.2022
1414 Haze 27 1008 78 10000 5.14 160 11:59 21.06.2022
1415 Haze 28 1008 78 10000 5.14 160 10:47 21.06.2022
1416 Haze 28 1007 83 10000 7.72 160 09:35 21.06.2022
1417 Haze 30 1007 66 10000 5.14 140 07:50 21.06.2022
1418 Haze 31 1009 58 10000 4.12 330 04:57 21.06.2022
1419 Clouds 24 1010 94 10000 5.14 350 00:31 21.06.2022
1420 Clouds 23 1008 100 10000 5.14 330 22:21 20.06.2022
1421 Clouds 24 1009 89 10000 1.37 15 21:40 20.06.2022
1422 Clouds 23 1007 100 10000 1.54 0 20:29 20.06.2022
1423 Clouds 23 1007 100 10000 2.57 140 19:36 20.06.2022
1424 Clouds 23 1008 100 10000 2.57 340 18:34 20.06.2022
1425 Clouds 23 1008 94 10000 2.57 320 17:49 20.06.2022
1426 Clouds 24 1009 94 10000 1.03 0 16:36 20.06.2022
1427 Clouds 25 1009 88 10000 1.54 0 15:30 20.06.2022
1428 Clouds 24 1009 94 10000 2.57 340 12:32 20.06.2022
1429 Haze 27 1007 83 10000 7.72 140 10:21 20.06.2022
1430 Haze 27 1007 83 10000 7.72 140 10:21 20.06.2022
1431 Haze 28 1006 78 10000 5.14 120 08:54 20.06.2022
1432 Haze 30 1005 74 10000 5.14 160 07:51 20.06.2022
1433 Haze 31 1006 70 10000 7.5 160 05:21 20.06.2022
1434 Clouds 29 1008 74 10000 2.57 140 01:33 20.06.2022
1435 Clouds 25 1007 88 10000 1.54 100 23:57 19.06.2022
1436 Clouds 25 1008 89 10000 5.77 126 22:40 19.06.2022
1437 Clouds 24 1006 94 10000 1.54 140 21:43 19.06.2022
1438 Clouds 24 1006 94 10000 2.57 140 20:55 19.06.2022
1439 Clouds 24 1006 94 10000 2.57 140 20:25 19.06.2022
1440 Clouds 24 1006 94 10000 2.57 170 19:45 19.06.2022
1441 Clouds 24 1007 94 10000 2.57 150 18:33 19.06.2022
1442 Clouds 24 1007 94 10000 2.57 140 17:48 19.06.2022
1443 Clouds 24 1007 94 10000 2.57 140 17:20 19.06.2022
1444 Clouds 25 1008 88 10000 2.57 100 16:34 19.06.2022
1445 Clouds 26 1008 83 10000 2.57 120 15:35 19.06.2022
1446 Clouds 26 1008 83 10000 2.57 120 14:43 19.06.2022
1447 Clouds 26 1008 83 10000 5.14 140 13:54 19.06.2022
1448 Clouds 27 1007 78 10000 7.72 150 12:26 19.06.2022
1449 Haze 28 1006 83 10000 7.72 150 10:53 19.06.2022
1450 Haze 29 1006 79 10000 5.14 150 09:31 19.06.2022
1451 Haze 30 1006 70 10000 10.29 150 08:35 19.06.2022
1452 Haze 31 1006 70 10000 7.72 150 07:30 19.06.2022
1453 Clouds 31 1008 66 10000 2.57 150 04:27 19.06.2022
1454 Clear 26 1010 79 10000 1.2 98 01:28 19.06.2022
1455 Clear 25 1009 85 10000 1.99 92 00:23 19.06.2022
1456 Clouds 26 1009 89 10000 2.57 140 23:35 18.06.2022
1457 Clouds 25 1009 94 10000 2.57 140 22:33 18.06.2022
1458 Clouds 25 1008 94 10000 2.57 140 20:55 18.06.2022
1459 Clouds 25 1008 94 10000 2.57 140 20:24 18.06.2022
1460 Clouds 26 1008 89 10000 2.57 140 19:21 18.06.2022
1461 Clouds 26 1008 89 10000 2.57 160 18:42 18.06.2022
1462 Rain 25 1008 89 10000 4.49 120 17:30 18.06.2022
1463 Clouds 26 1009 89 10000 2.57 80 16:20 18.06.2022
1464 Clouds 26 1009 89 10000 5.17 128 15:18 18.06.2022
1465 Clouds 27 1009 83 10000 6.17 140 14:41 18.06.2022
1466 Clouds 26 1009 94 10000 5.14 140 12:46 18.06.2022
1467 Clouds 27 1008 89 10000 5.14 160 11:29 18.06.2022
1468 Smoke 28 1008 83 10000 7.72 160 10:23 18.06.2022
1469 Haze 30 1007 74 10000 7.72 150 08:59 18.06.2022
1470 Haze 30 1007 74 10000 5.14 150 07:34 18.06.2022
1471 Haze 30 1007 74 10000 5.14 150 07:34 18.06.2022
1472 Clouds 29 1007 71 10000 3.89 180 05:58 18.06.2022
1473 Clouds 31 1010 66 10000 1.54 150 02:53 18.06.2022
1474 Haze 29 1010 74 10000 2.57 160 01:23 18.06.2022
1475 Haze 27 1010 83 10000 1.54 0 00:39 18.06.2022
1476 Clear 26 1010 85 10000 2.44 107 23:40 17.06.2022
1477 Clouds 24 1009 100 10000 1.54 0 22:33 17.06.2022
1478 Clear 25 1008 90 10000 2.47 110 20:33 17.06.2022
1479 Clouds 25 1008 94 10000 1.54 0 19:24 17.06.2022
1480 Clouds 25 1008 91 10000 3.06 116 18:19 17.06.2022
1481 Clouds 26 1009 89 10000 2.57 130 16:51 17.06.2022
1482 Clouds 26 1009 89 10000 2.57 130 16:25 17.06.2022
1483 Clouds 27 1010 83 10000 2.57 140 15:41 17.06.2022
1484 Clouds 27 1010 83 10000 5.14 140 14:24 17.06.2022
1485 Clouds 27 1010 89 10000 5.14 140 13:59 17.06.2022
1486 Clouds 27 1010 89 10000 5.14 140 13:39 17.06.2022
1487 Clouds 27 1009 89 10000 5.14 140 12:29 17.06.2022
1488 Clouds 27 1008 89 10000 7.72 150 11:55 17.06.2022
1489 Clouds 27 1008 89 10000 7.72 150 11:34 17.06.2022
1490 Haze 29 1008 74 10000 3.6 160 09:46 17.06.2022
1491 Clouds 28 1007 74 10000 3.56 164 08:26 17.06.2022
1492 Haze 31 1007 70 10000 7.72 120 06:51 17.06.2022
1493 Haze 30 1010 70 10000 5.14 200 04:19 17.06.2022
1494 Haze 29 1010 74 10000 2.06 0 01:56 17.06.2022
1495 Haze 27 1009 83 10000 1.54 0 00:24 17.06.2022
1496 Clouds 25 1008 94 10000 1.54 0 22:42 16.06.2022
1497 Clouds 24 1008 88 10000 1.23 26 21:23 16.06.2022
1498 Clouds 25 1008 94 10000 1.54 0 20:55 16.06.2022
1499 Clouds 24 1008 88 10000 1.23 26 20:35 16.06.2022
1500 Clouds 25 1008 94 10000 1.54 0 19:41 16.06.2022
1501 Clouds 25 1007 88 10000 1.22 66 18:24 16.06.2022
1502 Clouds 25 1007 88 10000 1.22 66 17:43 16.06.2022
1503 Clouds 25 1008 88 10000 1.6 86 16:35 16.06.2022
1504 Clouds 25 1009 94 10000 1.54 0 15:22 16.06.2022
1505 Clouds 25 1009 94 10000 1.54 0 14:37 16.06.2022
1506 Clouds 25 1009 94 10000 3.09 320 13:20 16.06.2022
1507 Clouds 27 1008 83 10000 1.54 0 12:36 16.06.2022
1508 Haze 27 1008 89 10000 2.06 130 11:51 16.06.2022
1509 Haze 29 1007 74 10000 5.14 160 10:55 16.06.2022
1510 Haze 30 1007 74 10000 5.14 160 09:53 16.06.2022
1511 Haze 30 1007 74 10000 5.14 160 09:21 16.06.2022
1512 Haze 31 1007 70 10000 5.14 160 08:28 16.06.2022
1513 Haze 31 1008 70 10000 5.14 180 07:24 16.06.2022
1514 Haze 31 1009 70 10000 2.57 140 04:42 16.06.2022
1515 Haze 29 1010 74 10000 2.57 330 02:19 16.06.2022
1516 Haze 29 1010 74 10000 2.57 340 01:34 16.06.2022
1517 Haze 29 1010 74 10000 2.57 340 01:34 16.06.2022
1518 Haze 27 1010 83 10000 1.54 0 00:38 16.06.2022
1519 Haze 24 1010 100 10000 1.54 0 23:25 15.06.2022
1520 Clouds 23 1010 100 10000 1.54 0 22:28 15.06.2022
1521 Clouds 24 1010 100 10000 2.06 0 21:21 15.06.2022
1522 Clouds 24 1010 88 10000 0.78 101 20:38 15.06.2022
1523 Clouds 25 1009 88 10000 0.78 48 20:19 15.06.2022
1524 Clouds 25 1009 88 10000 1.16 87 19:19 15.06.2022
1525 Clouds 24 1010 100 10000 1.03 0 17:55 15.06.2022
1526 Clouds 25 1010 94 10000 1.03 0 16:40 15.06.2022
1527 Clouds 26 1011 89 10000 2.57 150 15:35 15.06.2022
1528 Clouds 27 1011 78 10000 2.06 0 13:43 15.06.2022
1529 Clouds 27 1011 83 10000 5.14 140 12:53 15.06.2022
1530 Clouds 28 1010 78 10000 5.14 140 11:48 15.06.2022
1531 Haze 29 1008 74 10000 7.72 150 10:24 15.06.2022
1532 Haze 30 1008 74 10000 5.14 150 09:39 15.06.2022
1533 Haze 31 1008 70 10000 5.14 150 08:30 15.06.2022
1534 Haze 31 1009 66 10000 5.14 160 06:33 15.06.2022
1535 Haze 29 1011 74 10000 2.57 190 03:45 15.06.2022
1536 Haze 28 1012 74 10000 2.06 0 01:53 15.06.2022
1537 Haze 25 1011 83 10000 1.54 0 00:50 15.06.2022
1538 Clouds 24 1011 94 10000 1.54 0 23:39 14.06.2022
1539 Clouds 23 1010 100 10000 1.54 0 22:56 14.06.2022
1540 Clouds 23 1010 100 10000 1.54 0 22:18 14.06.2022
1541 Clouds 23 1010 100 10000 1.54 0 21:28 14.06.2022
1542 Clouds 23 1010 100 10000 1.54 0 20:48 14.06.2022
1543 Clouds 23 1010 100 10000 1.54 0 20:28 14.06.2022
1544 Clouds 23 1011 100 10000 1.54 0 18:45 14.06.2022
1545 Clouds 24 1011 100 10000 1.54 0 17:29 14.06.2022
1546 Clouds 24 1011 100 10000 2.57 320 16:43 14.06.2022
1547 Clouds 25 1011 94 10000 2.57 150 15:50 14.06.2022
1548 Clouds 25 1011 94 10000 2.57 150 15:49 14.06.2022
1549 Clouds 26 1011 89 10000 2.57 140 14:57 14.06.2022
1550 Clouds 26 1011 89 10000 2.57 140 14:23 14.06.2022
1551 Clouds 27 1011 89 10000 5.14 120 13:39 14.06.2022
1552 Clouds 27 1010 89 10000 2.57 150 12:27 14.06.2022
1553 Clouds 28 1010 83 10000 2.57 160 11:27 14.06.2022
1554 Clouds 28 1010 83 10000 5.14 160 10:35 14.06.2022
1555 Haze 29 1009 79 10000 7.72 170 09:45 14.06.2022
1556 Haze 30 1008 74 10000 7.72 170 08:41 14.06.2022
1557 Haze 30 1008 74 10000 7.72 170 07:26 14.06.2022
1558 Haze 31 1010 66 10000 4.12 140 04:35 14.06.2022
1559 Haze 30 1012 70 10000 2.57 0 02:43 14.06.2022
1560 Smoke 26 1011 89 10000 1.54 0 00:27 14.06.2022
1561 Clear 24 1011 86 10000 1.78 58 23:18 13.06.2022
1562 Clear 24 1011 89 10000 1.88 76 22:24 13.06.2022
1563 Clouds 24 1010 94 10000 2.06 0 21:41 13.06.2022
1564 Clouds 25 1009 90 10000 2.21 88 20:19 13.06.2022
1565 Clouds 24 1009 94 10000 1.54 0 19:26 13.06.2022
1566 Clouds 27 1010 83 10000 1.54 0 17:57 13.06.2022
1567 Clouds 27 1010 83 10000 1.54 0 17:35 13.06.2022
1568 Clouds 25 1010 89 10000 4.22 125 16:32 13.06.2022
1569 Clouds 27 1012 89 10000 5.14 160 14:53 13.06.2022
1570 Clouds 27 1012 89 10000 5.14 160 14:33 13.06.2022
1571 Clouds 27 1011 83 10000 5.14 160 13:39 13.06.2022
1572 Clouds 27 1011 83 10000 7.72 160 12:25 13.06.2022
1573 Clouds 27 1010 85 10000 6.56 138 11:18 13.06.2022
1574 Haze 28 1009 83 10000 5.14 160 10:26 13.06.2022
1575 Haze 28 1008 83 10000 5.14 160 09:22 13.06.2022
1576 Haze 32 1008 66 10000 5.14 150 06:55 13.06.2022
1577 Haze 31 1009 66 10000 2.57 150 05:39 13.06.2022
1578 Haze 29 1011 74 10000 1.54 140 02:47 13.06.2022
1579 Haze 29 1011 74 10000 1.54 0 01:36 13.06.2022
1580 Clouds 24 1010 100 10000 1.54 0 23:52 12.06.2022
1581 Clouds 23 1010 100 10000 1.54 0 22:50 12.06.2022
1582 Clouds 23 1010 100 10000 1.54 0 22:22 12.06.2022
1583 Clouds 24 1009 94 10000 1.54 0 20:58 12.06.2022
1584 Clouds 24 1009 94 10000 1.54 0 20:19 12.06.2022
1585 Clouds 24 1009 90 10000 1.85 93 19:30 12.06.2022
1586 Clouds 25 1010 94 10000 2.06 130 17:47 12.06.2022
1587 Clouds 25 1010 94 10000 1.54 0 15:58 12.06.2022
1588 Clouds 26 1010 89 10000 4.12 130 14:56 12.06.2022
1589 Clouds 26 1010 89 10000 4.12 130 14:20 12.06.2022
1590 Clouds 25 1010 89 10000 5.37 123 13:49 12.06.2022
1591 Clouds 27 1010 83 10000 5.66 140 12:35 12.06.2022
1592 Clouds 27 1009 89 10000 6.69 140 11:36 12.06.2022
1593 Clouds 28 1009 83 10000 7.72 150 10:21 12.06.2022
1594 Clouds 29 1008 84 10000 7.72 150 08:54 12.06.2022
1595 Clouds 29 1008 84 10000 7.72 150 08:35 12.06.2022
1596 Clouds 31 1008 74 10000 5.14 150 07:31 12.06.2022
1597 Clouds 28 1008 72 10000 5.06 162 04:35 12.06.2022
1598 Haze 30 1010 70 10000 1.54 0 02:33 12.06.2022
1599 Haze 28 1010 78 10000 1.54 0 01:36 12.06.2022
1600 Clouds 25 1010 94 10000 0 0 00:58 12.06.2022
1601 Clouds 25 1011 84 10000 1.89 103 00:20 12.06.2022
1602 Haze 24 1010 100 10000 1.54 0 23:21 11.06.2022
1603 Fog 23 1010 100 10000 2.25 109 22:38 11.06.2022
1604 Fog 23 1010 100 10000 2.25 109 22:38 11.06.2022
1605 Fog 24 1009 94 10000 1.03 0 21:36 11.06.2022
1606 Clouds 24 1009 94 10000 1.54 0 20:27 11.06.2022
1607 Clear 24 1009 94 10000 1.03 0 19:37 11.06.2022
1608 Clouds 24 1009 94 10000 2.06 0 18:50 11.06.2022
1609 Clouds 24 1009 94 10000 2.06 0 18:31 11.06.2022
1610 Clouds 24 1009 100 10000 1.54 0 17:49 11.06.2022
1611 Clouds 24 1009 100 10000 1.54 0 17:26 11.06.2022
1612 Clouds 25 1010 94 10000 2.57 140 16:44 11.06.2022
1613 Clouds 25 1010 94 10000 2.57 140 16:25 11.06.2022
1614 Clouds 25 1010 89 10000 4.79 124 15:18 11.06.2022
1615 Clouds 25 1010 89 10000 5.36 126 13:52 11.06.2022
1616 Clouds 26 1010 89 10000 6.73 134 12:19 11.06.2022
1617 Clouds 27 1008 89 10000 7.72 150 10:32 11.06.2022
1618 Clouds 28 1008 83 10000 7.72 150 09:41 11.06.2022
1619 Clouds 28 1008 83 10000 7.72 150 08:44 11.06.2022
1620 Clouds 28 1007 78 10000 6.36 165 06:34 11.06.2022
1621 Clouds 29 1009 79 10000 5.14 160 05:53 11.06.2022
1622 Clouds 29 1011 79 10000 5.14 190 03:31 11.06.2022
1623 Rain 28 1011 83 10000 2.57 310 01:51 11.06.2022
1624 Clouds 28 1011 83 10000 2.57 310 01:25 11.06.2022
1625 Rain 25 1010 94 10000 1.54 0 23:27 10.06.2022
1626 Rain 25 1009 94 10000 1.54 0 22:21 10.06.2022
1627 Rain 25 1009 94 10000 2.57 210 21:44 10.06.2022
1628 Rain 25 1008 94 10000 2.57 110 20:39 10.06.2022
1629 Rain 24 1009 90 10000 5.14 123 20:19 10.06.2022
1630 Rain 25 1009 90 10000 5.2 125 19:19 10.06.2022
1631 Rain 25 1009 90 10000 5.2 125 18:32 10.06.2022
1632 Clouds 25 1009 94 10000 4.12 170 17:50 10.06.2022
1633 Clouds 25 1009 94 10000 4.12 170 17:21 10.06.2022
1634 Clouds 26 1010 89 10000 4.12 140 16:26 10.06.2022
1635 Rain 25 1009 94 10000 1.54 170 15:39 10.06.2022
1636 Rain 25 1010 89 10000 6.18 132 14:24 10.06.2022
1637 Haze 26 1010 94 10000 2.57 140 12:57 10.06.2022
1638 Haze 27 1009 89 10000 5.66 160 11:59 10.06.2022
1639 Haze 27 1008 89 10000 5.14 160 10:45 10.06.2022
1640 Haze 28 1007 83 10000 5.14 150 09:55 10.06.2022
1641 Haze 30 1007 74 10000 5.14 160 08:44 10.06.2022
1642 Haze 28 1007 83 10000 7.72 150 07:30 10.06.2022
1643 Haze 28 1007 83 10000 7.72 160 06:45 10.06.2022
1644 Haze 28 1007 83 10000 7.72 160 06:26 10.06.2022
1645 Haze 31 1009 66 10000 5.14 120 03:56 10.06.2022
1646 Haze 28 1010 78 10000 2.57 0 01:42 10.06.2022
1647 Haze 26 1010 83 10000 2.57 280 00:32 10.06.2022
1648 Clouds 24 1009 94 10000 2.57 280 23:49 09.06.2022
1649 Fog 24 1008 100 2000 2.57 330 22:18 09.06.2022
1650 Fog 24 1008 100 600 2.57 350 21:37 09.06.2022
1651 Clouds 24 1009 89 10000 1.52 89 20:55 09.06.2022
1652 Clouds 24 1008 89 10000 2.1 88 20:26 09.06.2022
1653 Clouds 22 1008 100 10000 2.57 320 19:29 09.06.2022
1654 Clouds 23 1009 100 10000 1.54 0 18:34 09.06.2022
1655 Clouds 25 1009 89 10000 2.57 118 17:18 09.06.2022
1656 Clouds 24 1010 100 10000 1.54 0 15:54 09.06.2022
1657 Clouds 24 1010 100 10000 1.54 0 14:38 09.06.2022
1658 Clouds 25 1010 94 10000 1.54 0 13:55 09.06.2022
1659 Clouds 25 1010 94 10000 1.54 0 13:28 09.06.2022
1660 Clouds 26 1009 94 10000 1.54 0 11:54 09.06.2022
1661 Clouds 26 1009 87 10000 4.26 142 11:19 09.06.2022
1662 Rain 28 1008 83 10000 5.14 150 09:45 09.06.2022
1663 Clouds 28 1008 83 10000 5.14 150 09:24 09.06.2022
1664 Haze 28 1008 78 10000 4.63 170 07:52 09.06.2022
1665 Rain 29 1008 79 10000 5.14 160 06:41 09.06.2022
1666 Haze 30 1010 70 10000 2.57 210 03:19 09.06.2022
1667 Haze 24 1009 100 10000 1.54 0 23:48 08.06.2022
1668 Clouds 23 1009 100 10000 1.54 0 22:58 08.06.2022
1669 Clouds 23 1009 100 10000 1.54 0 22:27 08.06.2022
1670 Clouds 24 1008 100 10000 1.54 0 21:55 08.06.2022
1671 Clouds 24 1008 100 10000 1.54 0 21:21 08.06.2022
1672 Clouds 24 1008 100 10000 1.54 0 20:21 08.06.2022
1673 Clouds 24 1008 100 10000 1.54 0 19:38 08.06.2022
1674 Clouds 24 1008 100 10000 1.54 0 18:45 08.06.2022
1675 Clouds 25 1009 86 10000 1.78 112 17:18 08.06.2022
1676 Clear 25 1010 100 10000 1.54 0 15:48 08.06.2022
1677 Clouds 26 1010 94 10000 2.57 170 13:52 08.06.2022
1678 Clouds 27 1010 89 10000 2.57 130 12:20 08.06.2022
1679 Clouds 28 1009 83 10000 5.14 180 11:33 08.06.2022
1680 Haze 28 1008 83 10000 5.14 180 09:59 08.06.2022
1681 Haze 28 1008 83 10000 5.14 180 09:21 08.06.2022
1682 Haze 30 1007 70 10000 5.14 180 08:26 08.06.2022
1683 Rain 31 1009 70 10000 5.14 200 05:55 08.06.2022
1684 Haze 32 1010 62 10000 2.57 110 03:55 08.06.2022
1685 Haze 27 1010 83 10000 1.03 0 00:38 08.06.2022
1686 Clouds 24 1009 100 10000 2.06 0 23:28 07.06.2022
1687 Clouds 24 1009 94 10000 1.54 0 22:45 07.06.2022
1688 Clouds 24 1009 94 10000 1.54 0 22:23 07.06.2022
1689 Clouds 24 1009 100 10000 2.57 320 21:34 07.06.2022
1690 Clouds 25 1009 87 10000 0.72 25 20:58 07.06.2022
1691 Clouds 25 1009 87 10000 0.72 25 20:32 07.06.2022
1692 Clouds 24 1008 100 10000 1.54 0 19:38 07.06.2022
1693 Clouds 25 1009 94 10000 1.54 0 18:23 07.06.2022
1694 Clouds 25 1009 87 10000 1.64 34 17:26 07.06.2022
1695 Clouds 25 1010 94 10000 1.54 0 16:43 07.06.2022
1696 Clouds 26 1010 89 10000 1.54 0 15:47 07.06.2022
1697 Clouds 26 1010 89 10000 1.54 0 15:26 07.06.2022
1698 Clouds 26 1010 89 10000 1.54 0 15:26 07.06.2022
1699 Clouds 25 1010 85 10000 1.51 77 14:47 07.06.2022
1700 Clouds 26 1010 84 10000 1.35 102 14:29 07.06.2022
1701 Clouds 26 1010 89 10000 1.54 0 13:30 07.06.2022
1702 Clouds 26 1009 89 10000 1.54 0 12:45 07.06.2022
1703 Clouds 27 1008 83 10000 3.09 130 11:37 07.06.2022
1704 Haze 28 1008 78 10000 2.57 160 10:26 07.06.2022
1705 Clouds 29 1007 79 10000 5.14 200 08:49 07.06.2022
1706 Clouds 29 1007 79 10000 5.14 200 08:49 07.06.2022
1707 Clouds 29 1007 79 10000 5.14 200 08:49 07.06.2022
1708 Clouds 30 1007 74 10000 7.72 220 07:32 07.06.2022
1709 Clouds 31 1007 70 10000 1.54 0 05:56 07.06.2022
1710 Clouds 29 1010 79 10000 3.6 160 03:22 07.06.2022
1711 Clouds 27 1010 89 10000 2.06 0 00:42 07.06.2022
1712 Clouds 25 1009 94 10000 1.54 0 23:35 06.06.2022
1713 Clouds 25 1009 94 10000 1.54 0 22:45 06.06.2022
1714 Clouds 25 1008 94 10000 1.54 0 21:49 06.06.2022
1715 Clouds 25 1008 94 10000 1.54 0 20:21 06.06.2022
1716 Clouds 24 1008 90 10000 2.01 3 19:23 06.06.2022
1717 Clouds 25 1009 94 10000 1.54 0 18:46 06.06.2022
1718 Clouds 25 1009 94 10000 1.54 0 17:52 06.06.2022
1719 Clouds 25 1009 94 10000 2.57 0 16:48 06.06.2022
1720 Clouds 25 1009 94 10000 1.54 0 15:40 06.06.2022
1721 Clouds 25 1010 100 10000 2.57 320 14:57 06.06.2022
1722 Clouds 25 1010 100 10000 1.54 0 13:37 06.06.2022
1723 Clouds 26 1009 94 10000 1.54 0 12:44 06.06.2022
1724 Clouds 26 1009 94 10000 1.54 0 12:26 06.06.2022
1725 Clouds 25 1009 100 10000 2.57 190 11:45 06.06.2022
1726 Clouds 28 1008 78 10000 5.14 160 09:43 06.06.2022
1727 Rain 28 1008 78 10000 5.14 180 08:35 06.06.2022
1728 Rain 29 1008 79 10000 5.14 180 07:41 06.06.2022
1729 Clouds 31 1009 66 10000 5.14 210 05:48 06.06.2022
1730 Clouds 30 1010 70 10000 2.57 140 03:47 06.06.2022
1731 Clouds 28 1010 78 10000 1.54 200 01:30 06.06.2022
1732 Clouds 26 1011 89 10000 1.54 0 00:43 06.06.2022
1733 Clouds 26 1010 81 10000 1.77 11 00:19 06.06.2022
1734 Clouds 23 1010 100 10000 2.57 350 22:57 05.06.2022
1735 Clouds 24 1010 94 10000 2.57 350 21:56 05.06.2022
1736 Clouds 24 1009 89 10000 2.5 8 20:23 05.06.2022
1737 Clouds 24 1009 89 10000 2.49 2 18:47 05.06.2022
1738 Clouds 23 1010 100 10000 2.57 360 17:57 05.06.2022
1739 Clouds 23 1010 100 10000 2.57 360 17:38 05.06.2022
1740 Clouds 23 1010 100 10000 2.57 360 17:19 05.06.2022
1741 Clouds 24 1010 94 10000 2.57 340 16:46 05.06.2022
1742 Clouds 23 1011 100 10000 2.57 280 14:46 05.06.2022
1743 Clouds 23 1011 100 10000 2.57 360 13:55 05.06.2022
1744 Clouds 24 1011 100 6000 5.14 270 11:56 05.06.2022
1745 Haze 28 1009 83 10000 1.54 220 10:44 05.06.2022
1746 Haze 28 1009 83 10000 1.54 220 10:23 05.06.2022
1747 Clouds 28 1008 77 10000 1.39 206 08:45 05.06.2022
1748 Clouds 28 1007 73 10000 2.31 203 08:21 05.06.2022
1749 Haze 30 1008 74 10000 4.12 190 05:23 05.06.2022
1750 Haze 33 1009 62 10000 3.6 200 04:33 05.06.2022
1751 Haze 28 1010 83 10000 2.57 340 01:45 05.06.2022
1752 Haze 28 1010 83 10000 2.57 340 01:45 05.06.2022
1753 Haze 28 1010 83 10000 2.57 340 01:45 05.06.2022
1754 Haze 28 1010 83 10000 2.57 340 01:45 05.06.2022
1755 Haze 28 1010 83 10000 2.57 340 01:45 05.06.2022
1756 Haze 28 1010 83 10000 2.57 340 01:23 05.06.2022
1757 Clouds 23 1008 100 10000 1.54 0 22:45 04.06.2022
1758 Clouds 25 1008 87 10000 1.59 13 21:21 04.06.2022
1759 Clear 24 1008 100 10000 1.54 0 18:54 04.06.2022
1760 Clouds 25 1009 94 10000 1.54 0 16:47 04.06.2022
1761 Clouds 25 1009 87 10000 2.01 10 16:19 04.06.2022
1762 Clouds 25 1008 94 10000 1.54 0 15:22 04.06.2022
1763 Clouds 26 1008 89 10000 1.54 110 13:46 04.06.2022
1764 Haze 26 1007 89 10000 2.57 130 11:23 04.06.2022
1765 Clouds 25 1008 88 10000 1.91 103 10:50 04.06.2022
1766 Haze 30 1007 74 10000 5.14 190 09:45 04.06.2022
1767 Haze 31 1007 66 10000 5.14 180 08:44 04.06.2022
1768 Haze 31 1007 66 10000 5.14 180 08:44 04.06.2022
1769 Haze 30 1007 70 10000 5.14 230 07:59 04.06.2022
1770 Clouds 28 1007 73 10000 2.08 220 06:20 04.06.2022
1771 Clouds 30 1009 74 10000 2.57 180 02:36 04.06.2022
1772 Clouds 26 1010 89 10000 2.57 190 00:20 04.06.2022
1773 Clouds 25 1009 94 10000 1.54 0 22:41 03.06.2022
1774 Clouds 25 1009 94 10000 1.54 0 21:43 03.06.2022
1775 Clouds 25 1009 94 10000 1.54 0 20:38 03.06.2022
1776 Clouds 25 1009 94 10000 1.54 0 19:19 03.06.2022
1777 Clouds 25 1010 94 10000 1.54 0 16:54 03.06.2022
1778 Clouds 25 1009 89 10000 4.12 114 15:40 03.06.2022
1779 Clouds 26 1010 88 10000 5.53 121 13:49 03.06.2022
1780 Haze 26 1008 89 10000 1.54 0 11:51 03.06.2022
1781 Haze 28 1008 83 10000 5.14 150 09:53 03.06.2022
1782 Haze 28 1008 83 10000 5.14 150 09:28 03.06.2022
1783 Haze 31 1007 70 10000 5.14 160 07:27 03.06.2022
1784 Clouds 31 1008 66 10000 5.14 160 06:45 03.06.2022
1785 Clouds 31 1008 66 10000 5.14 160 06:27 03.06.2022
1786 Clouds 30 1011 70 10000 1.54 0 02:24 03.06.2022
1787 Clouds 24 1011 85 10000 1.54 0 23:34 02.06.2022
1788 Clouds 23 1010 100 10000 1.54 0 21:57 02.06.2022
1789 Clouds 23 1009 100 10000 1.54 0 20:26 02.06.2022
1790 Clouds 23 1009 100 10000 2.57 310 19:53 02.06.2022
1791 Clouds 23 1009 100 10000 2.57 310 19:35 02.06.2022
1792 Clouds 24 1009 94 10000 2.57 300 17:59 02.06.2022
1793 Clouds 24 1010 94 10000 2.57 340 16:28 02.06.2022
1794 Clouds 25 1010 94 10000 1.54 0 14:58 02.06.2022
1795 Clouds 25 1010 85 10000 1.35 89 13:30 02.06.2022
1796 Rain 25 1009 94 10000 4.12 320 12:42 02.06.2022
1797 Clouds 28 1010 78 10000 5.14 140 10:31 02.06.2022
1798 Clouds 28 1009 83 10000 5.14 150 09:28 02.06.2022
1799 Clouds 28 1009 89 7591 8.44 145 08:29 02.06.2022
1800 Clouds 31 1008 70 10000 5.14 160 07:48 02.06.2022
1801 Clouds 32 1010 62 10000 5.14 150 05:33 02.06.2022
1802 Clouds 30 1011 66 10000 5.14 150 03:48 02.06.2022
1803 Clouds 24 1012 94 10000 2.57 320 23:55 01.06.2022
1804 Clouds 23 1011 100 10000 2.57 340 22:55 01.06.2022
1805 Clouds 23 1011 100 10000 2.57 300 21:45 01.06.2022
1806 Clouds 23 1011 100 10000 2.57 300 21:20 01.06.2022
1807 Clouds 23 1010 100 10000 2.57 350 20:38 01.06.2022
1808 Clouds 24 1010 94 10000 2.57 350 19:48 01.06.2022
1809 Clouds 25 1011 94 10000 2.06 0 17:57 01.06.2022
1810 Clouds 25 1012 94 10000 1.03 0 16:46 01.06.2022
1811 Clouds 25 1012 94 10000 1.03 0 15:37 01.06.2022
1812 Clouds 25 1011 94 10000 3.09 140 13:57 01.06.2022
1813 Rain 26 1011 89 10000 2.57 140 12:29 01.06.2022
1814 Haze 26 1010 83 10000 5.14 140 10:37 01.06.2022
1815 Haze 28 1010 78 10000 5.14 160 09:25 01.06.2022
1816 Clouds 29 1010 65 10000 2.57 180 07:25 01.06.2022
1817 Haze 29 1010 65 10000 5.14 210 06:40 01.06.2022
1818 Clouds 25 1014 88 10000 5.14 150 01:29 01.06.2022
1819 Clouds 24 1012 94 5000 1.54 0 23:41 31.05.2022
1820 Clouds 24 1012 94 5000 2.57 340 22:37 31.05.2022
1821 Clouds 24 1011 94 10000 2.57 330 21:46 31.05.2022
1822 Clouds 24 1011 94 10000 3.09 320 20:52 31.05.2022
1823 Clouds 24 1011 94 10000 3.09 320 20:31 31.05.2022
1824 Clouds 24 1011 100 10000 2.06 0 18:54 31.05.2022
1825 Rain 24 1011 87 10000 1.24 94 17:51 31.05.2022
1826 Rain 24 1011 87 10000 1.65 92 17:20 31.05.2022
1827 Clouds 25 1012 87 10000 2.27 98 15:41 31.05.2022
1828 Clouds 26 1012 89 10000 1.54 0 14:33 31.05.2022
1829 Clouds 26 1011 83 10000 2.06 0 12:22 31.05.2022
1830 Clouds 26 1010 78 10000 2.57 140 11:23 31.05.2022
1831 Haze 29 1009 65 10000 5.14 170 09:31 31.05.2022
1832 Haze 31 1009 51 10000 5.14 170 07:28 31.05.2022
1833 Haze 30 1011 58 10000 5.14 190 05:23 31.05.2022
1834 Haze 28 1012 74 10000 3.6 120 01:35 31.05.2022
1835 Haze 22 1011 94 10000 1.54 0 23:27 30.05.2022
1836 Haze 22 1011 94 10000 1.54 0 22:56 30.05.2022
1837 Clouds 21 1010 100 10000 1.54 0 21:59 30.05.2022
1838 Clouds 21 1010 100 10000 1.54 0 21:33 30.05.2022
1839 Clouds 24 1010 85 10000 2.42 121 20:20 30.05.2022
1840 Clouds 24 1010 86 10000 2.29 110 18:41 30.05.2022
1841 Clouds 24 1010 86 10000 2.65 113 17:38 30.05.2022
1842 Clouds 24 1010 85 10000 2.77 117 16:41 30.05.2022
1843 Clouds 25 1011 83 10000 1.54 0 14:49 30.05.2022
1844 Clouds 26 1010 83 10000 5.14 140 12:29 30.05.2022
1845 Clouds 27 1009 78 10000 3.6 160 10:46 30.05.2022
1846 Clouds 28 1008 74 10000 3.09 180 09:38 30.05.2022
1847 Haze 30 1008 66 10000 3.6 160 07:22 30.05.2022
1848 Haze 31 1010 58 10000 2.57 180 05:49 30.05.2022
1849 Haze 28 1011 69 10000 5.14 160 01:48 30.05.2022
1850 Haze 22 1010 94 10000 1.54 0 23:19 29.05.2022
1851 Clouds 21 1010 94 10000 1.54 0 22:37 29.05.2022
1852 Clouds 21 1009 94 10000 1.54 0 20:55 29.05.2022
1853 Clouds 21 1009 94 10000 1.54 0 19:33 29.05.2022
1854 Clouds 21 1009 94 10000 1.54 0 18:59 29.05.2022
1855 Clouds 22 1009 94 10000 1.54 0 17:31 29.05.2022
1856 Clouds 23 1010 88 10000 1.54 0 15:48 29.05.2022
1857 Clouds 23 1010 88 10000 1.54 0 15:23 29.05.2022
1858 Clouds 24 1010 83 10000 2.57 140 13:59 29.05.2022
1859 Clouds 26 1009 78 10000 5.14 160 11:42 29.05.2022
1860 Haze 27 1008 69 10000 5.14 160 10:39 29.05.2022
1861 Haze 28 1008 65 10000 5.14 160 09:18 29.05.2022
1862 Clouds 27 1008 68 10000 6.13 166 06:18 29.05.2022
1863 Haze 31 1010 62 10000 7.72 160 04:45 29.05.2022
1864 Clouds 30 1011 62 10000 7.72 160 03:47 29.05.2022
1865 Haze 22 1010 94 10000 2.57 310 23:50 28.05.2022
1866 Haze 22 1010 94 10000 2.57 310 23:50 28.05.2022
1867 Haze 22 1010 94 10000 2.57 310 23:26 28.05.2022
1868 Clouds 21 1010 94 10000 1.03 0 22:39 28.05.2022
1869 Clouds 21 1009 94 10000 1.03 0 21:38 28.05.2022
1870 Clouds 22 1009 94 10000 1.54 0 19:49 28.05.2022
1871 Clouds 22 1009 94 10000 1.03 0 18:50 28.05.2022
1872 Clouds 22 1009 94 10000 1.03 0 17:37 28.05.2022
1873 Clouds 23 1010 88 10000 1.54 0 16:38 28.05.2022
1874 Clouds 23 1010 88 10000 1.54 240 15:43 28.05.2022
1875 Clouds 24 1011 83 10000 1.54 120 14:23 28.05.2022
1876 Haze 26 1010 78 10000 6.17 140 12:44 28.05.2022
1877 Clouds 25 1011 79 10000 5.46 127 12:18 28.05.2022
1878 Clouds 27 1009 78 10000 5.14 160 10:51 28.05.2022
1879 Haze 28 1008 74 10000 5.14 150 09:57 28.05.2022
1880 Haze 30 1008 66 10000 5.14 160 08:45 28.05.2022
1881 Haze 30 1008 66 10000 7.72 150 07:23 28.05.2022
1882 Haze 30 1009 70 10000 5.14 150 05:28 28.05.2022
1883 Haze 29 1012 65 10000 5.14 170 02:44 28.05.2022
1884 Haze 25 1011 83 10000 1.54 0 00:32 28.05.2022
1885 Clouds 22 1010 94 10000 1.54 0 22:51 27.05.2022
1886 Clouds 21 1010 100 10000 1.54 0 21:43 27.05.2022
1887 Clouds 21 1009 100 10000 1.54 0 20:49 27.05.2022
1888 Clouds 21 1009 100 10000 1.54 0 20:23 27.05.2022
1889 Clouds 21 1009 100 10000 0 0 19:42 27.05.2022
1890 Clouds 21 1009 100 10000 0 0 19:21 27.05.2022
1891 Clouds 23 1010 88 10000 1.54 170 17:52 27.05.2022
1892 Clouds 23 1011 94 10000 1.54 140 16:38 27.05.2022
1893 Clouds 25 1011 83 10000 4.75 123 15:22 27.05.2022
1894 Clouds 25 1011 83 10000 5.14 140 13:44 27.05.2022
1895 Clouds 26 1010 83 10000 2.57 140 12:35 27.05.2022
1896 Clouds 26 1010 78 10000 5.14 160 11:33 27.05.2022
1897 Clouds 27 1009 78 10000 5.14 160 10:54 27.05.2022
1898 Clouds 27 1009 78 10000 5.14 160 10:26 27.05.2022
1899 Clouds 28 1008 74 10000 5.14 160 09:32 27.05.2022
1900 Haze 30 1008 66 10000 7.72 160 07:42 27.05.2022
1901 Haze 31 1009 62 10000 5.14 170 05:27 27.05.2022
1902 Haze 28 1011 69 10000 1.54 0 01:47 27.05.2022
1903 Haze 23 1010 94 10000 0 0 23:55 26.05.2022
1904 Clouds 22 1009 100 10000 1.54 0 22:29 26.05.2022
1905 Clouds 22 1009 100 10000 1.54 0 21:33 26.05.2022
1906 Clouds 23 1009 94 10000 1.54 0 19:49 26.05.2022
1907 Clouds 24 1009 87 10000 3.74 124 19:18 26.05.2022
1908 Clouds 24 1009 87 10000 3.74 124 19:18 26.05.2022
1909 Clouds 23 1010 94 10000 2.57 300 17:36 26.05.2022
1910 Clouds 24 1011 94 10000 2.57 330 16:35 26.05.2022
1911 Clouds 25 1011 88 10000 1.54 0 15:34 26.05.2022
1912 Clouds 25 1012 88 10000 1.54 0 14:21 26.05.2022
1913 Clouds 26 1011 83 10000 5.14 130 12:35 26.05.2022
1914 Clouds 27 1010 78 10000 5.14 170 11:21 26.05.2022
1915 Clouds 28 1009 78 10000 5.14 150 09:39 26.05.2022
1916 Clouds 29 1008 84 10000 5.14 160 08:51 26.05.2022
1917 Clouds 29 1008 82 10000 2.57 0 07:38 26.05.2022
1918 Clouds 25 1012 88 10000 1.54 100 02:59 26.05.2022
1919 Clouds 23 1011 100 4000 5.14 130 00:20 26.05.2022
1920 Clouds 23 1011 100 3000 2.57 160 23:19 25.05.2022
1921 Clouds 24 1009 100 10000 2.57 360 21:46 25.05.2022
1922 Clouds 24 1008 100 10000 2.57 320 20:53 25.05.2022
1923 Clouds 24 1009 89 10000 4.72 127 19:59 25.05.2022
1924 Clouds 25 1009 94 10000 2.57 330 18:48 25.05.2022
1925 Clouds 25 1009 94 10000 2.57 320 17:26 25.05.2022
1926 Clouds 25 1009 90 10000 4.08 124 16:35 25.05.2022
1927 Clouds 26 1010 89 10000 1.54 0 15:49 25.05.2022
1928 Clouds 27 1010 89 10000 2.57 150 14:51 25.05.2022
1929 Clouds 27 1010 89 10000 2.57 150 14:32 25.05.2022
1930 Clouds 27 1010 83 10000 2.57 180 13:27 25.05.2022
1931 Clouds 25 1010 89 10000 5.14 127 11:51 25.05.2022
1932 Haze 28 1008 83 10000 7.72 160 10:42 25.05.2022
1933 Haze 29 1008 79 10000 7.72 160 09:46 25.05.2022
1934 Clouds 27 1008 84 10000 5.75 160 08:21 25.05.2022
1935 Clouds 28 1008 78 10000 5.23 151 06:37 25.05.2022
1936 Clouds 30 1011 74 10000 2.06 180 02:46 25.05.2022
1937 Clouds 26 1011 94 10000 1.54 0 23:52 24.05.2022
1938 Clouds 26 1011 94 10000 1.54 0 23:23 24.05.2022
1939 Clouds 24 1011 91 10000 3.56 114 22:18 24.05.2022
1940 Clouds 24 1011 91 10000 3.56 114 21:38 24.05.2022
1941 Clouds 24 1011 90 10000 3.11 121 21:19 24.05.2022
1942 Clouds 25 1010 89 10000 2.32 102 19:28 24.05.2022
1943 Clouds 27 1010 89 10000 2.06 130 18:40 24.05.2022
1944 Clouds 27 1010 89 10000 4.12 140 16:40 24.05.2022
1945 Clouds 27 1011 89 10000 4.12 160 15:54 24.05.2022
1946 Clouds 27 1011 89 10000 5.14 150 14:45 24.05.2022
1947 Clouds 28 1010 89 10000 7.72 160 13:48 24.05.2022
1948 Clouds 28 1010 89 10000 7.72 160 12:35 24.05.2022
1949 Haze 30 1008 79 10000 5.14 170 09:52 24.05.2022
1950 Haze 30 1008 79 10000 5.14 170 09:27 24.05.2022
1951 Haze 31 1008 70 10000 5.14 160 08:42 24.05.2022
1952 Haze 31 1008 70 10000 6.17 160 06:42 24.05.2022
1953 Clouds 30 1010 74 10000 2.57 240 03:48 24.05.2022
1954 Clouds 28 1011 75 10000 0.99 260 01:47 24.05.2022
1955 Clouds 27 1011 89 10000 2.57 330 00:53 24.05.2022
1956 Haze 24 1010 100 10000 2.57 330 22:25 23.05.2022
1957 Clouds 24 1009 100 10000 2.57 20 21:53 23.05.2022
1958 Clouds 24 1009 100 10000 1.54 0 20:53 23.05.2022
1959 Clouds 24 1009 100 10000 1.54 0 20:21 23.05.2022
1960 Clouds 25 1009 94 10000 1.54 0 19:30 23.05.2022
1961 Clouds 25 1009 94 10000 1.54 0 18:41 23.05.2022
1962 Clouds 25 1009 94 10000 1.54 0 18:22 23.05.2022
1963 Clouds 26 1011 89 10000 2.57 150 16:46 23.05.2022
1964 Clouds 28 1011 83 10000 7.72 160 14:44 23.05.2022
1965 Clouds 28 1009 83 10000 10.29 160 11:58 23.05.2022
1966 Clouds 28 1009 83 10000 10.29 160 11:20 23.05.2022
1967 Haze 30 1008 79 10000 6.17 160 09:48 23.05.2022
1968 Haze 31 1007 74 10000 7.72 160 08:50 23.05.2022
1969 Clouds 31 1007 74 10000 6.69 150 07:41 23.05.2022
1970 Clouds 32 1008 66 10000 7.2 160 06:41 23.05.2022
1971 Haze 32 1009 62 10000 2.57 140 04:40 23.05.2022
1972 Clouds 30 1011 70 10000 1.54 0 02:18 23.05.2022
1973 Clouds 30 1011 74 10000 5.14 130 01:33 23.05.2022
1974 Clouds 26 1010 89 10000 1.54 0 23:22 22.05.2022
1975 Clouds 26 1008 89 10000 2.57 110 22:33 22.05.2022
1976 Clouds 26 1008 94 10000 1.54 0 21:53 22.05.2022
1977 Clear 25 1009 88 10000 3.06 115 20:50 22.05.2022
1978 Clouds 25 1009 88 10000 2.98 121 20:23 22.05.2022
1979 Clouds 27 1008 89 10000 7.72 140 19:42 22.05.2022
1980 Clouds 27 1008 83 10000 7.72 140 18:52 22.05.2022
1981 Clouds 27 1008 83 10000 7.72 140 18:22 22.05.2022
1982 Clouds 26 1009 85 10000 3.52 115 17:26 22.05.2022
1983 Clouds 27 1009 89 10000 5.14 160 15:59 22.05.2022
1984 Clouds 28 1009 83 10000 7.72 160 14:48 22.05.2022
1985 Clouds 28 1009 83 10000 2.57 150 13:22 22.05.2022
1986 Clouds 28 1009 83 10000 7.72 150 12:48 22.05.2022
1987 Clouds 28 1008 89 10000 7.72 160 11:29 22.05.2022
1988 Haze 30 1006 74 10000 5.14 150 09:40 22.05.2022
1989 Haze 31 1006 70 10000 5.14 160 08:21 22.05.2022
1990 Haze 32 1006 66 10000 5.14 160 07:21 22.05.2022
1991 Haze 32 1008 62 10000 6.69 180 04:59 22.05.2022
1992 Haze 30 1010 70 10000 2.57 350 01:21 22.05.2022
1993 Haze 28 1009 78 10000 1.54 0 00:39 22.05.2022
1994 Haze 25 1009 94 10000 1.54 0 23:50 21.05.2022
1995 Clouds 24 1008 94 10000 1.03 0 22:26 21.05.2022
1996 Clouds 24 1008 94 10000 1.54 0 21:41 21.05.2022
1997 Clouds 24 1008 94 10000 1.54 0 20:48 21.05.2022
1998 Clouds 24 1008 94 10000 1.54 0 20:21 21.05.2022
1999 Clouds 24 1008 100 10000 1.03 0 19:25 21.05.2022
2000 Clouds 25 1009 94 10000 1.54 0 17:38 21.05.2022
2001 Clouds 26 1009 89 10000 3.09 130 15:38 21.05.2022
2002 Clouds 27 1010 83 10000 6.69 140 14:37 21.05.2022
2003 Clouds 27 1010 83 10000 7.72 150 13:39 21.05.2022
2004 Clouds 28 1008 83 10000 7.72 150 12:40 21.05.2022
2005 Clouds 28 1008 83 10000 7.72 160 11:54 21.05.2022
2006 Clouds 28 1008 78 10000 5.14 160 10:22 21.05.2022
2007 Clouds 29 1007 74 10000 5.14 160 09:20 21.05.2022
2008 Haze 30 1007 74 10000 5.14 150 08:47 21.05.2022
2009 Clouds 29 1007 72 10000 5.15 166 06:22 21.05.2022
2010 Clouds 31 1011 62 10000 2.57 160 02:24 21.05.2022
2011 Clouds 25 1010 94 10000 0 0 23:45 20.05.2022
2012 Clouds 24 1010 94 10000 1.54 0 22:42 20.05.2022
2013 Clouds 24 1010 94 10000 1.54 0 22:22 20.05.2022
2014 Clouds 24 1009 94 10000 1.54 0 21:27 20.05.2022
2015 Clouds 24 1009 94 10000 1.54 0 20:51 20.05.2022
2016 Clouds 24 1009 94 10000 1.54 0 19:55 20.05.2022
2017 Clouds 25 1010 88 10000 1.54 0 18:58 20.05.2022
2018 Clouds 25 1010 88 10000 1.54 0 18:24 20.05.2022
2019 Clouds 26 1010 83 10000 2.57 80 16:49 20.05.2022
2020 Clear 25 1011 85 10000 4.11 118 15:55 20.05.2022
2021 Clear 25 1011 85 10000 4.11 118 15:32 20.05.2022
2022 Clouds 26 1011 89 10000 5.14 140 14:28 20.05.2022
2023 Clouds 26 1011 89 10000 7.72 140 13:31 20.05.2022
2024 Clouds 28 1009 78 10000 5.14 150 10:48 20.05.2022
2025 Clouds 29 1009 74 10000 5.14 160 09:32 20.05.2022
2026 Clouds 30 1008 66 10000 5.14 160 08:37 20.05.2022
2027 Clouds 32 1009 58 10000 5.14 160 06:44 20.05.2022
2028 Clouds 32 1010 58 10000 7.72 160 05:52 20.05.2022
2029 Clear 31 1012 58 10000 5.14 140 02:52 20.05.2022
2030 Clouds 23 1012 100 10000 1.54 0 23:47 19.05.2022
2031 Clouds 23 1010 94 10000 1.54 0 22:39 19.05.2022
2032 Clouds 23 1010 94 10000 2.57 120 21:51 19.05.2022
2033 Clouds 23 1010 94 10000 2.57 120 21:24 19.05.2022
2034 Clouds 24 1010 88 10000 2.57 120 20:53 19.05.2022
2035 Clear 25 1010 86 10000 3.54 116 19:57 19.05.2022
2036 Clear 25 1010 87 10000 3.88 118 19:19 19.05.2022
2037 Clouds 25 1011 88 10000 2.57 150 17:47 19.05.2022
2038 Clouds 27 1012 83 10000 2.57 140 15:58 19.05.2022
2039 Clouds 27 1012 83 10000 5.14 140 14:50 19.05.2022
2040 Clouds 27 1012 83 10000 5.14 140 14:21 19.05.2022
2041 Clouds 27 1012 83 10000 5.14 140 14:21 19.05.2022
2042 Clear 26 1012 83 10000 5.84 132 12:19 19.05.2022
2043 Clouds 28 1010 78 10000 7.72 180 10:31 19.05.2022
2044 Clouds 30 1009 70 10000 5.14 160 08:46 19.05.2022
2045 Clouds 31 1009 66 10000 5.14 170 07:24 19.05.2022
2046 Clouds 32 1013 62 10000 5.14 150 03:52 19.05.2022
2047 Clouds 27 1013 83 10000 2.57 0 00:58 19.05.2022
2048 Clouds 25 1012 94 10000 2.57 0 23:40 18.05.2022
2049 Clouds 25 1012 88 10000 2.57 110 22:43 18.05.2022
2050 Clouds 25 1012 94 10000 2.57 130 21:43 18.05.2022
2051 Clouds 25 1012 86 10000 3.59 117 21:23 18.05.2022
2052 Clouds 26 1011 89 10000 2.57 140 20:21 18.05.2022
2053 Clouds 26 1012 94 10000 2.57 180 18:56 18.05.2022
2054 Clouds 26 1012 94 10000 1.54 0 17:57 18.05.2022
2055 Clouds 26 1012 94 10000 1.54 0 17:36 18.05.2022
2056 Clouds 26 1012 94 10000 1.54 0 17:18 18.05.2022
2057 Clouds 26 1012 89 10000 6.17 150 15:52 18.05.2022
2058 Clouds 26 1012 89 10000 6.17 150 15:33 18.05.2022
2059 Clouds 26 1013 94 10000 5.14 150 14:21 18.05.2022
2060 Clouds 28 1012 78 10000 5.14 150 12:54 18.05.2022
2061 Clouds 28 1011 78 10000 5.66 170 11:48 18.05.2022
2062 Clouds 28 1011 78 10000 5.66 170 11:30 18.05.2022
2063 Haze 28 1010 78 10000 7.72 160 10:43 18.05.2022
2064 Haze 31 1009 66 10000 5.14 190 07:59 18.05.2022
2065 Haze 31 1010 66 10000 5.14 200 06:54 18.05.2022
2066 Haze 32 1012 62 10000 5.14 150 03:34 18.05.2022
2067 Haze 26 1013 83 10000 2.06 330 00:42 18.05.2022
2068 Haze 23 1012 100 10000 1.03 300 23:21 17.05.2022
2069 Fog 23 1011 94 10000 2.57 320 21:21 17.05.2022
2070 Clouds 23 1011 100 10000 2.57 300 20:38 17.05.2022
2071 Clouds 23 1011 94 10000 2.57 310 19:30 17.05.2022
2072 Clouds 23 1012 100 10000 2.57 310 18:46 17.05.2022
2073 Clouds 23 1012 100 10000 1.54 0 17:34 17.05.2022
2074 Clouds 24 1013 94 10000 1.54 0 16:55 17.05.2022
2075 Clear 25 1012 86 10000 2.56 118 15:49 17.05.2022
2076 Clouds 25 1013 88 10000 2.57 320 14:52 17.05.2022
2077 Clouds 25 1013 88 10000 2.57 320 14:28 17.05.2022
2078 Clouds 26 1012 83 10000 2.06 70 12:37 17.05.2022
2079 Clouds 28 1011 74 10000 3.6 160 10:23 17.05.2022
2080 Haze 30 1010 66 10000 5.66 160 08:51 17.05.2022
2081 Haze 31 1010 62 10000 5.14 190 07:41 17.05.2022
2082 Haze 32 1011 62 10000 5.14 170 05:58 17.05.2022
2083 Haze 28 1013 83 10000 1.54 350 00:47 17.05.2022
2084 Clouds 24 1011 100 10000 1.54 0 22:51 16.05.2022
2085 Clouds 24 1011 100 10000 1.54 0 22:30 16.05.2022
2086 Clouds 24 1011 100 10000 1.54 0 20:56 16.05.2022
2087 Clouds 24 1011 100 10000 1.54 0 20:25 16.05.2022
2088 Clouds 25 1011 94 10000 2.57 140 18:41 16.05.2022
2089 Clouds 25 1012 94 10000 2.57 130 16:41 16.05.2022
2090 Clouds 25 1013 84 10000 1.08 109 14:48 16.05.2022
2091 Clouds 26 1012 89 10000 2.57 110 13:27 16.05.2022
2092 Clouds 27 1011 83 10000 2.57 240 11:42 16.05.2022
2093 Clouds 28 1010 78 10000 4.12 230 10:30 16.05.2022
2094 Clouds 27 1010 75 10000 1.87 242 07:45 16.05.2022
2095 Clouds 31 1011 70 10000 2.57 360 05:40 16.05.2022
2096 Clouds 24 1013 94 10000 2.57 60 00:35 16.05.2022
2097 Clouds 24 1011 100 10000 2.57 310 22:39 15.05.2022
2098 Clouds 24 1011 94 10000 2.57 340 21:54 15.05.2022
2099 Clouds 24 1011 94 10000 2.57 340 21:34 15.05.2022
2100 Clouds 24 1010 87 10000 1.21 55 20:35 15.05.2022
2101 Clouds 24 1010 87 10000 1.23 60 18:30 15.05.2022
2102 Clouds 23 1012 100 10000 1.54 0 16:37 15.05.2022
2103 Clear 25 1012 85 10000 1.12 60 14:18 15.05.2022
2104 Clouds 24 1011 100 10000 2.57 320 13:35 15.05.2022
2105 Clouds 28 1010 78 10000 1.03 160 11:55 15.05.2022
2106 Clouds 26 1010 82 10000 0.91 6 10:40 15.05.2022
2107 Clouds 30 1008 74 10000 5.14 220 08:52 15.05.2022
2108 Clouds 31 1008 70 10000 5.14 220 06:59 15.05.2022
2109 Clouds 31 1008 70 10000 5.14 220 06:39 15.05.2022
2110 Clouds 32 1012 62 10000 5.14 300 02:38 15.05.2022
2111 Clouds 25 1011 94 10000 5.14 300 23:59 14.05.2022
2112 Clouds 25 1011 94 10000 5.14 300 23:35 14.05.2022
2113 Clouds 25 1010 94 10000 2.57 0 21:45 14.05.2022
2114 Clouds 25 1010 94 10000 2.57 0 21:24 14.05.2022
2115 Clouds 25 1010 94 10000 1.03 0 19:54 14.05.2022
2116 Clouds 25 1010 88 10000 1.44 28 19:20 14.05.2022
2117 Clouds 25 1010 88 10000 1.44 28 18:47 14.05.2022
2118 Clouds 24 1010 100 10000 1.54 0 17:36 14.05.2022
2119 Clouds 25 1011 94 10000 1.54 0 15:47 14.05.2022
2120 Clouds 25 1011 100 10000 1.54 0 14:37 14.05.2022
2121 Clouds 26 1010 94 10000 1.54 0 12:51 14.05.2022
2122 Clouds 27 1009 89 10000 2.57 140 11:37 14.05.2022
2123 Clouds 28 1009 78 10000 3.09 180 10:23 14.05.2022
2124 Clouds 30 1008 70 10000 5.14 200 09:56 14.05.2022
2125 Clouds 30 1007 70 10000 5.14 230 08:59 14.05.2022
2126 Clouds 30 1007 70 10000 5.14 240 07:21 14.05.2022
2127 Clouds 31 1011 66 10000 2.57 300 03:41 14.05.2022
2128 Clouds 24 1011 94 10000 2.57 330 23:48 13.05.2022
2129 Clouds 24 1011 94 10000 2.57 330 23:22 13.05.2022
2130 Clouds 23 1010 100 10000 2.57 300 22:52 13.05.2022
2131 Clouds 23 1010 100 10000 2.57 300 22:20 13.05.2022
2132 Clouds 23 1009 100 10000 2.57 320 20:56 13.05.2022
2133 Clouds 23 1009 100 10000 2.57 320 20:28 13.05.2022
2134 Clouds 24 1009 100 10000 2.57 300 19:40 13.05.2022
2135 Clouds 24 1010 100 10000 2.57 300 18:41 13.05.2022
2136 Clouds 24 1010 100 10000 1.54 0 17:29 13.05.2022
2137 Clouds 25 1010 86 10000 1.76 358 16:23 13.05.2022
2138 Clear 24 1010 100 10000 1.54 0 15:43 13.05.2022
2139 Clouds 25 1011 94 10000 1.54 0 13:57 13.05.2022
2140 Clouds 26 1010 89 10000 2.57 300 12:33 13.05.2022
2141 Clouds 27 1009 83 10000 2.06 360 11:23 13.05.2022
2142 Clouds 30 1008 70 10000 5.14 290 09:35 13.05.2022
2143 Clouds 30 1007 70 10000 5.14 270 08:49 13.05.2022
2144 Clouds 30 1008 66 10000 2.57 230 07:48 13.05.2022
2145 Clouds 29 1008 79 10000 3.6 320 06:33 13.05.2022
2146 Clouds 29 1008 79 10000 3.6 320 06:33 13.05.2022
2147 Rain 24 1011 100 10000 5.14 320 03:34 13.05.2022
2148 Clouds 25 1013 94 10000 5.14 340 00:39 13.05.2022
2149 Clouds 24 1009 94 10000 5.14 300 22:45 12.05.2022
2150 Clouds 24 1009 94 10000 2.57 310 21:56 12.05.2022
2151 Clouds 25 1008 89 10000 2.69 17 20:29 12.05.2022
2152 Clouds 24 1008 94 10000 2.57 310 18:59 12.05.2022
2153 Clouds 24 1009 94 10000 2.57 300 17:24 12.05.2022
2154 Clouds 24 1009 94 10000 2.57 330 16:18 12.05.2022
2155 Clouds 26 1009 89 10000 2.57 310 14:41 12.05.2022
2156 Clouds 26 1010 89 10000 2.57 310 13:41 12.05.2022
2157 Clouds 27 1008 78 10000 2.57 300 10:46 12.05.2022
2158 Clouds 28 1007 74 10000 2.57 300 09:28 12.05.2022
2159 Clouds 28 1007 74 10000 2.57 300 09:28 12.05.2022
2160 Clouds 28 1006 74 10000 2.57 280 08:51 12.05.2022
2161 Rain 28 1007 78 10000 5.14 360 07:40 12.05.2022
2162 Rain 29 1008 79 10000 8.75 300 05:46 12.05.2022
2163 Haze 31 1010 70 10000 2.57 10 02:49 12.05.2022
2164 Clouds 26 1008 94 10000 2.57 320 00:35 12.05.2022
2165 Clouds 25 1007 94 10000 2.57 310 22:35 11.05.2022
2166 Clouds 25 1007 94 10000 2.57 340 21:46 11.05.2022
2167 Clouds 25 1007 94 10000 2.57 340 21:21 11.05.2022
2168 Clouds 25 1007 100 10000 2.57 330 18:33 11.05.2022
2169 Clouds 26 1007 86 10000 1.87 20 16:53 11.05.2022
2170 Clouds 27 1009 89 10000 3.6 20 14:58 11.05.2022
2171 Clouds 27 1009 89 10000 3.6 20 14:38 11.05.2022
2172 Clouds 27 1009 89 10000 3.6 20 14:18 11.05.2022
2173 Clouds 27 1007 94 10000 3.09 40 11:52 11.05.2022
2174 Clouds 29 1006 84 10000 5.14 40 10:32 11.05.2022
2175 Clouds 31 1004 70 10000 5.14 260 08:37 11.05.2022
2176 Clouds 31 1005 74 10000 5.14 240 05:27 11.05.2022
2177 Haze 28 1008 89 10000 3.6 320 00:42 11.05.2022
2178 Haze 25 1006 100 10000 2.57 340 22:31 10.05.2022
2179 Clouds 25 1005 100 10000 2.57 340 21:56 10.05.2022
2180 Clouds 26 1005 94 10000 2.57 320 20:56 10.05.2022
2181 Clouds 26 1005 94 10000 2.57 310 19:27 10.05.2022
2182 Clouds 27 1006 94 10000 2.57 330 17:54 10.05.2022
2183 Clouds 27 1006 94 10000 4.12 340 16:56 10.05.2022
2184 Haze 27 1005 94 10000 2.57 340 14:48 10.05.2022
2185 Clouds 27 1006 84 10000 0.45 136 12:39 10.05.2022
2186 Clouds 28 1005 89 10000 5.14 150 11:49 10.05.2022
2187 Clouds 27 1005 83 10000 0.88 229 11:18 10.05.2022
2188 Rain 29 1004 84 10000 3.6 180 10:22 10.05.2022
2189 Haze 30 1003 79 10000 5.14 130 09:25 10.05.2022
2190 Haze 32 1003 70 10000 6.69 210 06:46 10.05.2022
2191 Haze 33 1005 62 10000 2.57 0 03:29 10.05.2022
2192 Haze 29 1006 73 10000 1.54 0 00:34 10.05.2022
2193 Clouds 25 1005 100 10000 2.57 320 22:44 09.05.2022
2194 Clouds 24 1004 100 10000 2.57 350 21:48 09.05.2022
2195 Clouds 25 1004 100 10000 2.57 340 20:25 09.05.2022
2196 Clear 25 1004 100 10000 1.54 0 18:43 09.05.2022
2197 Clear 25 1004 100 10000 2.06 120 17:40 09.05.2022
2198 Clouds 26 1005 85 10000 1.28 10 16:29 09.05.2022
2199 Clouds 26 1006 94 10000 2.57 310 15:49 09.05.2022
2200 Clouds 26 1006 94 10000 2.57 310 14:47 09.05.2022
2201 Clouds 26 1006 94 10000 2.57 310 14:22 09.05.2022
2202 Clouds 27 1006 89 10000 5.14 310 13:36 09.05.2022
2203 Clouds 29 1005 84 10000 1.54 0 11:56 09.05.2022
2204 Haze 30 1004 79 10000 5.14 130 10:51 09.05.2022
2205 Haze 30 1004 79 10000 5.14 130 10:31 09.05.2022
2206 Clouds 32 1003 66 10000 3.6 220 08:23 09.05.2022
2207 Clouds 32 1004 66 10000 1.47 166 07:43 09.05.2022
2208 Haze 32 1007 70 10000 5.14 130 02:44 09.05.2022
2209 Clouds 25 1006 100 10000 1.54 0 23:29 08.05.2022
2210 Clouds 25 1006 94 10000 2.57 310 22:47 08.05.2022
2211 Clouds 25 1005 100 10000 2.57 300 21:47 08.05.2022
2212 Clouds 25 1005 100 10000 3.09 310 20:31 08.05.2022
2213 Clouds 26 1005 86 10000 1.99 61 19:37 08.05.2022
2214 Clouds 26 1005 94 10000 3.09 340 18:49 08.05.2022
2215 Clouds 26 1005 94 10000 4.12 330 17:52 08.05.2022
2216 Clouds 26 1006 94 10000 2.06 0 16:30 08.05.2022
2217 Clouds 26 1006 94 10000 1.54 0 15:25 08.05.2022
2218 Clouds 26 1006 94 10000 1.54 0 14:23 08.05.2022
2219 Clouds 27 1006 86 10000 0.82 126 11:53 08.05.2022
2220 Haze 29 1005 79 10000 5.14 150 10:27 08.05.2022
2221 Haze 30 1005 74 10000 5.14 200 09:54 08.05.2022
2222 Haze 32 1004 70 10000 5.14 200 08:23 08.05.2022
2223 Haze 33 1004 66 10000 5.14 170 06:21 08.05.2022
2224 Clouds 33 1007 62 10000 2.57 300 03:23 08.05.2022
2225 Clouds 30 1008 70 10000 1.54 0 01:19 08.05.2022
2226 Fog 25 1007 100 10000 1.54 330 23:57 07.05.2022
2227 Fog 25 1007 100 10000 1.54 330 23:34 07.05.2022
2228 Fog 24 1007 100 10000 1.36 38 22:46 07.05.2022
2229 Fog 25 1006 100 10000 1.72 31 21:57 07.05.2022
2230 Clouds 25 1007 87 10000 1.72 31 21:31 07.05.2022
2231 Clouds 25 1006 100 10000 1.59 16 20:25 07.05.2022
2232 Clouds 26 1006 100 10000 1.87 8 18:52 07.05.2022
2233 Clouds 26 1007 100 10000 1.54 0 16:50 07.05.2022
2234 Clouds 27 1008 89 10000 5.14 110 14:54 07.05.2022
2235 Clouds 28 1007 89 10000 5.14 160 11:51 07.05.2022
2236 Smoke 30 1006 74 10000 6.17 170 09:55 07.05.2022
2237 Smoke 31 1006 70 10000 6.69 160 08:33 07.05.2022
2238 Smoke 32 1005 66 10000 6.69 160 07:25 07.05.2022
2239 Smoke 33 1006 66 10000 5.14 160 06:42 07.05.2022
2240 Clouds 32 1008 66 10000 3.09 150 04:18 07.05.2022
2241 Clouds 25 1008 94 10000 3.6 310 23:51 06.05.2022
2242 Rain 25 1008 94 10000 3.6 340 22:40 06.05.2022
2243 Rain 25 1008 100 4000 2.57 330 21:53 06.05.2022
2244 Rain 25 1008 100 3000 2.06 330 21:24 06.05.2022
2245 Clouds 25 1007 100 10000 1.54 0 19:43 06.05.2022
2246 Clouds 25 1007 91 10000 1.87 9 19:21 06.05.2022
2247 Rain 25 1007 100 10000 2.57 320 18:29 06.05.2022
2248 Clouds 25 1007 91 10000 1.8 11 17:34 06.05.2022
2249 Clouds 26 1009 90 10000 1.62 28 15:51 06.05.2022
2250 Clouds 26 1009 94 10000 1.54 0 14:58 06.05.2022
2251 Clouds 26 1009 94 10000 2.06 0 13:38 06.05.2022
2252 Clouds 26 1008 94 10000 2.06 0 12:42 06.05.2022
2253 Clouds 26 1008 89 10000 3 108 11:58 06.05.2022
2254 Clouds 27 1008 89 10000 2.57 130 10:36 06.05.2022
2255 Clouds 28 1007 83 10000 3.6 200 09:46 06.05.2022
2256 Clouds 29 1006 79 10000 4.63 210 08:52 06.05.2022
2257 Clouds 29 1007 79 10000 3.6 220 07:26 06.05.2022
2258 Haze 30 1007 74 10000 5.14 210 06:24 06.05.2022
2259 Clouds 31 1009 70 10000 2.06 0 02:54 06.05.2022
2260 Clouds 29 1010 79 10000 1.54 0 01:57 06.05.2022
2261 Rain 25 1010 88 10000 0.82 42 22:45 05.05.2022
2262 Rain 25 1010 88 10000 0.82 42 22:45 05.05.2022
2263 Rain 25 1008 94 10000 2.57 340 21:31 05.05.2022
2264 Rain 24 1008 90 10000 1.76 80 20:26 05.05.2022
2265 Clouds 25 1007 100 10000 1.54 0 18:35 05.05.2022
2266 Clouds 25 1008 100 10000 2.06 0 16:40 05.05.2022
2267 Clouds 26 1010 94 10000 2.06 0 14:53 05.05.2022
2268 Rain 25 1010 91 10000 3.92 112 13:25 05.05.2022
2269 Rain 26 1009 94 10000 1.54 0 12:53 05.05.2022
2270 Clouds 26 1008 94 10000 2.57 170 10:52 05.05.2022
2271 Clouds 28 1007 78 10000 5.14 180 09:40 05.05.2022
2272 Rain 29 1007 74 10000 5.14 190 07:36 05.05.2022
2273 Clouds 26 1008 87 7148 0.9 292 05:19 05.05.2022
2274 Rain 25 1011 94 4000 5.14 350 01:59 05.05.2022
2275 Rain 24 1011 100 3000 5.14 320 01:29 05.05.2022
2276 Rain 25 1009 100 10000 5.14 350 23:52 04.05.2022
2277 Rain 25 1009 100 10000 2.57 350 22:46 04.05.2022
2278 Rain 25 1008 100 10000 2.57 340 21:50 04.05.2022
2279 Rain 25 1008 100 10000 2.57 340 21:29 04.05.2022
2280 Clouds 25 1008 94 10000 2.57 310 20:27 04.05.2022
2281 Clouds 25 1008 94 10000 2.57 300 19:53 04.05.2022
2282 Clouds 25 1007 89 10000 2.57 117 19:18 04.05.2022
2283 Clouds 25 1008 94 10000 1.54 0 18:22 04.05.2022
2284 Clouds 25 1008 94 10000 1.54 0 17:42 04.05.2022
2285 Clouds 26 1009 89 10000 1.54 0 15:42 04.05.2022
2286 Clouds 26 1009 89 10000 1.54 0 15:23 04.05.2022
2287 Clouds 25 1009 88 10000 1.54 0 14:21 04.05.2022
2288 Clouds 26 1009 89 10000 2.06 0 13:35 04.05.2022
2289 Clouds 27 1008 89 10000 5.14 120 12:33 04.05.2022
2290 Haze 29 1006 79 10000 10.29 150 10:41 04.05.2022
2291 Haze 29 1006 79 10000 10.29 150 09:43 04.05.2022
2292 Haze 31 1005 70 10000 10.29 150 08:46 04.05.2022
2293 Smoke 32 1006 66 10000 7.72 160 06:41 04.05.2022
2294 Clouds 31 1010 70 10000 4.63 160 02:59 04.05.2022
2295 Clouds 28 1010 78 10000 2.53 130 00:38 04.05.2022
2296 Clouds 25 1008 94 10000 1.54 0 22:37 03.05.2022
2297 Clouds 25 1008 94 10000 1.54 0 21:46 03.05.2022
2298 Clouds 26 1008 94 10000 1.54 0 20:54 03.05.2022
2299 Clouds 26 1008 94 10000 1.54 0 19:57 03.05.2022
2300 Clouds 27 1008 89 10000 1.54 0 18:54 03.05.2022
2301 Clouds 27 1008 89 10000 1.54 0 18:20 03.05.2022
2302 Clouds 27 1008 89 10000 5.14 150 16:44 03.05.2022
2303 Clouds 26 1009 94 10000 5.14 140 15:38 03.05.2022
2304 Clouds 28 1009 83 10000 7.72 140 12:47 03.05.2022
2305 Clouds 28 1009 83 10000 7.72 140 12:27 03.05.2022
2306 Haze 29 1007 84 10000 7.72 140 10:57 03.05.2022
2307 Haze 29 1007 84 10000 7.72 140 10:57 03.05.2022
2308 Clouds 27 1007 85 10000 7.43 149 09:34 03.05.2022
2309 Clouds 32 1006 66 10000 5.14 160 07:33 03.05.2022
2310 Clouds 32 1006 66 10000 5.14 160 06:44 03.05.2022
2311 Haze 28 1009 83 10000 1.54 0 00:54 03.05.2022
2312 Clouds 25 1008 94 10000 1.54 0 22:38 02.05.2022
2313 Clouds 25 1008 94 10000 1.54 0 21:52 02.05.2022
2314 Clouds 24 1007 100 10000 2.57 330 20:51 02.05.2022
2315 Haze 24 1008 100 10000 1.54 0 18:40 02.05.2022
2316 Haze 24 1008 100 10000 1.54 0 18:21 02.05.2022
2317 Haze 25 1008 94 10000 1.03 0 17:37 02.05.2022
2318 Haze 26 1008 89 10000 1.03 250 16:22 02.05.2022
2319 Clouds 26 1008 89 10000 3.9 115 15:30 02.05.2022
2320 Clouds 26 1008 89 10000 3.9 115 15:30 02.05.2022
2321 Haze 27 1009 89 10000 4.12 140 13:50 02.05.2022
2322 Clouds 27 1008 89 10000 4.12 150 12:19 02.05.2022
2323 Clouds 28 1006 83 10000 6.17 160 10:47 02.05.2022
2324 Clouds 30 1006 79 10000 7.72 140 09:20 02.05.2022
2325 Clouds 31 1005 70 10000 5.14 150 07:51 02.05.2022
2326 Clouds 30 1009 66 10000 2.57 160 03:48 02.05.2022
2327 Haze 26 1009 89 10000 2.06 0 00:24 02.05.2022
2328 Clouds 25 1009 94 10000 1.54 0 23:47 01.05.2022
2329 Clouds 24 1008 100 10000 3.09 330 22:25 01.05.2022
2330 Clouds 24 1007 94 10000 2.38 95 21:19 01.05.2022
2331 Clouds 25 1007 94 10000 1.54 0 19:51 01.05.2022
2332 Clouds 25 1007 89 10000 2.97 108 18:57 01.05.2022
2333 Clouds 25 1007 89 10000 3.17 115 18:27 01.05.2022
2334 Clouds 25 1008 89 10000 3.52 116 17:26 01.05.2022
2335 Rain 25 1008 88 10000 3.45 120 16:23 01.05.2022
2336 Rain 26 1008 89 10000 1.54 0 15:24 01.05.2022
2337 Clouds 26 1008 89 10000 2.57 140 13:42 01.05.2022
2338 Clouds 26 1008 87 9803 4.67 134 11:18 01.05.2022
2339 Clouds 31 1005 70 10000 5.14 150 08:53 01.05.2022
2340 Clouds 31 1005 70 10000 5.14 160 07:55 01.05.2022
2341 Clouds 32 1008 58 10000 5.14 190 03:31 01.05.2022
2342 Clouds 25 1009 94 10000 1.03 0 23:49 30.04.2022
2343 Clouds 24 1007 94 10000 1.03 0 21:44 30.04.2022
2344 Clouds 24 1007 100 10000 1.03 0 20:45 30.04.2022
2345 Clouds 24 1007 94 10000 1.54 0 19:41 30.04.2022
2346 Clouds 24 1007 94 10000 1.54 0 19:41 30.04.2022
2347 Clouds 25 1008 90 10000 2.15 29 17:45 30.04.2022
2348 Clouds 24 1009 100 10000 1.54 0 16:42 30.04.2022
2349 Clouds 25 1009 94 10000 2.06 0 15:24 30.04.2022
2350 Clouds 25 1009 94 10000 1.54 0 14:34 30.04.2022
2351 Clouds 26 1009 85 10000 2.92 336 12:40 30.04.2022
2352 Clouds 26 1008 89 10000 2.57 330 11:33 30.04.2022
2353 Clouds 27 1007 83 10000 3.6 280 10:43 30.04.2022
2354 Clouds 29 1006 79 10000 5.14 270 08:59 30.04.2022
2355 Rain 32 1006 62 10000 7.72 250 05:51 30.04.2022
2356 Haze 27 1009 89 10000 4.63 350 01:51 30.04.2022
2357 Rain 24 1008 100 10000 5.14 340 23:37 29.04.2022
2358 Fog 24 1007 100 1000 5.14 340 22:31 29.04.2022
2359 Fog 24 1007 100 1000 5.14 340 22:31 29.04.2022
2360 Fog 24 1006 100 10000 5.14 320 21:27 29.04.2022
2361 Clouds 24 1008 89 10000 2.49 8 20:39 29.04.2022
2362 Clouds 24 1008 88 10000 2.2 9 19:38 29.04.2022
2363 Clouds 25 1008 94 10000 2.57 310 17:54 29.04.2022
2364 Clouds 25 1009 85 10000 1.3 44 17:21 29.04.2022
2365 Clouds 25 1009 94 10000 1.03 0 14:57 29.04.2022
2366 Clouds 25 1009 94 10000 1.03 0 14:20 29.04.2022
2367 Clouds 28 1009 83 10000 5.14 170 12:43 29.04.2022
2368 Clouds 28 1008 78 10000 7.72 160 10:59 29.04.2022
2369 Clouds 31 1006 66 10000 7.72 200 08:33 29.04.2022
2370 Clouds 31 1007 66 10000 7.72 200 07:27 29.04.2022
2371 Clouds 32 1007 62 10000 7.72 190 06:37 29.04.2022
2372 Clouds 32 1010 58 10000 5.14 150 03:34 29.04.2022
2373 Haze 28 1010 78 10000 1.54 0 00:18 29.04.2022
2374 Haze 26 1009 89 10000 1.54 0 23:26 28.04.2022
2375 Clouds 25 1008 94 10000 1.54 310 22:40 28.04.2022
2376 Haze 25 1008 94 10000 1.54 350 21:46 28.04.2022
2377 Haze 25 1007 94 10000 1.54 130 20:55 28.04.2022
2378 Haze 25 1007 94 10000 1.54 130 20:22 28.04.2022
2379 Haze 25 1007 94 10000 2.57 130 19:40 28.04.2022
2380 Haze 25 1007 94 10000 2.57 130 19:21 28.04.2022
2381 Haze 25 1008 94 10000 5.14 150 18:23 28.04.2022
2382 Clouds 25 1008 94 10000 1.54 0 16:59 28.04.2022
2383 Clouds 25 1009 87 10000 3.6 123 16:21 28.04.2022
2384 Clouds 26 1009 89 10000 1.54 0 15:57 28.04.2022
2385 Clouds 26 1009 87 10000 4.1 126 15:23 28.04.2022
2386 Clouds 27 1009 89 10000 3.6 140 13:43 28.04.2022
2387 Clouds 26 1009 86 10000 4.31 127 12:34 28.04.2022
2388 Clouds 28 1008 83 10000 4.63 160 11:51 28.04.2022
2389 Clouds 26 1008 86 10000 4.71 131 10:30 28.04.2022
2390 Haze 30 1007 74 10000 5.14 150 09:51 28.04.2022
2391 Haze 31 1006 70 10000 5.14 170 07:45 28.04.2022
2392 Haze 32 1007 66 10000 5.14 170 06:54 28.04.2022
2393 Haze 32 1008 66 10000 5.14 200 05:54 28.04.2022
2394 Haze 32 1009 66 10000 5.14 190 04:44 28.04.2022
2395 Haze 30 1009 74 10000 5.14 200 03:28 28.04.2022
2396 Haze 25 1009 94 10000 1.54 0 23:52 27.04.2022
2397 Haze 24 1008 100 10000 2.57 320 22:30 27.04.2022
2398 Clouds 24 1008 100 10000 1.54 0 21:50 27.04.2022
2399 Clouds 24 1007 100 10000 2.57 340 20:51 27.04.2022
2400 Clouds 24 1007 100 10000 2.57 340 20:32 27.04.2022
2401 Clouds 25 1008 87 10000 1.21 57 19:36 27.04.2022
2402 Clouds 25 1007 94 10000 2.57 310 18:45 27.04.2022
2403 Clouds 25 1007 94 10000 2.57 310 18:21 27.04.2022
2404 Clouds 25 1009 100 10000 2.57 320 16:21 27.04.2022
2405 Clouds 26 1009 89 10000 2.06 0 13:29 27.04.2022
2406 Clouds 27 1008 89 10000 3.09 170 11:37 27.04.2022
2407 Clouds 29 1007 79 10000 5.14 170 10:51 27.04.2022
2408 Clouds 30 1006 74 10000 6.17 210 08:31 27.04.2022
2409 Clouds 33 1006 62 10000 5.14 200 06:44 27.04.2022
2410 Haze 32 1009 70 10000 2.57 0 02:40 27.04.2022
2411 Haze 30 1009 74 10000 2.57 160 01:24 27.04.2022
2412 Clouds 26 1009 94 10000 1.03 0 00:34 27.04.2022
2413 Clouds 25 1009 94 10000 1.54 0 23:24 26.04.2022
2414 Clouds 25 1008 94 10000 5.14 320 22:51 26.04.2022
2415 Clouds 25 1008 94 10000 5.14 320 22:31 26.04.2022
2416 Clouds 25 1008 94 10000 5.14 320 21:24 26.04.2022
2417 Clouds 26 1007 94 10000 3.6 320 20:38 26.04.2022
2418 Clouds 26 1008 94 10000 3.6 320 19:45 26.04.2022
2419 Clouds 26 1008 94 10000 3.6 320 19:26 26.04.2022
2420 Clouds 26 1008 94 10000 2.57 350 18:39 26.04.2022
2421 Clouds 26 1008 94 10000 2.57 310 17:41 26.04.2022
2422 Clouds 26 1009 94 10000 2.57 330 15:41 26.04.2022
2423 Clouds 28 1008 83 10000 2.57 70 13:51 26.04.2022
2424 Clouds 29 1007 79 10000 5.14 200 12:57 26.04.2022
2425 Clouds 28 1006 83 10000 5.14 180 11:23 26.04.2022
2426 Clouds 29 1006 84 10000 3.6 200 10:30 26.04.2022
2427 Clouds 31 1004 74 10000 5.14 180 08:33 26.04.2022
2428 Clouds 33 1006 66 10000 2.57 260 04:59 26.04.2022
2429 Clouds 33 1006 66 10000 2.57 260 04:22 26.04.2022
2430 Clouds 27 1008 89 10000 2.57 320 00:46 26.04.2022
2431 Clouds 25 1007 100 10000 2.57 320 23:49 25.04.2022
2432 Clouds 25 1006 94 10000 2.06 0 21:53 25.04.2022
2433 Clouds 25 1006 94 10000 2.06 0 21:25 25.04.2022
2434 Clouds 25 1006 100 10000 1.54 0 19:47 25.04.2022
2435 Clouds 25 1006 100 10000 1.03 0 18:31 25.04.2022
2436 Clouds 25 1007 100 10000 2.06 0 17:39 25.04.2022
2437 Clouds 26 1008 94 10000 1.54 0 16:35 25.04.2022
2438 Clouds 26 1008 84 10000 0.95 54 15:21 25.04.2022
2439 Clouds 26 1008 83 10000 1.12 99 14:23 25.04.2022
2440 Clouds 27 1007 89 10000 1.54 150 12:40 25.04.2022
2441 Clouds 29 1006 74 10000 5.14 220 10:29 25.04.2022
2442 Clouds 29 1006 74 10000 5.14 220 10:29 25.04.2022
2443 Clouds 30 1005 70 10000 5.14 220 09:39 25.04.2022
2444 Clouds 32 1004 62 10000 5.14 220 07:34 25.04.2022
2445 Clouds 32 1006 66 10000 5.14 240 05:53 25.04.2022
2446 Clouds 29 1009 74 10000 2.57 350 01:27 25.04.2022
2447 Clouds 23 1008 100 10000 1.54 0 23:54 24.04.2022
2448 Clouds 23 1008 100 10000 1.54 0 23:20 24.04.2022
2449 Clouds 23 1007 100 10000 1.54 0 22:37 24.04.2022
2450 Clouds 23 1007 100 10000 1.54 0 21:54 24.04.2022
2451 Clouds 23 1007 100 10000 1.54 0 21:20 24.04.2022
2452 Clouds 23 1007 100 10000 2.06 0 20:39 24.04.2022
2453 Clouds 24 1007 94 10000 2.06 0 19:51 24.04.2022
2454 Clouds 25 1006 83 10000 1.24 56 18:28 24.04.2022
2455 Clouds 25 1006 83 10000 1.24 56 17:40 24.04.2022
2456 Rain 25 1007 82 10000 1.36 89 17:20 24.04.2022
2457 Rain 24 1008 100 10000 2.06 340 16:49 24.04.2022
2458 Rain 24 1008 100 10000 2.06 340 16:20 24.04.2022
2459 Clouds 25 1008 94 10000 1.54 0 15:32 24.04.2022
2460 Clouds 25 1008 82 10000 2.11 112 14:30 24.04.2022
2461 Clouds 24 1008 100 10000 1.54 0 13:26 24.04.2022
2462 Clouds 25 1008 94 10000 1.54 0 12:37 24.04.2022
2463 Clouds 26 1008 89 10000 1.54 0 11:39 24.04.2022
2464 Rain 27 1007 83 10000 4.12 160 10:30 24.04.2022
2465 Rain 28 1006 74 10000 2.57 180 09:39 24.04.2022
2466 Clouds 28 1006 83 10000 3.6 150 07:31 24.04.2022
2467 Clouds 25 1009 100 2500 1.54 0 04:43 24.04.2022
2468 Clouds 28 1010 78 10000 5.14 330 01:38 24.04.2022
2469 Clouds 26 1010 94 10000 2.57 340 00:30 24.04.2022
2470 Clouds 24 1009 100 10000 2.57 340 23:45 23.04.2022
2471 Clouds 24 1009 100 10000 2.57 340 23:22 23.04.2022
2472 Clouds 23 1008 100 10000 2.57 320 21:53 23.04.2022
2473 Clouds 23 1008 100 10000 2.57 320 21:34 23.04.2022
2474 Clouds 25 1008 85 10000 1.17 37 20:51 23.04.2022
2475 Clouds 24 1007 94 10000 2.57 320 19:47 23.04.2022
2476 Clouds 25 1007 88 10000 1.8 356 19:19 23.04.2022
2477 Clouds 25 1007 88 10000 1.8 356 18:52 23.04.2022
2478 Clouds 24 1008 94 10000 3.09 300 17:51 23.04.2022
2479 Clouds 25 1008 89 10000 2.12 360 17:26 23.04.2022
2480 Clouds 24 1009 100 10000 2.06 0 16:41 23.04.2022
2481 Clouds 24 1009 100 10000 0 0 15:20 23.04.2022
2482 Rain 24 1009 100 10000 3.09 360 12:44 23.04.2022
2483 Clouds 25 1008 100 10000 2.57 30 10:43 23.04.2022
2484 Clouds 27 1007 94 10000 2.57 120 09:33 23.04.2022
2485 Clouds 30 1007 79 10000 5.14 260 06:32 23.04.2022
2486 Clouds 31 1009 66 10000 5.14 180 03:54 23.04.2022
2487 Clouds 26 1009 83 10000 2.57 320 00:57 23.04.2022
2488 Clouds 24 1008 94 10000 2.57 300 23:29 22.04.2022
2489 Clouds 24 1008 100 10000 1.54 0 22:20 22.04.2022
2490 Clouds 23 1007 100 10000 2.06 340 21:42 22.04.2022
2491 Clouds 24 1007 94 10000 2.57 300 20:46 22.04.2022
2492 Clouds 24 1007 94 10000 2.57 300 20:26 22.04.2022
2493 Clouds 24 1007 94 10000 1.54 0 19:18 22.04.2022
2494 Clouds 24 1008 94 10000 1.54 0 18:36 22.04.2022
2495 Clouds 24 1008 94 10000 1.54 0 17:40 22.04.2022
2496 Clouds 25 1008 94 10000 1.54 0 16:46 22.04.2022
2497 Clouds 25 1009 94 10000 2.06 0 15:32 22.04.2022
2498 Clouds 25 1009 94 10000 1.54 0 14:44 22.04.2022
2499 Clouds 25 1009 100 10000 1.54 0 13:43 22.04.2022
2500 Rain 25 1009 94 10000 1.54 0 12:57 22.04.2022
2501 Rain 25 1008 100 10000 2.06 0 11:43 22.04.2022
2502 Rain 25 1008 100 10000 2.06 0 11:20 22.04.2022
2503 Rain 27 1008 80 10000 1.32 145 10:47 22.04.2022
2504 Rain 27 1007 79 10000 1.12 203 10:27 22.04.2022
2505 Clouds 26 1007 89 10000 6.17 350 09:42 22.04.2022
2506 Haze 32 1006 66 10000 5.66 220 08:49 22.04.2022
2507 Haze 32 1006 58 10000 6.69 250 06:56 22.04.2022
2508 Haze 30 1009 66 10000 2.57 330 01:53 22.04.2022
2509 Clouds 24 1009 94 10000 2.06 360 23:53 21.04.2022
2510 Clouds 24 1008 94 10000 2.57 310 22:59 21.04.2022
2511 Clouds 24 1007 94 10000 2.57 310 21:56 21.04.2022
2512 Clouds 25 1007 93 6358 2.37 18 20:34 21.04.2022
2513 Clouds 24 1007 94 10000 2.57 0 19:51 21.04.2022
2514 Clouds 24 1007 94 10000 2.57 0 18:34 21.04.2022
2515 Clouds 25 1008 88 10000 2.57 0 17:49 21.04.2022
2516 Clouds 25 1008 94 10000 2.57 0 16:28 21.04.2022
2517 Clouds 25 1008 88 10000 1.54 0 15:20 21.04.2022
2518 Clouds 25 1008 88 10000 1.54 0 14:38 21.04.2022
2519 Clouds 26 1008 89 10000 2.06 0 13:23 21.04.2022
2520 Clouds 27 1008 89 10000 2.57 140 12:36 21.04.2022
2521 Haze 30 1007 70 10000 5.14 170 10:20 21.04.2022
2522 Haze 32 1006 62 10000 7.72 210 08:53 21.04.2022
2523 Haze 33 1006 58 10000 5.14 180 06:55 21.04.2022
2524 Haze 33 1007 58 10000 7.72 200 04:34 21.04.2022
2525 Haze 33 1008 62 10000 5.14 210 03:24 21.04.2022
2526 Haze 31 1008 70 10000 1.54 0 02:46 21.04.2022
2527 Clouds 28 1009 83 10000 2.06 340 00:43 21.04.2022
2528 Clouds 25 1009 94 10000 1.54 330 23:48 20.04.2022
2529 Clouds 25 1009 94 10000 1.54 330 23:21 20.04.2022
2530 Clouds 24 1008 94 10000 2.57 330 22:45 20.04.2022
2531 Clouds 24 1008 94 10000 2.57 330 22:18 20.04.2022
2532 Clouds 25 1008 90 10000 1.93 5 21:23 20.04.2022
2533 Clouds 25 1008 88 10000 1.77 10 20:22 20.04.2022
2534 Clouds 25 1008 100 10000 2.57 310 19:51 20.04.2022
2535 Clouds 25 1008 94 10000 1.54 0 18:52 20.04.2022
2536 Clouds 25 1008 86 10000 1.59 15 17:53 20.04.2022
2537 Clouds 25 1009 94 10000 2.57 350 16:40 20.04.2022
2538 Clouds 25 1010 100 10000 2.57 350 15:39 20.04.2022
2539 Clouds 27 1009 89 10000 2.57 120 12:47 20.04.2022
2540 Clouds 24 1008 100 10000 5.14 140 11:42 20.04.2022
2541 Clouds 29 1007 79 10000 1.03 190 10:51 20.04.2022
2542 Clouds 30 1006 74 10000 4.12 220 09:34 20.04.2022
2543 Clouds 31 1006 66 10000 3.6 200 08:51 20.04.2022
2544 Clouds 31 1006 66 10000 3.6 200 08:19 20.04.2022
2545 Clouds 33 1006 62 10000 5.14 210 06:26 20.04.2022
2546 Clouds 29 1009 69 10000 1.98 240 02:58 20.04.2022
2547 Clouds 26 1010 79 10000 1.1 24 00:22 20.04.2022
2548 Clouds 25 1010 84 10000 1.35 12 23:19 19.04.2022
2549 Clouds 23 1009 100 10000 2.57 320 22:24 19.04.2022
2550 Clouds 25 1009 86 10000 1.59 353 21:55 19.04.2022
2551 Clouds 25 1008 86 10000 1.69 0 20:59 19.04.2022
2552 Clouds 25 1008 86 10000 1.69 0 20:37 19.04.2022
2553 Clouds 25 1008 86 10000 1.4 24 19:41 19.04.2022
2554 Clouds 24 1009 100 10000 2.57 320 18:37 19.04.2022
2555 Clouds 24 1010 100 10000 1.54 0 17:24 19.04.2022
2556 Clouds 25 1010 94 10000 1.03 0 16:42 19.04.2022
2557 Clouds 25 1010 94 10000 1.03 0 16:42 19.04.2022
2558 Clouds 25 1010 85 10000 1.14 77 16:20 19.04.2022
2559 Clouds 26 1011 94 10000 1.03 0 14:46 19.04.2022
2560 Clouds 26 1011 94 10000 1.03 0 14:46 19.04.2022
2561 Haze 26 1010 94 10000 1.03 320 12:58 19.04.2022
2562 Haze 26 1010 94 10000 1.03 320 12:36 19.04.2022
2563 Clouds 27 1009 89 10000 1.03 50 11:35 19.04.2022
2564 Clouds 28 1008 83 10000 2.57 250 09:51 19.04.2022
2565 Clouds 29 1007 74 10000 7.72 270 07:49 19.04.2022
2566 Clouds 29 1009 79 10000 4.12 330 04:26 19.04.2022
2567 Clouds 26 1012 89 10000 5.14 280 02:39 19.04.2022
2568 Haze 26 1011 89 10000 3.09 310 00:23 19.04.2022
2569 Fog 24 1010 100 10000 3.09 300 22:54 18.04.2022
2570 Rain 25 1009 91 10000 2.97 2 21:28 18.04.2022
2571 Rain 24 1008 100 10000 3.6 310 20:40 18.04.2022
2572 Rain 24 1008 100 10000 3.6 310 20:22 18.04.2022
2573 Rain 24 1008 100 10000 2.06 0 19:40 18.04.2022
2574 Clouds 24 1008 100 10000 1.74 352 18:49 18.04.2022
2575 Clouds 25 1009 94 10000 2.06 0 17:49 18.04.2022
2576 Clouds 25 1009 94 10000 2.06 0 17:49 18.04.2022
2577 Clouds 25 1009 88 10000 1.48 27 17:19 18.04.2022
2578 Clouds 25 1009 88 10000 1.48 27 16:39 18.04.2022
2579 Clouds 26 1010 94 10000 4.12 330 15:41 18.04.2022
2580 Clouds 26 1010 94 10000 1.54 0 14:27 18.04.2022
2581 Clouds 27 1010 89 10000 1.54 0 13:24 18.04.2022
2582 Clouds 27 1009 85 10000 2.26 112 12:27 18.04.2022
2583 Clouds 29 1007 79 10000 5.14 160 10:58 18.04.2022
2584 Clouds 30 1007 74 10000 5.14 180 09:53 18.04.2022
2585 Clouds 28 1007 78 10000 2.75 188 09:27 18.04.2022
2586 Clouds 32 1006 66 10000 7.72 200 07:29 18.04.2022
2587 Haze 33 1009 55 10000 4.12 270 03:51 18.04.2022
2588 Clouds 25 1010 94 10000 3.09 340 23:30 17.04.2022
2589 Clouds 24 1009 100 10000 3.6 340 22:37 17.04.2022
2590 Clouds 24 1009 100 10000 1.54 0 21:34 17.04.2022
2591 Clouds 24 1008 100 10000 2.57 320 20:53 17.04.2022
2592 Clouds 25 1008 90 10000 2.07 16 20:19 17.04.2022
2593 Clouds 25 1008 88 10000 1.42 71 19:20 17.04.2022
2594 Clouds 25 1008 87 10000 1.25 87 17:34 17.04.2022
2595 Clouds 26 1009 87 10000 1.64 104 15:37 17.04.2022
2596 Clouds 27 1009 89 10000 2.57 140 14:46 17.04.2022
2597 Clouds 26 1010 94 10000 2.57 140 13:37 17.04.2022
2598 Clouds 27 1008 89 10000 5.14 160 12:52 17.04.2022
2599 Clouds 29 1007 74 10000 5.14 180 10:59 17.04.2022
2600 Clouds 29 1007 74 10000 5.14 180 10:30 17.04.2022
2601 Clouds 31 1006 66 10000 5.14 200 09:55 17.04.2022
2602 Clouds 31 1006 66 10000 5.14 200 09:21 17.04.2022
2603 Clouds 32 1006 62 10000 5.14 190 08:41 17.04.2022
2604 Rain 32 1007 58 10000 5.66 190 06:32 17.04.2022
2605 Haze 30 1009 66 10000 2.57 20 02:31 17.04.2022
2606 Clouds 26 1010 83 10000 2.57 290 00:42 17.04.2022
2607 Clouds 22 1009 100 10000 2.57 300 23:38 16.04.2022
2608 Fog 23 1008 100 3000 2.57 310 21:49 16.04.2022
2609 Fog 23 1007 100 1000 2.57 310 20:54 16.04.2022
2610 Clouds 23 1007 100 10000 2.57 310 19:28 16.04.2022
2611 Clouds 25 1007 86 10000 2.09 102 18:44 16.04.2022
2612 Rain 26 1008 86 10000 2.25 123 17:21 16.04.2022
2613 Clouds 23 1009 100 10000 1.54 0 16:19 16.04.2022
2614 Clouds 24 1009 94 10000 1.54 0 14:58 16.04.2022
2615 Clouds 24 1009 94 10000 1.54 0 14:40 16.04.2022
2616 Clouds 24 1009 94 10000 1.54 0 13:50 16.04.2022
2617 Clouds 24 1009 94 10000 1.54 0 13:18 16.04.2022
2618 Clouds 25 1008 88 10000 1.54 0 11:43 16.04.2022
2619 Clouds 25 1007 88 10000 2.57 300 10:35 16.04.2022
2620 Clouds 26 1008 83 10000 3.09 330 09:37 16.04.2022
2621 Clouds 26 1007 83 10000 5.14 350 08:52 16.04.2022
2622 Rain 26 1007 89 10000 6.69 340 07:22 16.04.2022
2623 Rain 26 1009 94 10000 5.14 320 05:38 16.04.2022
2624 Haze 29 1010 74 10000 5.14 10 01:47 16.04.2022
2625 Haze 25 1009 94 10000 2.57 350 23:52 15.04.2022
2626 Clouds 24 1008 100 10000 1.54 300 22:48 15.04.2022
2627 Clouds 24 1008 100 10000 1.54 300 22:28 15.04.2022
2628 Clouds 24 1007 100 10000 3.09 320 21:21 15.04.2022
2629 Clouds 25 1007 88 10000 1.83 35 20:38 15.04.2022
2630 Rain 24 1006 100 10000 2.57 290 19:43 15.04.2022
2631 Clouds 24 1007 100 10000 2.06 0 18:58 15.04.2022
2632 Clouds 26 1007 88 10000 1.66 87 18:26 15.04.2022
2633 Clouds 25 1008 100 10000 2.06 0 17:57 15.04.2022
2634 Clouds 25 1008 100 10000 2.06 0 17:24 15.04.2022
2635 Clouds 25 1009 100 10000 2.57 0 16:24 15.04.2022
2636 Clouds 26 1008 87 10000 3.34 113 15:42 15.04.2022
2637 Clouds 26 1008 87 10000 3.34 113 15:42 15.04.2022
2638 Clouds 27 1008 89 10000 2.57 0 13:55 15.04.2022
2639 Clouds 27 1009 85 10000 3.89 122 12:50 15.04.2022
2640 Clouds 27 1008 85 10000 4.03 128 12:21 15.04.2022
2641 Clouds 27 1008 85 10000 4.03 128 11:42 15.04.2022
2642 Clouds 27 1008 85 10000 4.23 139 10:46 15.04.2022
2643 Haze 31 1006 70 10000 5.14 170 09:59 15.04.2022
2644 Haze 31 1006 70 10000 5.14 170 09:22 15.04.2022
2645 Haze 31 1006 70 10000 5.14 180 08:39 15.04.2022
2646 Haze 31 1006 70 10000 5.14 200 06:48 15.04.2022
2647 Haze 32 1007 62 10000 3.13 195 04:42 15.04.2022
2648 Clouds 28 1009 72 10000 0.57 69 00:32 15.04.2022
2649 Haze 24 1008 100 10000 2.57 320 23:20 14.04.2022
2650 Haze 23 1008 100 10000 2.57 290 22:44 14.04.2022
2651 Haze 23 1008 100 10000 2.57 290 22:25 14.04.2022
2652 Clouds 24 1007 94 10000 2.57 320 21:39 14.04.2022
2653 Fog 24 1007 100 7000 4.12 330 19:24 14.04.2022
2654 Clouds 26 1006 83 10000 1.78 102 18:38 14.04.2022
2655 Clouds 25 1007 94 10000 1.54 0 17:45 14.04.2022
2656 Clouds 25 1008 94 10000 1.54 0 16:49 14.04.2022
2657 Clouds 25 1008 94 10000 2.06 0 15:50 14.04.2022
2658 Clouds 26 1008 94 10000 1.54 0 13:52 14.04.2022
2659 Clouds 26 1008 94 10000 1.54 0 13:19 14.04.2022
2660 Clouds 27 1008 89 10000 1.54 0 12:32 14.04.2022
2661 Clouds 27 1008 82 10000 2.66 119 11:37 14.04.2022
2662 Haze 29 1007 79 10000 5.14 200 10:58 14.04.2022
2663 Haze 29 1007 79 10000 5.14 200 10:31 14.04.2022
2664 Haze 30 1006 74 10000 5.14 200 09:28 14.04.2022
2665 Haze 32 1006 66 10000 5.14 200 07:54 14.04.2022
2666 Clouds 34 1007 52 10000 5.14 330 05:35 14.04.2022
2667 Clouds 25 1009 94 10000 2.57 290 00:22 14.04.2022
2668 Clouds 23 1007 94 10000 2.57 300 22:37 13.04.2022
2669 Clouds 23 1007 94 10000 2.57 310 21:42 13.04.2022
2670 Clouds 23 1007 94 10000 1.54 0 20:35 13.04.2022
2671 Clouds 23 1007 94 10000 1.54 0 19:46 13.04.2022
2672 Clouds 24 1007 100 10000 1.54 0 18:36 13.04.2022
2673 Clouds 24 1007 100 10000 1.54 0 17:25 13.04.2022
2674 Clouds 24 1008 100 10000 1.54 0 16:49 13.04.2022
2675 Clouds 25 1008 94 10000 2.57 330 15:44 13.04.2022
2676 Clouds 25 1008 94 10000 2.57 330 15:21 13.04.2022
2677 Clouds 25 1008 94 10000 2.57 300 14:34 13.04.2022
2678 Clouds 25 1008 94 10000 5.14 10 13:37 13.04.2022
2679 Rain 25 1008 94 10000 5.14 30 12:45 13.04.2022
2680 Rain 25 1007 100 10000 5.14 20 11:25 13.04.2022
2681 Rain 27 1006 94 7000 5.14 40 09:53 13.04.2022
2682 Rain 29 1005 79 10000 5.14 290 08:44 13.04.2022
2683 Clouds 33 1004 62 10000 7.72 270 07:38 13.04.2022
2684 Clouds 33 1004 62 10000 5.14 270 06:47 13.04.2022
2685 Clouds 33 1004 62 10000 5.14 270 06:23 13.04.2022
2686 Clouds 27 1007 89 10000 2.57 310 00:28 13.04.2022
2687 Clouds 25 1006 88 10000 2.57 310 23:55 12.04.2022
2688 Clouds 24 1006 94 10000 1.54 350 22:31 12.04.2022
2689 Clouds 24 1005 100 10000 1.54 360 21:42 12.04.2022
2690 Clouds 24 1005 100 10000 1.54 0 20:44 12.04.2022
2691 Clouds 24 1005 100 10000 1.54 0 19:54 12.04.2022
2692 Clouds 24 1005 100 10000 1.54 0 19:54 12.04.2022
2693 Clouds 24 1005 100 10000 1.54 0 19:35 12.04.2022
2694 Clouds 24 1006 100 10000 1.54 0 18:52 12.04.2022
2695 Clouds 25 1006 94 10000 1.54 0 17:36 12.04.2022
2696 Clouds 25 1007 94 10000 1.54 0 16:34 12.04.2022
2697 Clouds 25 1007 88 10000 2.06 0 15:33 12.04.2022
2698 Clouds 26 1007 89 10000 3.41 112 14:33 12.04.2022
2699 Clouds 26 1006 89 10000 1.03 200 13:40 12.04.2022
2700 Clouds 27 1007 83 10000 3.97 116 13:20 12.04.2022
2701 Haze 28 1005 83 10000 1.54 0 11:47 12.04.2022
2702 Haze 28 1005 83 10000 1.54 0 11:24 12.04.2022
2703 Clouds 29 1005 84 10000 5.14 150 09:25 12.04.2022
2704 Rain 30 1004 74 10000 5.14 140 08:26 12.04.2022
2705 Clouds 33 1005 66 10000 7.72 200 06:33 12.04.2022
2706 Haze 33 1006 66 10000 5.14 220 05:36 12.04.2022
2707 Haze 31 1008 70 10000 2.06 0 01:47 12.04.2022
2708 Clouds 25 1007 94 10000 2.57 0 23:20 11.04.2022
2709 Clouds 24 1006 100 10000 2.57 320 21:50 11.04.2022
2710 Clear 26 1005 84 10000 1.68 29 21:18 11.04.2022
2711 Clouds 25 1005 94 10000 3.6 320 20:30 11.04.2022
2712 Clouds 25 1005 94 10000 3.6 320 20:30 11.04.2022
2713 Clouds 26 1005 86 10000 2.02 28 19:57 11.04.2022
2714 Clouds 26 1005 86 10000 2.02 18 19:22 11.04.2022
2715 Clouds 26 1005 86 10000 2.02 18 18:49 11.04.2022
2716 Clouds 26 1005 86 10000 2.21 18 17:57 11.04.2022
2717 Clouds 25 1007 88 10000 3.6 310 16:57 11.04.2022
2718 Clouds 25 1007 88 10000 3.6 310 16:20 11.04.2022
2719 Clouds 25 1007 94 10000 1.54 0 14:35 11.04.2022
2720 Clouds 28 1006 94 10000 3.09 50 12:53 11.04.2022
2721 Clouds 28 1006 94 10000 3.09 50 12:35 11.04.2022
2722 Clouds 28 1006 89 10000 5.14 160 11:42 11.04.2022
2723 Clouds 31 1005 74 10000 5.14 190 10:34 11.04.2022
2724 Clouds 31 1004 74 10000 7.72 190 09:22 11.04.2022
2725 Haze 33 1004 62 10000 7.72 200 06:51 11.04.2022
2726 Haze 32 1007 66 10000 2.57 180 02:30 11.04.2022
2727 Clouds 24 1006 100 10000 1.03 0 22:39 10.04.2022
2728 Clouds 25 1006 87 10000 1.97 6 21:55 10.04.2022
2729 Clouds 25 1006 87 10000 1.97 6 21:33 10.04.2022
2730 Clouds 24 1005 100 10000 2.57 300 20:31 10.04.2022
2731 Clouds 25 1006 89 10000 1.85 14 19:45 10.04.2022
2732 Clouds 25 1006 89 10000 1.73 9 19:22 10.04.2022
2733 Clouds 25 1006 89 10000 1.73 9 18:43 10.04.2022
2734 Clouds 25 1007 100 10000 2.57 320 17:54 10.04.2022
2735 Clouds 25 1007 100 10000 2.57 320 17:34 10.04.2022
2736 Clouds 26 1007 94 10000 1.54 0 16:22 10.04.2022
2737 Clouds 26 1007 86 10000 1.26 61 15:19 10.04.2022
2738 Clouds 27 1007 85 10000 1.14 66 14:22 10.04.2022
2739 Clouds 27 1006 89 10000 2.57 160 12:34 10.04.2022
2740 Clouds 28 1006 83 10000 5.14 190 11:46 10.04.2022
2741 Clouds 28 1006 83 10000 5.14 190 11:28 10.04.2022
2742 Haze 30 1005 74 10000 5.14 190 10:48 10.04.2022
2743 Haze 31 1004 70 10000 7.72 250 09:55 10.04.2022
2744 Haze 31 1004 70 10000 7.72 250 09:21 10.04.2022
2745 Haze 32 1004 66 10000 5.14 250 08:21 10.04.2022
2746 Haze 33 1004 62 10000 7.72 270 07:18 10.04.2022
2747 Haze 33 1005 66 10000 5.14 240 05:19 10.04.2022
2748 Haze 30 1008 74 10000 5.14 320 02:20 10.04.2022
2749 Clouds 25 1007 100 10000 2.57 310 23:54 09.04.2022
2750 Clouds 25 1007 100 10000 2.57 310 23:35 09.04.2022
2751 Clouds 25 1005 100 10000 2.57 310 22:43 09.04.2022
2752 Clouds 25 1005 100 10000 2.57 310 21:32 09.04.2022
2753 Clouds 25 1005 100 10000 2.57 330 20:39 09.04.2022
2754 Clouds 25 1005 89 10000 1.74 6 20:18 09.04.2022
2755 Clouds 25 1005 100 10000 2.57 300 19:41 09.04.2022
2756 Clouds 25 1006 100 10000 2.57 300 18:26 09.04.2022
2757 Clouds 25 1006 100 10000 2.57 300 17:52 09.04.2022
2758 Clouds 25 1006 89 10000 1.17 47 17:18 09.04.2022
2759 Clouds 26 1007 94 10000 2.57 320 16:42 09.04.2022
2760 Clouds 25 1007 100 10000 2.57 320 15:52 09.04.2022
2761 Clouds 25 1007 100 10000 2.57 320 15:26 09.04.2022
2762 Clouds 26 1007 94 10000 2.57 310 14:26 09.04.2022
2763 Clouds 26 1007 100 10000 2.57 350 13:34 09.04.2022
2764 Clouds 27 1006 94 10000 2.57 320 12:57 09.04.2022
2765 Clouds 27 1006 89 10000 3.6 170 11:51 09.04.2022
2766 Clouds 28 1005 83 10000 3.6 260 10:52 09.04.2022
2767 Clouds 28 1005 83 10000 3.6 260 10:18 09.04.2022
2768 Clouds 29 1005 79 10000 4.12 260 09:23 09.04.2022
2769 Rain 29 1004 74 10000 0.78 99 08:26 09.04.2022
2770 Clouds 29 1006 79 10000 5.14 340 05:21 09.04.2022
2771 Haze 25 1008 94 10000 2.57 320 00:35 09.04.2022
2772 Haze 24 1007 100 10000 2.57 320 23:24 08.04.2022
2773 Clouds 24 1006 100 10000 1.54 0 21:53 08.04.2022
2774 Clouds 25 1006 88 10000 1.27 13 20:44 08.04.2022
2775 Clouds 25 1005 87 10000 1.71 99 19:50 08.04.2022
2776 Clouds 25 1005 94 10000 1.54 0 18:56 08.04.2022
2777 Clouds 25 1005 94 10000 1.54 0 18:22 08.04.2022
2778 Clouds 25 1006 94 10000 1.54 0 17:29 08.04.2022
2779 Clouds 25 1007 100 10000 1.54 0 16:58 08.04.2022
2780 Clouds 25 1007 100 10000 1.54 0 16:27 08.04.2022
2781 Clouds 25 1007 100 10000 2.06 0 15:36 08.04.2022
2782 Clouds 26 1007 86 10000 3.41 122 14:52 08.04.2022
2783 Rain 26 1008 86 10000 3.96 119 14:20 08.04.2022
2784 Rain 26 1008 94 10000 3.6 30 13:31 08.04.2022
2785 Clouds 28 1007 78 10000 6.17 160 12:55 08.04.2022
2786 Clouds 28 1006 78 10000 6.69 160 11:35 08.04.2022
2787 Haze 30 1004 70 10000 7.72 170 09:59 08.04.2022
2788 Haze 30 1004 70 10000 7.72 170 09:19 08.04.2022
2789 Haze 32 1004 62 10000 7.72 190 07:44 08.04.2022
2790 Haze 32 1004 62 10000 7.72 200 06:45 08.04.2022
2791 Clouds 30 1008 66 10000 2.57 0 02:55 08.04.2022
2792 Clouds 25 1008 94 10000 2.57 320 00:31 08.04.2022
2793 Clouds 23 1007 94 10000 2.57 270 23:47 07.04.2022
2794 Fog 22 1007 100 10000 2.57 270 22:55 07.04.2022
2795 Fog 22 1007 100 10000 2.57 270 22:36 07.04.2022
2796 Clouds 24 1007 82 10000 1.34 61 22:18 07.04.2022
2797 Clouds 23 1006 100 10000 4.12 310 21:30 07.04.2022
2798 Fog 23 1005 100 1000 2.57 320 20:46 07.04.2022
2799 Clouds 24 1006 83 10000 1.58 66 20:20 07.04.2022
2800 Clouds 25 1006 84 10000 1.98 87 17:43 07.04.2022
2801 Clouds 25 1006 84 10000 2.14 97 17:22 07.04.2022
2802 Clouds 25 1006 84 10000 2.14 97 16:34 07.04.2022
2803 Clouds 25 1007 83 10000 2.36 104 15:52 07.04.2022
2804 Clouds 25 1008 94 10000 2.57 320 13:59 07.04.2022
2805 Clouds 25 1008 94 10000 2.57 320 13:24 07.04.2022
2806 Clouds 25 1008 94 10000 2.57 320 13:24 07.04.2022
2807 Clouds 26 1007 79 10000 2.61 125 11:53 07.04.2022
2808 Clouds 28 1005 78 10000 2.57 170 10:54 07.04.2022
2809 Rain 28 1005 68 10000 1.8 194 09:19 07.04.2022
2810 Haze 32 1005 58 10000 6.17 170 06:59 07.04.2022
2811 Haze 31 1005 62 10000 5.14 210 05:28 07.04.2022
2812 Clouds 31 1008 62 10000 2.06 0 02:37 07.04.2022
2813 Clouds 26 1008 89 10000 1.54 0 00:44 07.04.2022
2814 Clouds 24 1007 94 10000 1.54 0 23:36 06.04.2022
2815 Clouds 23 1006 94 10000 1.54 0 22:45 06.04.2022
2816 Clouds 23 1006 94 10000 1.54 0 22:20 06.04.2022
2817 Clouds 24 1006 80 10000 2.06 18 20:50 06.04.2022
2818 Clouds 24 1006 80 10000 2.1 19 20:26 06.04.2022
2819 Clouds 24 1006 80 10000 2.1 19 19:44 06.04.2022
2820 Clouds 23 1006 94 10000 1.54 0 18:48 06.04.2022
2821 Clouds 23 1007 94 10000 2.57 320 17:36 06.04.2022
2822 Clouds 25 1007 77 10000 1.48 12 16:58 06.04.2022
2823 Clouds 25 1007 77 10000 1.48 12 16:34 06.04.2022
2824 Clouds 24 1008 94 10000 2.57 0 15:44 06.04.2022
2825 Clouds 24 1008 94 10000 2.06 0 13:53 06.04.2022
2826 Clouds 25 1008 88 10000 2.06 0 12:30 06.04.2022
2827 Clouds 26 1007 94 10000 1.54 0 11:44 06.04.2022
2828 Clouds 28 1006 83 10000 1.03 0 10:33 06.04.2022
2829 Clouds 28 1006 83 10000 1.03 0 10:33 06.04.2022
2830 Clouds 28 1006 83 10000 1.03 0 10:33 06.04.2022
2831 Rain 28 1006 78 10000 3.6 200 09:59 06.04.2022
2832 Clouds 28 1006 78 10000 3.6 200 09:25 06.04.2022
2833 Clouds 28 1006 65 10000 3.19 315 08:18 06.04.2022
2834 Clouds 29 1006 64 10000 2.56 268 06:40 06.04.2022
2835 Clouds 27 1009 83 10000 2.57 320 01:26 06.04.2022
2836 Rain 24 1008 94 10000 3.09 300 23:50 05.04.2022
2837 Rain 24 1007 94 10000 3.6 320 21:58 05.04.2022
2838 Rain 24 1008 86 10000 2.28 1 21:18 05.04.2022
2839 Clouds 25 1007 85 10000 2.07 357 20:24 05.04.2022
2840 Clouds 25 1007 83 10000 1.81 2 18:45 05.04.2022
2841 Clouds 24 1009 94 10000 2.57 320 17:22 05.04.2022
2842 Clouds 24 1009 94 10000 4.12 350 16:44 05.04.2022
2843 Clouds 26 1009 79 10000 1.09 334 15:52 05.04.2022
2844 Clouds 26 1009 79 10000 1.09 334 15:31 05.04.2022
2845 Clouds 25 1010 94 10000 4.12 330 13:55 05.04.2022
2846 Clouds 25 1009 94 10000 5.14 330 12:39 05.04.2022
2847 Clouds 26 1008 89 10000 5.14 320 11:43 05.04.2022
2848 Clouds 26 1008 89 10000 5.14 320 11:25 05.04.2022
2849 Clouds 26 1008 89 10000 5.14 320 11:25 05.04.2022
2850 Clouds 30 1007 66 10000 7.72 200 09:40 05.04.2022
2851 Clouds 30 1006 66 10000 7.72 200 08:47 05.04.2022
2852 Clouds 31 1009 62 10000 2.57 310 04:19 05.04.2022
2853 Clouds 24 1010 100 10000 1.54 0 23:45 04.04.2022
2854 Clouds 23 1009 100 10000 1.54 0 22:38 04.04.2022
2855 Clouds 25 1009 86 10000 1.67 40 21:51 04.04.2022
2856 Clouds 25 1009 85 10000 1.46 57 21:20 04.04.2022
2857 Clouds 25 1009 85 10000 1.46 57 20:47 04.04.2022
2858 Clouds 25 1008 86 10000 1.63 82 19:30 04.04.2022
2859 Clouds 25 1008 85 10000 1.5 94 18:46 04.04.2022
2860 Clouds 25 1008 84 10000 1.52 109 17:33 04.04.2022
2861 Clouds 25 1010 94 10000 1.54 0 16:36 04.04.2022
2862 Rain 26 1010 82 10000 1.77 110 15:34 04.04.2022
2863 Clouds 26 1010 89 10000 1.54 0 14:49 04.04.2022
2864 Clouds 26 1010 89 10000 1.54 0 14:31 04.04.2022
2865 Clouds 26 1010 80 10000 2.86 123 13:18 04.04.2022
2866 Clouds 27 1008 78 10000 4.12 170 11:29 04.04.2022
2867 Rain 29 1008 74 10000 5.14 170 10:29 04.04.2022
2868 Haze 33 1007 55 10000 7.72 170 06:58 04.04.2022
2869 Haze 31 1009 62 10000 4.12 140 03:18 04.04.2022
2870 Clouds 24 1010 94 10000 2.57 320 23:47 03.04.2022
2871 Clouds 23 1009 100 10000 2.57 330 22:31 03.04.2022
2872 Clouds 24 1010 82 10000 1.38 57 21:32 03.04.2022
2873 Clouds 24 1009 94 10000 2.57 340 20:36 03.04.2022
2874 Clouds 24 1009 85 10000 1.95 35 19:29 03.04.2022
2875 Clouds 24 1009 94 10000 1.54 0 18:27 03.04.2022
2876 Clouds 24 1010 94 10000 1.54 0 17:41 03.04.2022
2877 Clouds 25 1010 94 10000 1.54 0 16:50 03.04.2022
2878 Clouds 25 1011 85 10000 2.41 44 15:59 03.04.2022
2879 Clouds 26 1011 80 10000 1.8 89 14:27 03.04.2022
2880 Clouds 25 1011 83 10000 1.95 74 13:38 03.04.2022
2881 Clouds 26 1010 81 10000 3.02 127 11:59 03.04.2022
2882 Rain 27 1009 83 10000 3.6 140 10:22 03.04.2022
2883 Rain 27 1008 78 10000 3.41 157 09:19 03.04.2022
2884 Clouds 25 1008 88 10000 5.14 100 06:41 03.04.2022
2885 Clouds 32 1010 55 10000 2.06 0 03:36 03.04.2022
2886 Clouds 25 1010 88 10000 2.57 330 00:29 03.04.2022
2887 Clouds 23 1009 100 10000 1.54 320 22:52 02.04.2022
2888 Rain 23 1009 100 10000 2.06 350 21:56 02.04.2022
2889 Rain 24 1009 79 10000 1.42 52 21:26 02.04.2022
2890 Clouds 23 1009 94 10000 2.06 300 20:39 02.04.2022
2891 Clouds 24 1009 94 10000 2.06 300 18:51 02.04.2022
2892 Clouds 24 1009 94 10000 2.06 300 18:20 02.04.2022
2893 Rain 25 1009 81 10000 1.82 16 17:43 02.04.2022
2894 Clouds 25 1011 88 10000 2.06 0 15:58 02.04.2022
2895 Clouds 25 1011 88 10000 2.06 0 15:20 02.04.2022
2896 Clouds 25 1011 94 10000 4.12 20 14:32 02.04.2022
2897 Rain 25 1011 88 10000 1.54 0 13:34 02.04.2022
2898 Clouds 25 1010 88 10000 1.54 0 12:32 02.04.2022
2899 Haze 27 1009 78 10000 2.57 280 10:46 02.04.2022
2900 Haze 29 1007 65 10000 5.14 300 08:33 02.04.2022
2901 Haze 31 1008 62 10000 5.14 240 05:24 02.04.2022
2902 Clouds 30 1010 66 10000 2.06 120 03:28 02.04.2022
2903 Clouds 23 1009 94 10000 2.57 350 23:55 01.04.2022
2904 Clouds 22 1009 100 10000 2.57 330 22:51 01.04.2022
2905 Clouds 23 1007 94 10000 0 0 21:27 01.04.2022
2906 Clouds 23 1008 100 10000 1.54 0 20:49 01.04.2022
2907 Clouds 23 1008 100 10000 1.54 0 19:50 01.04.2022
2908 Rain 23 1008 100 10000 1.54 0 19:26 01.04.2022
2909 Clouds 23 1009 100 10000 1.54 0 18:42 01.04.2022
2910 Rain 24 1009 94 10000 2.57 320 17:43 01.04.2022
2911 Clouds 24 1010 94 10000 2.57 320 16:33 01.04.2022
2912 Clouds 23 1010 94 5911 3.65 353 15:18 01.04.2022
2913 Rain 24 1010 94 10000 4.12 350 13:56 01.04.2022
2914 Rain 24 1010 94 10000 4.12 350 13:31 01.04.2022
2915 Rain 24 1010 94 10000 5.14 20 12:26 01.04.2022
2916 Rain 24 1009 94 10000 5.14 350 10:52 01.04.2022
2917 Rain 25 1008 88 10000 7.72 350 09:41 01.04.2022
2918 Rain 26 1008 83 10000 7.72 330 07:41 01.04.2022
2919 Rain 26 1008 89 10000 5.14 320 05:45 01.04.2022
2920 Rain 27 1009 83 10000 5.14 340 04:43 01.04.2022
2921 Rain 25 1011 94 10000 5.02 312 03:19 01.04.2022
2922 Rain 26 1010 83 10000 5.14 340 01:51 01.04.2022
2923 Clouds 24 1008 94 10000 2.57 310 22:34 31.03.2022
2924 Clouds 24 1007 94 10000 2.57 330 21:44 31.03.2022
2925 Clouds 24 1007 94 10000 2.57 330 20:51 31.03.2022
2926 Clouds 25 1007 90 10000 2.98 349 20:28 31.03.2022
2927 Clouds 25 1007 94 10000 2.57 330 19:43 31.03.2022
2928 Clouds 25 1008 94 10000 2.57 320 18:34 31.03.2022
2929 Clouds 25 1008 88 10000 3.05 350 16:53 31.03.2022
2930 Rain 25 1008 88 10000 3.18 347 15:56 31.03.2022
2931 Rain 25 1009 87 10000 3.3 340 15:29 31.03.2022
2932 Rain 26 1009 89 10000 2.57 360 14:48 31.03.2022
2933 Clouds 26 1009 85 10000 3.53 329 13:42 31.03.2022
2934 Clouds 28 1008 78 10000 5.14 310 11:31 31.03.2022
2935 Clouds 28 1007 74 10000 5.14 300 10:26 31.03.2022
2936 Clouds 29 1007 74 10000 5.14 300 09:39 31.03.2022
2937 Clouds 31 1006 66 10000 7.72 280 07:48 31.03.2022
2938 Clouds 31 1010 62 10000 10.29 320 02:33 31.03.2022
2939 Clouds 24 1009 94 10000 5.14 340 23:24 30.03.2022
2940 Clouds 24 1007 94 10000 6.17 350 21:55 30.03.2022
2941 Clouds 24 1007 94 10000 6.17 350 21:30 30.03.2022
2942 Clouds 24 1007 94 10000 5.14 350 20:37 30.03.2022
2943 Clouds 24 1007 94 10000 5.14 340 19:47 30.03.2022
2944 Clouds 24 1007 94 10000 4.12 320 18:41 30.03.2022
2945 Clouds 25 1007 84 10000 3.51 344 17:51 30.03.2022
2946 Clouds 24 1008 88 10000 2.57 320 16:59 30.03.2022
2947 Clouds 24 1008 88 10000 2.57 320 16:39 30.03.2022
2948 Clouds 24 1009 88 10000 2.57 330 15:47 30.03.2022
2949 Clouds 24 1009 94 10000 2.57 320 14:22 30.03.2022
2950 Clouds 26 1009 83 10000 2.57 330 13:20 30.03.2022
2951 Clouds 26 1009 87 10000 3.47 346 11:55 30.03.2022
2952 Clouds 29 1007 70 10000 7.72 300 10:48 30.03.2022
2953 Clouds 31 1006 62 10000 7.72 300 09:30 30.03.2022
2954 Clouds 33 1006 55 10000 7.72 300 07:59 30.03.2022
2955 Clouds 32 1007 74 10000 7.72 310 05:41 30.03.2022
2956 Clouds 32 1007 74 10000 7.72 310 05:23 30.03.2022
2957 Clouds 30 1009 70 10000 5.14 330 01:45 30.03.2022
2958 Clouds 23 1009 100 10000 2.57 320 22:38 29.03.2022
2959 Clear 24 1007 94 10000 2.06 320 21:47 29.03.2022
2960 Clear 24 1006 94 10000 2.57 340 20:55 29.03.2022
2961 Clouds 25 1007 83 10000 3.41 351 20:25 29.03.2022
2962 Clouds 25 1007 82 10000 3.53 349 19:20 29.03.2022
2963 Clear 24 1007 94 10000 2.57 300 18:48 29.03.2022
2964 Clear 24 1008 94 10000 1.54 350 17:39 29.03.2022
2965 Clouds 25 1008 82 10000 3.14 5 16:59 29.03.2022
2966 Clouds 25 1008 82 10000 3.14 5 16:58 29.03.2022
2967 Clouds 25 1008 82 10000 3.05 19 16:20 29.03.2022
2968 Clouds 25 1009 88 10000 4.12 330 14:53 29.03.2022
2969 Clouds 25 1009 88 10000 4.12 330 14:24 29.03.2022
2970 Clouds 27 1009 89 10000 4.12 360 12:57 29.03.2022
2971 Clouds 25 1010 91 10000 2.76 359 11:45 29.03.2022
2972 Clouds 30 1007 74 10000 2.57 230 10:58 29.03.2022
2973 Clouds 31 1007 70 10000 3.6 240 09:49 29.03.2022
2974 Clouds 31 1006 66 10000 5.14 260 07:57 29.03.2022
2975 Clouds 30 1008 70 10000 5.14 250 05:35 29.03.2022
2976 Clouds 25 1010 88 10000 5.14 320 00:50 29.03.2022
2977 Clouds 24 1010 94 10000 4.12 330 23:24 28.03.2022
2978 Clouds 23 1009 100 10000 2.57 20 22:53 28.03.2022
2979 Clouds 23 1009 100 10000 2.57 20 22:26 28.03.2022
2980 Clouds 23 1008 100 10000 5.14 320 20:58 28.03.2022
2981 Clouds 25 1007 82 10000 1.54 79 20:23 28.03.2022
2982 Clouds 25 1007 82 10000 1.37 67 19:44 28.03.2022
2983 Clouds 25 1007 83 10000 1.54 58 19:25 28.03.2022
2984 Clouds 25 1007 83 10000 1.54 58 18:37 28.03.2022
2985 Clouds 24 1008 94 10000 1.54 0 17:39 28.03.2022
2986 Clouds 25 1009 86 10000 2.3 40 16:20 28.03.2022
2987 Clouds 25 1009 86 10000 1.48 45 14:29 28.03.2022
2988 Clouds 25 1009 86 10000 1.31 46 13:58 28.03.2022
2989 Clouds 27 1008 83 10000 1.54 0 12:20 28.03.2022
2990 Clouds 27 1008 83 10000 1.54 0 11:23 28.03.2022
2991 Clouds 30 1007 70 10000 5.14 260 09:42 28.03.2022
2992 Clouds 30 1007 70 10000 5.14 260 09:19 28.03.2022
2993 Clouds 31 1006 62 10000 5.14 260 08:22 28.03.2022
2994 Clouds 32 1006 62 10000 5.14 250 07:27 28.03.2022
2995 Clouds 32 1009 55 10000 5.14 250 03:27 28.03.2022
2996 Clouds 26 1008 81 10000 1.1 84 23:28 27.03.2022
2997 Clouds 24 1008 94 10000 2.57 320 22:24 27.03.2022
2998 Clouds 24 1007 100 10000 5.14 330 21:41 27.03.2022
2999 Clouds 24 1007 100 10000 5.14 320 20:54 27.03.2022
3000 Rain 24 1007 100 10000 2.57 330 19:46 27.03.2022
3001 Rain 24 1008 100 10000 5.14 330 18:54 27.03.2022
3002 Rain 24 1008 100 10000 5.14 330 18:26 27.03.2022
3003 Rain 24 1008 100 10000 5.14 330 18:26 27.03.2022
3004 Rain 25 1009 94 10000 5.14 350 17:38 27.03.2022
3005 Clouds 25 1010 94 10000 2.06 340 15:59 27.03.2022
3006 Clouds 26 1010 89 10000 3.6 320 14:26 27.03.2022
3007 Rain 27 1010 89 10000 1.54 0 13:54 27.03.2022
3008 Rain 28 1008 83 10000 1.54 0 11:52 27.03.2022
3009 Clouds 28 1008 83 10000 3.09 260 10:28 27.03.2022
3010 Haze 30 1006 74 10000 5.14 260 08:21 27.03.2022
3011 Haze 32 1007 62 10000 5.14 340 05:19 27.03.2022
3012 Clouds 28 1010 83 10000 5.14 340 00:37 27.03.2022
3013 Clouds 24 1009 100 10000 3.6 320 22:58 26.03.2022
3014 Clouds 24 1009 100 10000 3.6 320 22:27 26.03.2022
3015 Clouds 24 1008 100 10000 2.57 320 21:31 26.03.2022
3016 Clouds 24 1008 100 10000 1.54 300 19:46 26.03.2022
3017 Clouds 24 1007 100 10000 1.54 0 18:56 26.03.2022
3018 Clouds 24 1008 100 10000 1.54 0 17:44 26.03.2022
3019 Clouds 24 1008 100 10000 1.54 0 17:44 26.03.2022
3020 Clouds 24 1008 100 10000 1.54 0 17:44 26.03.2022
3021 Clouds 24 1008 100 10000 1.54 0 17:22 26.03.2022
3022 Clouds 25 1009 100 10000 2.57 0 15:52 26.03.2022
3023 Clouds 26 1010 94 10000 2.57 0 14:21 26.03.2022
3024 Clouds 26 1010 94 10000 2.57 0 13:51 26.03.2022
3025 Rain 27 1010 89 10000 1.54 0 12:36 26.03.2022
3026 Clouds 27 1009 78 10000 1.08 16 11:18 26.03.2022
3027 Haze 29 1007 74 10000 3.6 230 09:22 26.03.2022
3028 Haze 31 1006 66 10000 6.17 240 07:36 26.03.2022
3029 Haze 32 1007 58 10000 7.72 240 05:52 26.03.2022
3030 Haze 32 1009 55 10000 2.57 320 03:22 26.03.2022
3031 Haze 23 1009 100 10000 5.14 300 22:50 25.03.2022
3032 Clouds 23 1008 100 10000 2.57 340 20:58 25.03.2022
3033 Clouds 23 1008 100 10000 2.57 340 20:26 25.03.2022
3034 Clouds 23 1008 100 10000 2.57 310 19:20 25.03.2022
3035 Clouds 23 1007 100 10000 2.57 320 18:36 25.03.2022
3036 Clouds 25 1007 88 10000 1.81 352 17:34 25.03.2022
3037 Clouds 24 1008 94 10000 1.54 0 16:29 25.03.2022
3038 Clouds 24 1009 100 10000 1.54 0 15:37 25.03.2022
3039 Clouds 24 1009 100 10000 1.54 0 13:32 25.03.2022
3040 Clouds 27 1009 83 10000 1.85 311 11:25 25.03.2022
3041 Clouds 27 1008 89 10000 3.09 350 09:37 25.03.2022
3042 Clouds 27 1008 83 10000 3.09 350 08:56 25.03.2022
3043 Clouds 28 1007 78 10000 5.14 310 07:46 25.03.2022
3044 Clouds 28 1007 78 10000 5.14 310 07:19 25.03.2022
3045 Clouds 31 1009 70 10000 7.72 340 03:45 25.03.2022
3046 Clouds 25 1011 94 10000 5.14 320 23:49 24.03.2022
3047 Clouds 24 1010 94 10000 5.14 320 22:24 24.03.2022
3048 Clouds 23 1008 94 10000 5.14 330 20:58 24.03.2022
3049 Clouds 24 1008 94 10000 5.14 320 19:49 24.03.2022
3050 Clouds 24 1008 94 10000 5.14 320 18:45 24.03.2022
3051 Clouds 24 1007 91 10000 2.12 23 17:36 24.03.2022
3052 Clouds 24 1007 92 10000 2.57 17 16:33 24.03.2022
3053 Clouds 24 1010 94 10000 2.57 210 14:52 24.03.2022
3054 Clouds 24 1010 94 10000 2.57 210 14:22 24.03.2022
3055 Clouds 24 1010 94 10000 2.57 240 13:34 24.03.2022
3056 Rain 25 1010 100 10000 4.12 90 12:24 24.03.2022
3057 Clouds 26 1009 94 10000 2.57 350 11:27 24.03.2022
3058 Clouds 29 1007 74 10000 5.14 260 09:27 24.03.2022
3059 Clouds 31 1006 70 10000 7.72 250 08:34 24.03.2022
3060 Clouds 32 1006 58 10000 7.72 300 05:30 24.03.2022
3061 Clouds 32 1006 58 10000 7.72 300 05:30 24.03.2022
3062 Clouds 27 1009 78 10000 5.14 330 23:59 23.03.2022
3063 Clouds 25 1008 88 10000 2.28 31 22:19 23.03.2022
3064 Clouds 25 1008 89 10000 2.19 19 21:21 23.03.2022
3065 Clouds 24 1006 94 10000 4.12 330 19:56 23.03.2022
3066 Clouds 24 1006 94 10000 4.12 330 19:25 23.03.2022
3067 Clouds 25 1007 91 10000 3.02 360 17:48 23.03.2022
3068 Clouds 25 1007 91 10000 2.92 358 17:18 23.03.2022
3069 Rain 25 1009 90 10000 2.36 352 15:25 23.03.2022
3070 Rain 25 1009 90 10000 2.36 352 14:47 23.03.2022
3071 Clouds 25 1009 89 10000 2.47 348 13:30 23.03.2022
3072 Clouds 26 1008 94 10000 4.12 40 10:50 23.03.2022
3073 Clouds 28 1006 83 10000 5.14 350 08:21 23.03.2022
3074 Clouds 31 1006 66 10000 5.14 300 05:50 23.03.2022
3075 Clouds 29 1010 74 10000 5.14 320 01:59 23.03.2022
3076 Clouds 28 1009 83 10000 5.14 340 00:25 23.03.2022
3077 Clouds 28 1009 83 10000 5.14 340 00:25 23.03.2022
3078 Clouds 23 1008 100 10000 5.14 330 21:36 22.03.2022
3079 Clouds 24 1008 100 10000 5.14 340 20:57 22.03.2022
3080 Clouds 24 1007 100 10000 2.57 330 19:59 22.03.2022
3081 Clouds 24 1007 100 10000 2.57 330 19:25 22.03.2022
3082 Clouds 25 1006 86 10000 1.76 37 18:45 22.03.2022
3083 Clouds 24 1008 100 10000 2.57 350 17:42 22.03.2022
3084 Clouds 24 1008 100 10000 2.57 310 16:35 22.03.2022
3085 Clouds 24 1009 100 10000 1.54 0 15:37 22.03.2022
3086 Clouds 26 1008 86 10000 1.9 17 15:18 22.03.2022
3087 Clouds 25 1009 94 10000 2.57 320 14:41 22.03.2022
3088 Clouds 25 1009 94 10000 2.57 320 13:42 22.03.2022
3089 Clouds 25 1008 94 10000 5.14 30 11:52 22.03.2022
3090 Rain 26 1007 94 10000 5.14 50 10:53 22.03.2022
3091 Clouds 31 1006 70 10000 6.17 270 08:43 22.03.2022
3092 Clouds 32 1005 66 10000 2.57 270 07:21 22.03.2022
3093 Clouds 30 1008 79 10000 5.14 250 03:55 22.03.2022
3094 Clouds 30 1009 70 10000 3.6 340 00:46 22.03.2022
3095 Clouds 25 1009 94 10000 2.57 340 22:46 21.03.2022
3096 Clouds 24 1008 94 10000 2.57 300 21:20 21.03.2022
3097 Clouds 24 1008 100 10000 2.57 300 20:42 21.03.2022
3098 Clouds 24 1008 100 10000 2.57 300 19:59 21.03.2022
3099 Clouds 24 1008 100 10000 2.57 300 19:35 21.03.2022
3100 Clouds 24 1008 100 10000 2.57 330 18:46 21.03.2022
3101 Clouds 24 1008 100 10000 2.57 330 17:35 21.03.2022
3102 Clouds 25 1008 94 10000 2.57 330 16:58 21.03.2022
3103 Clouds 25 1008 94 10000 2.57 330 16:24 21.03.2022
3104 Clouds 25 1008 94 10000 1.54 330 15:21 21.03.2022
3105 Clouds 25 1009 100 10000 1.54 330 14:28 21.03.2022
3106 Clouds 27 1009 81 10000 1.33 76 12:53 21.03.2022
3107 Clouds 27 1009 80 10000 1.28 89 11:54 21.03.2022
3108 Clouds 29 1007 79 10000 1.54 0 10:49 21.03.2022
3109 Haze 31 1006 74 10000 2.57 120 09:42 21.03.2022
3110 Haze 32 1006 66 10000 5.14 190 07:22 21.03.2022
3111 Haze 33 1007 62 10000 5.14 200 04:54 21.03.2022
3112 Haze 29 1008 74 10000 5.14 350 00:36 21.03.2022
3113 Haze 25 1008 94 10000 2.57 320 22:56 20.03.2022
3114 Clouds 24 1008 100 10000 1.54 310 21:57 20.03.2022
3115 Clouds 24 1008 100 10000 1.54 310 21:30 20.03.2022
3116 Clouds 24 1007 100 10000 2.57 290 20:48 20.03.2022
3117 Clouds 24 1007 100 10000 2.57 290 20:25 20.03.2022
3118 Clouds 24 1007 100 10000 2.57 320 19:43 20.03.2022
3119 Clouds 25 1007 94 10000 2.57 320 18:44 20.03.2022
3120 Clouds 25 1007 100 10000 2.57 350 17:38 20.03.2022
3121 Clear 25 1008 100 10000 2.57 330 16:59 20.03.2022
3122 Clear 26 1009 94 10000 2.57 320 15:56 20.03.2022
3123 Rain 26 1008 86 10000 2.49 90 14:36 20.03.2022
3124 Rain 27 1009 83 10000 2.59 123 13:20 20.03.2022
3125 Drizzle 29 1007 74 10000 1.03 0 11:37 20.03.2022
3126 Rain 30 1006 74 10000 5.14 180 09:58 20.03.2022
3127 Haze 32 1005 66 10000 6.17 200 07:51 20.03.2022
3128 Haze 33 1005 66 10000 7.72 240 05:49 20.03.2022
3129 Clouds 30 1006 67 10000 3.03 236 03:18 20.03.2022
3130 Haze 29 1008 74 10000 2.57 360 00:48 20.03.2022
3131 Haze 27 1008 83 10000 1.03 0 23:21 19.03.2022
3132 Clouds 26 1008 86 10000 2.13 15 21:41 19.03.2022
3133 Clouds 25 1007 85 10000 1.95 13 21:18 19.03.2022
3134 Clouds 26 1006 84 10000 1.7 55 19:21 19.03.2022
3135 Clouds 24 1007 100 10000 3.09 320 18:25 19.03.2022
3136 Clouds 25 1007 94 10000 4.12 330 17:41 19.03.2022
3137 Clouds 25 1007 100 10000 1.54 0 16:29 19.03.2022
3138 Clouds 25 1008 94 10000 1.54 0 15:20 19.03.2022
3139 Clouds 25 1008 94 10000 2.57 110 13:35 19.03.2022
3140 Rain 26 1008 94 10000 5.14 140 12:42 19.03.2022
3141 Clouds 26 1007 94 10000 5.14 280 11:54 19.03.2022
3142 Clouds 26 1007 94 10000 5.14 280 11:33 19.03.2022
3143 Haze 29 1005 84 10000 2.57 190 08:23 19.03.2022
3144 Haze 32 1005 66 10000 7.72 200 04:23 19.03.2022
3145 Haze 33 1005 58 10000 3.09 320 02:30 19.03.2022
3146 Haze 28 1006 83 10000 2.57 320 23:46 18.03.2022
3147 Clouds 26 1006 85 10000 1.5 14 22:29 18.03.2022
3148 Clouds 26 1005 94 10000 3.09 320 21:55 18.03.2022
3149 Clouds 26 1005 94 10000 2.57 320 19:57 18.03.2022
3150 Clouds 26 1004 86 10000 1.09 17 19:22 18.03.2022
3151 Clouds 26 1004 85 10000 0.99 35 18:27 18.03.2022
3152 Clouds 26 1006 94 10000 1.54 0 16:52 18.03.2022
3153 Clouds 27 1006 94 10000 1.54 0 15:43 18.03.2022
3154 Clouds 27 1006 94 10000 1.54 0 15:43 18.03.2022
3155 Clouds 27 1007 83 10000 1.57 104 14:24 18.03.2022
3156 Clouds 27 1006 89 10000 2.57 140 12:39 18.03.2022
3157 Rain 26 1004 94 10000 2.57 140 10:58 18.03.2022
3158 Clouds 28 1004 89 10000 3.6 140 09:30 18.03.2022
3159 Clouds 29 1004 84 10000 5.66 120 08:42 18.03.2022
3160 Clouds 33 1003 62 10000 5.14 260 06:40 18.03.2022
3161 Clouds 33 1006 62 10000 5.14 340 03:19 18.03.2022
3162 Clouds 30 1008 66 10000 4.12 330 00:53 18.03.2022
3163 Clouds 27 1007 83 10000 2.57 330 23:44 17.03.2022
3164 Clouds 25 1006 100 10000 4.12 330 22:25 17.03.2022
3165 Fog 24 1006 100 10000 2.57 330 21:48 17.03.2022
3166 Fog 24 1006 100 10000 2.57 330 21:48 17.03.2022
3167 Fog 24 1006 100 10000 2.57 330 21:26 17.03.2022
3168 Fog 24 1005 100 10000 2.57 330 20:45 17.03.2022
3169 Clouds 25 1005 94 10000 2.57 330 19:50 17.03.2022
3170 Clouds 25 1005 94 10000 2.57 330 19:29 17.03.2022
3171 Clouds 25 1005 100 10000 1.54 0 18:46 17.03.2022
3172 Clouds 26 1006 94 10000 2.57 310 16:58 17.03.2022
3173 Haze 26 1007 94 10000 3.09 310 15:44 17.03.2022
3174 Haze 26 1007 94 10000 3.09 310 15:25 17.03.2022
3175 Haze 26 1007 94 10000 1.54 310 14:29 17.03.2022
3176 Haze 26 1006 94 10000 1.54 50 12:54 17.03.2022
3177 Haze 26 1006 94 10000 1.54 50 12:23 17.03.2022
3178 Haze 27 1006 89 10000 1.54 130 11:27 17.03.2022
3179 Clouds 27 1006 81 10000 3.36 137 10:30 17.03.2022
3180 Rain 29 1004 84 10000 2.57 150 08:37 17.03.2022
3181 Rain 29 1004 79 10000 5.14 150 07:34 17.03.2022
3182 Haze 32 1004 66 10000 7.72 180 05:47 17.03.2022
3183 Clouds 33 1007 62 10000 1.54 0 01:23 17.03.2022
3184 Clouds 28 1008 83 10000 2.57 300 23:50 16.03.2022
3185 Clouds 25 1007 100 10000 1.54 0 22:48 16.03.2022
3186 Clouds 25 1007 100 10000 1.54 0 22:30 16.03.2022
3187 Clouds 25 1007 94 10000 1.54 0 21:39 16.03.2022
3188 Clouds 25 1006 100 10000 1.54 0 19:41 16.03.2022
3189 Clouds 25 1006 86 10000 1.28 94 19:20 16.03.2022
3190 Clouds 25 1005 87 10000 1.03 65 18:36 16.03.2022
3191 Clear 25 1006 100 10000 1.54 0 17:41 16.03.2022
3192 Clouds 26 1006 86 10000 1.38 72 16:56 16.03.2022
3193 Clouds 27 1008 89 10000 2.57 120 15:55 16.03.2022
3194 Clouds 27 1008 89 10000 2.57 130 14:25 16.03.2022
3195 Clouds 26 1008 85 10000 2.22 126 13:27 16.03.2022
3196 Clouds 27 1008 83 10000 2.68 145 11:54 16.03.2022
3197 Clouds 27 1007 82 10000 2.64 155 11:20 16.03.2022
3198 Clouds 27 1007 82 10000 2.03 165 10:22 16.03.2022
3199 Clouds 30 1004 74 10000 5.14 200 08:51 16.03.2022
3200 Clouds 31 1007 70 10000 5.66 200 04:45 16.03.2022
3201 Haze 30 1009 70 10000 2.57 350 00:48 16.03.2022
3202 Clouds 24 1008 100 10000 2.57 320 22:37 15.03.2022
3203 Clouds 24 1007 100 10000 2.57 340 21:52 15.03.2022
3204 Clouds 24 1006 100 10000 2.57 340 19:53 15.03.2022
3205 Clouds 24 1006 100 10000 2.06 0 18:45 15.03.2022
3206 Clouds 25 1008 94 10000 2.06 0 16:52 15.03.2022
3207 Clouds 25 1007 91 10000 2.11 4 16:18 15.03.2022
3208 Clouds 26 1009 94 10000 2.57 350 14:57 15.03.2022
3209 Clouds 26 1009 94 10000 2.57 350 14:31 15.03.2022
3210 Rain 26 1009 88 10000 1.74 343 13:27 15.03.2022
3211 Clouds 27 1008 89 10000 1.54 0 11:56 15.03.2022
3212 Clouds 26 1007 87 10000 2.09 330 11:19 15.03.2022
3213 Haze 28 1006 78 10000 3.09 320 09:31 15.03.2022
3214 Haze 29 1006 74 10000 5.14 300 08:32 15.03.2022
3215 Haze 30 1005 70 10000 5.14 300 07:50 15.03.2022
3216 Haze 31 1005 70 10000 5.14 300 06:35 15.03.2022
3217 Haze 31 1008 70 10000 7.72 310 02:36 15.03.2022
3218 Haze 26 1008 89 10000 2.57 340 23:36 14.03.2022
3219 Clouds 26 1007 82 10000 2.55 347 23:18 14.03.2022
3220 Clouds 24 1005 94 10000 3.09 350 21:57 14.03.2022
3221 Clouds 24 1005 94 10000 3.09 350 21:20 14.03.2022
3222 Clouds 24 1005 94 10000 2.57 340 20:31 14.03.2022
3223 Clouds 24 1004 100 10000 2.57 340 19:47 14.03.2022
3224 Clouds 24 1004 100 10000 2.57 340 18:23 14.03.2022
3225 Clouds 22 1005 100 10000 2.57 340 17:43 14.03.2022
3226 Clouds 25 1006 94 10000 2.57 340 16:54 14.03.2022
3227 Clouds 25 1006 100 10000 2.06 320 15:20 14.03.2022
3228 Clouds 27 1006 84 10000 2.47 111 13:59 14.03.2022
3229 Rain 27 1005 82 10000 2.56 136 11:27 14.03.2022
3230 Haze 29 1004 79 10000 5.14 50 09:58 14.03.2022
3231 Haze 29 1004 79 10000 5.14 50 09:38 14.03.2022
3232 Haze 29 1004 79 10000 5.14 50 09:18 14.03.2022
3233 Haze 29 1004 84 10000 5.14 130 08:46 14.03.2022
3234 Haze 31 1004 74 10000 5.14 180 07:19 14.03.2022
3235 Clouds 33 1006 66 10000 7.72 210 03:36 14.03.2022
3236 Clouds 32 1007 70 10000 4.12 360 01:42 14.03.2022
3237 Clouds 30 1007 79 10000 5.14 310 00:29 14.03.2022
3238 Clouds 25 1005 94 10000 3.09 320 21:51 13.03.2022
3239 Clouds 25 1005 94 10000 3.09 320 21:22 13.03.2022
3240 Clouds 25 1005 94 10000 2.57 320 20:46 13.03.2022
3241 Clouds 25 1005 94 10000 2.57 320 20:22 13.03.2022
3242 Clouds 25 1005 94 10000 1.54 320 19:42 13.03.2022
3243 Clouds 25 1005 94 10000 1.54 320 19:42 13.03.2022
3244 Clouds 25 1005 94 10000 1.54 320 19:22 13.03.2022
3245 Clouds 26 1006 94 10000 1.54 330 18:45 13.03.2022
3246 Clouds 26 1006 94 10000 1.54 330 18:26 13.03.2022
3247 Clouds 26 1006 94 10000 1.03 330 17:38 13.03.2022
3248 Clouds 26 1006 90 10000 1.51 21 16:45 13.03.2022
3249 Clouds 26 1007 89 10000 1.55 53 16:23 13.03.2022
3250 Clouds 26 1008 94 10000 1.03 340 15:42 13.03.2022
3251 Clouds 26 1008 94 10000 1.03 0 14:37 13.03.2022
3252 Clouds 27 1008 86 10000 2.37 108 13:28 13.03.2022
3253 Clouds 27 1007 89 10000 1.54 130 12:22 13.03.2022
3254 Clouds 27 1007 89 10000 2.57 130 11:39 13.03.2022
3255 Clouds 28 1006 83 10000 3.6 180 10:49 13.03.2022
3256 Clouds 28 1006 83 10000 3.6 180 10:28 13.03.2022
3257 Clouds 29 1005 79 10000 5.14 190 09:42 13.03.2022
3258 Clouds 31 1005 70 10000 5.14 200 08:49 13.03.2022
3259 Clouds 31 1005 70 10000 5.14 200 08:49 13.03.2022
3260 Clouds 31 1005 70 10000 5.14 200 08:23 13.03.2022
3261 Clouds 32 1005 70 10000 5.14 220 06:40 13.03.2022
3262 Clouds 33 1007 66 10000 5.14 180 04:51 13.03.2022
3263 Clouds 30 1009 74 10000 1.54 0 01:46 13.03.2022
3264 Clouds 23 1008 100 10000 2.06 310 22:51 12.03.2022
3265 Clouds 23 1007 94 10000 2.57 320 21:29 12.03.2022
3266 Clouds 25 1007 87 10000 1.69 57 20:18 12.03.2022
3267 Clouds 25 1007 87 10000 1.69 57 19:43 12.03.2022
3268 Clouds 25 1007 88 10000 1.29 52 18:34 12.03.2022
3269 Clouds 23 1007 100 10000 2.57 320 17:48 12.03.2022
3270 Clouds 25 1007 88 10000 1.29 64 16:28 12.03.2022
3271 Clouds 24 1008 94 10000 1.54 0 15:25 12.03.2022
3272 Clouds 24 1008 94 10000 1.54 0 14:52 12.03.2022
3273 Clouds 24 1008 100 10000 2.57 320 13:53 12.03.2022
3274 Rain 24 1009 100 10000 2.57 320 12:25 12.03.2022
3275 Rain 24 1009 100 10000 2.57 340 11:51 12.03.2022
3276 Rain 24 1009 100 10000 2.57 340 11:20 12.03.2022
3277 Rain 26 1008 94 10000 5.14 30 09:58 12.03.2022
3278 Rain 26 1008 94 10000 5.14 30 09:39 12.03.2022
3279 Clouds 27 1006 82 10000 1.58 270 07:51 12.03.2022
3280 Clouds 28 1006 89 10000 5.14 260 05:20 12.03.2022
3281 Clouds 26 1009 94 10000 3.6 320 00:24 12.03.2022
3282 Rain 25 1008 94 10000 4.12 340 23:28 11.03.2022
3283 Clouds 24 1007 94 10000 5.14 320 21:48 11.03.2022
3284 Clouds 24 1006 94 10000 4.12 320 20:58 11.03.2022
3285 Clouds 24 1006 94 10000 4.12 320 20:37 11.03.2022
3286 Clouds 24 1006 94 10000 3.09 330 19:53 11.03.2022
3287 Clouds 24 1006 94 10000 3.09 330 19:26 11.03.2022
3288 Clouds 24 1007 94 10000 3.09 330 17:34 11.03.2022
3289 Clouds 24 1007 91 10000 1.25 345 16:42 11.03.2022
3290 Clouds 24 1008 100 10000 2.57 340 15:57 11.03.2022
3291 Clouds 25 1008 94 10000 2.57 330 14:22 11.03.2022
3292 Rain 25 1008 94 10000 2.57 30 12:53 11.03.2022
3293 Rain 25 1008 94 10000 2.57 30 12:21 11.03.2022
3294 Rain 25 1007 94 10000 2.57 30 11:55 11.03.2022
3295 Rain 26 1006 88 2737 1.83 24 10:18 11.03.2022
3296 Rain 28 1006 83 10000 5.14 130 08:57 11.03.2022
3297 Rain 28 1006 83 10000 5.14 130 08:24 11.03.2022
3298 Rain 30 1005 74 10000 5.14 180 07:45 11.03.2022
3299 Clouds 32 1005 66 10000 7.72 220 05:44 11.03.2022
3300 Clouds 29 1006 74 10000 2.18 242 03:48 11.03.2022
3301 Clouds 25 1008 94 10000 3.6 320 23:38 10.03.2022
3302 Clouds 24 1008 94 10000 2.57 330 22:30 10.03.2022
3303 Clouds 23 1007 100 10000 2.57 310 21:40 10.03.2022
3304 Clouds 23 1007 100 10000 2.57 310 21:18 10.03.2022
3305 Clouds 23 1007 100 10000 1.54 0 19:43 10.03.2022
3306 Clouds 23 1007 100 10000 0 0 18:40 10.03.2022
3307 Rain 24 1007 92 10000 1.34 50 17:19 10.03.2022
3308 Clouds 24 1008 93 10000 1.98 16 15:50 10.03.2022
3309 Clouds 23 1008 100 10000 2.57 320 14:39 10.03.2022
3310 Clouds 24 1008 94 10000 2.57 330 12:53 10.03.2022
3311 Clouds 24 1007 94 10000 4.12 310 11:57 10.03.2022
3312 Rain 24 1008 94 10000 2.57 330 10:50 10.03.2022
3313 Rain 25 1006 94 8000 7.72 150 08:55 10.03.2022
3314 Rain 29 1005 79 10000 7.72 180 06:58 10.03.2022
3315 Haze 32 1008 70 10000 5.14 260 03:52 10.03.2022
3316 Haze 28 1009 78 10000 2.57 320 00:51 10.03.2022
3317 Clouds 25 1009 94 10000 2.57 320 22:46 09.03.2022
3318 Clouds 25 1008 94 10000 2.57 320 21:48 09.03.2022
3319 Clouds 25 1008 94 10000 2.57 320 21:24 09.03.2022
3320 Clouds 25 1008 94 10000 2.06 320 19:42 09.03.2022
3321 Clouds 25 1008 94 10000 1.03 0 18:25 09.03.2022
3322 Clouds 26 1007 86 10000 1.19 83 17:26 09.03.2022
3323 Clouds 26 1008 86 10000 1.29 91 16:24 09.03.2022
3324 Rain 26 1008 85 10000 1.43 105 14:32 09.03.2022
3325 Rain 26 1009 85 10000 1.55 113 13:52 09.03.2022
3326 Rain 26 1009 84 10000 1.47 103 12:36 09.03.2022
3327 Rain 26 1009 84 10000 1.42 108 11:48 09.03.2022
3328 Rain 26 1009 83 10000 1.16 137 11:18 09.03.2022
3329 Drizzle 25 1008 94 10000 5.14 330 09:41 09.03.2022
3330 Drizzle 28 1007 83 10000 2.57 320 08:47 09.03.2022
3331 Drizzle 30 1006 79 10000 6.69 200 06:27 09.03.2022
3332 Haze 32 1009 58 10000 2.57 300 01:53 09.03.2022
3333 Haze 29 1010 79 10000 2.57 30 00:22 09.03.2022
3334 Haze 25 1009 94 10000 2.57 300 22:46 08.03.2022
3335 Clouds 24 1008 94 10000 2.57 350 21:52 08.03.2022
3336 Clouds 24 1008 94 10000 2.57 350 21:21 08.03.2022
3337 Clouds 24 1008 100 10000 2.57 0 20:22 08.03.2022
3338 Clouds 25 1006 85 10000 1.08 76 19:21 08.03.2022
3339 Clouds 25 1006 85 10000 1.11 78 18:22 08.03.2022
3340 Clouds 24 1008 100 10000 2.06 0 16:42 08.03.2022
3341 Clouds 25 1010 94 10000 1.54 0 14:57 08.03.2022
3342 Clouds 26 1009 85 10000 1.9 82 13:45 08.03.2022
3343 Clouds 27 1009 82 10000 1.08 121 12:20 08.03.2022
3344 Clouds 27 1008 94 10000 1.54 0 11:42 08.03.2022
3345 Clouds 28 1007 83 10000 3.09 170 10:28 08.03.2022
3346 Haze 30 1005 74 10000 5.14 180 08:56 08.03.2022
3347 Haze 31 1005 66 10000 7.72 260 06:30 08.03.2022
3348 Clouds 29 1007 70 10000 2.78 232 02:37 08.03.2022
3349 Clouds 25 1008 94 10000 2.57 310 22:43 07.03.2022
3350 Clouds 24 1008 100 10000 1.54 350 21:44 07.03.2022
3351 Clouds 24 1007 100 10000 1.54 320 20:56 07.03.2022
3352 Clouds 25 1006 87 10000 1.23 55 20:29 07.03.2022
3353 Clouds 25 1006 94 10000 2.06 340 19:48 07.03.2022
3354 Clouds 25 1007 94 10000 2.06 320 18:50 07.03.2022
3355 Clouds 25 1006 90 10000 1.67 44 18:28 07.03.2022
3356 Clouds 26 1007 94 10000 1.54 320 16:56 07.03.2022
3357 Clouds 26 1007 94 10000 1.54 320 16:37 07.03.2022
3358 Haze 27 1009 94 10000 1.54 0 14:41 07.03.2022
3359 Clouds 27 1007 89 10000 1.03 0 12:34 07.03.2022
3360 Clouds 28 1007 83 10000 1.03 0 11:21 07.03.2022
3361 Haze 28 1006 83 10000 2.57 220 10:26 07.03.2022
3362 Haze 32 1004 66 10000 5.14 260 07:42 07.03.2022
3363 Haze 29 1009 79 10000 5.14 320 00:37 07.03.2022
3364 Clouds 27 1009 79 10000 1.24 348 00:19 07.03.2022
3365 Clouds 26 1009 85 10000 1.76 18 23:19 06.03.2022
3366 Clouds 25 1009 94 10000 4.12 320 22:25 06.03.2022
3367 Clouds 25 1007 94 10000 5.14 320 20:56 06.03.2022
3368 Clouds 25 1007 94 10000 5.14 320 20:28 06.03.2022
3369 Clouds 25 1007 94 10000 2.57 340 19:31 06.03.2022
3370 Clouds 25 1007 94 10000 2.57 340 18:40 06.03.2022
3371 Clouds 24 1007 100 10000 2.57 320 17:22 06.03.2022
3372 Clouds 25 1008 94 10000 2.57 340 16:52 06.03.2022
3373 Clouds 25 1008 94 10000 2.57 340 16:24 06.03.2022
3374 Clouds 25 1008 86 10000 1.92 31 15:19 06.03.2022
3375 Clouds 25 1008 86 10000 1.92 31 14:41 06.03.2022
3376 Rain 25 1009 86 10000 1.83 76 13:47 06.03.2022
3377 Rain 26 1009 84 10000 1.59 93 12:36 06.03.2022
3378 Rain 26 1007 89 10000 5.14 40 11:30 06.03.2022
3379 Haze 26 1007 89 10000 5.14 50 10:30 06.03.2022
3380 Haze 31 1005 70 10000 5.14 160 08:51 06.03.2022
3381 Haze 31 1005 70 10000 5.14 160 08:27 06.03.2022
3382 Clouds 32 1005 62 10000 5.14 200 06:33 06.03.2022
3383 Haze 28 1008 83 10000 1.54 330 01:32 06.03.2022
3384 Haze 27 1009 89 10000 2.06 330 00:33 06.03.2022
3385 Haze 26 1008 89 10000 1.54 0 23:41 05.03.2022
3386 Clouds 26 1008 82 10000 0.57 113 23:18 05.03.2022
3387 Haze 25 1008 94 10000 1.54 0 22:25 05.03.2022
3388 Clouds 24 1007 94 10000 1.54 0 21:24 05.03.2022
3389 Clouds 26 1006 84 10000 1.55 94 19:53 05.03.2022
3390 Clouds 26 1006 84 10000 1.32 87 18:56 05.03.2022
3391 Clouds 26 1005 83 10000 1.72 94 18:27 05.03.2022
3392 Clouds 26 1005 83 10000 1.99 108 16:52 05.03.2022
3393 Clouds 26 1008 89 10000 1.54 0 15:40 05.03.2022
3394 Clouds 25 1008 94 10000 1.54 0 14:52 05.03.2022
3395 Clouds 27 1007 82 10000 2.13 114 14:33 05.03.2022
3396 Clouds 27 1008 81 10000 2.08 120 13:22 05.03.2022
3397 Clouds 26 1007 94 10000 1.45 74 11:48 05.03.2022
3398 Rain 27 1007 84 10000 1.96 118 11:19 05.03.2022
3399 Haze 26 1006 94 10000 2.06 340 10:20 05.03.2022
3400 Haze 28 1006 78 10000 2.57 350 09:22 05.03.2022
3401 Clouds 30 1005 70 10000 2.06 200 07:51 05.03.2022
3402 Clouds 32 1005 62 10000 7.72 200 05:43 05.03.2022
3403 Clouds 31 1007 70 10000 5.14 210 03:49 05.03.2022
3404 Clouds 26 1008 94 10000 2.57 310 23:38 04.03.2022
3405 Clouds 25 1007 94 10000 2.57 290 22:42 04.03.2022
3406 Clouds 25 1007 94 10000 2.57 290 22:19 04.03.2022
3407 Clouds 24 1006 100 10000 2.57 320 20:56 04.03.2022
3408 Clouds 24 1006 100 10000 2.57 320 20:27 04.03.2022
3409 Clouds 25 1005 94 10000 0 0 19:36 04.03.2022
3410 Clouds 25 1006 94 10000 2.57 320 18:45 04.03.2022
3411 Clouds 25 1006 100 10000 2.57 320 17:39 04.03.2022
3412 Clouds 26 1008 94 10000 1.54 0 16:54 04.03.2022
3413 Clouds 26 1008 94 10000 1.54 0 15:29 04.03.2022
3414 Rain 25 1009 86 10000 2.18 52 14:33 04.03.2022
3415 Haze 26 1009 94 10000 1.54 300 13:26 04.03.2022
3416 Haze 26 1008 94 10000 2.57 340 11:46 04.03.2022
3417 Haze 27 1007 89 10000 2.57 320 10:52 04.03.2022
3418 Haze 30 1006 70 10000 5.14 260 09:52 04.03.2022
3419 Haze 30 1006 70 10000 5.14 260 08:39 04.03.2022
3420 Clouds 28 1006 74 10000 1.95 273 07:36 04.03.2022
3421 Clouds 33 1009 55 10000 6.17 270 03:56 04.03.2022
3422 Clouds 29 1010 74 10000 3.09 320 00:28 04.03.2022
3423 Clouds 24 1009 100 10000 2.57 310 22:27 03.03.2022
3424 Clouds 24 1008 94 10000 2.57 320 21:42 03.03.2022
3425 Clouds 24 1008 94 10000 2.57 320 21:24 03.03.2022
3426 Clouds 24 1008 94 10000 2.57 320 19:52 03.03.2022
3427 Clouds 24 1007 94 10000 2.57 330 18:54 03.03.2022
3428 Clouds 25 1007 86 10000 1.41 32 18:24 03.03.2022
3429 Clouds 24 1008 94 10000 2.57 330 17:30 03.03.2022
3430 Clouds 25 1008 86 10000 2.09 23 16:24 03.03.2022
3431 Clouds 25 1009 94 10000 1.54 0 15:23 03.03.2022
3432 Clouds 26 1010 89 10000 1.54 0 14:43 03.03.2022
3433 Clouds 26 1010 83 10000 1.41 36 13:24 03.03.2022
3434 Clouds 26 1009 89 10000 1.54 0 12:21 03.03.2022
3435 Clouds 28 1007 78 10000 5.14 300 10:47 03.03.2022
3436 Haze 29 1007 70 10000 7.72 280 09:38 03.03.2022
3437 Haze 31 1006 66 10000 6.17 270 07:48 03.03.2022
3438 Haze 32 1006 62 10000 7.72 270 06:35 03.03.2022
3439 Clouds 31 1010 66 10000 5.14 320 02:23 03.03.2022
3440 Clouds 23 1009 94 10000 3.09 320 23:31 02.03.2022
3441 Clouds 23 1009 94 10000 3.6 320 22:52 02.03.2022
3442 Clouds 23 1008 94 10000 5.14 330 21:32 02.03.2022
3443 Clouds 22 1008 100 10000 2.57 300 20:46 02.03.2022
3444 Clouds 22 1008 100 10000 2.57 300 20:24 02.03.2022
3445 Clouds 23 1007 94 10000 1.54 320 19:36 02.03.2022
3446 Clouds 23 1007 100 10000 1.54 350 18:46 02.03.2022
3447 Clouds 23 1008 100 10000 2.57 320 17:59 02.03.2022
3448 Clouds 23 1008 100 10000 2.57 320 17:28 02.03.2022
3449 Clouds 24 1008 94 10000 2.57 330 16:51 02.03.2022
3450 Clouds 24 1009 94 10000 1.54 0 14:45 02.03.2022
3451 Clouds 26 1009 75 10000 1.85 354 13:24 02.03.2022
3452 Clouds 25 1008 94 10000 1.54 0 12:43 02.03.2022
3453 Rain 25 1007 88 10000 2.57 300 11:47 02.03.2022
3454 Clouds 25 1007 88 10000 2.57 300 11:24 02.03.2022
3455 Clouds 25 1008 81 10000 3.49 3 09:46 02.03.2022
3456 Rain 26 1006 89 10000 5.14 340 08:59 02.03.2022
3457 Haze 25 1008 94 10000 5.14 10 07:39 02.03.2022
3458 Drizzle 25 1009 94 4000 2.57 280 06:51 02.03.2022
3459 Clouds 26 1010 89 10000 2.57 330 02:54 02.03.2022
3460 Rain 23 1011 100 5000 7.72 340 23:55 01.03.2022
3461 Rain 23 1010 100 5000 7.72 340 22:46 01.03.2022
3462 Rain 23 1009 100 3000 5.14 290 22:19 01.03.2022
3463 Rain 24 1009 100 4000 5.14 280 21:25 01.03.2022
3464 Rain 25 1008 81 10000 2.98 345 20:30 01.03.2022
3465 Rain 25 1008 81 10000 2.98 345 20:30 01.03.2022
3466 Rain 25 1008 81 10000 2.98 345 20:30 01.03.2022
3467 Rain 25 1008 81 10000 2.98 345 20:30 01.03.2022
3468 Clouds 24 1007 100 10000 3.09 300 19:38 01.03.2022
3469 Clouds 24 1007 94 10000 1.54 0 18:49 01.03.2022
3470 Clouds 24 1007 94 10000 1.54 0 18:20 01.03.2022
3471 Clouds 24 1007 100 10000 2.57 310 17:22 01.03.2022
3472 Clouds 24 1008 94 10000 2.57 310 16:33 01.03.2022
3473 Clouds 25 1009 94 10000 3.09 300 15:38 01.03.2022
3474 Clouds 26 1008 79 10000 2.19 5 14:35 01.03.2022
3475 Clouds 25 1008 94 10000 4.12 350 13:53 01.03.2022
3476 Clouds 25 1008 94 10000 4.12 350 13:24 01.03.2022
3477 Clouds 25 1008 100 10000 3.6 340 12:32 01.03.2022
3478 Clouds 27 1006 89 10000 2.57 320 10:36 01.03.2022
3479 Rain 29 1005 74 10000 5.14 350 08:42 01.03.2022
3480 Rain 30 1005 70 10000 5.14 330 07:52 01.03.2022
3481 Rain 30 1007 70 10000 5.14 320 05:54 01.03.2022
3482 Rain 26 1010 89 10000 5.14 10 02:33 01.03.2022
3483 Rain 25 1011 83 10000 5.14 350 00:34 01.03.2022
3484 Rain 27 1010 79 10000 6.5 311 23:30 28.02.2022
3485 Rain 24 1009 88 10000 7.72 340 22:18 28.02.2022
3486 Rain 24 1008 94 10000 3.6 320 21:25 28.02.2022
3487 Rain 25 1007 94 10000 5.14 320 19:55 28.02.2022
3488 Rain 25 1007 94 10000 5.14 320 19:33 28.02.2022
3489 Rain 25 1007 82 10000 3.31 345 18:43 28.02.2022
3490 Clouds 25 1008 94 10000 5.14 330 17:30 28.02.2022
3491 Rain 25 1008 94 10000 3.09 340 16:33 28.02.2022
3492 Clouds 25 1008 94 10000 1.54 0 15:24 28.02.2022
3493 Clouds 25 1008 83 10000 2.63 339 14:31 28.02.2022
3494 Clouds 25 1009 83 10000 2.34 358 13:47 28.02.2022
3495 Clouds 26 1009 81 10000 2.88 9 12:47 28.02.2022
3496 Clouds 27 1008 89 10000 2.57 340 11:57 28.02.2022
3497 Rain 27 1007 83 10000 2.57 310 10:48 28.02.2022
3498 Rain 27 1007 83 10000 2.57 310 10:20 28.02.2022
3499 Rain 28 1007 83 10000 3.6 330 09:32 28.02.2022
3500 Clouds 29 1006 74 10000 5.14 350 08:29 28.02.2022
3501 Haze 29 1006 74 10000 2.57 310 07:28 28.02.2022
3502 Haze 31 1007 70 10000 7.72 270 04:55 28.02.2022
3503 Clouds 29 1008 68 10000 3.67 288 04:26 28.02.2022
3504 Clouds 26 1008 83 10000 3.09 40 23:42 27.02.2022
3505 Clouds 25 1008 88 10000 5.14 20 22:34 27.02.2022
3506 Clouds 27 1008 78 10000 5.14 340 21:51 27.02.2022
3507 Clouds 25 1008 78 10000 2.76 330 21:21 27.02.2022
3508 Clouds 26 1008 83 10000 7.72 280 20:32 27.02.2022
3509 Clouds 24 1007 94 10000 2.57 340 19:58 27.02.2022
3510 Clouds 26 1007 79 10000 2.84 336 19:27 27.02.2022
3511 Clouds 23 1007 100 10000 5.14 320 18:47 27.02.2022
3512 Clouds 25 1007 81 10000 3.34 329 17:56 27.02.2022
3513 Clouds 26 1007 81 10000 3.31 321 17:18 27.02.2022
3514 Clouds 26 1007 81 10000 3.5 318 16:21 27.02.2022
3515 Clouds 25 1009 88 10000 3.82 345 13:34 27.02.2022
3516 Clouds 25 1009 88 10000 4.12 340 12:33 27.02.2022
3517 Clouds 27 1008 74 10000 5.14 340 10:59 27.02.2022
3518 Clouds 27 1007 78 10000 6.11 303 10:20 27.02.2022
3519 Haze 29 1007 70 10000 7.72 320 09:50 27.02.2022
3520 Haze 29 1007 70 10000 7.72 320 09:20 27.02.2022
3521 Haze 30 1006 70 10000 8.23 290 07:54 27.02.2022
3522 Haze 32 1006 58 10000 7.72 300 05:38 27.02.2022
3523 Haze 30 1009 62 10000 5.14 330 02:21 27.02.2022
3524 Clouds 26 1009 78 10000 5.14 300 23:23 26.02.2022
3525 Clouds 22 1008 94 10000 3.6 310 21:58 26.02.2022
3526 Clouds 22 1008 94 10000 3.6 310 20:59 26.02.2022
3527 Clouds 22 1008 94 10000 3.6 310 20:20 26.02.2022
3528 Clouds 23 1008 94 10000 3.6 330 19:50 26.02.2022
3529 Clouds 23 1008 94 10000 3.6 330 19:26 26.02.2022
3530 Clouds 23 1008 94 10000 3.09 330 17:52 26.02.2022
3531 Clouds 23 1008 94 10000 3.09 330 17:28 26.02.2022
3532 Clouds 24 1008 82 10000 3.14 350 15:57 26.02.2022
3533 Clouds 24 1008 81 10000 2.76 352 15:25 26.02.2022
3534 Clouds 23 1009 100 10000 2.57 330 14:55 26.02.2022
3535 Clouds 23 1009 100 10000 2.57 330 14:36 26.02.2022
3536 Clouds 24 1009 94 10000 2.57 330 13:24 26.02.2022
3537 Clouds 24 1009 94 10000 2.57 330 12:31 26.02.2022
3538 Rain 24 1010 88 10000 4.2 14 11:29 26.02.2022
3539 Rain 25 1008 94 10000 2.57 330 10:51 26.02.2022
3540 Rain 25 1007 94 10000 5.14 330 08:59 26.02.2022
3541 Rain 25 1008 94 10000 5.14 320 07:37 26.02.2022
3542 Drizzle 26 1010 83 10000 7.72 330 01:53 26.02.2022
3543 Rain 24 1008 88 10000 7.72 350 22:57 25.02.2022
3544 Rain 25 1007 83 10000 5.14 340 21:46 25.02.2022
3545 Rain 25 1007 83 10000 5.14 340 21:26 25.02.2022
3546 Rain 23 1006 94 10000 5.14 320 20:33 25.02.2022
3547 Rain 24 1007 88 10000 4.72 327 19:21 25.02.2022
3548 Rain 23 1005 95 1894 7.27 340 17:30 25.02.2022
3549 Rain 24 1006 88 7054 7.2 309 16:35 25.02.2022
3550 Clouds 25 1006 81 10000 7.68 320 15:48 25.02.2022
3551 Clouds 26 1007 78 10000 8.06 336 15:22 25.02.2022
3552 Clouds 24 1009 88 10000 5.14 320 14:42 25.02.2022
3553 Clouds 24 1009 94 10000 4.12 340 13:51 25.02.2022
3554 Clouds 25 1008 83 10000 6.88 327 13:19 25.02.2022
3555 Clouds 24 1008 94 10000 6.17 330 11:28 25.02.2022
3556 Clouds 23 1008 100 10000 6.17 330 10:43 25.02.2022
3557 Clouds 23 1008 100 10000 6.17 330 10:22 25.02.2022
3558 Clouds 24 1007 94 10000 7.72 330 09:30 25.02.2022
3559 Clouds 28 1005 78 10000 12.86 270 07:42 25.02.2022
3560 Clouds 33 1005 49 10000 11.18 324 05:51 25.02.2022
3561 Haze 32 1006 51 10000 10.29 330 04:41 25.02.2022
3562 Clouds 29 1007 61 10000 5.14 320 00:22 25.02.2022
3563 Clouds 24 1006 88 10000 3.6 330 21:58 24.02.2022
3564 Clouds 24 1006 88 10000 3.6 330 21:58 24.02.2022
3565 Clouds 24 1006 88 10000 3.6 330 21:39 24.02.2022
3566 Clouds 25 1005 80 10000 6.88 330 21:19 24.02.2022
3567 Clouds 25 1005 83 10000 6.69 330 19:53 24.02.2022
3568 Clouds 25 1005 83 10000 5.14 330 18:45 24.02.2022
3569 Clouds 26 1004 81 10000 7.33 331 18:19 24.02.2022
3570 Clouds 26 1006 73 10000 5.14 320 17:40 24.02.2022
3571 Clouds 26 1006 73 10000 5.14 340 16:50 24.02.2022
3572 Clouds 26 1006 73 10000 5.14 340 16:24 24.02.2022
3573 Clouds 25 1007 88 10000 5.14 320 14:56 24.02.2022
3574 Rain 25 1007 88 10000 5.14 320 14:36 24.02.2022
3575 Rain 26 1008 82 10000 5.22 326 13:40 24.02.2022
3576 Rain 26 1008 80 10000 4.64 320 13:21 24.02.2022
3577 Clouds 27 1006 74 10000 5.14 340 10:41 24.02.2022
3578 Clouds 29 1006 65 10000 5.14 340 09:24 24.02.2022
3579 Clouds 31 1005 58 10000 2.57 340 08:41 24.02.2022
3580 Haze 31 1007 62 10000 10.29 340 05:59 24.02.2022
3581 Haze 28 1009 78 10000 5.14 310 02:59 24.02.2022
3582 Clouds 23 1011 100 10000 2.57 340 23:40 23.02.2022
3583 Clouds 24 1009 94 10000 7.72 350 21:53 23.02.2022
3584 Clouds 23 1009 94 8245 5.4 354 20:32 23.02.2022
3585 Clouds 25 1008 94 10000 5.14 340 19:49 23.02.2022
3586 Clouds 24 1008 87 10000 5.07 338 18:42 23.02.2022
3587 Clouds 24 1007 100 10000 2.57 330 17:45 23.02.2022
3588 Rain 24 1009 100 10000 2.57 0 15:26 23.02.2022
3589 Rain 24 1010 100 10000 2.57 0 13:28 23.02.2022
3590 Clouds 24 1010 100 10000 2.57 0 12:24 23.02.2022
3591 Rain 25 1009 94 8000 2.57 100 10:44 23.02.2022
3592 Rain 26 1008 87 10000 6.05 318 09:00 23.02.2022
3593 Clouds 25 1007 94 5000 5.14 280 08:23 23.02.2022
3594 Clouds 26 1007 86 7981 7.3 310 07:18 23.02.2022
3595 Rain 27 1010 83 10000 5.14 330 01:21 23.02.2022
3596 Rain 25 1009 94 10000 2.57 330 23:39 22.02.2022
3597 Rain 24 1009 100 10000 2.57 330 22:51 22.02.2022
3598 Clouds 24 1008 94 10000 5.14 320 21:51 22.02.2022
3599 Clouds 24 1008 94 10000 5.14 320 21:31 22.02.2022
3600 Clouds 24 1008 94 10000 5.14 330 20:59 22.02.2022
3601 Clouds 24 1008 94 10000 5.14 330 20:31 22.02.2022
3602 Clouds 24 1007 100 10000 6.17 340 19:47 22.02.2022
3603 Clouds 24 1007 100 10000 6.17 340 19:28 22.02.2022
3604 Clouds 24 1006 100 10000 5.14 340 18:21 22.02.2022
3605 Clouds 25 1007 90 10000 3.35 0 17:24 22.02.2022
3606 Clouds 24 1007 100 10000 5.14 320 16:41 22.02.2022
3607 Clouds 25 1008 94 10000 5.14 350 15:56 22.02.2022
3608 Clouds 25 1008 91 10000 2.65 6 14:45 22.02.2022
3609 Rain 25 1008 94 10000 2.57 350 12:44 22.02.2022
3610 Rain 26 1007 94 10000 5.14 30 10:53 22.02.2022
3611 Haze 30 1004 70 10000 4.63 270 08:48 22.02.2022
3612 Haze 32 1004 62 10000 7.72 200 07:27 22.02.2022
3613 Haze 33 1004 58 10000 5.14 190 05:57 22.02.2022
3614 Haze 32 1007 58 10000 5.14 140 02:45 22.02.2022
3615 Clouds 24 1006 94 10000 2.06 310 22:46 21.02.2022
3616 Clouds 24 1006 94 10000 5.14 330 21:42 21.02.2022
3617 Clouds 23 1005 100 10000 2.57 330 20:36 21.02.2022
3618 Clouds 26 1004 87 10000 1.23 41 18:46 21.02.2022
3619 Clouds 25 1006 94 10000 5.14 320 17:36 21.02.2022
3620 Rain 26 1006 84 10000 1.14 72 15:22 21.02.2022
3621 Rain 26 1007 94 10000 2.57 330 14:21 21.02.2022
3622 Rain 26 1007 94 10000 2.57 330 14:21 21.02.2022
3623 Rain 26 1007 94 10000 2.57 340 13:22 21.02.2022
3624 Rain 26 1007 94 10000 2.57 340 12:23 21.02.2022
3625 Clouds 27 1006 83 10000 2.06 0 11:19 21.02.2022
3626 Haze 29 1004 74 10000 4.12 250 09:34 21.02.2022
3627 Clouds 32 1003 58 10000 5.24 263 05:35 21.02.2022
3628 Clouds 26 1008 89 7000 7.72 320 23:41 20.02.2022
3629 Clouds 25 1007 94 10000 5.14 320 22:25 20.02.2022
3630 Clouds 25 1006 94 10000 5.14 330 21:42 20.02.2022
3631 Clouds 25 1005 94 10000 5.14 330 20:53 20.02.2022
3632 Clouds 25 1005 94 10000 5.14 330 20:33 20.02.2022
3633 Clouds 25 1004 84 10000 2.13 15 19:31 20.02.2022
3634 Clouds 25 1004 84 10000 2.13 15 19:31 20.02.2022
3635 Clouds 26 1005 94 10000 5.14 320 18:50 20.02.2022
3636 Clouds 26 1005 94 10000 5.14 320 18:31 20.02.2022
3637 Clouds 26 1005 94 10000 5.14 320 18:31 20.02.2022
3638 Clouds 26 1005 94 10000 2.57 320 17:48 20.02.2022
3639 Clouds 26 1006 94 10000 2.57 320 15:32 20.02.2022
3640 Clouds 24 1006 92 9594 3.18 22 14:41 20.02.2022
3641 Clouds 26 1006 89 10000 3.04 343 13:23 20.02.2022
3642 Clouds 26 1005 90 10000 2.79 357 12:25 20.02.2022
3643 Rain 27 1004 80 10000 2.12 303 10:21 20.02.2022
3644 Rain 28 1004 83 10000 5.14 340 09:53 20.02.2022
3645 Rain 28 1003 89 10000 4.12 320 08:25 20.02.2022
3646 Clouds 29 1007 74 10000 5.14 310 00:54 20.02.2022
3647 Clouds 29 1007 74 10000 5.14 310 00:29 20.02.2022
3648 Clouds 26 1005 94 10000 3.09 320 22:44 19.02.2022
3649 Clouds 26 1005 94 10000 3.09 320 22:21 19.02.2022
3650 Clouds 25 1004 100 10000 2.57 320 20:51 19.02.2022
3651 Clouds 25 1005 100 10000 3.6 320 19:48 19.02.2022
3652 Clouds 25 1005 100 10000 3.6 320 19:25 19.02.2022
3653 Clouds 26 1005 94 10000 3.6 330 18:32 19.02.2022
3654 Clouds 25 1004 86 10000 2.32 7 17:33 19.02.2022
3655 Clouds 25 1006 90 10000 2.53 30 16:22 19.02.2022
3656 Clouds 26 1007 94 10000 1.54 0 14:56 19.02.2022
3657 Rain 26 1007 94 10000 1.54 0 14:37 19.02.2022
3658 Rain 27 1006 89 10000 2.57 340 11:59 19.02.2022
3659 Clouds 27 1006 89 10000 2.57 340 11:36 19.02.2022
3660 Clouds 29 1004 74 10000 5.14 270 09:34 19.02.2022
3661 Clouds 31 1004 70 10000 2.57 330 06:52 19.02.2022
3662 Clouds 31 1008 70 10000 5.14 300 01:39 19.02.2022
3663 Clouds 27 1008 94 10000 2.57 310 23:28 18.02.2022
3664 Clouds 25 1007 94 10000 1.03 0 21:30 18.02.2022
3665 Clouds 25 1006 94 10000 1.54 0 20:33 18.02.2022
3666 Clouds 25 1006 89 10000 2.19 13 19:51 18.02.2022
3667 Clouds 25 1006 100 10000 1.54 0 18:39 18.02.2022
3668 Clouds 25 1005 89 10000 1.58 35 18:19 18.02.2022
3669 Clouds 25 1006 89 10000 1.61 38 17:20 18.02.2022
3670 Clouds 25 1007 100 10000 1.54 0 14:39 18.02.2022
3671 Clouds 26 1008 86 10000 0.97 9 13:47 18.02.2022
3672 Clouds 26 1007 94 10000 1.54 0 12:51 18.02.2022
3673 Clouds 27 1006 89 10000 1.54 0 11:57 18.02.2022
3674 Clouds 28 1006 78 10000 2.57 260 10:47 18.02.2022
3675 Clouds 27 1006 83 10000 3.04 278 09:20 18.02.2022
3676 Haze 30 1005 70 10000 7.72 300 06:48 18.02.2022
3677 Rain 30 1005 70 10000 5.14 330 05:34 18.02.2022
3678 Clouds 24 1008 100 10000 2.57 340 22:39 17.02.2022
3679 Clouds 24 1007 100 10000 2.57 340 21:42 17.02.2022
3680 Clouds 24 1006 94 10000 2.57 330 20:52 17.02.2022
3681 Clouds 24 1006 94 10000 2.57 330 20:33 17.02.2022
3682 Clouds 24 1005 100 10000 2.57 330 19:42 17.02.2022
3683 Clouds 24 1006 100 10000 3.6 340 18:29 17.02.2022
3684 Clouds 24 1006 100 10000 4.12 340 17:45 17.02.2022
3685 Clouds 24 1007 94 10000 2.57 310 15:58 17.02.2022
3686 Rain 24 1008 94 10000 2.57 320 14:30 17.02.2022
3687 Rain 26 1008 83 10000 1.79 5 13:47 17.02.2022
3688 Rain 25 1007 94 10000 5.14 320 11:52 17.02.2022
3689 Rain 25 1006 94 10000 5.14 340 10:57 17.02.2022
3690 Clouds 30 1003 84 10000 2.57 200 07:56 17.02.2022
3691 Clouds 26 1006 89 10000 2.57 340 23:50 16.02.2022
3692 Clouds 24 1006 100 10000 1.54 0 22:36 16.02.2022
3693 Rain 24 1004 94 10000 4.12 320 20:22 16.02.2022
3694 Clouds 24 1003 100 10000 4.12 310 18:56 16.02.2022
3695 Clouds 24 1003 100 10000 4.12 310 18:27 16.02.2022
3696 Clouds 24 1004 100 10000 3.6 320 17:24 16.02.2022
3697 Clouds 25 1006 94 10000 1.54 0 15:23 16.02.2022
3698 Rain 24 1007 84 10000 2.52 77 13:46 16.02.2022
3699 Rain 25 1007 94 10000 5.14 350 12:26 16.02.2022
3700 Rain 26 1006 89 10000 5.14 20 11:46 16.02.2022
3701 Rain 28 1005 83 10000 3.6 110 10:34 16.02.2022
3702 Haze 29 1004 79 10000 5.14 190 09:38 16.02.2022
3703 Haze 33 1002 58 10000 2.57 260 06:43 16.02.2022
3704 Haze 29 1007 70 10000 4.63 340 00:37 16.02.2022
3705 Clouds 24 1006 100 10000 3.09 310 22:34 15.02.2022
3706 Clouds 23 1005 100 10000 2.57 340 21:50 15.02.2022
3707 Clouds 23 1005 100 10000 2.57 340 21:29 15.02.2022
3708 Clouds 23 1005 100 10000 2.57 330 20:58 15.02.2022
3709 Clouds 24 1004 88 10000 1.83 12 20:22 15.02.2022
3710 Clouds 24 1005 94 10000 5.14 320 19:43 15.02.2022
3711 Clouds 23 1004 100 10000 2.57 330 18:25 15.02.2022
3712 Clouds 24 1005 94 10000 2.57 350 17:53 15.02.2022
3713 Clouds 25 1005 88 10000 2.16 7 17:28 15.02.2022
3714 Clouds 24 1006 100 10000 3.09 320 15:36 15.02.2022
3715 Clouds 25 1007 94 10000 1.54 0 13:49 15.02.2022
3716 Clouds 25 1007 94 10000 1.54 0 13:25 15.02.2022
3717 Haze 25 1007 100 10000 5.14 330 11:41 15.02.2022
3718 Clouds 26 1006 87 10000 3.61 110 10:19 15.02.2022
3719 Rain 30 1004 74 10000 2.57 180 07:41 15.02.2022
3720 Haze 30 1005 70 10000 2.57 200 06:45 15.02.2022
3721 Haze 26 1008 83 10000 2.57 340 23:35 14.02.2022
3722 Haze 23 1007 100 10000 1.54 0 21:56 14.02.2022
3723 Clouds 24 1007 89 10000 1.82 10 20:52 14.02.2022
3724 Clouds 24 1007 89 10000 1.64 15 19:46 14.02.2022
3725 Clouds 24 1006 90 10000 1.73 30 19:28 14.02.2022
3726 Clouds 24 1006 94 10000 2.57 300 18:23 14.02.2022
3727 Clouds 25 1007 88 10000 4.12 330 17:27 14.02.2022
3728 Clouds 25 1008 94 10000 4.12 340 16:27 14.02.2022
3729 Clouds 25 1008 86 10000 1.42 95 14:43 14.02.2022
3730 Clouds 25 1009 86 10000 2.04 102 13:34 14.02.2022
3731 Clouds 25 1009 87 10000 3.23 92 12:58 14.02.2022
3732 Clouds 26 1009 84 10000 3.85 108 11:56 14.02.2022
3733 Clouds 26 1009 84 10000 3.85 108 11:38 14.02.2022
3734 Haze 29 1006 70 10000 5.14 160 09:37 14.02.2022
3735 Clouds 28 1005 74 10000 6.21 160 07:37 14.02.2022
3736 Clouds 28 1005 73 10000 6.19 163 07:19 14.02.2022
3737 Haze 25 1008 94 10000 1.54 0 22:48 13.02.2022
3738 Haze 25 1008 94 10000 1.54 0 22:29 13.02.2022
3739 Clouds 25 1007 88 10000 1.54 0 21:48 13.02.2022
3740 Clouds 25 1007 88 10000 1.54 0 20:42 13.02.2022
3741 Clouds 25 1007 88 10000 1.54 0 19:57 13.02.2022
3742 Clouds 24 1007 84 10000 3.22 112 18:57 13.02.2022
3743 Clouds 24 1007 84 10000 3.22 112 18:38 13.02.2022
3744 Clouds 25 1008 88 10000 2.57 100 16:40 13.02.2022
3745 Clear 25 1008 83 10000 3.86 117 15:51 13.02.2022
3746 Clouds 26 1008 83 10000 4.12 150 14:38 13.02.2022
3747 Clear 26 1008 79 10000 4.81 125 13:26 13.02.2022
3748 Clouds 27 1007 78 10000 7.2 150 12:40 13.02.2022
3749 Clouds 28 1006 78 10000 5.66 160 10:40 13.02.2022
3750 Clouds 29 1006 70 10000 5.14 150 09:49 13.02.2022
3751 Clouds 30 1005 66 10000 5.14 150 08:33 13.02.2022
3752 Haze 31 1008 58 10000 2.57 170 01:24 13.02.2022
3753 Haze 28 1009 74 10000 2.57 300 00:21 13.02.2022
3754 Clouds 23 1008 94 10000 3.09 320 22:34 12.02.2022
3755 Clouds 22 1007 100 10000 1.54 320 21:40 12.02.2022
3756 Clouds 22 1006 94 10000 1.54 0 20:55 12.02.2022
3757 Clouds 23 1006 94 10000 1.54 0 19:56 12.02.2022
3758 Clouds 24 1007 85 10000 1.74 46 18:54 12.02.2022
3759 Clouds 24 1007 85 10000 1.74 46 18:54 12.02.2022
3760 Clouds 24 1007 85 10000 1.74 46 18:35 12.02.2022
3761 Clouds 24 1006 85 10000 1.65 43 17:38 12.02.2022
3762 Clouds 24 1007 83 10000 1.35 47 16:44 12.02.2022
3763 Clouds 24 1008 94 10000 2.57 330 15:52 12.02.2022
3764 Clouds 25 1008 81 10000 0.98 72 15:20 12.02.2022
3765 Clouds 25 1009 83 10000 4.12 50 14:25 12.02.2022
3766 Clouds 25 1009 83 10000 4.12 50 14:25 12.02.2022
3767 Clouds 26 1008 74 10000 1.77 162 11:26 12.02.2022
3768 Clouds 28 1007 74 10000 5.14 190 10:29 12.02.2022
3769 Haze 29 1006 70 10000 7.72 210 09:36 12.02.2022
3770 Haze 30 1005 66 10000 6.17 200 08:46 12.02.2022
3771 Clouds 31 1005 58 10000 2.57 210 06:46 12.02.2022
3772 Haze 31 1006 62 10000 6.17 200 04:38 12.02.2022
3773 Clouds 31 1007 55 10000 3.09 280 02:19 12.02.2022
3774 Clouds 25 1008 78 10000 5.14 350 23:20 11.02.2022
3775 Clouds 22 1008 94 10000 3.6 330 22:20 11.02.2022
3776 Clouds 22 1007 94 10000 2.57 300 21:18 11.02.2022
3777 Clear 22 1006 94 10000 1.54 0 20:21 11.02.2022
3778 Clouds 22 1006 94 10000 1.54 0 19:27 11.02.2022
3779 Clouds 23 1006 94 10000 0 0 18:29 11.02.2022
3780 Clouds 24 1007 80 10000 2.11 59 17:26 11.02.2022
3781 Clouds 24 1007 78 10000 1.84 86 16:26 11.02.2022
3782 Clouds 23 1008 94 10000 1.54 0 14:59 11.02.2022
3783 Clouds 23 1008 94 10000 1.54 0 14:37 11.02.2022
3784 Clouds 23 1008 94 10000 1.54 0 14:18 11.02.2022
3785 Clouds 25 1008 83 10000 2.57 150 13:40 11.02.2022
3786 Clouds 26 1009 74 10000 2.11 115 12:37 11.02.2022
3787 Clouds 27 1007 74 10000 5.14 170 10:30 11.02.2022
3788 Clouds 27 1006 66 10000 4.57 160 09:22 11.02.2022
3789 Haze 30 1005 62 10000 5.14 190 08:28 11.02.2022
3790 Haze 31 1005 66 10000 5.14 160 07:39 11.02.2022
3791 Haze 30 1008 58 10000 3.09 350 02:40 11.02.2022
3792 Haze 30 1008 58 10000 3.09 350 02:20 11.02.2022
3793 Haze 25 1009 73 10000 3.09 340 23:36 10.02.2022
3794 Clouds 25 1008 80 10000 3.54 112 21:53 10.02.2022
3795 Clouds 24 1007 82 10000 3.71 110 21:24 10.02.2022
3796 Clouds 21 1007 100 10000 1.54 0 20:48 10.02.2022
3797 Clouds 24 1007 82 10000 3.98 110 19:37 10.02.2022
3798 Clouds 24 1006 82 10000 4.74 117 19:18 10.02.2022
3799 Clouds 25 1007 82 10000 5.09 120 17:39 10.02.2022
3800 Clouds 25 1007 83 10000 5.42 125 17:19 10.02.2022
3801 Clouds 24 1007 94 10000 5.14 140 16:20 10.02.2022
3802 Clouds 25 1008 88 10000 5.14 140 15:33 10.02.2022
3803 Clouds 25 1008 88 10000 3.6 140 14:49 10.02.2022
3804 Clouds 26 1008 82 10000 5.67 124 14:29 10.02.2022
3805 Clouds 26 1008 82 10000 5.67 124 13:33 10.02.2022
3806 Clouds 26 1008 83 10000 3.6 140 12:51 10.02.2022
3807 Clouds 28 1007 78 10000 2.57 140 11:38 10.02.2022
3808 Clouds 28 1007 78 10000 2.57 140 11:20 10.02.2022
3809 Clouds 28 1007 78 10000 5.14 160 10:18 10.02.2022
3810 Clouds 29 1006 79 10000 5.14 160 09:25 10.02.2022
3811 Clouds 31 1005 66 10000 7.72 140 07:36 10.02.2022
3812 Clouds 33 1006 62 10000 7.72 170 05:51 10.02.2022
3813 Clouds 31 1009 66 10000 2.06 0 01:52 10.02.2022
3814 Clouds 29 1009 74 10000 2.06 0 00:50 10.02.2022
3815 Clouds 29 1009 74 10000 2.06 0 00:28 10.02.2022
3816 Clouds 27 1009 83 10000 2.06 0 23:24 09.02.2022
3817 Clouds 25 1009 94 10000 1.54 0 22:36 09.02.2022
3818 Clouds 23 1008 100 10000 1.54 0 21:52 09.02.2022
3819 Clouds 23 1008 100 10000 1.54 0 21:29 09.02.2022
3820 Clouds 24 1007 100 10000 1.03 0 20:48 09.02.2022
3821 Clouds 25 1007 87 10000 3.02 110 20:29 09.02.2022
3822 Clouds 25 1007 87 10000 3.02 110 19:54 09.02.2022
3823 Clouds 25 1007 87 10000 3.02 110 19:31 09.02.2022
3824 Clouds 25 1007 87 10000 3.19 113 17:37 09.02.2022
3825 Clouds 25 1008 94 10000 2.06 0 16:48 09.02.2022
3826 Clouds 26 1008 89 10000 2.06 0 15:50 09.02.2022
3827 Clouds 26 1008 86 10000 2.71 115 14:35 09.02.2022
3828 Clouds 26 1008 84 10000 3.65 120 12:28 09.02.2022
3829 Clouds 28 1008 83 10000 5.14 160 10:54 09.02.2022
3830 Clouds 28 1008 83 10000 5.14 160 10:26 09.02.2022
3831 Haze 29 1007 79 10000 4.38 130 09:40 09.02.2022
3832 Haze 29 1007 79 10000 4.5 145 09:19 09.02.2022
3833 Haze 32 1005 70 10000 4.89 157 07:53 09.02.2022
3834 Haze 33 1006 58 10000 7.72 190 05:30 09.02.2022
3835 Haze 34 1009 59 10000 5.14 160 03:50 09.02.2022
3836 Haze 30 1009 70 10000 5.14 300 00:38 09.02.2022
3837 Haze 28 1009 78 10000 2.57 350 23:31 08.02.2022
3838 Haze 25 1008 94 10000 1.54 0 22:46 08.02.2022
3839 Haze 25 1008 94 10000 1.54 0 22:21 08.02.2022
3840 Haze 25 1008 94 10000 1.54 0 22:21 08.02.2022
3841 Haze 25 1008 94 10000 1.54 0 22:21 08.02.2022
3842 Haze 24 1007 94 10000 1.54 0 21:38 08.02.2022
3843 Haze 24 1007 94 10000 1.54 0 21:20 08.02.2022
3844 Clouds 24 1007 94 10000 1.54 0 20:42 08.02.2022
3845 Clouds 24 1006 94 10000 1.54 0 19:46 08.02.2022
3846 Clouds 25 1006 84 10000 1.46 39 18:35 08.02.2022
3847 Clouds 25 1007 94 10000 1.54 0 17:38 08.02.2022
3848 Clouds 26 1007 83 10000 1.83 98 16:22 08.02.2022
3849 Clouds 26 1009 94 10000 1.54 0 15:29 08.02.2022
3850 Clouds 26 1009 94 10000 2.06 0 14:26 08.02.2022
3851 Clouds 27 1009 89 10000 3.6 180 12:41 08.02.2022
3852 Clouds 27 1008 81 10000 2.12 148 11:28 08.02.2022
3853 Rain 27 1007 78 10000 1.87 156 10:18 08.02.2022
3854 Haze 31 1007 66 10000 5.14 200 09:41 08.02.2022
3855 Haze 32 1005 62 10000 5.14 210 07:37 08.02.2022
3856 Haze 32 1007 62 10000 5.14 210 04:40 08.02.2022
3857 Haze 32 1007 62 10000 5.14 210 04:22 08.02.2022
3858 Haze 33 1008 55 10000 3.08 245 03:37 08.02.2022
3859 Haze 33 1008 55 10000 2.47 242 03:18 08.02.2022
3860 Haze 32 1009 55 10000 1.54 0 02:59 08.02.2022
3861 Haze 32 1009 55 10000 1.54 0 02:37 08.02.2022
3862 Clouds 29 1009 64 10000 2.28 253 02:19 08.02.2022
3863 Haze 31 1010 62 10000 2.06 0 01:55 08.02.2022
3864 Haze 31 1010 62 10000 2.06 0 01:37 08.02.2022
3865 Haze 31 1010 62 10000 2.06 0 01:19 08.02.2022
3866 Haze 29 1010 74 10000 2.57 340 00:44 08.02.2022
3867 Haze 26 1010 89 10000 2.06 320 23:45 07.02.2022
3868 Clouds 26 1009 78 10000 0.87 12 23:18 07.02.2022
3869 Haze 24 1009 94 10000 2.57 300 22:59 07.02.2022
3870 Haze 24 1009 94 10000 2.57 300 22:19 07.02.2022
3871 Clouds 24 1008 94 10000 2.57 310 21:51 07.02.2022
3872 Clouds 24 1008 94 10000 2.57 310 21:28 07.02.2022
3873 Clouds 24 1008 94 10000 2.57 310 20:52 07.02.2022
3874 Clouds 24 1008 94 10000 2.57 310 20:34 07.02.2022
3875 Clouds 24 1007 94 10000 1.54 0 19:47 07.02.2022
3876 Clouds 24 1007 94 10000 1.54 0 19:47 07.02.2022
3877 Clouds 24 1007 94 10000 1.54 0 18:58 07.02.2022
3878 Clouds 25 1008 88 10000 1.54 0 17:38 07.02.2022
3879 Rain 25 1009 88 10000 1.54 0 16:52 07.02.2022
3880 Rain 25 1009 94 10000 1.54 0 15:48 07.02.2022
3881 Clouds 25 1009 94 10000 1.54 0 14:30 07.02.2022
3882 Clouds 26 1010 83 10000 0.65 88 13:27 07.02.2022
3883 Clouds 26 1009 89 10000 1.54 0 12:36 07.02.2022
3884 Clouds 26 1009 89 10000 1.54 0 11:50 07.02.2022
3885 Clouds 26 1009 89 10000 1.54 0 11:24 07.02.2022
3886 Clouds 27 1008 83 10000 2.57 310 10:42 07.02.2022
3887 Clouds 27 1008 83 10000 2.57 310 10:24 07.02.2022
3888 Haze 29 1008 79 10000 5.14 280 09:52 07.02.2022
3889 Haze 29 1008 79 10000 5.14 280 09:18 07.02.2022
3890 Haze 32 1007 58 10000 5.14 280 07:53 07.02.2022
3891 Haze 32 1006 62 10000 7.72 320 06:34 07.02.2022
3892 Haze 31 1008 70 10000 3.6 340 04:49 07.02.2022
3893 Haze 29 1010 70 10000 3.6 330 02:37 07.02.2022
3894 Haze 27 1010 83 10000 5.14 320 00:20 07.02.2022
3895 Rain 26 1010 83 10000 5.14 360 23:20 06.02.2022
3896 Haze 25 1010 88 10000 5.14 360 22:41 06.02.2022
3897 Clouds 24 1009 94 10000 4.12 340 21:38 06.02.2022
3898 Rain 24 1009 94 10000 4.12 340 21:20 06.02.2022
3899 Rain 24 1009 100 10000 4.12 330 20:48 06.02.2022
3900 Clouds 24 1009 100 10000 4.12 330 20:23 06.02.2022
3901 Clouds 25 1008 86 10000 2.82 359 19:18 06.02.2022
3902 Clouds 25 1008 87 10000 2.43 5 18:28 06.02.2022
3903 Clouds 24 1009 94 10000 3.6 320 17:31 06.02.2022
3904 Clouds 25 1009 87 10000 2.44 1 16:51 06.02.2022
3905 Clouds 25 1009 87 10000 2.23 354 15:51 06.02.2022
3906 Clouds 25 1010 87 10000 2.29 358 15:28 06.02.2022
3907 Clouds 25 1010 94 10000 2.57 340 15:00 06.02.2022
3908 Clouds 26 1010 85 10000 1.93 344 13:59 06.02.2022
3909 Clouds 25 1010 87 10000 1.88 332 13:20 06.02.2022
3910 Clouds 26 1010 87 10000 2.18 320 12:19 06.02.2022
3911 Rain 26 1009 87 10000 2.81 285 10:33 06.02.2022
3912 Haze 30 1007 66 10000 5.14 260 09:36 06.02.2022
3913 Haze 31 1007 62 10000 5.14 290 08:41 06.02.2022
3914 Haze 33 1007 52 10000 7.72 290 06:31 06.02.2022
3915 Haze 32 1007 58 10000 5.14 290 05:28 06.02.2022
3916 Haze 32 1007 58 10000 5.14 290 05:28 06.02.2022
3917 Haze 30 1009 66 10000 5.14 340 02:25 06.02.2022
3918 Clouds 28 1010 74 10000 5.14 320 00:32 06.02.2022
3919 Clouds 26 1009 78 10000 5.14 320 23:38 05.02.2022
3920 Rain 25 1008 84 10000 4.27 346 21:46 05.02.2022
3921 Rain 24 1007 94 10000 5.14 340 20:39 05.02.2022
3922 Clouds 25 1007 85 10000 3.87 344 20:19 05.02.2022
3923 Rain 24 1006 100 10000 3.09 330 19:41 05.02.2022
3924 Clouds 25 1006 85 10000 3.93 342 18:26 05.02.2022
3925 Rain 25 1006 85 10000 3.93 342 17:34 05.02.2022
3926 Rain 25 1008 88 10000 5.14 320 15:43 05.02.2022
3927 Rain 25 1008 88 10000 5.14 320 15:25 05.02.2022
3928 Rain 26 1009 87 10000 3.3 342 13:24 05.02.2022
3929 Rain 26 1009 86 10000 3.18 341 12:42 05.02.2022
3930 Rain 26 1008 87 10000 4.17 310 11:18 05.02.2022
3931 Clouds 28 1007 74 10000 5.14 360 10:43 05.02.2022
3932 Haze 29 1006 70 10000 5.14 320 09:49 05.02.2022
3933 Haze 30 1005 66 10000 6.17 300 08:34 05.02.2022
3934 Haze 32 1005 58 10000 7.72 300 06:58 05.02.2022
3935 Haze 33 1005 55 10000 7.49 280 05:44 05.02.2022
3936 Clouds 31 1008 66 10000 2.57 340 01:47 05.02.2022
3937 Clouds 29 1007 68 10000 5.13 308 01:18 05.02.2022
3938 Clouds 29 1007 68 10000 5.13 308 01:18 05.02.2022
3939 Clouds 28 1008 78 10000 5.14 350 00:36 05.02.2022
3940 Clouds 27 1007 78 10000 5.14 350 23:33 04.02.2022
3941 Clouds 24 1006 94 10000 2.57 350 22:28 04.02.2022
3942 Clouds 23 1005 100 10000 3.6 340 21:36 04.02.2022
3943 Clouds 23 1005 100 10000 3.6 340 21:18 04.02.2022
3944 Clouds 23 1005 100 10000 3.6 350 20:28 04.02.2022
3945 Clouds 24 1006 94 10000 4.12 350 18:30 04.02.2022
3946 Clouds 25 1008 94 10000 1.54 0 15:57 04.02.2022
3947 Clouds 26 1008 89 10000 2.57 320 14:56 04.02.2022
3948 Clouds 26 1008 89 10000 2.57 320 14:24 04.02.2022
3949 Clouds 26 1008 89 10000 5.14 320 12:43 04.02.2022
3950 Clouds 27 1006 78 10000 5.14 320 11:43 04.02.2022
3951 Clouds 28 1006 74 10000 5.14 320 10:48 04.02.2022
3952 Clouds 32 1004 55 10000 5.14 280 08:50 04.02.2022
3953 Clouds 33 1004 52 10000 5.14 300 06:58 04.02.2022
3954 Clouds 33 1006 55 10000 5.14 320 02:51 04.02.2022
3955 Clouds 31 1006 66 10000 5.14 350 01:56 04.02.2022
3956 Clouds 25 1007 88 10000 5.14 330 23:31 03.02.2022
3957 Clouds 24 1006 94 10000 2.57 330 22:46 03.02.2022
3958 Clouds 23 1006 94 10000 2.57 310 21:49 03.02.2022
3959 Clouds 23 1006 94 10000 2.57 310 21:49 03.02.2022
3960 Clouds 23 1005 94 10000 2.57 310 20:41 03.02.2022
3961 Clouds 23 1005 94 10000 2.57 310 20:20 03.02.2022
3962 Clouds 23 1005 94 10000 2.57 300 19:32 03.02.2022
3963 Clouds 23 1005 94 10000 3.6 310 18:40 03.02.2022
3964 Clouds 23 1005 94 10000 3.6 310 17:35 03.02.2022
3965 Clouds 23 1006 94 10000 3.09 320 16:35 03.02.2022
3966 Clouds 24 1007 88 10000 1.54 320 14:49 03.02.2022
3967 Clouds 25 1006 83 10000 1.54 350 12:59 03.02.2022
3968 Clouds 27 1005 69 10000 2.57 340 11:23 03.02.2022
3969 Clouds 32 1004 51 10000 5.14 280 08:37 03.02.2022
3970 Clouds 32 1005 51 10000 5.14 310 05:26 03.02.2022
3971 Clouds 27 1008 78 10000 5.14 320 00:32 03.02.2022
3972 Clouds 25 1007 88 10000 5.14 300 23:43 02.02.2022
3973 Clouds 23 1006 94 10000 5.14 330 22:19 02.02.2022
3974 Clouds 23 1006 94 10000 5.14 320 21:34 02.02.2022
3975 Clouds 23 1006 94 10000 5.14 320 20:49 02.02.2022
3976 Rain 24 1007 81 10000 3.74 346 19:58 02.02.2022
3977 Clouds 24 1006 82 10000 4.17 347 19:27 02.02.2022
3978 Clouds 23 1007 94 10000 2.06 350 18:45 02.02.2022
3979 Clouds 24 1006 82 10000 5.86 331 17:56 02.02.2022
3980 Clouds 24 1007 84 10000 6.95 328 17:19 02.02.2022
3981 Clouds 23 1008 94 10000 2.57 340 16:42 02.02.2022
3982 Clouds 23 1010 100 10000 2.57 320 13:28 02.02.2022
3983 Rain 23 1010 100 10000 2.57 310 12:20 02.02.2022
3984 Rain 23 1010 94 10000 3.09 350 11:33 02.02.2022
3985 Rain 24 1009 94 6000 2.57 340 09:47 02.02.2022
3986 Rain 24 1009 94 2000 5.14 340 07:33 02.02.2022
3987 Rain 23 1009 94 10000 3.09 330 22:52 01.02.2022
3988 Rain 23 1008 94 10000 5.14 340 21:50 01.02.2022
3989 Clouds 23 1007 94 10000 5.14 340 19:58 01.02.2022
3990 Clouds 23 1008 94 10000 5.14 320 17:43 01.02.2022
3991 Rain 23 1008 94 10000 5.14 330 16:39 01.02.2022
3992 Rain 23 1008 94 10000 5.14 330 16:39 01.02.2022
3993 Rain 23 1010 94 10000 5.14 340 13:56 01.02.2022
3994 Clouds 23 1010 94 10000 5.14 350 12:43 01.02.2022
3995 Rain 25 1010 89 10000 4.26 332 11:20 01.02.2022
3996 Clouds 28 1010 78 10000 5.14 330 02:34 01.02.2022
3997 Haze 26 1009 83 10000 5.14 330 23:41 31.01.2022
3998 Haze 25 1008 88 10000 5.14 340 22:57 31.01.2022
3999 Clouds 24 1007 94 10000 5.14 310 21:39 31.01.2022
4000 Clouds 24 1007 94 10000 5.14 310 20:50 31.01.2022
4001 Clouds 25 1008 72 10000 1.87 2 20:27 31.01.2022
4002 Clouds 25 1007 74 10000 1.7 12 19:20 31.01.2022
4003 Clouds 25 1007 77 10000 2.09 16 18:25 31.01.2022
4004 Clouds 25 1007 88 10000 2.57 310 17:26 31.01.2022
4005 Clouds 25 1008 75 10000 2.43 341 16:26 31.01.2022
4006 Clouds 25 1008 76 10000 2.7 334 14:54 31.01.2022
4007 Clouds 25 1009 76 10000 3.16 336 13:51 31.01.2022
4008 Clouds 25 1009 94 10000 2.06 0 12:38 31.01.2022
4009 Clouds 26 1008 83 10000 2.06 0 11:42 31.01.2022
4010 Clouds 27 1008 78 10000 4.12 320 10:49 31.01.2022
4011 Clouds 28 1008 69 10000 4.63 300 09:45 31.01.2022
4012 Rain 29 1007 79 10000 4.63 300 08:58 31.01.2022
4013 Rain 29 1007 79 10000 4.63 300 08:38 31.01.2022
4014 Rain 29 1007 79 10000 4.63 300 08:19 31.01.2022
4015 Rain 28 1008 78 10000 4.63 300 06:18 31.01.2022
4016 Clouds 25 1010 88 10000 5.14 350 00:44 31.01.2022
4017 Clouds 24 1009 88 10000 5.14 350 22:34 30.01.2022
4018 Clouds 23 1008 94 10000 5.14 350 21:56 30.01.2022
4019 Rain 23 1008 94 10000 5.14 350 21:37 30.01.2022
4020 Rain 23 1008 94 10000 5.14 350 21:18 30.01.2022
4021 Clouds 24 1008 92 10000 5.01 327 20:43 30.01.2022
4022 Rain 24 1008 93 4176 5.08 326 20:25 30.01.2022
4023 Clouds 23 1009 94 10000 5.14 350 19:23 30.01.2022
4024 Clouds 23 1009 94 10000 5.14 340 18:35 30.01.2022
4025 Rain 25 1008 83 10000 5.14 330 17:40 30.01.2022
4026 Clouds 24 1008 88 9679 5.02 306 17:19 30.01.2022
4027 Clouds 25 1008 94 10000 2.57 340 16:36 30.01.2022
4028 Rain 25 1008 94 10000 2.57 340 16:18 30.01.2022
4029 Rain 25 1009 94 10000 2.57 340 15:45 30.01.2022
4030 Rain 25 1009 94 10000 2.57 340 15:25 30.01.2022
4031 Clouds 25 1009 85 10000 4 305 14:44 30.01.2022
4032 Rain 25 1010 85 10000 3.85 320 12:46 30.01.2022
4033 Rain 25 1008 88 10000 2.57 340 11:52 30.01.2022
4034 Rain 25 1007 94 10000 3.09 340 10:26 30.01.2022
4035 Rain 27 1007 83 10000 2.57 350 09:41 30.01.2022
4036 Haze 28 1007 78 10000 5.14 340 08:44 30.01.2022
4037 Rain 25 1010 94 10000 2.57 330 02:58 30.01.2022
4038 Rain 25 1011 94 10000 5.14 330 01:54 30.01.2022
4039 Clouds 24 1010 94 7000 5.14 350 23:49 29.01.2022
4040 Rain 24 1009 94 10000 3.09 330 22:58 29.01.2022
4041 Rain 25 1008 88 10000 2.57 50 21:44 29.01.2022
4042 Rain 25 1008 88 10000 2.57 50 21:20 29.01.2022
4043 Rain 25 1007 81 10000 2.85 317 20:21 29.01.2022
4044 Clouds 25 1007 94 10000 5.66 220 19:33 29.01.2022
4045 Rain 25 1006 94 10000 3.09 320 18:51 29.01.2022
4046 Clouds 25 1007 100 10000 3.09 350 17:56 29.01.2022
4047 Clouds 25 1006 82 10000 2.17 337 17:19 29.01.2022
4048 Rain 26 1008 89 10000 4.12 20 15:35 29.01.2022
4049 Clouds 26 1008 80 10000 1.68 343 13:58 29.01.2022
4050 Clouds 26 1008 79 10000 1.13 335 13:28 29.01.2022
4051 Clouds 26 1008 79 10000 1.13 335 12:59 29.01.2022
4052 Clouds 27 1008 89 10000 5.14 270 11:39 29.01.2022
4053 Clouds 27 1008 89 10000 5.14 270 11:39 29.01.2022
4054 Rain 27 1007 89 10000 2.57 290 10:33 29.01.2022
4055 Clouds 28 1005 71 10000 3.96 276 08:20 29.01.2022
4056 Clouds 32 1008 62 10000 2.57 330 02:48 29.01.2022
4057 Clouds 27 1008 83 10000 2.57 340 00:32 29.01.2022
4058 Clouds 26 1009 94 10000 2.57 340 23:31 28.01.2022
4059 Rain 24 1008 100 10000 2.57 340 22:47 28.01.2022
4060 Rain 25 1008 83 10000 2.66 357 22:19 28.01.2022
4061 Clouds 24 1007 100 10000 4.12 310 20:41 28.01.2022
4062 Clouds 25 1008 94 10000 2.57 330 19:57 28.01.2022
4063 Clouds 25 1006 94 10000 2.57 340 18:52 28.01.2022
4064 Clouds 25 1007 94 10000 2.57 340 17:53 28.01.2022
4065 Clouds 25 1008 94 10000 2.57 310 15:52 28.01.2022
4066 Clouds 25 1009 94 10000 1.54 0 14:50 28.01.2022
4067 Clouds 27 1009 83 10000 1.54 0 12:41 28.01.2022
4068 Clouds 27 1008 83 10000 5.14 320 11:43 28.01.2022
4069 Clouds 28 1007 74 10000 5.14 280 10:26 28.01.2022
4070 Clouds 30 1007 66 10000 5.14 280 09:45 28.01.2022
4071 Haze 32 1006 62 10000 5.14 270 07:40 28.01.2022
4072 Haze 32 1006 66 10000 5.14 330 05:30 28.01.2022
4073 Haze 32 1008 62 10000 5.14 300 03:48 28.01.2022
4074 Haze 32 1009 62 10000 5.14 300 02:23 28.01.2022
4075 Haze 32 1009 58 10000 4.12 310 01:35 28.01.2022
4076 Haze 30 1009 66 10000 1.54 0 00:33 28.01.2022
4077 Haze 24 1007 94 10000 3.6 320 21:58 27.01.2022
4078 Haze 24 1007 94 10000 3.6 320 21:34 27.01.2022
4079 Clouds 25 1007 84 10000 2.3 3 20:55 27.01.2022
4080 Rain 25 1007 85 10000 2.38 1 19:35 27.01.2022
4081 Rain 24 1007 94 10000 4.12 310 17:56 27.01.2022
4082 Clear 24 1009 100 10000 3.09 320 15:31 27.01.2022
4083 Clear 25 1010 88 10000 1.03 0 13:39 27.01.2022
4084 Clear 25 1009 88 10000 3.6 350 12:46 27.01.2022
4085 Haze 27 1008 83 10000 5.14 10 10:57 27.01.2022
4086 Haze 28 1007 78 10000 1.94 229 09:20 27.01.2022
4087 Haze 31 1006 70 10000 1.94 229 08:38 27.01.2022
4088 Haze 32 1006 62 10000 3.71 237 07:22 27.01.2022
4089 Haze 32 1010 66 10000 5.14 330 02:57 27.01.2022
4090 Haze 26 1010 94 10000 2.57 300 23:45 26.01.2022
4091 Haze 25 1009 94 10000 3.09 320 22:26 26.01.2022
4092 Haze 24 1008 100 10000 2.57 330 21:37 26.01.2022
4093 Clouds 25 1008 83 10000 1.49 45 20:41 26.01.2022
4094 Clouds 25 1007 83 10000 1.03 62 20:23 26.01.2022
4095 Clouds 24 1007 100 10000 2.06 320 19:23 26.01.2022
4096 Clouds 24 1008 100 10000 2.57 320 18:45 26.01.2022
4097 Clouds 25 1008 94 10000 2.57 320 17:51 26.01.2022
4098 Clouds 25 1008 94 10000 2.57 320 17:23 26.01.2022
4099 Rain 25 1008 94 10000 2.06 0 16:33 26.01.2022
4100 Clouds 26 1007 83 10000 1.49 71 15:49 26.01.2022
4101 Clouds 27 1009 81 10000 1.63 93 14:20 26.01.2022
4102 Clouds 26 1008 94 10000 2.57 300 11:52 26.01.2022
4103 Clouds 28 1008 78 10000 2.69 143 10:28 26.01.2022
4104 Clouds 27 1007 89 10000 2.57 0 09:48 26.01.2022
4105 Clouds 32 1006 66 10000 4.63 220 07:44 26.01.2022
4106 Haze 33 1008 62 10000 5.14 170 03:31 26.01.2022
4107 Haze 29 1009 79 10000 2.57 40 23:57 25.01.2022
4108 Haze 25 1009 94 10000 3.09 350 22:57 25.01.2022
4109 Haze 25 1009 94 10000 3.09 350 22:21 25.01.2022
4110 Clouds 25 1008 94 10000 1.54 0 21:58 25.01.2022
4111 Clouds 25 1008 94 10000 1.54 0 20:46 25.01.2022
4112 Clouds 25 1008 94 10000 1.54 0 20:23 25.01.2022
4113 Clouds 25 1007 94 10000 1.54 0 19:50 25.01.2022
4114 Clouds 25 1007 94 10000 1.54 0 18:32 25.01.2022
4115 Clouds 25 1008 94 10000 1.54 0 17:43 25.01.2022
4116 Clouds 26 1007 94 10000 1.03 0 16:35 25.01.2022
4117 Clouds 26 1009 94 10000 1.54 0 15:49 25.01.2022
4118 Clouds 26 1009 94 10000 1.54 0 15:31 25.01.2022
4119 Clouds 26 1009 94 10000 1.54 0 14:57 25.01.2022
4120 Clouds 26 1008 94 10000 1.03 0 13:40 25.01.2022
4121 Rain 28 1007 83 10000 2.57 130 10:39 25.01.2022
4122 Rain 29 1006 79 10000 2.57 130 08:34 25.01.2022
4123 Haze 29 1006 74 10000 5.14 200 07:28 25.01.2022
4124 Rain 29 1005 70 10000 1.17 204 06:47 25.01.2022
4125 Haze 33 1007 62 10000 7.72 230 04:22 25.01.2022
4126 Clouds 28 1009 75 10000 1.5 320 23:37 24.01.2022
4127 Clouds 27 1008 81 10000 1.46 3 23:18 24.01.2022
4128 Clouds 25 1008 94 10000 2.57 340 22:59 24.01.2022
4129 Clouds 25 1008 94 10000 2.57 340 22:41 24.01.2022
4130 Fog 24 1008 100 10000 2.57 340 21:49 24.01.2022
4131 Fog 24 1008 100 10000 2.57 340 21:28 24.01.2022
4132 Clouds 24 1007 100 10000 2.57 340 20:29 24.01.2022
4133 Clouds 25 1007 94 10000 2.57 320 19:39 24.01.2022
4134 Clouds 25 1007 94 10000 2.57 320 19:20 24.01.2022
4135 Clouds 25 1007 100 10000 2.57 310 17:45 24.01.2022
4136 Clouds 25 1007 100 10000 2.57 310 17:23 24.01.2022
4137 Clouds 25 1008 100 10000 1.54 0 16:33 24.01.2022
4138 Clouds 25 1009 100 10000 2.57 350 15:52 24.01.2022
4139 Clouds 27 1007 84 10000 0.96 114 14:27 24.01.2022
4140 Clouds 27 1006 94 10000 0 0 12:36 24.01.2022
4141 Clouds 27 1007 84 10000 1.03 183 11:59 24.01.2022
4142 Clouds 28 1006 78 10000 2.57 150 10:25 24.01.2022
4143 Haze 29 1006 70 10000 3.09 190 09:47 24.01.2022
4144 Haze 30 1005 66 10000 5.14 180 08:19 24.01.2022
4145 Clouds 32 1008 62 10000 5.14 350 02:51 24.01.2022
4146 Clouds 29 1008 73 10000 2.7 310 01:29 24.01.2022
4147 Haze 30 1009 70 10000 3.09 310 00:34 24.01.2022
4148 Haze 25 1008 94 10000 3.09 310 23:47 23.01.2022
4149 Haze 25 1008 94 10000 3.09 310 22:21 23.01.2022
4150 Haze 23 1008 100 10000 2.06 310 21:42 23.01.2022
4151 Haze 23 1008 100 10000 2.06 310 21:24 23.01.2022
4152 Clouds 25 1007 83 10000 2.14 5 20:29 23.01.2022
4153 Clear 23 1007 100 10000 2.06 360 19:21 23.01.2022
4154 Clear 24 1006 94 10000 1.54 0 18:44 23.01.2022
4155 Clear 24 1007 94 10000 2.57 300 17:27 23.01.2022
4156 Clear 24 1008 100 10000 2.57 360 16:38 23.01.2022
4157 Clouds 25 1008 85 10000 1.74 25 14:56 23.01.2022
4158 Clouds 25 1008 85 10000 1.74 43 14:19 23.01.2022
4159 Clouds 26 1009 86 10000 1.93 64 12:49 23.01.2022
4160 Clouds 26 1008 86 10000 2.32 73 12:21 23.01.2022
4161 Clouds 25 1007 94 10000 5.14 20 11:51 23.01.2022
4162 Rain 25 1007 94 10000 5.14 20 11:18 23.01.2022
4163 Rain 26 1006 89 10000 5.14 30 10:26 23.01.2022
4164 Haze 26 1007 94 10000 5.14 20 09:37 23.01.2022
4165 Rain 27 1006 80 10000 1.28 247 08:51 23.01.2022
4166 Clouds 30 1007 74 10000 4.52 255 05:37 23.01.2022
4167 Clouds 31 1009 66 10000 5.14 310 01:43 23.01.2022
4168 Clouds 31 1009 66 10000 5.14 310 01:23 23.01.2022
4169 Clouds 28 1009 78 10000 3.09 320 00:22 23.01.2022
4170 Clouds 26 1009 89 10000 3.09 290 23:19 22.01.2022
4171 Clouds 24 1008 94 10000 1.9 348 22:34 22.01.2022
4172 Clouds 24 1008 94 10000 1.9 348 22:34 22.01.2022
4173 Clouds 23 1007 100 10000 2.57 340 21:18 22.01.2022
4174 Clouds 24 1007 94 10000 3.09 330 19:46 22.01.2022
4175 Clouds 24 1007 94 10000 2.06 0 18:45 22.01.2022
4176 Clouds 24 1007 94 10000 2.57 350 17:56 22.01.2022
4177 Clouds 24 1007 94 10000 2.57 350 17:35 22.01.2022
4178 Clouds 24 1007 94 10000 2.57 300 16:55 22.01.2022
4179 Clouds 24 1008 94 10000 2.06 0 15:49 22.01.2022
4180 Clouds 26 1008 85 10000 1.56 14 14:57 22.01.2022
4181 Clouds 26 1009 85 10000 1.65 5 13:36 22.01.2022
4182 Clouds 26 1009 85 10000 2.15 359 12:47 22.01.2022
4183 Clouds 26 1009 85 10000 1.55 356 12:24 22.01.2022
4184 Clouds 26 1008 89 10000 5.14 350 10:55 22.01.2022
4185 Rain 26 1008 89 10000 5.14 350 10:28 22.01.2022
4186 Rain 27 1007 83 10000 5.14 340 09:46 22.01.2022
4187 Clouds 27 1006 79 10000 1.43 262 08:51 22.01.2022
4188 Rain 28 1005 71 10000 2.68 249 07:28 22.01.2022
4189 Clouds 32 1007 66 10000 5.14 210 04:50 22.01.2022
4190 Clouds 30 1009 66 10000 2.57 340 01:32 22.01.2022
4191 Clouds 26 1008 89 10000 2.57 330 23:30 21.01.2022
4192 Clouds 25 1008 84 10000 1.25 11 22:19 21.01.2022
4193 Clouds 24 1007 94 10000 2.06 300 19:56 21.01.2022
4194 Clouds 24 1006 86 10000 1.8 19 18:23 21.01.2022
4195 Clouds 25 1007 86 10000 1.73 30 17:18 21.01.2022
4196 Clouds 25 1008 85 10000 1.33 34 15:27 21.01.2022
4197 Clouds 26 1009 83 10000 0.95 3 13:18 21.01.2022
4198 Clouds 26 1008 89 10000 5.14 260 12:26 21.01.2022
4199 Rain 29 1008 70 10000 5.14 260 11:26 21.01.2022
4200 Clouds 29 1006 70 10000 5.14 260 09:46 21.01.2022
4201 Clouds 30 1006 62 10000 2.57 280 08:22 21.01.2022
4202 Clouds 29 1006 69 10000 4.94 272 04:37 21.01.2022
4203 Clouds 25 1009 89 10000 3.49 347 23:19 20.01.2022
4204 Clouds 24 1007 94 10000 2.57 330 21:50 20.01.2022
4205 Clouds 24 1007 94 10000 2.57 330 21:31 20.01.2022
4206 Clouds 24 1007 94 10000 2.57 330 20:21 20.01.2022
4207 Clouds 24 1007 92 6763 4.46 337 19:19 20.01.2022
4208 Clouds 24 1006 89 10000 3.86 338 17:46 20.01.2022
4209 Clouds 25 1007 94 10000 2.57 330 16:35 20.01.2022
4210 Clouds 25 1007 87 10000 3.23 332 15:40 20.01.2022
4211 Clouds 25 1008 88 10000 3.04 337 14:40 20.01.2022
4212 Haze 25 1008 94 10000 5.14 350 13:21 20.01.2022
4213 Haze 25 1008 94 10000 6.69 350 12:31 20.01.2022
4214 Haze 25 1007 94 10000 3.6 350 11:20 20.01.2022
4215 Haze 25 1007 94 10000 5.14 350 10:37 20.01.2022
4216 Haze 27 1005 89 10000 5.14 280 09:29 20.01.2022
4217 Clouds 28 1004 77 10000 5.45 301 07:24 20.01.2022
4218 Clouds 28 1007 78 10000 7.72 330 00:41 20.01.2022
4219 Clouds 25 1006 94 10000 2.57 340 22:50 19.01.2022
4220 Clouds 24 1005 100 10000 2.57 340 21:44 19.01.2022
4221 Clouds 24 1006 85 10000 2.47 10 21:22 19.01.2022
4222 Clouds 24 1005 100 10000 2.57 350 20:45 19.01.2022
4223 Clouds 24 1005 94 10000 2.57 350 19:26 19.01.2022
4224 Clouds 25 1005 94 10000 1.54 0 17:51 19.01.2022
4225 Clouds 25 1005 94 10000 1.54 0 17:28 19.01.2022
4226 Clouds 25 1007 94 10000 1.54 0 15:36 19.01.2022
4227 Clouds 25 1007 94 10000 1.54 0 13:38 19.01.2022
4228 Clouds 25 1006 94 10000 3.09 280 12:24 19.01.2022
4229 Clouds 25 1006 94 10000 2.57 30 11:38 19.01.2022
4230 Clouds 26 1006 89 10000 5.14 350 09:52 19.01.2022
4231 Clouds 26 1006 89 10000 5.14 350 09:33 19.01.2022
4232 Clouds 28 1005 83 10000 7.72 340 06:34 19.01.2022
4233 Clouds 28 1008 78 10000 1.54 0 00:33 19.01.2022
4234 Clouds 26 1007 89 10000 1.54 0 23:18 18.01.2022
4235 Clouds 26 1007 82 10000 1.65 4 21:50 18.01.2022
4236 Clouds 25 1006 84 10000 1.73 2 20:38 18.01.2022
4237 Clouds 25 1005 84 10000 1.63 357 19:51 18.01.2022
4238 Clouds 25 1005 85 10000 1.66 26 19:33 18.01.2022
4239 Clouds 25 1004 84 10000 1.58 27 18:23 18.01.2022
4240 Clouds 25 1005 94 10000 4.12 330 17:33 18.01.2022
4241 Clouds 26 1005 82 10000 1.29 40 16:22 18.01.2022
4242 Clouds 26 1006 81 10000 0.98 54 15:25 18.01.2022
4243 Clouds 26 1006 80 10000 1.03 64 14:23 18.01.2022
4244 Clouds 27 1006 89 10000 5.14 320 11:45 18.01.2022
4245 Clouds 27 1006 77 10000 0.32 166 10:30 18.01.2022
4246 Haze 29 1005 79 10000 7.72 240 08:29 18.01.2022
4247 Haze 30 1004 74 10000 7.72 210 07:45 18.01.2022
4248 Haze 29 1008 79 10000 3.09 330 00:42 18.01.2022
4249 Haze 25 1008 88 10000 2.57 300 22:46 17.01.2022
4250 Clouds 24 1007 94 10000 2.06 300 21:44 17.01.2022
4251 Clouds 24 1007 94 10000 2.06 300 21:24 17.01.2022
4252 Clouds 24 1006 100 10000 1.54 350 18:51 17.01.2022
4253 Clouds 24 1006 100 10000 1.54 350 18:25 17.01.2022
4254 Clouds 24 1007 100 10000 2.57 320 17:22 17.01.2022
4255 Clouds 25 1008 94 10000 2.57 310 15:54 17.01.2022
4256 Rain 25 1008 94 10000 4.12 330 14:58 17.01.2022
4257 Rain 25 1008 94 10000 4.12 330 14:58 17.01.2022
4258 Clouds 25 1008 94 10000 4.12 330 14:31 17.01.2022
4259 Clouds 26 1008 86 10000 1.28 344 13:18 17.01.2022
4260 Clouds 26 1007 84 10000 0.94 352 13:18 17.01.2022
4261 Clouds 26 1007 89 10000 3.09 10 11:53 17.01.2022
4262 Clouds 27 1007 83 10000 3.09 280 10:52 17.01.2022
4263 Clouds 27 1007 82 10000 1.37 328 09:46 17.01.2022
4264 Clouds 29 1006 79 10000 5.14 270 08:43 17.01.2022
4265 Clouds 30 1006 74 10000 5.14 270 07:20 17.01.2022
4266 Clouds 29 1009 74 10000 2.57 330 00:59 17.01.2022
4267 Clouds 28 1009 78 10000 2.57 350 23:27 16.01.2022
4268 Clouds 24 1008 94 10000 1.54 310 20:51 16.01.2022
4269 Clouds 23 1007 100 10000 1.54 350 19:56 16.01.2022
4270 Clouds 24 1008 94 10000 1.54 320 18:45 16.01.2022
4271 Clouds 24 1008 100 10000 2.06 340 17:47 16.01.2022
4272 Clouds 24 1009 100 10000 2.06 340 16:52 16.01.2022
4273 Clouds 25 1009 94 10000 2.06 360 15:39 16.01.2022
4274 Clouds 26 1009 82 10000 1.54 11 14:29 16.01.2022
4275 Clouds 26 1009 82 10000 1.54 11 14:29 16.01.2022
4276 Clouds 26 1010 80 10000 0.75 348 12:57 16.01.2022
4277 Clouds 26 1008 89 10000 1.54 0 11:49 16.01.2022
4278 Clouds 27 1007 83 10000 4.12 300 10:58 16.01.2022
4279 Clouds 27 1007 83 10000 4.12 300 10:26 16.01.2022
4280 Haze 29 1007 74 10000 5.14 270 09:56 16.01.2022
4281 Haze 29 1007 74 10000 5.14 270 09:23 16.01.2022
4282 Haze 29 1007 74 10000 5.14 280 08:52 16.01.2022
4283 Haze 32 1007 66 10000 5.14 250 05:35 16.01.2022
4284 Clouds 26 1010 89 10000 5.14 350 23:51 15.01.2022
4285 Clouds 24 1010 94 10000 2.57 300 22:35 15.01.2022
4286 Clouds 23 1009 100 10000 2.57 340 21:20 15.01.2022
4287 Clouds 23 1008 100 10000 2.57 320 20:40 15.01.2022
4288 Clouds 23 1008 100 10000 1.03 0 19:30 15.01.2022
4289 Clear 23 1008 100 10000 2.57 350 18:47 15.01.2022
4290 Clear 24 1009 94 10000 3.09 340 17:35 15.01.2022
4291 Clear 24 1009 94 10000 2.57 340 16:37 15.01.2022
4292 Clouds 25 1009 83 10000 1.27 25 13:57 15.01.2022
4293 Clouds 25 1008 88 10000 3.6 20 12:20 15.01.2022
4294 Clouds 26 1007 89 10000 5.14 20 10:43 15.01.2022
4295 Clouds 30 1007 70 10000 5.14 280 08:32 15.01.2022
4296 Clouds 29 1009 68 10000 3.38 305 00:35 15.01.2022
4297 Clouds 24 1008 100 10000 2.57 310 21:52 14.01.2022
4298 Clouds 24 1008 100 10000 2.57 310 21:52 14.01.2022
4299 Fog 24 1008 94 10000 2.57 340 20:41 14.01.2022
4300 Fog 24 1008 94 10000 2.57 340 20:21 14.01.2022
4301 Clouds 24 1007 94 10000 3.09 320 18:49 14.01.2022
4302 Clouds 24 1007 94 10000 3.09 320 18:20 14.01.2022
4303 Clouds 25 1007 87 10000 2.7 359 16:50 14.01.2022
4304 Clouds 25 1008 86 10000 2.68 1 15:39 14.01.2022
4305 Clouds 25 1008 100 10000 2.06 0 14:42 14.01.2022
4306 Clouds 25 1009 100 10000 2.06 0 13:36 14.01.2022
4307 Clouds 26 1010 82 10000 2.23 344 12:28 14.01.2022
4308 Rain 27 1010 89 10000 2.06 0 10:53 14.01.2022
4309 Clouds 26 1008 81 10000 3.4 318 08:54 14.01.2022
4310 Clouds 26 1008 81 10000 3.4 318 08:34 14.01.2022
4311 Rain 26 1009 94 10000 4.12 350 05:29 14.01.2022
4312 Rain 25 1011 94 10000 7.72 330 00:59 14.01.2022
4313 Rain 25 1009 94 5000 4.12 310 22:46 13.01.2022
4314 Clouds 25 1008 94 10000 2.57 300 21:31 13.01.2022
4315 Rain 25 1007 94 10000 2.57 300 20:57 13.01.2022
4316 Rain 26 1007 94 10000 2.06 0 19:40 13.01.2022
4317 Rain 25 1008 85 10000 2.27 357 19:21 13.01.2022
4318 Clouds 26 1007 94 10000 2.06 0 17:48 13.01.2022
4319 Rain 26 1008 94 10000 2.06 0 16:20 13.01.2022
4320 Rain 26 1009 94 10000 2.06 0 15:37 13.01.2022
4321 Clouds 26 1010 94 10000 1.54 0 13:48 13.01.2022
4322 Haze 25 1009 94 10000 2.06 0 12:25 13.01.2022
4323 Clouds 26 1008 81 10000 1.34 235 10:23 13.01.2022
4324 Haze 31 1007 70 10000 5.14 290 08:57 13.01.2022
4325 Haze 31 1007 70 10000 5.14 290 08:26 13.01.2022
4326 Haze 30 1006 74 10000 5.14 250 07:22 13.01.2022
4327 Clouds 33 1007 62 10000 8.23 310 05:59 13.01.2022
4328 Clouds 30 1007 66 10000 3.49 243 05:19 13.01.2022
4329 Clouds 32 1011 62 10000 2.57 310 01:53 13.01.2022
4330 Clouds 29 1010 66 10000 2.3 299 00:40 13.01.2022
4331 Clouds 28 1011 89 10000 2.57 310 23:45 12.01.2022
4332 Clouds 25 1010 94 10000 2.57 310 22:57 12.01.2022
4333 Clouds 24 1009 100 10000 2.57 310 21:56 12.01.2022
4334 Clouds 24 1009 100 10000 2.57 310 21:21 12.01.2022
4335 Clouds 24 1008 100 10000 2.57 350 20:56 12.01.2022
4336 Clouds 24 1008 100 10000 2.57 310 19:35 12.01.2022
4337 Clouds 26 1008 83 10000 1.03 61 18:29 12.01.2022
4338 Clouds 26 1009 94 10000 2.57 310 16:59 12.01.2022
4339 Clouds 26 1010 94 10000 2.06 0 15:58 12.01.2022
4340 Clouds 27 1009 81 10000 2.04 118 14:47 12.01.2022
4341 Clouds 27 1009 81 10000 3.03 137 12:58 12.01.2022
4342 Haze 30 1007 70 10000 5.14 200 09:59 12.01.2022
4343 Haze 32 1006 66 10000 5.14 190 08:36 12.01.2022
4344 Haze 32 1006 66 10000 7.72 200 07:34 12.01.2022
4345 Haze 32 1005 66 10000 7.72 200 06:21 12.01.2022
4346 Haze 28 1010 89 10000 4.12 130 23:30 11.01.2022
4347 Haze 26 1009 94 10000 1.54 120 22:41 11.01.2022
4348 Haze 26 1009 94 10000 1.54 120 22:21 11.01.2022
4349 Rain 25 1009 85 10000 0.66 81 20:49 11.01.2022
4350 Rain 25 1008 86 10000 0.44 25 19:42 11.01.2022
4351 Rain 26 1008 83 10000 1.36 68 18:25 11.01.2022
4352 Rain 26 1008 82 10000 1.37 92 17:19 11.01.2022
4353 Rain 26 1008 82 10000 1.37 92 16:37 11.01.2022
4354 Clouds 27 1010 89 10000 1.54 0 14:59 11.01.2022
4355 Clouds 27 1010 89 10000 1.54 0 14:40 11.01.2022
4356 Clouds 27 1010 80 10000 1.97 126 13:54 11.01.2022
4357 Rain 27 1010 80 10000 1.97 126 13:31 11.01.2022
4358 Clouds 27 1010 89 10000 2.57 200 12:41 11.01.2022
4359 Clouds 28 1008 78 10000 5.14 190 10:59 11.01.2022
4360 Clouds 30 1006 74 10000 2.57 200 08:58 11.01.2022
4361 Clouds 32 1006 66 10000 2.57 240 06:28 11.01.2022
4362 Clouds 28 1011 78 10000 2.57 20 00:30 11.01.2022
4363 Clouds 28 1010 78 10000 2.57 340 23:41 10.01.2022
4364 Clouds 26 1010 89 10000 2.57 340 22:51 10.01.2022
4365 Clouds 26 1010 89 10000 2.57 340 22:51 10.01.2022
4366 Clouds 26 1010 82 10000 2.04 359 22:18 10.01.2022
4367 Clouds 24 1009 94 10000 2.06 0 21:48 10.01.2022
4368 Clouds 25 1009 84 10000 2.32 3 21:19 10.01.2022
4369 Clouds 24 1009 94 10000 1.54 0 20:56 10.01.2022
4370 Clouds 24 1009 94 10000 1.54 0 20:26 10.01.2022
4371 Clouds 24 1008 94 10000 1.54 0 19:41 10.01.2022
4372 Clouds 26 1008 81 10000 1.55 8 19:20 10.01.2022
4373 Clouds 26 1008 81 10000 1.55 8 18:48 10.01.2022
4374 Clouds 24 1008 94 10000 1.54 0 17:24 10.01.2022
4375 Clouds 25 1009 88 10000 1.54 0 16:41 10.01.2022
4376 Clouds 25 1010 94 10000 2.57 300 15:20 10.01.2022
4377 Clouds 26 1010 89 10000 5.14 30 13:39 10.01.2022
4378 Clouds 27 1009 89 10000 2.57 320 11:57 10.01.2022
4379 Clouds 27 1009 82 10000 1.55 307 11:24 10.01.2022
4380 Rain 29 1008 74 10000 5.14 280 09:41 10.01.2022
4381 Clouds 32 1007 62 10000 5.14 290 05:52 10.01.2022
4382 Clouds 32 1007 62 10000 5.14 290 05:23 10.01.2022
4383 Haze 30 1010 70 10000 3.6 340 01:24 10.01.2022
4384 Haze 29 1010 70 10000 5.14 330 00:23 10.01.2022
4385 Clouds 26 1010 81 10000 3.16 341 23:28 09.01.2022
4386 Clouds 23 1009 100 10000 3.09 350 22:33 09.01.2022
4387 Clouds 23 1008 94 10000 2.57 310 21:42 09.01.2022
4388 Clouds 23 1008 94 10000 2.57 310 21:23 09.01.2022
4389 Clouds 23 1008 94 10000 2.57 310 21:23 09.01.2022
4390 Clouds 23 1007 94 10000 2.57 350 20:49 09.01.2022
4391 Clouds 23 1007 94 10000 2.57 350 20:29 09.01.2022
4392 Clouds 23 1007 100 10000 2.57 300 19:44 09.01.2022
4393 Clouds 23 1007 100 10000 2.57 300 19:22 09.01.2022
4394 Clouds 23 1007 94 10000 2.57 310 18:49 09.01.2022
4395 Clouds 23 1007 94 10000 2.57 310 18:30 09.01.2022
4396 Clouds 23 1008 100 10000 2.57 320 17:30 09.01.2022
4397 Clouds 24 1008 94 10000 3.6 340 16:51 09.01.2022
4398 Clouds 24 1009 94 10000 3.6 330 15:52 09.01.2022
4399 Clouds 24 1009 94 10000 3.6 330 15:33 09.01.2022
4400 Clouds 25 1008 87 10000 2.74 14 14:39 09.01.2022
4401 Clouds 25 1009 86 10000 2.63 358 13:50 09.01.2022
4402 Clouds 25 1009 85 10000 2.8 338 12:31 09.01.2022
4403 Clouds 26 1009 85 10000 2.81 330 11:47 09.01.2022
4404 Haze 29 1007 70 10000 6.69 300 09:56 09.01.2022
4405 Haze 29 1007 70 10000 6.69 300 09:29 09.01.2022
4406 Clouds 28 1006 79 10000 5.65 295 08:25 09.01.2022
4407 Clouds 28 1010 78 10000 5.14 340 01:43 09.01.2022
4408 Clouds 28 1009 67 10000 4.04 316 01:19 09.01.2022
4409 Clouds 27 1010 70 10000 3.34 334 23:38 08.01.2022
4410 Clouds 23 1009 100 10000 3.09 340 22:58 08.01.2022
4411 Rain 23 1008 94 10000 3.09 330 21:32 08.01.2022
4412 Rain 23 1008 94 10000 3.09 340 20:44 08.01.2022
4413 Rain 23 1008 94 10000 3.09 340 20:23 08.01.2022
4414 Rain 23 1007 94 10000 3.09 350 19:55 08.01.2022
4415 Clouds 24 1008 94 10000 3.6 340 17:49 08.01.2022
4416 Clouds 24 1009 94 10000 3.6 340 16:57 08.01.2022
4417 Clouds 24 1010 94 10000 3.09 340 15:37 08.01.2022
4418 Clouds 25 1009 88 10000 5.14 360 14:38 08.01.2022
4419 Rain 24 1009 94 10000 3.09 350 12:36 08.01.2022
4420 Clouds 24 1009 94 10000 5.14 340 10:46 08.01.2022
4421 Clouds 24 1009 94 10000 5.14 340 10:24 08.01.2022
4422 Clouds 27 1007 83 10000 7.72 240 09:34 08.01.2022
4423 Clouds 27 1007 83 10000 7.72 240 09:34 08.01.2022
4424 Clouds 25 1008 89 10000 6.84 333 07:18 08.01.2022
4425 Rain 24 1010 94 3000 5.14 340 01:52 08.01.2022
4426 Rain 23 1010 100 3000 6.69 340 00:25 08.01.2022
4427 Rain 23 1010 100 7000 7.72 350 22:39 07.01.2022
4428 Rain 23 1008 94 10000 7.72 350 20:40 07.01.2022
4429 Rain 24 1008 92 7022 6.66 318 19:34 07.01.2022
4430 Rain 25 1007 88 10000 5.14 350 18:50 07.01.2022
4431 Clouds 24 1008 90 8839 7.23 329 18:26 07.01.2022
4432 Rain 25 1007 88 10000 5.14 290 17:24 07.01.2022
4433 Rain 24 1008 94 10000 5.14 340 15:55 07.01.2022
4434 Clouds 24 1009 94 10000 5.14 350 13:52 07.01.2022
4435 Clouds 24 1009 94 10000 7.72 350 12:57 07.01.2022
4436 Clouds 24 1008 94 10000 7.72 320 11:58 07.01.2022
4437 Clouds 32 1008 55 10000 7.72 330 04:56 07.01.2022
4438 Clouds 30 1009 66 10000 5.14 320 02:53 07.01.2022
4439 Clouds 30 1010 66 10000 2.57 320 01:50 07.01.2022
4440 Clouds 30 1010 66 10000 2.57 320 01:26 07.01.2022
4441 Clouds 29 1009 70 10000 2.57 330 00:34 07.01.2022
4442 Clouds 25 1008 88 10000 2.57 300 22:42 06.01.2022
4443 Clouds 25 1009 89 10000 4.8 336 20:54 06.01.2022
4444 Rain 24 1008 90 10000 4.59 337 20:18 06.01.2022
4445 Rain 24 1008 90 10000 4.59 337 19:39 06.01.2022
4446 Rain 25 1008 83 10000 7.72 340 17:52 06.01.2022
4447 Rain 25 1008 83 10000 7.72 340 17:28 06.01.2022
4448 Rain 25 1009 88 10000 7.72 330 16:38 06.01.2022
4449 Rain 27 1010 78 10000 5.14 340 15:44 06.01.2022
4450 Rain 27 1010 78 10000 5.14 340 15:23 06.01.2022
4451 Rain 26 1010 89 10000 3.6 350 14:20 06.01.2022
4452 Rain 27 1010 78 10000 3.09 350 13:41 06.01.2022
4453 Rain 26 1009 89 10000 2.57 360 12:28 06.01.2022
4454 Clouds 27 1009 83 10000 2.57 340 11:31 06.01.2022
4455 Clouds 27 1008 83 10000 2.57 350 10:59 06.01.2022
4456 Clouds 26 1008 83 10000 1.43 271 06:54 06.01.2022
4457 Rain 24 1011 94 10000 5.14 310 00:34 06.01.2022
4458 Rain 23 1010 94 10000 5.14 340 23:33 05.01.2022
4459 Rain 23 1010 94 10000 5.14 320 22:48 05.01.2022
4460 Rain 23 1010 94 10000 5.14 320 22:28 05.01.2022
4461 Clouds 23 1009 94 10000 5.14 330 21:43 05.01.2022
4462 Clouds 25 1009 87 10000 6.7 329 20:44 05.01.2022
4463 Clouds 25 1007 86 10000 6.16 328 19:42 05.01.2022
4464 Clouds 25 1006 86 10000 5.28 328 18:22 05.01.2022
4465 Clouds 25 1006 85 10000 4.46 340 16:57 05.01.2022
4466 Clouds 25 1007 85 10000 4.02 345 16:21 05.01.2022
4467 Clouds 24 1008 100 10000 3.6 310 15:20 05.01.2022
4468 Clouds 26 1008 84 10000 4.18 344 13:35 05.01.2022
4469 Clouds 26 1008 89 10000 2.57 350 12:30 05.01.2022
4470 Clouds 29 1006 74 10000 7.72 310 08:46 05.01.2022
4471 Haze 30 1006 70 10000 5.14 290 06:46 05.01.2022
4472 Haze 31 1008 62 10000 7.72 320 01:49 05.01.2022
4473 Haze 27 1009 78 10000 5.14 330 23:44 04.01.2022
4474 Haze 27 1009 78 10000 5.14 330 23:25 04.01.2022
4475 Clouds 24 1007 94 10000 2.57 350 21:50 04.01.2022
4476 Clouds 24 1006 94 10000 2.57 310 20:45 04.01.2022
4477 Clouds 24 1006 94 10000 2.57 310 18:41 04.01.2022
4478 Clear 24 1006 100 10000 3.6 360 17:34 04.01.2022
4479 Clear 24 1007 100 10000 2.57 330 16:39 04.01.2022
4480 Clear 24 1007 100 10000 2.57 330 16:20 04.01.2022
4481 Clouds 26 1006 85 10000 2.98 353 14:42 04.01.2022
4482 Clouds 25 1008 88 10000 2.57 310 13:57 04.01.2022
4483 Rain 27 1007 82 10000 3.24 321 12:24 04.01.2022
4484 Rain 26 1007 89 10000 5.14 340 10:24 04.01.2022
4485 Clouds 29 1006 74 10000 6.17 300 08:57 04.01.2022
4486 Clouds 29 1006 74 10000 7.72 300 06:28 04.01.2022
4487 Clouds 31 1008 66 10000 5.14 330 00:43 04.01.2022
4488 Clouds 28 1008 83 10000 3.09 320 23:56 03.01.2022
4489 Clouds 25 1007 100 10000 3.09 320 22:22 03.01.2022
4490 Clouds 24 1006 100 10000 2.57 330 21:40 03.01.2022
4491 Clear 24 1006 100 10000 2.57 340 20:41 03.01.2022
4492 Clear 24 1006 100 10000 2.06 340 19:38 03.01.2022
4493 Clear 24 1005 100 10000 2.57 350 18:31 03.01.2022
4494 Clear 24 1006 100 10000 1.03 0 17:21 03.01.2022
4495 Clear 25 1006 100 10000 2.57 280 16:53 03.01.2022
4496 Clouds 25 1007 88 10000 2.46 356 14:32 03.01.2022
4497 Clouds 26 1008 85 10000 2.63 341 12:53 03.01.2022
4498 Clouds 27 1007 89 10000 4.12 320 11:50 03.01.2022
4499 Clouds 28 1006 78 10000 5.14 290 10:52 03.01.2022
4500 Haze 30 1005 74 10000 5.14 260 09:28 03.01.2022
4501 Haze 32 1004 62 10000 5.14 250 07:54 03.01.2022
4502 Haze 33 1007 55 10000 6.17 310 03:22 03.01.2022
4503 Haze 28 1008 83 10000 4.12 360 23:24 02.01.2022
4504 Haze 26 1008 94 10000 2.57 340 22:56 02.01.2022
4505 Clouds 25 1008 89 10000 2.92 360 21:58 02.01.2022
4506 Clouds 25 1008 94 10000 2.57 340 20:50 02.01.2022
4507 Clouds 25 1008 94 10000 2.57 340 20:30 02.01.2022
4508 Clouds 25 1007 100 10000 5.14 340 19:31 02.01.2022
4509 Clouds 25 1007 94 10000 2.57 0 18:56 02.01.2022
4510 Clouds 25 1007 94 10000 2.06 0 17:57 02.01.2022
4511 Clouds 25 1007 94 10000 2.06 0 17:39 02.01.2022
4512 Clouds 25 1007 94 10000 2.06 0 17:20 02.01.2022
4513 Clouds 25 1007 94 10000 2.57 340 16:28 02.01.2022
4514 Clouds 26 1008 94 10000 1.54 0 14:41 02.01.2022
4515 Clouds 27 1008 79 10000 1.27 330 13:25 02.01.2022
4516 Clouds 27 1008 83 10000 1.54 0 12:31 02.01.2022
4517 Clouds 28 1007 78 10000 2.06 0 11:41 02.01.2022
4518 Clouds 29 1007 74 10000 5.14 240 10:53 02.01.2022
4519 Clouds 30 1006 66 10000 6.69 260 09:55 02.01.2022
4520 Haze 33 1005 55 10000 5.66 260 07:29 02.01.2022
4521 Haze 31 1009 66 10000 7.72 320 02:51 02.01.2022
4522 Haze 26 1010 94 10000 3.09 330 23:41 01.01.2022
4523 Haze 26 1010 94 10000 3.09 330 23:23 01.01.2022
4524 Haze 24 1010 100 10000 3.6 320 22:24 01.01.2022
4525 Clouds 26 1010 82 10000 1.21 7 21:44 01.01.2022
4526 Clouds 24 1008 100 10000 2.57 320 20:56 01.01.2022
4527 Clouds 25 1008 86 10000 1.97 9 20:19 01.01.2022
4528 Clouds 25 1008 86 10000 1.97 9 19:32 01.01.2022
4529 Clouds 25 1007 85 10000 2.54 354 18:29 01.01.2022
4530 Clouds 25 1008 94 10000 2.57 300 16:51 01.01.2022
4531 Clouds 25 1008 94 10000 2.57 300 16:29 01.01.2022
4532 Clear 25 1009 94 10000 2.06 0 15:30 01.01.2022
4533 Clear 26 1009 89 10000 2.06 0 14:21 01.01.2022
4534 Clear 27 1009 83 10000 1.54 0 12:50 01.01.2022
4535 Clouds 27 1009 89 10000 2.57 320 11:59 01.01.2022
4536 Clouds 26 1009 82 10000 2.03 346 11:24 01.01.2022
4537 Haze 28 1008 83 10000 5.14 260 10:42 01.01.2022
4538 Haze 29 1008 79 10000 5.14 260 09:47 01.01.2022
4539 Haze 30 1007 70 10000 7.2 260 08:26 01.01.2022
4540 Haze 31 1007 66 10000 6.69 300 07:55 01.01.2022
4541 Rain 31 1007 66 10000 6.69 300 07:34 01.01.2022
4542 Clouds 32 1007 62 10000 5.14 270 06:41 01.01.2022
4543 Clouds 32 1009 58 10000 5.14 280 04:38 01.01.2022
4544 Rain 31 1010 66 10000 2.57 350 02:54 01.01.2022
4545 Clouds 27 1010 83 10000 3.6 320 23:44 31.12.2021
4546 Clouds 24 1009 94 10000 3.6 300 21:53 31.12.2021
4547 Clouds 24 1009 94 10000 2.57 300 20:39 31.12.2021
4548 Clouds 24 1008 94 10000 2.57 300 19:31 31.12.2021
4549 Clouds 24 1008 94 10000 2.57 300 19:31 31.12.2021
4550 Clouds 24 1008 94 10000 2.57 300 18:41 31.12.2021
4551 Clouds 25 1008 82 10000 2.83 1 17:43 31.12.2021
4552 Clouds 25 1008 83 10000 2.91 359 17:19 31.12.2021
4553 Rain 25 1008 83 10000 2.91 359 16:40 31.12.2021
4554 Rain 25 1009 88 10000 5.14 310 15:57 31.12.2021
4555 Rain 25 1009 88 10000 5.14 310 15:29 31.12.2021
4556 Rain 25 1009 88 10000 5.14 310 15:29 31.12.2021
4557 Rain 26 1010 83 10000 3.6 340 14:57 31.12.2021
4558 Rain 26 1010 83 10000 3.6 340 14:30 31.12.2021
4559 Rain 25 1010 88 10000 5.14 350 13:37 31.12.2021
4560 Rain 26 1010 83 10000 5.14 350 12:49 31.12.2021
4561 Clouds 26 1009 89 10000 2.57 340 11:52 31.12.2021
4562 Clouds 26 1009 89 10000 2.57 340 11:33 31.12.2021
4563 Clouds 27 1008 83 10000 5.14 300 10:38 31.12.2021
4564 Clouds 27 1008 78 10000 3.77 338 10:20 31.12.2021
4565 Clouds 29 1007 70 10000 2.57 300 09:33 31.12.2021
4566 Clouds 30 1007 66 10000 2.57 300 08:43 31.12.2021
4567 Rain 30 1007 66 10000 2.57 310 07:31 31.12.2021
4568 Clouds 25 1010 94 10000 3.09 330 23:32 30.12.2021
4569 Clouds 25 1009 88 10000 3.09 330 22:34 30.12.2021
4570 Rain 24 1008 94 10000 5.14 340 21:59 30.12.2021
4571 Rain 24 1008 94 10000 5.14 340 21:59 30.12.2021
4572 Rain 24 1008 94 10000 5.14 340 21:37 30.12.2021
4573 Rain 24 1008 94 10000 5.14 340 21:37 30.12.2021
4574 Clouds 25 1009 89 10000 4.45 349 20:47 30.12.2021
4575 Clouds 25 1008 87 10000 4.45 331 20:28 30.12.2021
4576 Clouds 25 1007 83 10000 5.14 340 19:48 30.12.2021
4577 Clouds 26 1007 84 10000 4.06 327 18:48 30.12.2021
4578 Clouds 26 1007 82 10000 3.66 321 18:19 30.12.2021
4579 Rain 26 1007 82 10000 3.57 335 16:20 30.12.2021
4580 Clouds 26 1007 82 10000 3.57 335 15:52 30.12.2021
4581 Clouds 28 1009 74 10000 5.14 350 14:40 30.12.2021
4582 Clouds 28 1009 69 10000 5.14 320 13:55 30.12.2021
4583 Clouds 27 1009 80 10000 3.9 329 12:44 30.12.2021
4584 Clouds 30 1007 54 10000 7.72 310 10:59 30.12.2021
4585 Clouds 32 1006 51 10000 7.72 320 09:59 30.12.2021
4586 Clouds 32 1006 51 10000 7.72 320 09:21 30.12.2021
4587 Haze 34 1005 46 10000 10.29 300 06:54 30.12.2021
4588 Haze 33 1007 49 10000 10.29 310 04:20 30.12.2021
4589 Clouds 34 1008 46 10000 10.29 330 03:38 30.12.2021
4590 Clouds 29 1008 65 10000 5.14 330 23:57 29.12.2021
4591 Clouds 29 1008 65 10000 5.14 330 23:23 29.12.2021
4592 Clouds 28 1008 69 10000 5.14 330 22:22 29.12.2021
4593 Clouds 26 1007 78 10000 4.12 310 21:45 29.12.2021
4594 Clouds 26 1007 83 10000 5.14 350 20:39 29.12.2021
4595 Clouds 26 1006 83 10000 5.14 320 19:50 29.12.2021
4596 Clouds 26 1006 89 10000 5.14 340 18:57 29.12.2021
4597 Clouds 26 1008 83 10000 4.6 345 17:57 29.12.2021
4598 Rain 26 1008 82 10000 3.59 347 17:28 29.12.2021
4599 Clouds 27 1007 89 10000 3.6 350 16:44 29.12.2021
4600 Clouds 26 1008 83 10000 3.05 4 16:19 29.12.2021
4601 Clouds 26 1009 82 10000 2.62 0 14:24 29.12.2021
4602 Clouds 26 1009 83 10000 3.6 348 12:42 29.12.2021
4603 Clouds 29 1008 74 10000 4.12 360 11:49 29.12.2021
4604 Rain 29 1007 70 10000 2.57 350 10:31 29.12.2021
4605 Haze 33 1004 62 10000 7.72 290 07:52 29.12.2021
4606 Haze 33 1004 62 10000 7.72 270 06:43 29.12.2021
4607 Haze 33 1004 62 10000 7.72 270 06:23 29.12.2021
4608 Haze 33 1005 62 10000 7.72 270 05:40 29.12.2021
4609 Clouds 30 1007 66 10000 6.21 274 02:48 29.12.2021
4610 Haze 30 1008 66 10000 5.14 320 00:24 29.12.2021
4611 Haze 27 1008 83 10000 5.14 310 23:45 28.12.2021
4612 Haze 25 1007 94 10000 4.12 310 22:42 28.12.2021
4613 Haze 25 1007 94 10000 4.12 310 22:24 28.12.2021
4614 Clouds 24 1006 94 10000 2.06 0 21:52 28.12.2021
4615 Clouds 24 1005 94 10000 2.06 0 20:40 28.12.2021
4616 Clouds 24 1005 94 10000 1.54 0 19:31 28.12.2021
4617 Clouds 26 1005 78 10000 0.98 29 18:41 28.12.2021
4618 Clouds 25 1005 94 10000 2.06 0 17:59 28.12.2021
4619 Clouds 26 1005 94 10000 2.57 110 16:35 28.12.2021
4620 Clouds 26 1006 94 10000 2.57 150 15:50 28.12.2021
4621 Clouds 26 1006 94 10000 2.57 150 15:22 28.12.2021
4622 Clouds 27 1006 89 10000 5.14 140 14:50 28.12.2021
4623 Clouds 27 1007 78 10000 2.65 101 14:21 28.12.2021
4624 Clouds 27 1006 89 10000 5.14 140 13:42 28.12.2021
4625 Clouds 27 1006 89 10000 5.14 140 13:24 28.12.2021
4626 Clouds 27 1007 83 10000 5.14 130 12:49 28.12.2021
4627 Clouds 27 1007 83 10000 5.14 130 11:46 28.12.2021
4628 Haze 32 1005 55 10000 2.63 164 08:35 28.12.2021
4629 Haze 33 1005 55 10000 4.12 200 06:58 28.12.2021
4630 Clouds 29 1009 70 10000 5.14 350 00:34 28.12.2021
4631 Clouds 28 1009 66 10000 0.47 96 23:24 27.12.2021
4632 Clouds 24 1007 94 10000 3.09 300 21:42 27.12.2021
4633 Clouds 24 1007 94 10000 3.09 300 21:21 27.12.2021
4634 Clouds 24 1006 94 10000 4.12 320 20:23 27.12.2021
4635 Clouds 24 1006 94 10000 4.12 320 19:41 27.12.2021
4636 Rain 24 1006 94 10000 2.57 320 18:34 27.12.2021
4637 Clouds 25 1006 94 10000 2.57 320 17:48 27.12.2021
4638 Clouds 25 1007 94 10000 2.57 330 16:40 27.12.2021
4639 Clouds 26 1008 89 10000 3.09 340 15:52 27.12.2021
4640 Clouds 27 1008 78 10000 1.54 0 14:33 27.12.2021
4641 Clouds 28 1008 78 10000 0 0 13:39 27.12.2021
4642 Clouds 27 1009 78 10000 2.57 330 12:36 27.12.2021
4643 Clouds 28 1009 73 10000 1.72 151 10:31 27.12.2021
4644 Clouds 31 1007 55 10000 5.14 270 09:47 27.12.2021
4645 Clouds 32 1006 55 10000 5.14 270 07:38 27.12.2021
4646 Clouds 32 1006 55 10000 5.14 270 07:20 27.12.2021
4647 Clouds 30 1007 62 10000 2.98 286 02:19 27.12.2021
4648 Clouds 28 1008 74 10000 2.06 0 23:58 26.12.2021
4649 Clouds 28 1008 74 10000 2.06 0 23:36 26.12.2021
4650 Clouds 25 1008 94 10000 1.54 0 22:23 26.12.2021
4651 Clouds 23 1007 100 10000 3.6 310 20:54 26.12.2021
4652 Clouds 23 1007 100 10000 3.09 340 19:47 26.12.2021
4653 Clouds 23 1007 100 10000 3.09 340 19:47 26.12.2021
4654 Rain 26 1007 82 10000 2.06 315 18:24 26.12.2021
4655 Clouds 26 1007 85 10000 2.65 356 16:20 26.12.2021
4656 Clouds 26 1009 86 10000 3.15 351 14:27 26.12.2021
4657 Clouds 26 1009 86 10000 3.15 351 13:40 26.12.2021
4658 Clouds 26 1009 85 10000 3.64 342 13:19 26.12.2021
4659 Clouds 26 1009 84 10000 3.18 357 12:32 26.12.2021
4660 Clouds 26 1009 94 10000 5.14 330 10:32 26.12.2021
4661 Clouds 28 1007 78 10000 2.8 326 09:19 26.12.2021
4662 Clouds 30 1007 70 10000 5.14 280 08:43 26.12.2021
4663 Clouds 32 1007 58 10000 6.17 280 07:34 26.12.2021
4664 Rain 30 1010 74 10000 5.14 350 01:24 26.12.2021
4665 Clouds 27 1010 89 10000 3.09 320 23:53 25.12.2021
4666 Clouds 27 1010 89 10000 3.09 320 23:27 25.12.2021
4667 Clouds 25 1010 100 10000 3.09 320 22:23 25.12.2021
4668 Clouds 25 1008 100 10000 3.09 330 20:48 25.12.2021
4669 Clouds 25 1008 100 10000 2.57 330 19:23 25.12.2021
4670 Clouds 26 1007 83 10000 1.45 50 18:54 25.12.2021
4671 Clouds 26 1007 82 10000 1.43 117 17:29 25.12.2021
4672 Clouds 26 1007 82 10000 1.43 117 16:35 25.12.2021
4673 Clouds 26 1007 81 10000 1.52 112 14:38 25.12.2021
4674 Clouds 27 1007 79 10000 0.9 67 12:49 25.12.2021
4675 Clouds 27 1007 89 10000 2.06 290 11:45 25.12.2021
4676 Clouds 30 1005 74 10000 5.14 280 09:50 25.12.2021
4677 Clouds 32 1005 70 10000 5.14 350 08:38 25.12.2021
4678 Haze 32 1009 62 10000 7.72 320 02:59 25.12.2021
4679 Clouds 30 1010 74 10000 5.14 300 00:33 25.12.2021
4680 Clouds 28 1010 89 10000 3.09 340 23:39 24.12.2021
4681 Clouds 25 1008 94 10000 2.57 330 19:40 24.12.2021
4682 Clouds 25 1008 94 10000 2.57 330 19:22 24.12.2021
4683 Clouds 25 1009 94 10000 2.57 330 16:50 24.12.2021
4684 Clouds 25 1009 94 10000 2.57 330 16:21 24.12.2021
4685 Clouds 26 1008 84 10000 0.77 50 15:46 24.12.2021
4686 Clouds 26 1008 83 10000 0.47 80 14:46 24.12.2021
4687 Clouds 26 1008 82 10000 0.96 66 14:23 24.12.2021
4688 Clouds 26 1008 82 10000 0.96 66 13:37 24.12.2021
4689 Clouds 27 1007 89 10000 0.51 0 12:48 24.12.2021
4690 Clouds 27 1008 83 10000 1.54 0 11:52 24.12.2021
4691 Clouds 27 1008 83 10000 1.54 0 11:26 24.12.2021
4692 Clouds 28 1007 74 10000 4.12 250 10:50 24.12.2021
4693 Clouds 27 1007 78 10000 1.16 150 10:22 24.12.2021
4694 Haze 30 1006 66 10000 6.17 250 08:25 24.12.2021
4695 Haze 31 1005 70 10000 7.72 270 07:50 24.12.2021
4696 Clouds 30 1009 74 10000 5.14 300 02:52 24.12.2021
4697 Clouds 28 1010 71 10000 1.81 333 00:19 24.12.2021
4698 Clouds 28 1009 83 10000 2.57 120 23:22 23.12.2021
4699 Clouds 26 1009 89 10000 1.03 0 22:37 23.12.2021
4700 Clouds 26 1009 89 10000 1.03 0 22:37 23.12.2021
4701 Clouds 26 1009 89 10000 1.03 0 22:19 23.12.2021
4702 Clouds 24 1007 94 10000 1.54 0 21:33 23.12.2021
4703 Clouds 25 1008 85 10000 2.21 4 20:19 23.12.2021
4704 Clouds 25 1007 86 10000 2.35 7 18:37 23.12.2021
4705 Clouds 25 1007 87 10000 2.44 11 17:57 23.12.2021
4706 Clouds 25 1007 86 10000 2.37 5 16:47 23.12.2021
4707 Clouds 25 1008 87 10000 2.18 6 16:24 23.12.2021
4708 Clouds 25 1008 88 10000 3.09 350 15:31 23.12.2021
4709 Clouds 26 1008 85 10000 2.04 7 14:52 23.12.2021
4710 Clouds 26 1008 85 10000 2.04 7 14:31 23.12.2021
4711 Rain 26 1009 82 10000 1.87 21 12:57 23.12.2021
4712 Clouds 26 1008 81 10000 0.08 206 10:52 23.12.2021
4713 Clouds 27 1008 79 10000 0.25 251 09:47 23.12.2021
4714 Clouds 31 1006 70 10000 7.72 180 08:59 23.12.2021
4715 Clouds 31 1006 70 10000 7.72 180 08:59 23.12.2021
4716 Clouds 29 1005 71 10000 2.77 212 06:55 23.12.2021
4717 Clouds 32 1006 62 10000 7.72 210 04:33 23.12.2021
4718 Clouds 27 1008 75 10000 0.5 13 23:20 22.12.2021
4719 Clouds 27 1008 75 10000 0.5 13 22:42 22.12.2021
4720 Haze 24 1007 100 10000 2.57 320 21:56 22.12.2021
4721 Haze 24 1007 100 10000 2.57 320 21:29 22.12.2021
4722 Clouds 24 1006 100 10000 1.54 0 20:47 22.12.2021
4723 Clouds 24 1006 100 10000 1.54 0 20:26 22.12.2021
4724 Clouds 24 1006 100 10000 1.54 0 19:28 22.12.2021
4725 Clouds 25 1006 94 10000 2.57 320 17:42 22.12.2021
4726 Clouds 26 1006 89 10000 1.54 0 16:39 22.12.2021
4727 Clouds 26 1007 89 10000 1.54 0 15:40 22.12.2021
4728 Clouds 26 1008 89 10000 1.54 0 13:33 22.12.2021
4729 Clouds 27 1008 81 10000 2.03 116 12:40 22.12.2021
4730 Clouds 27 1007 76 10000 2.05 143 10:19 22.12.2021
4731 Clouds 27 1007 76 10000 2.05 143 09:38 22.12.2021
4732 Clouds 32 1005 58 10000 5.66 180 07:25 22.12.2021
4733 Clouds 33 1006 55 10000 6.69 210 05:43 22.12.2021
4734 Clouds 33 1006 55 10000 6.69 210 05:24 22.12.2021
4735 Haze 33 1007 55 10000 4.12 140 04:49 22.12.2021
4736 Haze 33 1007 55 10000 4.12 140 04:24 22.12.2021
4737 Haze 33 1008 55 10000 5.14 200 03:32 22.12.2021
4738 Clouds 30 1009 66 10000 2.57 320 00:47 22.12.2021
4739 Clouds 25 1009 94 10000 2.57 320 22:52 21.12.2021
4740 Clouds 26 1009 81 10000 1.29 64 22:28 21.12.2021
4741 Clouds 24 1008 94 10000 2.57 310 21:44 21.12.2021
4742 Clouds 24 1008 94 10000 1.54 0 20:55 21.12.2021
4743 Clouds 24 1008 94 10000 1.54 0 20:21 21.12.2021
4744 Clouds 24 1007 94 10000 1.54 0 19:41 21.12.2021
4745 Clouds 24 1007 94 10000 1.54 0 18:45 21.12.2021
4746 Clouds 25 1007 85 10000 1.73 49 18:21 21.12.2021
4747 Clouds 24 1007 94 10000 2.06 310 17:41 21.12.2021
4748 Clouds 25 1008 94 10000 1.54 0 15:55 21.12.2021
4749 Clouds 26 1009 81 10000 0.93 63 15:20 21.12.2021
4750 Clouds 26 1009 89 10000 1.54 0 13:50 21.12.2021
4751 Clouds 26 1009 89 10000 1.54 0 13:29 21.12.2021
4752 Clouds 27 1008 83 10000 2.57 140 10:56 21.12.2021
4753 Clouds 30 1007 66 10000 4.12 170 09:59 21.12.2021
4754 Clouds 28 1008 73 10000 1.75 214 09:18 21.12.2021
4755 Clouds 32 1006 58 10000 5.14 200 07:54 21.12.2021
4756 Clouds 32 1006 58 10000 5.14 200 07:25 21.12.2021
4757 Haze 33 1007 58 10000 2.57 200 05:31 21.12.2021
4758 Haze 32 1010 55 10000 4.63 350 02:40 21.12.2021
4759 Haze 27 1010 78 10000 2.57 350 23:58 20.12.2021
4760 Haze 27 1010 78 10000 2.57 350 23:24 20.12.2021
4761 Haze 25 1010 88 10000 2.57 350 22:28 20.12.2021
4762 Clouds 25 1010 84 10000 1.09 18 21:43 20.12.2021
4763 Clouds 25 1010 85 10000 1.29 25 21:23 20.12.2021
4764 Clouds 24 1008 94 10000 2.57 320 20:42 20.12.2021
4765 Clouds 25 1009 85 10000 1.29 29 19:48 20.12.2021
4766 Clouds 25 1008 85 10000 1.01 29 19:29 20.12.2021
4767 Clouds 25 1008 85 10000 1.01 29 18:49 20.12.2021
4768 Clouds 25 1009 88 10000 1.54 0 17:52 20.12.2021
4769 Clouds 25 1009 88 10000 1.54 0 16:56 20.12.2021
4770 Clouds 25 1009 88 10000 1.54 0 16:36 20.12.2021
4771 Rain 25 1009 87 10000 1.5 35 15:47 20.12.2021
4772 Clouds 25 1010 87 10000 1.45 20 14:41 20.12.2021
4773 Clouds 25 1011 84 10000 1.64 17 12:44 20.12.2021
4774 Clouds 28 1009 78 10000 2.57 250 10:55 20.12.2021
4775 Clouds 29 1009 74 10000 5.14 240 09:47 20.12.2021
4776 Clouds 30 1008 70 10000 5.14 230 08:56 20.12.2021
4777 Clouds 30 1008 70 10000 5.14 230 08:38 20.12.2021
4778 Clouds 31 1007 66 10000 7.72 230 07:46 20.12.2021
4779 Clouds 32 1007 66 10000 7.72 230 06:40 20.12.2021
4780 Clouds 31 1010 74 10000 5.14 340 02:32 20.12.2021
4781 Clouds 27 1010 89 10000 2.57 350 23:37 19.12.2021
4782 Clouds 25 1011 94 10000 2.06 320 22:44 19.12.2021
4783 Clouds 24 1010 100 10000 1.54 0 21:44 19.12.2021
4784 Clouds 24 1010 100 10000 1.54 0 21:25 19.12.2021
4785 Clouds 24 1010 85 10000 1.35 42 20:24 19.12.2021
4786 Clouds 24 1008 94 10000 1.54 330 19:43 19.12.2021
4787 Clouds 24 1009 100 10000 1.54 0 18:50 19.12.2021
4788 Clouds 24 1009 100 10000 1.54 0 17:54 19.12.2021
4789 Clouds 24 1009 100 10000 1.54 0 17:35 19.12.2021
4790 Clouds 24 1009 100 10000 1.54 0 16:45 19.12.2021
4791 Clouds 24 1009 100 10000 1.54 0 16:45 19.12.2021
4792 Clouds 25 1009 85 10000 1.33 39 15:56 19.12.2021
4793 Clouds 25 1010 84 10000 1.29 34 15:25 19.12.2021
4794 Clouds 25 1010 94 10000 1.54 0 14:48 19.12.2021
4795 Clouds 25 1011 84 10000 1.23 37 13:38 19.12.2021
4796 Clouds 25 1011 85 10000 0.94 36 12:59 19.12.2021
4797 Clouds 25 1011 85 10000 0.94 36 12:32 19.12.2021
4798 Clouds 25 1010 94 10000 3.09 330 11:38 19.12.2021
4799 Clouds 26 1009 89 10000 3.09 340 10:50 19.12.2021
4800 Clouds 26 1009 89 10000 3.09 340 10:22 19.12.2021
4801 Clouds 29 1008 74 10000 3.6 200 08:51 19.12.2021
4802 Clouds 32 1008 62 10000 5.14 230 06:51 19.12.2021
4803 Clouds 30 1011 70 10000 2.57 160 01:52 19.12.2021
4804 Clouds 29 1011 65 10000 1.54 0 00:54 19.12.2021
4805 Clouds 26 1010 83 10000 1.54 0 23:21 18.12.2021
4806 Clouds 23 1010 100 10000 1.54 0 22:28 18.12.2021
4807 Clouds 23 1009 94 10000 1.54 0 21:44 18.12.2021
4808 Clouds 23 1009 94 10000 1.54 0 21:25 18.12.2021
4809 Clouds 23 1009 94 10000 1.54 0 20:43 18.12.2021
4810 Clouds 22 1008 100 10000 2.57 320 19:38 18.12.2021
4811 Clouds 23 1008 94 10000 2.57 310 18:25 18.12.2021
4812 Clouds 23 1009 94 10000 2.57 340 17:49 18.12.2021
4813 Clouds 23 1009 94 10000 2.06 0 16:48 18.12.2021
4814 Clouds 23 1009 94 10000 2.06 0 16:20 18.12.2021
4815 Clouds 25 1010 86 10000 2.34 352 14:54 18.12.2021
4816 Clouds 25 1011 84 10000 2.31 358 13:45 18.12.2021
4817 Clouds 25 1010 84 10000 1.14 101 11:57 18.12.2021
4818 Clouds 25 1009 86 10000 0.61 157 09:54 18.12.2021
4819 Clouds 25 1009 86 10000 0.61 157 09:31 18.12.2021
4820 Clouds 27 1008 89 10000 5.14 340 08:36 18.12.2021
4821 Clouds 27 1008 89 10000 4.12 300 06:28 18.12.2021
4822 Clouds 25 1010 100 4000 2.57 100 01:45 18.12.2021
4823 Rain 25 1009 100 4000 5.14 150 23:49 17.12.2021
4824 Rain 26 1009 89 4667 2.6 341 22:39 17.12.2021
4825 Rain 25 1007 88 10000 1.29 77 21:29 17.12.2021
4826 Rain 25 1007 88 10000 1.29 77 20:43 17.12.2021
4827 Rain 26 1006 88 10000 1.49 90 19:51 17.12.2021
4828 Clouds 26 1006 88 10000 2.58 112 18:39 17.12.2021
4829 Clouds 26 1005 88 10000 2.56 112 17:47 17.12.2021
4830 Clouds 26 1006 87 10000 3.16 128 16:50 17.12.2021
4831 Clouds 26 1006 88 10000 2.99 125 16:27 17.12.2021
4832 Clouds 26 1006 87 10000 3.2 116 15:27 17.12.2021
4833 Clouds 27 1007 94 10000 2.57 130 14:42 17.12.2021
4834 Clouds 28 1007 89 10000 4.12 130 13:35 17.12.2021
4835 Clouds 27 1007 86 10000 4.78 131 12:28 17.12.2021
4836 Clouds 27 1006 87 10000 4.88 140 10:41 17.12.2021
4837 Clouds 29 1005 79 10000 5.14 150 09:47 17.12.2021
4838 Clouds 29 1005 79 10000 5.14 150 09:47 17.12.2021
4839 Clouds 31 1004 70 10000 5.14 150 08:31 17.12.2021
4840 Clouds 29 1004 77 10000 3.82 167 07:21 17.12.2021
4841 Haze 32 1006 70 10000 7.72 220 04:40 17.12.2021
4842 Clouds 26 1008 94 10000 3.09 320 23:58 16.12.2021
4843 Clouds 26 1008 86 10000 0.99 59 22:24 16.12.2021
4844 Clouds 24 1006 94 10000 1.03 0 21:51 16.12.2021
4845 Clouds 24 1006 94 10000 1.03 0 21:30 16.12.2021
4846 Clouds 24 1006 94 10000 2.06 330 20:31 16.12.2021
4847 Clouds 24 1005 94 10000 2.57 300 19:49 16.12.2021
4848 Clouds 24 1005 100 10000 1.54 0 18:41 16.12.2021
4849 Clouds 24 1005 100 10000 3.09 320 17:57 16.12.2021
4850 Clouds 24 1005 100 10000 3.09 320 17:31 16.12.2021
4851 Clouds 26 1007 86 10000 1.41 37 16:22 16.12.2021
4852 Clouds 26 1008 85 10000 0.99 32 14:51 16.12.2021
4853 Clouds 25 1007 94 10000 1.54 0 13:29 16.12.2021
4854 Rain 25 1007 94 10000 3.6 340 11:20 16.12.2021
4855 Rain 25 1007 94 10000 5.14 320 10:59 16.12.2021
4856 Rain 25 1007 94 10000 5.14 320 10:22 16.12.2021
4857 Rain 27 1006 89 10000 5.14 10 08:25 16.12.2021
4858 Clouds 27 1006 86 5091 3.78 233 06:22 16.12.2021
4859 Haze 30 1008 79 10000 3.6 330 01:25 16.12.2021
4860 Haze 26 1008 89 10000 2.06 0 23:33 15.12.2021
4861 Clouds 25 1008 94 10000 2.57 300 22:43 15.12.2021
4862 Clouds 25 1007 94 10000 2.06 310 21:56 15.12.2021
4863 Rain 25 1007 94 10000 2.06 310 21:27 15.12.2021
4864 Clouds 25 1007 89 10000 2 11 20:18 15.12.2021
4865 Clouds 25 1006 94 10000 2.57 0 19:50 15.12.2021
4866 Clouds 25 1006 94 10000 2.06 0 18:37 15.12.2021
4867 Clouds 25 1006 94 10000 2.06 0 17:53 15.12.2021
4868 Clouds 25 1006 94 10000 2.06 0 17:34 15.12.2021
4869 Clouds 25 1007 94 10000 2.06 0 16:28 15.12.2021
4870 Clouds 25 1008 100 10000 3.09 350 15:46 15.12.2021
4871 Clouds 26 1007 86 10000 1.51 17 15:27 15.12.2021
4872 Clouds 25 1008 87 10000 1.56 38 14:18 15.12.2021
4873 Rain 25 1008 88 10000 1.89 37 12:32 15.12.2021
4874 Rain 28 1007 83 10000 2.57 130 10:27 15.12.2021
4875 Haze 29 1006 74 10000 4.12 150 08:55 15.12.2021
4876 Haze 31 1004 66 10000 6.17 180 06:54 15.12.2021
4877 Haze 31 1008 66 10000 3.09 260 01:20 15.12.2021
4878 Haze 28 1008 78 10000 1.54 0 23:42 14.12.2021
4879 Haze 26 1008 89 10000 1.54 0 22:48 14.12.2021
4880 Haze 26 1008 89 10000 1.54 0 22:18 14.12.2021
4881 Clouds 25 1006 83 10000 1.83 89 20:28 14.12.2021
4882 Clouds 25 1006 83 10000 1.83 89 19:40 14.12.2021
4883 Clouds 25 1006 94 10000 1.54 110 18:44 14.12.2021
4884 Clouds 25 1006 94 10000 1.54 110 18:22 14.12.2021
4885 Clouds 25 1006 94 10000 1.54 0 17:28 14.12.2021
4886 Clouds 25 1006 94 10000 1.54 0 16:38 14.12.2021
4887 Clouds 26 1007 89 10000 1.54 0 15:26 14.12.2021
4888 Clouds 26 1007 89 10000 2.57 20 13:31 14.12.2021
4889 Rain 26 1007 89 10000 2.57 350 11:58 14.12.2021
4890 Rain 26 1007 89 10000 2.57 350 11:23 14.12.2021
4891 Rain 25 1007 83 10000 2.07 13 09:57 14.12.2021
4892 Clouds 25 1007 83 10000 2.07 13 09:35 14.12.2021
4893 Clouds 26 1006 84 10000 2.79 11 08:23 14.12.2021
4894 Clouds 31 1004 66 10000 8.23 250 07:43 14.12.2021
4895 Clouds 30 1008 70 10000 2.57 340 02:25 14.12.2021
4896 Clouds 25 1008 94 10000 5.14 350 22:50 13.12.2021
4897 Rain 25 1008 91 7625 2.25 11 21:52 13.12.2021
4898 Clouds 25 1006 94 10000 2.57 320 20:59 13.12.2021
4899 Clouds 25 1006 94 10000 2.57 320 20:34 13.12.2021
4900 Clouds 25 1005 94 10000 5.14 340 19:52 13.12.2021
4901 Clouds 25 1005 94 10000 2.57 350 17:56 13.12.2021
4902 Clouds 25 1005 94 10000 2.57 350 17:24 13.12.2021
4903 Clouds 25 1007 94 10000 1.54 0 15:50 13.12.2021
4904 Clouds 25 1007 94 10000 1.54 0 15:19 13.12.2021
4905 Clouds 26 1007 89 10000 2.06 0 13:38 13.12.2021
4906 Clouds 26 1006 89 10000 1.54 0 12:42 13.12.2021
4907 Clouds 26 1006 89 10000 1.54 0 11:54 13.12.2021
4908 Clouds 26 1006 89 10000 1.54 0 11:35 13.12.2021
4909 Rain 26 1005 83 10000 2.57 300 10:43 13.12.2021
4910 Rain 28 1005 78 10000 5.14 300 08:52 13.12.2021
4911 Clouds 30 1004 70 10000 5.14 270 07:37 13.12.2021
4912 Clouds 32 1004 58 10000 7.72 260 05:34 13.12.2021
4913 Clouds 28 1007 78 10000 2.57 340 00:43 13.12.2021
4914 Clouds 23 1006 100 10000 2.57 350 21:59 12.12.2021
4915 Clouds 23 1006 100 10000 2.57 350 21:33 12.12.2021
4916 Clouds 25 1006 85 10000 2.18 357 19:38 12.12.2021
4917 Clouds 26 1005 85 10000 1.82 10 18:28 12.12.2021
4918 Clouds 24 1006 100 10000 2.57 340 16:54 12.12.2021
4919 Clouds 24 1006 100 10000 2.57 340 16:26 12.12.2021
4920 Clouds 26 1006 83 10000 1.59 10 15:28 12.12.2021
4921 Clouds 26 1006 83 10000 1.59 10 14:54 12.12.2021
4922 Clouds 26 1007 82 10000 1.19 14 14:22 12.12.2021
4923 Clouds 26 1007 89 10000 1.54 350 12:55 12.12.2021
4924 Clouds 26 1007 89 10000 1.54 350 12:24 12.12.2021
4925 Clouds 25 1007 94 10000 2.57 320 11:43 12.12.2021
4926 Clouds 26 1007 89 10000 3.6 20 10:44 12.12.2021
4927 Clouds 26 1007 89 10000 3.6 20 10:44 12.12.2021
4928 Clouds 26 1007 89 10000 3.6 20 10:21 12.12.2021
4929 Haze 26 1005 89 10000 7.72 30 08:50 12.12.2021
4930 Haze 32 1005 62 10000 5.14 300 07:30 12.12.2021
4931 Clouds 33 1005 58 10000 7.72 260 05:56 12.12.2021
4932 Rain 32 1005 62 10000 7.72 290 04:53 12.12.2021
4933 Clouds 28 1008 76 10000 2.42 329 01:26 12.12.2021
4934 Clouds 27 1008 83 10000 5.14 330 23:26 11.12.2021
4935 Clouds 26 1007 89 10000 5.14 330 22:21 11.12.2021
4936 Clouds 26 1008 84 10000 2.38 358 21:36 11.12.2021
4937 Clouds 25 1006 85 10000 2.33 4 20:20 11.12.2021
4938 Clouds 25 1006 86 10000 2.18 16 19:21 11.12.2021
4939 Clouds 26 1006 89 10000 5.14 350 18:48 11.12.2021
4940 Clouds 25 1006 86 10000 1.9 19 17:54 11.12.2021
4941 Clouds 26 1007 89 10000 5.14 350 16:37 11.12.2021
4942 Clouds 25 1006 87 9075 2.07 7 15:41 11.12.2021
4943 Rain 26 1007 86 10000 1.69 359 14:36 11.12.2021
4944 Clouds 26 1008 85 10000 2.16 345 12:31 11.12.2021
4945 Clouds 27 1008 83 10000 2.52 342 10:58 11.12.2021
4946 Clouds 27 1007 83 10000 2.77 322 09:44 11.12.2021
4947 Clouds 31 1007 70 10000 5.14 340 03:58 11.12.2021
4948 Clouds 31 1009 70 10000 5.14 320 00:48 11.12.2021
4949 Clouds 28 1009 78 10000 3.09 320 23:44 10.12.2021
4950 Clouds 25 1009 94 10000 3.09 320 22:47 10.12.2021
4951 Clouds 26 1008 82 10000 1.95 0 21:41 10.12.2021
4952 Clouds 25 1007 85 10000 1.87 6 20:28 10.12.2021
4953 Clouds 25 1006 86 10000 1.8 4 19:19 10.12.2021
4954 Clouds 25 1006 88 10000 2.09 28 17:46 10.12.2021
4955 Clouds 25 1006 89 10000 2.19 17 16:37 10.12.2021
4956 Clouds 25 1008 94 10000 2.57 330 15:45 10.12.2021
4957 Clouds 25 1008 94 10000 2.57 330 15:26 10.12.2021
4958 Clouds 25 1008 94 10000 5.14 320 14:35 10.12.2021
4959 Clouds 26 1008 94 10000 5.14 320 13:49 10.12.2021
4960 Clouds 26 1008 94 10000 5.14 340 12:56 10.12.2021
4961 Rain 28 1008 83 10000 5.14 320 11:43 10.12.2021
4962 Rain 28 1007 83 10000 2.57 320 10:57 10.12.2021
4963 Clouds 29 1006 74 10000 5.14 270 09:46 10.12.2021
4964 Clouds 32 1005 58 10000 7.72 260 07:49 10.12.2021
4965 Clouds 34 1006 55 10000 5.14 260 04:57 10.12.2021
4966 Clouds 33 1008 58 10000 5.14 330 02:42 10.12.2021
4967 Clouds 25 1009 94 10000 3.09 320 23:42 09.12.2021
4968 Clouds 25 1009 94 10000 3.09 320 22:41 09.12.2021
4969 Clouds 25 1009 94 10000 3.09 320 22:22 09.12.2021
4970 Clouds 24 1008 94 10000 3.09 320 21:40 09.12.2021
4971 Clouds 24 1007 94 10000 3.6 320 20:35 09.12.2021
4972 Clouds 24 1007 94 10000 3.6 330 19:38 09.12.2021
4973 Clouds 25 1007 86 10000 3.01 354 19:20 09.12.2021
4974 Clouds 25 1007 86 10000 2.5 1 18:19 09.12.2021
4975 Clouds 24 1007 100 10000 4.12 330 17:47 09.12.2021
4976 Clouds 25 1007 86 10000 2.24 0 17:24 09.12.2021
4977 Clouds 25 1008 94 10000 2.57 330 16:25 09.12.2021
4978 Rain 25 1008 86 10000 2.19 19 14:59 09.12.2021
4979 Rain 25 1008 86 10000 2.19 19 14:30 09.12.2021
4980 Clouds 25 1009 94 10000 2.57 360 12:48 09.12.2021
4981 Clouds 26 1008 89 10000 2.57 320 11:33 09.12.2021
4982 Clouds 27 1008 83 10000 2.57 310 10:20 09.12.2021
4983 Clouds 30 1006 70 10000 5.14 330 06:59 09.12.2021
4984 Haze 30 1007 70 10000 5.14 320 03:55 09.12.2021
4985 Clouds 29 1009 70 10000 3.6 350 00:25 09.12.2021
4986 Clouds 26 1009 89 10000 4.12 340 23:36 08.12.2021
4987 Clouds 26 1009 89 10000 2.57 330 22:57 08.12.2021
4988 Clouds 26 1009 89 10000 2.57 330 22:25 08.12.2021
4989 Clouds 24 1007 94 10000 2.57 310 21:33 08.12.2021
4990 Clouds 25 1007 88 10000 2.57 320 20:48 08.12.2021
4991 Clouds 25 1006 88 10000 1.54 340 19:56 08.12.2021
4992 Clouds 24 1006 94 10000 3.6 320 18:58 08.12.2021
4993 Clouds 25 1007 88 10000 2.06 24 18:22 08.12.2021
4994 Clouds 26 1007 89 10000 3.09 340 16:49 08.12.2021
4995 Clouds 26 1008 89 10000 3.6 70 15:41 08.12.2021
4996 Clouds 26 1008 89 10000 3.6 70 15:21 08.12.2021
4997 Clouds 26 1009 83 10000 1.58 110 13:21 08.12.2021
4998 Clouds 29 1006 79 10000 5.66 160 10:42 08.12.2021
4999 Clouds 30 1005 74 10000 2.06 170 09:32 08.12.2021
5000 Clouds 32 1004 66 10000 6.17 200 07:50 08.12.2021
5001 Clouds 33 1006 62 10000 2.57 200 05:37 08.12.2021
5002 Haze 31 1009 70 10000 3.6 330 00:27 08.12.2021
5003 Clouds 26 1009 89 10000 2.06 350 22:52 07.12.2021
5004 Clouds 25 1008 86 10000 1.33 44 21:25 07.12.2021
5005 Clouds 25 1007 86 10000 1.61 39 20:25 07.12.2021
5006 Clouds 25 1007 94 10000 1.54 0 18:59 07.12.2021
5007 Clouds 25 1007 86 10000 1.52 43 18:20 07.12.2021
5008 Clouds 25 1007 85 10000 1.43 42 17:23 07.12.2021
5009 Clouds 25 1007 94 10000 1.54 0 16:41 07.12.2021
5010 Clouds 25 1008 94 10000 1.54 0 15:59 07.12.2021
5011 Clouds 26 1008 89 10000 2.06 0 14:37 07.12.2021
5012 Clouds 26 1009 83 10000 2.06 0 13:29 07.12.2021
5013 Clouds 26 1008 83 10000 1.54 0 12:21 07.12.2021
5014 Clouds 28 1007 83 10000 2.57 170 10:45 07.12.2021
5015 Clouds 28 1007 76 10000 0.71 252 09:19 07.12.2021
5016 Clouds 32 1005 62 10000 7.72 260 06:39 07.12.2021
5017 Clouds 32 1005 66 10000 7.72 230 05:45 07.12.2021
5018 Clouds 30 1008 66 10000 5.14 310 01:43 07.12.2021
5019 Clouds 27 1008 83 10000 2.06 350 23:21 06.12.2021
5020 Clouds 24 1008 100 10000 2.57 340 22:40 06.12.2021
5021 Fog 24 1007 94 10000 4.12 330 21:58 06.12.2021
5022 Fog 24 1007 94 10000 4.12 330 21:20 06.12.2021
5023 Fog 23 1006 100 10000 2.57 330 20:30 06.12.2021
5024 Clouds 24 1005 94 10000 3.09 320 19:24 06.12.2021
5025 Clouds 24 1005 100 10000 2.06 0 18:29 06.12.2021
5026 Clouds 25 1006 87 10000 1.85 34 17:52 06.12.2021
5027 Clouds 25 1006 87 10000 1.78 33 17:20 06.12.2021
5028 Clouds 24 1007 100 10000 2.57 340 15:49 06.12.2021
5029 Clouds 25 1008 84 10000 1.81 45 13:47 06.12.2021
5030 Clouds 24 1008 94 10000 5.14 30 12:40 06.12.2021
5031 Clouds 24 1007 94 10000 4.63 40 11:54 06.12.2021
5032 Clouds 27 1006 89 10000 7.72 360 09:35 06.12.2021
5033 Clouds 29 1004 74 10000 5.66 310 06:59 06.12.2021
5034 Clouds 28 1007 78 10000 5.14 330 00:33 06.12.2021
5035 Clouds 25 1006 94 10000 1.54 0 21:53 05.12.2021
5036 Clouds 25 1006 94 10000 1.54 0 21:25 05.12.2021
5037 Clouds 24 1006 86 10000 2.13 19 20:20 05.12.2021
5038 Clouds 25 1005 100 10000 2.57 350 19:49 05.12.2021
5039 Clouds 25 1005 100 10000 2.57 350 19:21 05.12.2021
5040 Clouds 25 1005 94 10000 2.57 320 18:20 05.12.2021
5041 Clouds 25 1005 94 10000 2.57 320 17:49 05.12.2021
5042 Clouds 25 1006 94 10000 5.14 300 16:52 05.12.2021
5043 Clouds 25 1006 94 10000 5.14 300 16:27 05.12.2021
5044 Clouds 25 1006 85 10000 1.75 39 15:58 05.12.2021
5045 Clouds 25 1006 84 10000 1.67 47 14:45 05.12.2021
5046 Clouds 26 1007 82 10000 1.71 74 14:26 05.12.2021
5047 Clouds 26 1008 81 10000 1.65 108 13:27 05.12.2021
5048 Clouds 26 1007 83 10000 1.92 111 12:40 05.12.2021
5049 Clouds 26 1007 83 9485 2.24 125 12:18 05.12.2021
5050 Clouds 26 1007 83 9485 2.24 125 11:34 05.12.2021
5051 Clouds 26 1006 82 10000 2.37 152 10:18 05.12.2021
5052 Clouds 30 1004 70 10000 5.14 210 08:29 05.12.2021
5053 Clouds 29 1006 79 10000 5.14 190 03:39 05.12.2021
5054 Rain 27 1007 89 10000 1.54 0 00:48 05.12.2021
5055 Clouds 25 1007 87 10000 1.79 43 22:18 04.12.2021
5056 Clouds 24 1006 89 10000 2.11 42 21:18 04.12.2021
5057 Clouds 24 1006 88 10000 2.04 42 20:27 04.12.2021
5058 Clouds 24 1006 88 10000 2.04 42 19:32 04.12.2021
5059 Clouds 25 1005 88 10000 1.6 99 18:21 04.12.2021
5060 Clouds 25 1005 88 10000 1.6 99 17:40 04.12.2021
5061 Clouds 25 1005 88 10000 1.57 85 16:52 04.12.2021
5062 Clouds 25 1005 88 10000 1.57 85 16:31 04.12.2021
5063 Clouds 25 1005 86 10000 1.86 97 15:57 04.12.2021
5064 Clouds 26 1007 84 10000 1.86 108 11:54 04.12.2021
5065 Clouds 26 1007 84 10000 1.86 108 11:32 04.12.2021
5066 Clouds 27 1006 83 10000 1.54 0 10:56 04.12.2021
5067 Clouds 29 1004 79 10000 7.72 150 08:49 04.12.2021
5068 Clouds 28 1005 77 10000 2.2 178 06:42 04.12.2021
5069 Rain 30 1006 79 10000 7.72 190 04:42 04.12.2021
5070 Haze 29 1009 79 10000 3.6 350 00:35 04.12.2021
5071 Haze 27 1008 89 10000 2.57 320 23:27 03.12.2021
5072 Fog 25 1009 100 1000 2.57 320 22:47 03.12.2021
5073 Clouds 25 1007 94 10000 2.06 0 21:26 03.12.2021
5074 Clouds 25 1007 100 10000 2.06 0 20:54 03.12.2021
5075 Clouds 25 1006 100 10000 2.06 0 19:53 03.12.2021
5076 Clouds 26 1006 94 10000 2.06 0 18:44 03.12.2021
5077 Clouds 26 1006 94 10000 2.06 0 17:59 03.12.2021
5078 Clouds 26 1007 94 10000 2.06 0 16:33 03.12.2021
5079 Clouds 26 1009 94 10000 2.06 0 12:59 03.12.2021
5080 Clouds 27 1008 83 10000 1.57 85 12:19 03.12.2021
5081 Clouds 27 1008 81 10000 1.39 97 10:55 03.12.2021
5082 Clouds 29 1006 76 10000 1.33 239 08:27 03.12.2021
5083 Clouds 29 1006 79 10000 5.14 230 07:43 03.12.2021
5084 Clouds 32 1007 70 10000 6.69 230 04:35 03.12.2021
5085 Clouds 30 1010 74 10000 2.06 0 00:48 03.12.2021
5086 Clouds 28 1010 78 10000 2.57 0 23:47 02.12.2021
5087 Clouds 26 1009 94 10000 1.54 0 22:24 02.12.2021
5088 Clouds 25 1008 94 10000 3.6 310 21:35 02.12.2021
5089 Clouds 25 1007 94 10000 3.6 310 20:40 02.12.2021
5090 Clouds 25 1007 94 10000 5.14 310 19:57 02.12.2021
5091 Clouds 25 1007 94 10000 5.14 310 18:34 02.12.2021
5092 Clouds 26 1008 94 10000 2.06 0 15:52 02.12.2021
5093 Clouds 26 1008 94 10000 2.06 0 15:28 02.12.2021
5094 Clouds 26 1008 86 10000 1.4 95 14:48 02.12.2021
5095 Rain 26 1008 89 10000 2.06 0 12:53 02.12.2021
5096 Clouds 27 1008 84 10000 1.93 119 12:19 02.12.2021
5097 Clouds 28 1007 83 10000 5.14 170 10:38 02.12.2021
5098 Clouds 31 1005 74 10000 6.69 220 08:59 02.12.2021
5099 Haze 32 1005 70 10000 6.69 220 05:34 02.12.2021
5100 Rain 30 1008 74 10000 2.57 350 00:53 02.12.2021
5101 Rain 28 1008 83 10000 2.57 340 23:28 01.12.2021
5102 Clouds 26 1008 94 10000 2.57 320 22:25 01.12.2021
5103 Clouds 25 1007 100 10000 3.6 350 21:21 01.12.2021
5104 Clouds 26 1006 86 10000 1.01 27 19:58 01.12.2021
5105 Clouds 26 1006 86 10000 1.01 27 19:34 01.12.2021
5106 Clouds 26 1006 94 10000 2.57 330 17:50 01.12.2021
5107 Clouds 26 1006 94 10000 2.57 320 16:58 01.12.2021
5108 Clouds 27 1007 89 10000 1.03 0 14:59 01.12.2021
5109 Clouds 26 1007 90 10000 1.91 57 13:49 01.12.2021
5110 Clouds 25 1007 94 10000 2.65 28 12:51 01.12.2021
5111 Clouds 29 1006 84 10000 3.6 160 10:43 01.12.2021
5112 Clouds 30 1005 79 10000 3.6 170 09:32 01.12.2021
5113 Clouds 30 1004 74 10000 1.36 167 08:36 01.12.2021
5114 Clouds 33 1003 62 10000 5.14 190 07:37 01.12.2021
5115 Clouds 29 1005 72 10000 1.8 188 07:19 01.12.2021
5116 Clouds 32 1006 70 10000 5.14 200 03:47 01.12.2021
5117 Clouds 31 1008 70 10000 2.57 350 01:59 01.12.2021
5118 Clouds 27 1008 83 10000 5.14 330 23:56 30.11.2021
5119 Clouds 27 1008 83 10000 5.14 330 23:26 30.11.2021
5120 Clouds 24 1006 94 10000 3.09 320 21:40 30.11.2021
5121 Fog 24 1006 100 10000 1.54 0 20:46 30.11.2021
5122 Clouds 25 1006 88 10000 1.83 14 20:19 30.11.2021
5123 Fog 24 1005 100 10000 1.54 0 19:38 30.11.2021
5124 Clouds 25 1006 89 10000 1.44 4 18:38 30.11.2021
5125 Rain 24 1006 100 10000 2.57 320 16:50 30.11.2021
5126 Rain 25 1006 92 10000 2.68 358 15:44 30.11.2021
5127 Clouds 25 1007 93 10000 3.55 354 14:20 30.11.2021
5128 Rain 25 1007 100 10000 1.03 0 13:27 30.11.2021
5129 Rain 25 1006 100 10000 2.57 300 12:46 30.11.2021
5130 Rain 25 1006 94 10000 2.57 340 11:50 30.11.2021
5131 Rain 25 1006 94 10000 2.57 340 11:23 30.11.2021
5132 Rain 25 1006 100 10000 3.6 340 10:33 30.11.2021
5133 Rain 28 1005 94 10000 3.09 30 08:53 30.11.2021
5134 Rain 28 1005 94 10000 3.09 30 08:26 30.11.2021
5135 Clouds 30 1004 74 10000 2.57 270 07:47 30.11.2021
5136 Clouds 31 1006 70 10000 5.14 320 02:41 30.11.2021
5137 Haze 30 1007 74 10000 5.14 350 01:42 30.11.2021
5138 Haze 28 1008 78 10000 5.14 340 00:33 30.11.2021
5139 Clouds 26 1008 84 10000 1.11 356 23:24 29.11.2021
5140 Clouds 25 1007 94 10000 5.14 300 22:56 29.11.2021
5141 Clouds 25 1007 94 10000 5.14 300 22:33 29.11.2021
5142 Clouds 24 1005 100 10000 2.57 350 21:30 29.11.2021
5143 Clouds 25 1007 88 10000 0.5 7 20:59 29.11.2021
5144 Clouds 25 1007 88 10000 0.5 7 20:32 29.11.2021
5145 Clouds 24 1005 100 10000 2.57 340 19:56 29.11.2021
5146 Clouds 24 1005 100 10000 2.57 340 19:36 29.11.2021
5147 Clouds 24 1005 100 10000 1.54 0 18:51 29.11.2021
5148 Clouds 25 1005 90 10000 1.52 335 17:49 29.11.2021
5149 Clouds 25 1006 90 10000 1.59 340 17:18 29.11.2021
5150 Clouds 25 1006 90 10000 1.59 340 17:18 29.11.2021
5151 Clouds 25 1007 90 10000 1.29 331 16:29 29.11.2021
5152 Clouds 25 1007 90 10000 1.29 331 15:50 29.11.2021
5153 Clouds 25 1007 91 10000 1.67 302 14:43 29.11.2021
5154 Clouds 25 1008 93 10000 1.66 294 13:33 29.11.2021
5155 Clouds 26 1007 92 4908 1.9 149 12:28 29.11.2021
5156 Rain 26 1007 92 4908 1.9 149 11:40 29.11.2021
5157 Rain 26 1005 90 2610 5.09 146 10:51 29.11.2021
5158 Rain 25 1006 100 10000 1.54 0 09:34 29.11.2021
5159 Clouds 29 1005 77 10000 4.07 168 06:20 29.11.2021
5160 Haze 31 1008 66 10000 3.6 340 01:43 29.11.2021
5161 Haze 30 1009 74 10000 2.57 330 00:40 29.11.2021
5162 Clouds 27 1008 83 10000 2.06 0 23:44 28.11.2021
5163 Clouds 25 1008 94 10000 5.14 330 22:49 28.11.2021
5164 Fog 24 1007 100 10000 1.54 0 21:47 28.11.2021
5165 Fog 24 1007 100 10000 1.54 0 21:20 28.11.2021
5166 Clouds 25 1007 87 10000 1.13 55 20:23 28.11.2021
5167 Rain 24 1006 100 10000 1.54 0 18:46 28.11.2021
5168 Clouds 24 1006 100 10000 1.54 0 18:27 28.11.2021
5169 Clouds 25 1007 94 10000 1.54 0 17:54 28.11.2021
5170 Clouds 25 1007 94 10000 1.54 0 17:31 28.11.2021
5171 Clouds 25 1007 94 10000 1.54 0 16:29 28.11.2021
5172 Clouds 25 1008 94 10000 1.54 0 15:58 28.11.2021
5173 Clouds 25 1008 94 10000 1.54 0 15:24 28.11.2021
5174 Clouds 26 1008 85 10000 2.61 113 14:43 28.11.2021
5175 Clouds 26 1009 83 10000 2.72 120 12:58 28.11.2021
5176 Clouds 26 1009 84 10000 3.44 125 12:29 28.11.2021
5177 Clouds 26 1008 94 10000 4.12 350 10:53 28.11.2021
5178 Clouds 27 1008 80 10000 4.04 137 10:20 28.11.2021
5179 Clouds 28 1007 78 10000 7.72 100 09:37 28.11.2021
5180 Clouds 32 1006 70 10000 7.72 180 06:30 28.11.2021
5181 Clouds 29 1009 79 10000 1.54 0 23:37 27.11.2021
5182 Clouds 25 1008 83 10000 1.45 35 20:44 27.11.2021
5183 Clouds 25 1007 94 10000 1.54 0 18:57 27.11.2021
5184 Clouds 26 1008 94 10000 1.03 0 16:52 27.11.2021
5185 Clouds 26 1008 94 10000 0 0 15:55 27.11.2021
5186 Clouds 26 1009 86 10000 2 27 13:47 27.11.2021
5187 Rain 26 1009 84 10000 1.44 16 12:29 27.11.2021
5188 Clouds 26 1008 89 10000 3.09 30 10:32 27.11.2021
5189 Clouds 28 1007 78 10000 2.06 0 09:51 27.11.2021
5190 Haze 28 1006 78 10000 2.57 0 08:40 27.11.2021
5191 Rain 29 1007 84 10000 5.14 300 04:58 27.11.2021
5192 Haze 30 1009 74 10000 3.6 350 01:53 27.11.2021
5193 Haze 26 1009 89 10000 2.06 0 23:35 26.11.2021
5194 Clouds 26 1009 85 10000 1.97 7 22:25 26.11.2021
5195 Haze 25 1007 94 10000 1.54 0 21:36 26.11.2021
5196 Rain 25 1007 94 10000 2.57 300 20:46 26.11.2021
5197 Rain 25 1008 87 10000 2.12 5 20:18 26.11.2021
5198 Rain 24 1006 100 10000 2.57 320 19:47 26.11.2021
5199 Rain 25 1007 94 10000 4.12 330 17:57 26.11.2021
5200 Rain 25 1007 94 10000 4.12 330 17:22 26.11.2021
5201 Clouds 25 1008 94 10000 2.57 320 15:56 26.11.2021
5202 Rain 26 1008 89 10000 2.06 0 13:35 26.11.2021
5203 Clouds 26 1008 89 10000 2.06 0 12:30 26.11.2021
5204 Clouds 27 1007 89 10000 5.14 330 10:38 26.11.2021
5205 Haze 30 1005 74 10000 6.17 220 08:58 26.11.2021
5206 Haze 30 1005 74 10000 6.17 220 08:21 26.11.2021
5207 Haze 31 1004 66 10000 7.72 240 07:26 26.11.2021
5208 Haze 32 1004 66 10000 7.72 220 06:26 26.11.2021
5209 Haze 33 1005 62 10000 6.17 230 04:51 26.11.2021
5210 Haze 29 1007 74 10000 5.14 190 02:52 26.11.2021
5211 Clouds 27 1008 76 10000 1.68 19 23:18 25.11.2021
5212 Clouds 24 1006 100 10000 2.57 350 21:27 25.11.2021
5213 Clouds 25 1006 94 10000 2.57 320 20:27 25.11.2021
5214 Rain 25 1006 94 10000 2.06 0 18:47 25.11.2021
5215 Haze 25 1006 94 10000 2.06 0 17:47 25.11.2021
5216 Haze 25 1006 94 10000 2.06 0 17:25 25.11.2021
5217 Haze 25 1007 94 10000 2.06 0 16:33 25.11.2021
5218 Haze 26 1008 94 10000 3.09 150 14:59 25.11.2021
5219 Haze 26 1008 94 10000 3.09 150 13:37 25.11.2021
5220 Haze 26 1007 94 10000 3.09 150 12:25 25.11.2021
5221 Haze 29 1006 79 10000 3.09 150 11:50 25.11.2021
5222 Clouds 28 1005 82 10000 1.63 211 09:28 25.11.2021
5223 Clouds 29 1004 73 10000 3.62 251 06:18 25.11.2021
5224 Rain 31 1007 70 10000 5.14 340 02:49 25.11.2021
5225 Clouds 25 1007 94 10000 3.6 330 22:57 24.11.2021
5226 Clouds 26 1008 83 10000 1.38 15 22:24 24.11.2021
5227 Clouds 25 1007 94 10000 3.6 330 21:32 24.11.2021
5228 Clouds 25 1006 94 10000 2.57 330 20:50 24.11.2021
5229 Clouds 25 1006 94 10000 2.57 330 20:19 24.11.2021
5230 Clouds 25 1006 89 10000 1.58 13 18:30 24.11.2021
5231 Clouds 25 1006 94 10000 4.12 330 17:53 24.11.2021
5232 Clouds 25 1007 100 10000 4.12 290 15:39 24.11.2021
5233 Clouds 26 1007 94 10000 3.6 340 14:47 24.11.2021
5234 Clouds 27 1008 84 10000 0.77 82 14:20 24.11.2021
5235 Clouds 27 1007 82 10000 0.83 127 12:28 24.11.2021
5236 Clouds 27 1006 89 10000 5.14 50 11:20 24.11.2021
5237 Clouds 28 1007 89 10000 2.57 160 10:47 24.11.2021
5238 Clouds 28 1007 89 10000 2.57 160 10:21 24.11.2021
5239 Clouds 29 1005 75 10000 2.12 169 07:52 24.11.2021
5240 Haze 32 1004 70 10000 4.63 200 06:54 24.11.2021
5241 Haze 32 1007 66 10000 7.72 200 03:51 24.11.2021
5242 Clouds 29 1009 72 10000 1.41 275 00:43 24.11.2021
5243 Clouds 26 1008 89 10000 1.03 0 22:40 23.11.2021
5244 Clouds 26 1009 84 10000 1.64 5 22:18 23.11.2021
5245 Clouds 25 1007 94 10000 2.57 320 21:44 23.11.2021
5246 Clouds 25 1008 94 10000 2.57 310 19:37 23.11.2021
5247 Clouds 25 1008 94 10000 2.57 310 19:37 23.11.2021
5248 Clouds 25 1007 86 10000 1.68 65 18:41 23.11.2021
5249 Clouds 25 1006 85 10000 1.56 84 18:18 23.11.2021
5250 Clouds 26 1007 94 10000 0 0 16:57 23.11.2021
5251 Clouds 25 1008 94 10000 2.06 300 15:59 23.11.2021
5252 Clouds 26 1008 85 10000 2.2 110 15:22 23.11.2021
5253 Clouds 25 1009 94 10000 1.03 320 13:50 23.11.2021
5254 Clouds 25 1009 94 10000 1.54 320 11:42 23.11.2021
5255 Haze 29 1007 79 10000 5.14 290 09:59 23.11.2021
5256 Haze 31 1006 70 10000 5.14 220 08:46 23.11.2021
5257 Haze 32 1005 70 10000 7.72 250 06:39 23.11.2021
5258 Clouds 32 1008 62 10000 6.69 230 03:45 23.11.2021
5259 Clouds 30 1010 66 10000 4.12 360 00:54 23.11.2021
5260 Clouds 27 1009 83 10000 3.09 350 23:20 22.11.2021
5261 Clouds 25 1009 94 10000 2.57 320 22:33 22.11.2021
5262 Clouds 23 1007 100 10000 2.57 320 21:48 22.11.2021
5263 Clouds 23 1007 100 10000 2.57 320 21:29 22.11.2021
5264 Clear 25 1007 90 10000 1.33 26 20:50 22.11.2021
5265 Clear 25 1007 90 10000 1.51 29 19:31 22.11.2021
5266 Clouds 24 1007 94 10000 2.57 340 18:58 22.11.2021
5267 Clouds 24 1007 94 10000 2.57 340 18:35 22.11.2021
5268 Clouds 26 1006 89 10000 1.78 99 16:56 22.11.2021
5269 Clouds 24 1007 100 10000 2.57 340 15:42 22.11.2021
5270 Clouds 27 1008 87 10000 2.48 137 12:56 22.11.2021
5271 Clouds 25 1008 88 10000 4.12 310 11:39 22.11.2021
5272 Clouds 25 1007 94 10000 2.06 330 10:38 22.11.2021
5273 Clouds 28 1006 85 10000 4.04 145 09:24 22.11.2021
5274 Clouds 28 1006 85 10000 4.04 145 08:36 22.11.2021
5275 Clouds 33 1006 70 10000 6.17 190 04:32 22.11.2021
5276 Clouds 28 1009 83 10000 2.06 0 23:23 21.11.2021
5277 Fog 26 1008 94 10000 2.06 0 22:46 21.11.2021
5278 Fog 25 1007 100 10000 2.57 350 21:40 21.11.2021
5279 Clouds 25 1007 89 10000 1.29 74 20:41 21.11.2021
5280 Clouds 25 1006 90 10000 1.17 94 19:45 21.11.2021
5281 Clouds 26 1007 100 10000 1.54 0 17:59 21.11.2021
5282 Clouds 26 1007 100 10000 1.54 0 17:37 21.11.2021
5283 Clouds 26 1007 100 10000 1.54 0 17:37 21.11.2021
5284 Clouds 26 1008 100 10000 1.54 0 15:22 21.11.2021
5285 Clouds 26 1007 89 10000 3.43 125 14:43 21.11.2021
5286 Clouds 26 1008 88 10000 3.52 126 13:31 21.11.2021
5287 Clouds 27 1008 88 10000 5.77 128 12:27 21.11.2021
5288 Clouds 27 1008 88 10000 5.77 128 11:39 21.11.2021
5289 Clouds 27 1006 87 10000 5.76 136 10:20 21.11.2021
5290 Clouds 29 1005 79 10000 7.72 160 09:48 21.11.2021
5291 Clouds 29 1005 79 10000 7.72 160 08:34 21.11.2021
5292 Clouds 30 1005 74 10000 7.72 160 07:54 21.11.2021
5293 Clouds 30 1005 74 10000 7.72 160 07:33 21.11.2021
5294 Clouds 31 1005 70 10000 7.72 160 05:43 21.11.2021
5295 Clouds 31 1006 70 10000 7.72 190 04:35 21.11.2021
5296 Clouds 31 1008 70 10000 4.12 190 02:57 21.11.2021
5297 Clouds 31 1008 70 10000 4.12 190 02:33 21.11.2021
5298 Clouds 29 1009 73 10000 2.14 179 00:51 21.11.2021
5299 Haze 25 1008 100 10000 1.54 0 22:55 20.11.2021
5300 Haze 25 1007 100 10000 1.54 0 21:34 20.11.2021
5301 Clouds 25 1007 100 10000 1.54 0 20:33 20.11.2021
5302 Clouds 25 1007 100 10000 1.54 0 18:46 20.11.2021
5303 Clouds 25 1007 100 10000 1.54 0 18:45 20.11.2021
5304 Clouds 25 1007 89 10000 2.33 98 18:24 20.11.2021
5305 Clouds 25 1007 89 10000 2.59 101 17:22 20.11.2021
5306 Clouds 25 1009 94 10000 1.54 0 15:54 20.11.2021
5307 Clouds 26 1008 88 10000 3.48 114 14:39 20.11.2021
5308 Clouds 26 1008 87 10000 3.97 119 14:21 20.11.2021
5309 Clouds 27 1007 89 10000 7.72 340 11:56 20.11.2021
5310 Clouds 27 1007 85 6709 6.52 135 10:28 20.11.2021
5311 Clouds 30 1005 79 10000 7.72 140 08:48 20.11.2021
5312 Clouds 29 1005 78 10000 6.89 152 07:19 20.11.2021
5313 Clouds 32 1005 70 10000 10.29 150 05:24 20.11.2021
5314 Clouds 32 1006 70 10000 7.72 140 04:50 20.11.2021
5315 Clouds 31 1008 66 10000 1.54 0 00:45 20.11.2021
5316 Clouds 31 1008 66 10000 1.54 0 00:27 20.11.2021
5317 Clouds 27 1008 89 10000 1.54 0 22:55 19.11.2021
5318 Clouds 26 1007 94 10000 1.54 0 21:44 19.11.2021
5319 Clouds 26 1006 89 10000 1.54 0 20:54 19.11.2021
5320 Clouds 26 1008 89 10000 1.54 0 20:35 19.11.2021
5321 Clouds 25 1006 94 10000 1.54 0 19:49 19.11.2021
5322 Clouds 25 1006 94 10000 1.54 0 18:50 19.11.2021
5323 Rain 25 1006 87 10000 4.98 120 18:18 19.11.2021
5324 Clouds 25 1007 94 10000 2.57 320 16:47 19.11.2021
5325 Clouds 26 1006 89 10000 1.54 0 15:31 19.11.2021
5326 Clouds 27 1008 89 10000 2.06 0 12:53 19.11.2021
5327 Clouds 28 1006 83 10000 7.72 150 10:26 19.11.2021
5328 Clouds 27 1006 84 10000 6.66 140 08:47 19.11.2021
5329 Haze 31 1004 70 10000 7.72 150 07:33 19.11.2021
5330 Clouds 30 1006 74 10000 6.25 164 04:24 19.11.2021
5331 Haze 32 1009 62 10000 2.57 340 01:24 19.11.2021
5332 Clouds 27 1008 78 10000 3.6 360 23:44 18.11.2021
5333 Clouds 23 1007 100 10000 1.54 0 21:41 18.11.2021
5334 Clouds 23 1007 100 10000 1.54 0 20:47 18.11.2021
5335 Clouds 23 1007 100 10000 1.54 0 20:29 18.11.2021
5336 Clouds 23 1006 100 10000 1.54 0 19:43 18.11.2021
5337 Clouds 23 1006 100 10000 1.54 0 18:40 18.11.2021
5338 Haze 24 1007 94 10000 2.06 340 17:58 18.11.2021
5339 Haze 24 1007 94 10000 2.06 340 17:36 18.11.2021
5340 Clouds 26 1006 89 10000 2.42 101 16:43 18.11.2021
5341 Haze 24 1007 100 10000 2.06 340 15:24 18.11.2021
5342 Clouds 26 1008 87 10000 2.86 110 13:25 18.11.2021
5343 Haze 25 1008 94 10000 4.12 140 11:45 18.11.2021
5344 Clouds 27 1006 85 10000 4.69 131 11:26 18.11.2021
5345 Haze 25 1007 94 10000 4.12 140 10:56 18.11.2021
5346 Haze 25 1007 94 10000 4.12 140 09:32 18.11.2021
5347 Haze 25 1006 94 10000 5.14 30 07:34 18.11.2021
5348 Haze 32 1005 70 10000 5.14 200 05:47 18.11.2021
5349 Clouds 29 1007 75 10000 4.13 193 02:46 18.11.2021
5350 Haze 31 1008 70 10000 5.14 350 01:22 18.11.2021
5351 Haze 26 1008 94 10000 5.66 340 22:41 17.11.2021
5352 Haze 26 1008 94 10000 5.66 340 22:20 17.11.2021
5353 Haze 26 1008 94 10000 5.66 340 22:20 17.11.2021
5354 Clouds 26 1008 85 10000 1.51 55 21:36 17.11.2021
5355 Clouds 25 1007 91 10000 1.82 21 20:18 17.11.2021
5356 Clouds 26 1006 94 10000 2.57 340 17:48 17.11.2021
5357 Clouds 26 1006 94 10000 2.57 340 17:23 17.11.2021
5358 Clouds 26 1006 94 10000 2.57 340 17:23 17.11.2021
5359 Clouds 27 1008 86 10000 3.23 122 14:18 17.11.2021
5360 Clouds 27 1008 89 10000 1.54 0 12:39 17.11.2021
5361 Rain 27 1008 89 10000 5.14 150 11:41 17.11.2021
5362 Clouds 28 1007 83 10000 2.57 150 10:28 17.11.2021
5363 Haze 28 1007 89 10000 7.72 150 09:23 17.11.2021
5364 Clouds 28 1006 79 10000 4.41 161 07:42 17.11.2021
5365 Haze 32 1008 62 10000 5.14 200 03:35 17.11.2021
5366 Clouds 30 1010 70 10000 2.57 0 00:47 17.11.2021
5367 Clouds 25 1009 94 10000 3.09 320 22:54 16.11.2021
5368 Clouds 23 1008 100 10000 1.54 0 20:37 16.11.2021
5369 Clouds 25 1008 88 10000 1.28 350 20:18 16.11.2021
5370 Clouds 25 1007 89 10000 1.48 360 18:53 16.11.2021
5371 Clouds 25 1007 89 10000 1.48 360 18:30 16.11.2021
5372 Clouds 25 1007 90 10000 1.67 2 17:38 16.11.2021
5373 Clouds 25 1007 91 10000 2.22 1 16:35 16.11.2021
5374 Clouds 25 1009 94 10000 5.14 350 15:49 16.11.2021
5375 Clouds 24 1009 100 10000 2.06 310 14:39 16.11.2021
5376 Rain 25 1008 94 10000 1.54 290 11:28 16.11.2021
5377 Rain 25 1008 94 10000 1.54 0 09:46 16.11.2021
5378 Rain 25 1007 94 10000 4.12 40 08:26 16.11.2021
5379 Rain 25 1007 94 5000 5.14 50 07:31 16.11.2021
5380 Haze 30 1008 74 10000 2.57 300 01:38 16.11.2021
5381 Clouds 27 1008 77 10000 0.9 54 22:52 15.11.2021
5382 Clouds 26 1008 83 10000 1.38 45 22:21 15.11.2021
5383 Clouds 25 1007 94 10000 2.57 340 21:52 15.11.2021
5384 Clouds 25 1007 94 10000 2.57 340 21:26 15.11.2021
5385 Clouds 25 1005 100 10000 2.57 340 19:41 15.11.2021
5386 Clouds 25 1005 89 10000 1.8 15 18:18 15.11.2021
5387 Clouds 26 1006 88 10000 1.59 358 16:19 15.11.2021
5388 Clouds 25 1008 100 10000 1.54 0 15:40 15.11.2021
5389 Clouds 26 1006 87 10000 1.45 23 15:20 15.11.2021
5390 Clouds 25 1008 100 10000 2.57 330 12:47 15.11.2021
5391 Clouds 25 1006 100 10000 4.12 340 10:54 15.11.2021
5392 Clouds 28 1005 83 10000 3.83 138 09:26 15.11.2021
5393 Clouds 26 1006 94 10000 9.26 30 07:45 15.11.2021
5394 Haze 32 1006 70 10000 6.17 170 04:46 15.11.2021
5395 Haze 28 1009 83 10000 5.14 340 23:37 14.11.2021
5396 Haze 27 1008 89 10000 2.06 0 22:34 14.11.2021
5397 Haze 25 1006 100 10000 1.54 0 19:53 14.11.2021
5398 Clouds 25 1007 90 10000 1.71 61 19:18 14.11.2021
5399 Clouds 26 1006 94 10000 1.54 0 18:54 14.11.2021
5400 Clouds 26 1006 94 10000 1.54 0 18:36 14.11.2021
5401 Clouds 25 1006 90 10000 1.77 78 18:18 14.11.2021
5402 Clouds 26 1006 94 10000 1.54 0 17:54 14.11.2021
5403 Clouds 26 1006 94 10000 1.54 0 17:36 14.11.2021
5404 Clouds 26 1006 89 10000 2.75 109 17:18 14.11.2021
5405 Clouds 26 1007 94 10000 1.54 0 16:45 14.11.2021
5406 Clouds 26 1007 89 10000 3.52 118 16:19 14.11.2021
5407 Clouds 27 1007 89 10000 1.54 0 15:22 14.11.2021
5408 Clouds 27 1008 89 10000 1.54 0 14:45 14.11.2021
5409 Clouds 27 1008 89 10000 1.54 0 14:24 14.11.2021
5410 Clouds 27 1008 89 10000 1.54 0 13:53 14.11.2021
5411 Clouds 27 1008 89 10000 1.54 0 13:35 14.11.2021
5412 Clouds 27 1008 89 10000 2.57 130 12:27 14.11.2021
5413 Clouds 27 1008 86 10000 4.4 128 11:40 14.11.2021
5414 Clouds 27 1007 94 10000 5.14 150 10:40 14.11.2021
5415 Clouds 30 1006 74 10000 5.14 160 09:42 14.11.2021
5416 Clouds 27 1007 85 10000 5.32 149 08:52 14.11.2021
5417 Clouds 28 1006 81 10000 4.21 165 06:54 14.11.2021
5418 Haze 28 1010 89 10000 2.06 0 23:28 13.11.2021
5419 Haze 25 1009 100 10000 1.54 0 22:21 13.11.2021
5420 Haze 24 1008 100 10000 1.54 0 21:50 13.11.2021
5421 Haze 24 1008 100 10000 1.54 0 21:18 13.11.2021
5422 Clouds 25 1006 94 10000 2.06 0 19:37 13.11.2021
5423 Clouds 25 1008 94 10000 3.6 320 18:33 13.11.2021
5424 Clouds 25 1007 94 10000 1.54 0 17:46 13.11.2021
5425 Clouds 24 1009 100 10000 1.54 0 16:30 13.11.2021
5426 Rain 26 1011 94 10000 5.14 120 14:55 13.11.2021
5427 Clouds 26 1010 85 10000 1.6 106 14:18 13.11.2021
5428 Clouds 26 1010 94 10000 2.57 320 12:45 13.11.2021
5429 Clouds 26 1008 94 10000 2.57 330 11:57 13.11.2021
5430 Clouds 26 1008 94 10000 2.57 330 11:24 13.11.2021
5431 Rain 27 1008 89 10000 2.57 310 10:39 13.11.2021
5432 Clouds 29 1008 84 10000 5.14 100 09:50 13.11.2021
5433 Rain 29 1008 84 10000 5.14 100 09:31 13.11.2021
5434 Haze 30 1007 74 10000 5.14 200 08:54 13.11.2021
5435 Haze 30 1007 74 10000 5.14 200 08:18 13.11.2021
5436 Haze 33 1007 62 10000 7.72 220 04:43 13.11.2021
5437 Haze 33 1007 62 10000 7.72 220 04:23 13.11.2021
5438 Clouds 29 1010 70 10000 1.13 222 00:19 13.11.2021
5439 Haze 26 1009 89 10000 3.09 330 22:42 12.11.2021
5440 Clouds 25 1009 86 10000 1.53 57 20:54 12.11.2021
5441 Clouds 25 1007 94 10000 1.54 0 19:40 12.11.2021
5442 Clouds 25 1007 94 10000 1.54 0 19:22 12.11.2021
5443 Clouds 25 1007 94 10000 1.54 0 18:20 12.11.2021
5444 Clouds 25 1008 94 10000 1.54 0 16:18 12.11.2021
5445 Rain 25 1010 100 10000 2.57 220 14:46 12.11.2021
5446 Rain 27 1009 85 10000 1.39 58 11:31 12.11.2021
5447 Rain 29 1009 79 10000 2.57 220 10:43 12.11.2021
5448 Haze 31 1006 70 10000 5.14 280 08:59 12.11.2021
5449 Haze 31 1006 70 10000 5.14 280 08:29 12.11.2021
5450 Clouds 31 1009 66 10000 2.84 269 00:37 12.11.2021
5451 Haze 29 1009 79 10000 4.12 330 23:30 11.11.2021
5452 Haze 26 1009 94 10000 2.57 320 22:21 11.11.2021
5453 Haze 25 1008 94 10000 3.6 320 21:26 11.11.2021
5454 Clouds 25 1008 89 10000 1.92 28 20:18 11.11.2021
5455 Clouds 26 1007 94 10000 1.54 0 18:42 11.11.2021
5456 Clouds 26 1006 89 10000 1.03 43 17:42 11.11.2021
5457 Clouds 26 1007 87 10000 0.4 37 15:51 11.11.2021
5458 Clouds 26 1007 86 10000 0.78 86 14:42 11.11.2021
5459 Clouds 27 1008 86 10000 1.04 102 14:23 11.11.2021
5460 Haze 29 1008 84 10000 2.57 150 13:35 11.11.2021
5461 Haze 28 1007 89 10000 2.57 140 12:27 11.11.2021
5462 Clouds 27 1007 83 10000 1.74 185 10:24 11.11.2021
5463 Clouds 28 1006 78 10000 1.44 211 09:23 11.11.2021
5464 Haze 33 1004 62 10000 4.12 220 07:34 11.11.2021
5465 Haze 32 1008 66 10000 5.14 320 00:40 11.11.2021
5466 Haze 27 1008 89 10000 4.12 340 22:46 10.11.2021
5467 Haze 25 1007 94 10000 2.57 320 21:54 10.11.2021
5468 Clouds 25 1006 94 10000 2.57 340 20:57 10.11.2021
5469 Clouds 25 1006 94 10000 2.57 340 20:25 10.11.2021
5470 Clouds 25 1006 80 10000 2.34 9 19:45 10.11.2021
5471 Clouds 25 1005 94 10000 2.57 340 17:28 10.11.2021
5472 Clouds 26 1005 94 10000 3.09 10 15:47 10.11.2021
5473 Clouds 26 1006 94 10000 1.54 0 14:25 10.11.2021
5474 Clouds 27 1006 89 10000 1.54 0 13:37 10.11.2021
5475 Clouds 27 1006 89 10000 2.06 140 12:24 10.11.2021
5476 Clouds 30 1005 74 10000 1.54 170 09:21 10.11.2021
5477 Clouds 31 1005 70 10000 7.72 200 08:41 10.11.2021
5478 Haze 33 1005 58 10000 7.72 210 06:45 10.11.2021
5479 Haze 33 1005 62 10000 7.72 210 05:58 10.11.2021
5480 Haze 33 1005 62 10000 7.72 200 04:58 10.11.2021
5481 Haze 27 1007 89 10000 1.54 0 22:29 09.11.2021
5482 Clouds 25 1007 84 10000 1.49 7 20:50 09.11.2021
5483 Clouds 24 1006 94 10000 1.54 0 19:36 09.11.2021
5484 Clouds 25 1005 84 10000 1.19 33 18:50 09.11.2021
5485 Clouds 25 1005 84 10000 1.31 62 16:57 09.11.2021
5486 Clouds 26 1007 89 10000 2.06 0 15:36 09.11.2021
5487 Clouds 26 1008 83 10000 2.23 114 13:50 09.11.2021
5488 Clear 26 1008 82 10000 2.78 122 12:47 09.11.2021
5489 Clear 26 1008 83 10000 3.08 116 11:18 09.11.2021
5490 Haze 29 1007 84 10000 5.14 160 09:59 09.11.2021
5491 Haze 29 1007 84 10000 5.14 160 09:21 09.11.2021
5492 Haze 32 1006 70 10000 7.72 160 07:52 09.11.2021
5493 Haze 33 1007 62 10000 5.66 200 02:37 09.11.2021
5494 Haze 34 1008 59 10000 5.66 190 01:51 09.11.2021
5495 Haze 32 1008 58 10000 3.09 200 00:39 09.11.2021
5496 Clouds 29 1009 69 10000 1 261 23:31 08.11.2021
5497 Haze 28 1007 78 10000 1.54 0 22:45 08.11.2021
5498 Clouds 25 1007 88 10000 1.54 0 21:45 08.11.2021
5499 Clouds 25 1007 88 10000 1.54 0 20:34 08.11.2021
5500 Clouds 25 1007 87 10000 1.72 12 19:27 08.11.2021
5501 Clouds 26 1007 83 10000 1.54 0 17:41 08.11.2021
5502 Clouds 26 1008 83 10000 2.57 0 15:49 08.11.2021
5503 Clear 26 1007 82 10000 1.1 71 14:56 08.11.2021
5504 Clear 26 1008 81 10000 1.57 94 14:24 08.11.2021
5505 Clouds 28 1008 89 10000 4.12 160 12:59 08.11.2021
5506 Clouds 28 1008 83 10000 5.14 160 11:54 08.11.2021
5507 Clouds 28 1007 83 10000 5.14 160 10:42 08.11.2021
5508 Haze 30 1006 74 10000 7.72 160 08:57 08.11.2021
5509 Clouds 28 1007 73 10000 2.37 179 08:18 08.11.2021
5510 Haze 32 1006 62 10000 7.72 220 06:55 08.11.2021
5511 Haze 33 1008 66 10000 6.69 200 03:35 08.11.2021
5512 Clouds 29 1009 69 10000 1.62 283 00:20 08.11.2021
5513 Clouds 27 1008 83 10000 2.57 340 22:57 07.11.2021
5514 Clouds 24 1008 94 10000 2.57 340 21:25 07.11.2021
5515 Clouds 25 1008 88 10000 1.84 27 20:18 07.11.2021
5516 Clouds 25 1007 94 10000 1.03 0 18:30 07.11.2021
5517 Clouds 26 1006 94 10000 0 0 17:40 07.11.2021
5518 Clouds 25 1007 94 10000 2.06 0 16:21 07.11.2021
5519 Clear 26 1007 85 10000 1.14 95 14:47 07.11.2021
5520 Clear 26 1008 85 10000 1.46 103 14:24 07.11.2021
5521 Clouds 26 1008 86 10000 2.15 121 11:58 07.11.2021
5522 Clouds 26 1007 86 10000 2.64 129 11:18 07.11.2021
5523 Haze 30 1006 74 10000 5.14 140 08:58 07.11.2021
5524 Haze 33 1007 66 10000 7.72 220 02:53 07.11.2021
5525 Haze 31 1008 66 10000 2.06 0 00:25 07.11.2021
5526 Haze 27 1007 89 10000 2.06 0 22:55 06.11.2021
5527 Haze 25 1006 94 10000 1.54 0 21:49 06.11.2021
5528 Clouds 24 1006 100 10000 1.54 0 20:54 06.11.2021
5529 Clouds 25 1006 94 10000 1.54 0 19:40 06.11.2021
5530 Clouds 25 1005 90 10000 0.81 41 17:30 06.11.2021
5531 Clouds 26 1006 89 10000 2.06 0 16:21 06.11.2021
5532 Clouds 26 1007 89 10000 1.72 121 13:39 06.11.2021
5533 Clouds 27 1007 89 10000 4.12 140 12:52 06.11.2021
5534 Haze 28 1005 83 10000 7.72 130 09:55 06.11.2021
5535 Haze 29 1005 79 10000 7.72 130 08:33 06.11.2021
5536 Haze 33 1006 62 10000 2.57 220 03:22 06.11.2021
5537 Haze 28 1008 78 10000 3.6 340 23:40 05.11.2021
5538 Haze 25 1008 88 10000 1.54 0 22:52 05.11.2021
5539 Haze 25 1008 88 10000 1.54 0 22:32 05.11.2021
5540 Clear 24 1006 88 10000 1.4 74 20:25 05.11.2021
5541 Clear 24 1006 89 10000 1.32 70 19:50 05.11.2021
5542 Clouds 24 1006 94 10000 2.06 0 18:42 05.11.2021
5543 Haze 24 1006 100 10000 1.03 0 17:42 05.11.2021
5544 Clouds 25 1007 94 10000 2.06 0 16:35 05.11.2021
5545 Clouds 27 1008 89 10000 5.14 150 13:59 05.11.2021
5546 Clouds 27 1007 89 10000 5.14 150 11:43 05.11.2021
5547 Clouds 27 1007 85 10000 5.81 146 08:57 05.11.2021
5548 Clouds 27 1006 80 10000 5.89 153 07:45 05.11.2021
5549 Haze 30 1006 66 10000 5.14 150 05:33 05.11.2021
5550 Haze 31 1008 66 10000 5.14 170 02:27 05.11.2021
5551 Haze 30 1010 70 10000 1.54 0 00:53 05.11.2021
5552 Clouds 27 1010 73 10000 0.63 81 23:25 04.11.2021
5553 Clouds 27 1010 73 10000 0.63 81 23:25 04.11.2021
5554 Clear 25 1009 79 10000 1.42 65 22:20 04.11.2021
5555 Haze 24 1008 94 10000 1.54 0 21:44 04.11.2021
5556 Clear 24 1008 83 10000 1.87 77 21:19 04.11.2021
5557 Clouds 24 1007 94 10000 1.54 0 20:23 04.11.2021
5558 Clouds 24 1006 88 10000 2.57 120 19:48 04.11.2021
5559 Clouds 24 1007 84 10000 2.36 104 19:19 04.11.2021
5560 Clouds 25 1006 88 10000 2.57 130 18:20 04.11.2021
5561 Clouds 25 1006 88 10000 4.12 140 17:26 04.11.2021
5562 Clouds 26 1008 83 10000 5.14 140 15:34 04.11.2021
5563 Clouds 27 1009 78 10000 5.14 160 13:40 04.11.2021
5564 Clouds 29 1006 74 10000 5.14 150 09:50 04.11.2021
5565 Haze 30 1005 66 10000 7.72 150 08:31 04.11.2021
5566 Haze 30 1005 70 10000 7.72 150 07:35 04.11.2021
5567 Clouds 28 1006 73 10000 8.75 157 06:18 04.11.2021
5568 Haze 26 1009 78 10000 1.54 0 22:53 03.11.2021
5569 Clouds 23 1009 88 10000 1.54 0 21:50 03.11.2021
5570 Clouds 23 1009 88 10000 1.54 0 21:31 03.11.2021
5571 Clouds 24 1008 88 10000 2.57 100 20:38 03.11.2021
5572 Clear 24 1009 86 10000 3.6 112 20:18 03.11.2021
5573 Clear 24 1009 85 10000 3.77 117 19:19 03.11.2021
5574 Clouds 24 1008 88 10000 4.12 110 18:25 03.11.2021
5575 Clouds 24 1008 88 10000 4.12 110 17:36 03.11.2021
5576 Clear 25 1009 84 10000 4.56 122 16:26 03.11.2021
5577 Clouds 25 1009 83 10000 4.12 130 15:44 03.11.2021
5578 Haze 26 1010 78 10000 3.6 130 14:25 03.11.2021
5579 Haze 27 1010 74 10000 6.17 140 12:33 03.11.2021
5580 Haze 27 1010 78 10000 5.14 160 11:27 03.11.2021
5581 Haze 28 1009 74 10000 7.72 160 10:49 03.11.2021
5582 Haze 28 1008 78 10000 7.72 160 09:31 03.11.2021
5583 Haze 29 1007 74 10000 7.72 150 08:23 03.11.2021
5584 Haze 29 1007 74 10000 7.72 150 07:39 03.11.2021
5585 Haze 31 1008 66 10000 7.72 140 05:35 03.11.2021
5586 Haze 31 1011 66 10000 7.72 150 02:28 03.11.2021
5587 Haze 28 1012 74 10000 2.57 140 23:56 02.11.2021
5588 Haze 27 1011 78 10000 2.57 140 22:46 02.11.2021
5589 Clouds 25 1010 85 10000 2.79 103 21:29 02.11.2021
5590 Clouds 25 1010 85 10000 2.79 103 20:33 02.11.2021
5591 Clouds 25 1009 83 10000 1.54 0 19:53 02.11.2021
5592 Clouds 25 1009 83 10000 1.54 0 18:59 02.11.2021
5593 Clouds 25 1009 83 10000 1.54 0 17:59 02.11.2021
5594 Clouds 25 1009 87 10000 4.02 125 17:38 02.11.2021
5595 Clouds 25 1008 87 10000 4.11 124 16:31 02.11.2021
5596 Clouds 26 1010 83 10000 2.57 140 15:32 02.11.2021
5597 Clouds 26 1011 86 10000 4.25 120 14:28 02.11.2021
5598 Clouds 27 1011 83 10000 4.12 140 13:27 02.11.2021
5599 Clouds 27 1011 89 10000 1.54 0 12:41 02.11.2021
5600 Clouds 28 1010 83 10000 2.57 0 11:34 02.11.2021
5601 Clouds 28 1010 83 10000 7.72 140 10:53 02.11.2021
5602 Clouds 28 1010 83 10000 7.72 140 10:27 02.11.2021
5603 Clouds 32 1008 70 10000 7.72 150 08:43 02.11.2021
5604 Haze 32 1007 62 10000 7.72 150 06:53 02.11.2021
5605 Haze 32 1010 66 10000 5.14 170 03:48 02.11.2021
5606 Haze 32 1011 66 10000 2.47 222 02:21 02.11.2021
5607 Haze 25 1011 100 10000 2.06 0 22:47 01.11.2021
5608 Clouds 24 1009 100 10000 2.57 330 20:52 01.11.2021
5609 Clouds 25 1010 78 10000 1.61 0 20:33 01.11.2021
5610 Clouds 24 1008 100 10000 3.09 310 19:52 01.11.2021
5611 Clouds 24 1008 100 10000 3.09 310 19:25 01.11.2021
5612 Clouds 25 1008 82 10000 1.45 340 18:21 01.11.2021
5613 Clouds 25 1008 82 10000 0.84 31 17:19 01.11.2021
5614 Clouds 25 1009 94 10000 1.54 0 16:43 01.11.2021
5615 Clouds 25 1010 94 10000 1.54 0 15:46 01.11.2021
5616 Clouds 25 1010 94 10000 1.54 0 15:20 01.11.2021
5617 Clouds 25 1010 94 10000 1.54 0 15:20 01.11.2021
5618 Clouds 26 1009 84 10000 1.14 66 14:41 01.11.2021
5619 Clouds 26 1010 84 10000 1.98 90 14:20 01.11.2021
5620 Clouds 27 1009 84 10000 3.29 105 13:18 01.11.2021
5621 Clouds 25 1009 94 10000 1.54 0 11:56 01.11.2021
5622 Clouds 27 1007 82 10000 5.8 142 10:23 01.11.2021
5623 Clouds 26 1008 94 6000 7.72 360 08:43 01.11.2021
5624 Haze 32 1006 70 10000 7.72 130 07:47 01.11.2021
5625 Haze 32 1009 66 10000 2.57 230 03:58 01.11.2021
5626 Haze 32 1009 66 10000 2.57 230 03:39 01.11.2021
5627 Haze 29 1011 79 10000 4.12 140 23:58 31.10.2021
5628 Clouds 24 1010 94 10000 1.54 0 21:31 31.10.2021
5629 Clouds 24 1009 100 10000 1.54 0 20:24 31.10.2021
5630 Clouds 25 1008 94 10000 2.57 350 18:46 31.10.2021
5631 Clouds 25 1008 94 10000 2.57 350 18:23 31.10.2021
5632 Clouds 25 1008 90 10000 1.7 4 16:48 31.10.2021
5633 Clouds 25 1008 90 10000 1.7 4 16:48 31.10.2021
5634 Clouds 26 1009 90 10000 1.34 25 15:18 31.10.2021
5635 Clouds 26 1010 90 10000 1.4 91 12:58 31.10.2021
5636 Clouds 26 1010 90 10000 1.4 91 12:58 31.10.2021
5637 Clouds 26 1010 89 10000 2.3 116 12:19 31.10.2021
5638 Clouds 26 1010 89 10000 3.13 134 10:51 31.10.2021
5639 Rain 28 1008 83 10000 5.14 160 09:26 31.10.2021
5640 Rain 29 1008 79 10000 5.66 150 08:46 31.10.2021
5641 Clouds 31 1011 66 10000 5.14 340 02:59 31.10.2021
5642 Clouds 26 1011 83 10000 2.57 350 23:43 30.10.2021
5643 Clouds 24 1010 94 10000 2.57 310 21:46 30.10.2021
5644 Clouds 24 1010 94 10000 2.57 310 21:25 30.10.2021
5645 Clouds 24 1009 94 10000 3.6 310 19:35 30.10.2021
5646 Clouds 25 1010 94 10000 1.03 330 17:43 30.10.2021
5647 Haze 25 1011 94 10000 2.57 330 15:30 30.10.2021
5648 Haze 26 1011 89 10000 2.57 330 13:58 30.10.2021
5649 Clouds 26 1011 88 10000 3.26 135 13:22 30.10.2021
5650 Haze 26 1011 89 10000 2.57 330 12:57 30.10.2021
5651 Haze 27 1010 94 10000 2.57 150 11:49 30.10.2021
5652 Haze 28 1010 89 10000 5.14 140 10:32 30.10.2021
5653 Clouds 27 1008 85 5177 4.94 161 08:54 30.10.2021
5654 Haze 31 1008 70 10000 5.14 180 07:54 30.10.2021
5655 Clouds 33 1010 62 10000 5.14 210 05:45 30.10.2021
5656 Clouds 28 1013 78 10000 5.14 300 01:57 30.10.2021
5657 Clouds 24 1011 94 10000 2.57 340 22:54 29.10.2021
5658 Clouds 24 1011 94 10000 2.57 340 22:32 29.10.2021
5659 Clouds 24 1010 94 10000 2.57 320 20:47 29.10.2021
5660 Clouds 25 1010 91 10000 2.18 12 20:26 29.10.2021
5661 Clouds 24 1010 88 10000 2.57 320 18:38 29.10.2021
5662 Clouds 24 1010 94 10000 5.14 340 17:24 29.10.2021
5663 Clouds 26 1011 89 10000 1.54 0 15:21 29.10.2021
5664 Rain 26 1010 87 10000 2.82 132 12:26 29.10.2021
5665 Haze 27 1010 89 10000 3.09 120 10:46 29.10.2021
5666 Haze 30 1008 74 10000 2.57 170 08:47 29.10.2021
5667 Haze 27 1011 83 10000 2.06 0 00:46 29.10.2021
5668 Clouds 27 1011 79 10000 2.04 345 23:41 28.10.2021
5669 Clouds 25 1010 90 10000 2.25 17 22:19 28.10.2021
5670 Clouds 24 1008 94 10000 1.54 0 20:54 28.10.2021
5671 Clouds 24 1008 94 10000 1.54 0 19:52 28.10.2021
5672 Clouds 24 1008 94 10000 1.54 0 18:30 28.10.2021
5673 Clouds 25 1009 94 10000 1.54 0 17:19 28.10.2021
5674 Clouds 25 1009 94 10000 1.54 0 16:20 28.10.2021
5675 Haze 25 1010 94 10000 2.57 340 14:39 28.10.2021
5676 Clouds 26 1009 86 10000 5.66 133 13:29 28.10.2021
5677 Haze 25 1009 94 10000 1.54 300 12:44 28.10.2021
5678 Clouds 27 1008 82 10000 7.75 143 10:58 28.10.2021
5679 Clouds 27 1008 80 10000 7.77 151 09:40 28.10.2021
5680 Clouds 28 1007 76 10000 7.7 155 09:22 28.10.2021
5681 Haze 30 1006 70 10000 5.14 160 08:35 28.10.2021
5682 Haze 32 1006 66 10000 7.72 160 07:40 28.10.2021
5683 Clouds 29 1011 79 10000 2.57 140 00:33 28.10.2021
5684 Clouds 25 1010 94 10000 1.54 150 22:31 27.10.2021
5685 Clouds 25 1011 88 10000 2.26 108 21:34 27.10.2021
5686 Clouds 26 1009 94 10000 1.54 120 20:54 27.10.2021
5687 Clouds 26 1009 94 10000 1.54 120 20:34 27.10.2021
5688 Clouds 25 1009 91 10000 2.76 108 19:42 27.10.2021
5689 Clouds 27 1010 89 10000 2.57 130 18:53 27.10.2021
5690 Clouds 27 1011 89 10000 5.14 160 16:38 27.10.2021
5691 Clouds 26 1011 89 10000 4.17 126 16:18 27.10.2021
5692 Clouds 26 1011 89 10000 4.88 131 15:21 27.10.2021
5693 Haze 27 1010 89 10000 5.14 150 12:51 27.10.2021
5694 Haze 28 1009 83 10000 5.14 150 10:58 27.10.2021
5695 Haze 29 1008 79 10000 5.14 150 09:51 27.10.2021
5696 Haze 30 1008 74 10000 5.14 150 08:47 27.10.2021
5697 Clouds 28 1008 78 10000 6.65 151 07:32 27.10.2021
5698 Haze 30 1011 66 10000 1.54 0 02:39 27.10.2021
5699 Haze 28 1011 78 10000 1.54 0 00:57 27.10.2021
5700 Haze 28 1011 78 10000 1.54 0 00:30 27.10.2021
5701 Clouds 26 1012 82 10000 0.7 22 23:43 26.10.2021
5702 Clouds 24 1010 100 10000 2.06 0 22:39 26.10.2021
5703 Clouds 24 1010 100 10000 5.14 140 21:59 26.10.2021
5704 Clouds 26 1010 89 10000 5.14 140 20:40 26.10.2021
5705 Clouds 26 1010 89 10000 5.14 140 19:30 26.10.2021
5706 Clouds 26 1010 89 10000 5.14 140 18:41 26.10.2021
5707 Clouds 26 1011 89 10000 5.14 140 16:42 26.10.2021
5708 Clouds 27 1011 89 10000 5.14 140 14:56 26.10.2021
5709 Clouds 28 1010 89 10000 5.14 130 11:39 26.10.2021
5710 Clouds 28 1009 83 10000 5.14 140 10:20 26.10.2021
5711 Rain 28 1008 75 10000 4.81 163 07:25 26.10.2021
5712 Rain 31 1009 70 10000 9.26 150 06:40 26.10.2021
5713 Haze 25 1011 94 10000 1.54 0 23:51 25.10.2021
5714 Haze 25 1011 94 10000 1.54 0 23:51 25.10.2021
5715 Haze 24 1010 100 10000 1.54 0 22:54 25.10.2021
5716 Haze 24 1010 100 10000 1.54 0 22:19 25.10.2021
5717 Clouds 24 1009 94 10000 1.54 0 21:39 25.10.2021
5718 Clouds 24 1009 100 10000 1.54 0 19:53 25.10.2021
5719 Clouds 24 1009 100 10000 1.54 0 19:25 25.10.2021
5720 Clouds 25 1009 94 10000 1.54 0 18:54 25.10.2021
5721 Clear 26 1009 94 10000 0 0 17:59 25.10.2021
5722 Clouds 26 1010 87 10000 3.72 128 15:45 25.10.2021
5723 Clouds 26 1010 86 10000 3.08 139 14:20 25.10.2021
5724 Clouds 27 1009 89 10000 5.14 150 12:24 25.10.2021
5725 Haze 28 1009 83 10000 6.17 150 10:20 25.10.2021
5726 Clouds 28 1007 78 10000 3.14 180 08:28 25.10.2021
5727 Haze 31 1008 70 10000 6.17 220 05:59 25.10.2021
5728 Haze 29 1010 79 10000 1.54 0 00:53 25.10.2021
5729 Haze 29 1010 79 10000 1.54 0 00:35 25.10.2021
5730 Haze 26 1010 94 10000 1.54 0 23:46 24.10.2021
5731 Haze 24 1009 100 10000 2.06 320 22:42 24.10.2021
5732 Haze 24 1009 100 10000 2.06 320 22:21 24.10.2021
5733 Clouds 24 1009 100 10000 2.06 320 21:38 24.10.2021
5734 Clouds 24 1009 89 10000 1.41 21 20:42 24.10.2021
5735 Clouds 24 1008 90 10000 1.76 8 19:50 24.10.2021
5736 Clouds 25 1008 94 10000 4.12 320 18:47 24.10.2021
5737 Clouds 25 1008 100 10000 4.12 320 17:48 24.10.2021
5738 Clouds 26 1009 94 10000 1.54 0 16:32 24.10.2021
5739 Clouds 26 1009 89 10000 2.05 117 15:24 24.10.2021
5740 Clouds 27 1009 89 10000 6.17 140 13:43 24.10.2021
5741 Clouds 28 1008 83 10000 5.14 150 12:29 24.10.2021
5742 Clouds 28 1008 83 10000 5.66 170 11:37 24.10.2021
5743 Clouds 28 1008 83 10000 5.14 160 10:43 24.10.2021
5744 Haze 30 1007 70 10000 5.14 160 08:50 24.10.2021
5745 Haze 31 1010 66 10000 5.14 240 03:30 24.10.2021
5746 Haze 25 1011 94 10000 1.54 0 23:55 23.10.2021
5747 Haze 24 1010 94 10000 1.54 0 22:54 23.10.2021
5748 Haze 24 1009 100 10000 1.54 0 20:59 23.10.2021
5749 Haze 24 1009 100 10000 1.54 0 19:36 23.10.2021
5750 Haze 25 1010 94 10000 1.54 0 18:44 23.10.2021
5751 Haze 25 1010 94 10000 1.54 0 17:45 23.10.2021
5752 Clouds 25 1010 87 10000 1.87 87 17:18 23.10.2021
5753 Haze 25 1012 94 10000 5.14 160 15:56 23.10.2021
5754 Clouds 25 1012 84 10000 3.65 126 13:31 23.10.2021
5755 Clouds 28 1013 65 10000 1.35 208 00:42 23.10.2021
5756 Haze 26 1012 89 10000 2.57 330 23:35 22.10.2021
5757 Clouds 24 1011 86 10000 1.79 40 21:27 22.10.2021
5758 Clouds 25 1010 84 10000 1.62 12 19:24 22.10.2021
5759 Clouds 25 1010 94 10000 2.57 330 18:21 22.10.2021
5760 Clouds 25 1011 84 10000 3.33 120 16:18 22.10.2021
5761 Clouds 26 1012 83 10000 4.07 128 14:31 22.10.2021
5762 Haze 28 1010 78 10000 5.14 180 12:41 22.10.2021
5763 Haze 28 1010 78 10000 5.14 180 12:41 22.10.2021
5764 Haze 28 1010 78 10000 5.14 160 10:52 22.10.2021
5765 Haze 28 1009 78 10000 7.72 160 09:57 22.10.2021
5766 Haze 28 1009 78 10000 7.72 160 09:57 22.10.2021
5767 Haze 28 1009 78 10000 7.72 160 09:32 22.10.2021
5768 Smoke 31 1009 66 10000 7.72 200 07:28 22.10.2021
5769 Clouds 29 1009 70 10000 4.06 205 06:19 22.10.2021
5770 Haze 26 1012 83 10000 1.54 0 00:31 22.10.2021
5771 Haze 25 1011 88 10000 1.54 0 23:48 21.10.2021
5772 Clouds 23 1010 94 10000 2.57 320 22:22 21.10.2021
5773 Clouds 24 1011 88 10000 1.46 70 21:18 21.10.2021
5774 Clouds 24 1009 94 10000 1.54 0 20:21 21.10.2021
5775 Clouds 25 1010 90 10000 1.02 42 19:30 21.10.2021
5776 Clouds 25 1009 91 10000 1.36 18 18:52 21.10.2021
5777 Clouds 25 1009 90 10000 1.68 4 18:27 21.10.2021
5778 Clouds 24 1010 94 10000 1.54 0 17:42 21.10.2021
5779 Clouds 25 1010 88 10000 2.06 20 16:20 21.10.2021
5780 Clouds 26 1010 83 10000 2.06 50 15:21 21.10.2021
5781 Clouds 25 1011 86 10000 1.53 96 14:49 21.10.2021
5782 Clouds 27 1010 89 10000 3.09 140 13:26 21.10.2021
5783 Haze 28 1008 78 10000 5.14 160 11:35 21.10.2021
5784 Haze 29 1008 79 10000 7.72 140 09:23 21.10.2021
5785 Haze 31 1008 70 10000 7.72 150 07:31 21.10.2021
5786 Haze 31 1009 70 10000 7.72 170 05:33 21.10.2021
5787 Haze 26 1010 89 10000 1.54 0 23:45 20.10.2021
5788 Haze 24 1009 94 10000 1.54 0 22:21 20.10.2021
5789 Clouds 25 1009 94 10000 1.54 0 21:43 20.10.2021
5790 Clouds 24 1008 100 10000 1.54 0 20:56 20.10.2021
5791 Clouds 24 1008 100 10000 1.54 0 20:36 20.10.2021
5792 Clouds 25 1008 94 10000 1.54 0 19:59 20.10.2021
5793 Clouds 26 1009 89 10000 1.54 0 18:59 20.10.2021
5794 Clouds 26 1009 94 10000 3.09 120 17:54 20.10.2021
5795 Clouds 26 1010 94 10000 1.54 170 15:47 20.10.2021
5796 Clouds 28 1010 83 10000 2.57 130 12:33 20.10.2021
5797 Clouds 28 1009 78 10000 2.44 178 09:19 20.10.2021
5798 Clouds 29 1010 72 10000 3.78 224 05:23 20.10.2021
5799 Haze 27 1012 78 10000 2.57 340 00:48 20.10.2021
5800 Haze 27 1012 78 10000 2.57 340 00:48 20.10.2021
5801 Haze 27 1012 78 10000 2.57 340 00:22 20.10.2021
5802 Clouds 23 1010 100 10000 2.06 0 21:45 19.10.2021
5803 Clouds 23 1009 100 10000 2.57 340 20:56 19.10.2021
5804 Clouds 23 1009 100 10000 2.57 340 20:25 19.10.2021
5805 Clouds 23 1009 100 10000 2.57 0 19:44 19.10.2021
5806 Clear 25 1009 90 10000 1.39 58 19:20 19.10.2021
5807 Clouds 25 1011 83 10000 1.03 0 17:59 19.10.2021
5808 Clouds 27 1011 89 10000 5.14 110 15:57 19.10.2021
5809 Clouds 27 1011 89 10000 5.14 110 15:20 19.10.2021
5810 Clouds 28 1011 83 10000 5.14 140 14:27 19.10.2021
5811 Clouds 28 1011 83 10000 5.14 140 13:35 19.10.2021
5812 Clouds 28 1010 83 10000 5.14 160 11:37 19.10.2021
5813 Clouds 29 1009 84 10000 5.14 160 10:36 19.10.2021
5814 Haze 31 1008 70 10000 7.72 160 08:58 19.10.2021
5815 Clouds 29 1009 76 10000 3.51 178 07:20 19.10.2021
5816 Clouds 27 1014 78 10000 1.03 119 00:26 19.10.2021
5817 Clouds 25 1013 94 10000 1.54 0 23:50 18.10.2021
5818 Clouds 26 1013 82 10000 1.13 107 23:20 18.10.2021
5819 Clouds 24 1012 94 10000 2.06 310 22:53 18.10.2021
5820 Clouds 24 1012 94 10000 1.54 0 21:44 18.10.2021
5821 Clouds 25 1011 94 10000 1.54 0 20:42 18.10.2021
5822 Clouds 25 1011 94 10000 1.54 0 20:18 18.10.2021
5823 Clouds 24 1011 100 10000 2.06 340 19:30 18.10.2021
5824 Clouds 25 1011 94 10000 2.57 300 18:57 18.10.2021
5825 Clouds 25 1013 94 10000 1.54 0 15:45 18.10.2021
5826 Clouds 25 1013 94 10000 1.54 0 14:26 18.10.2021
5827 Haze 27 1011 78 10000 5.14 320 10:43 18.10.2021
5828 Haze 29 1010 74 10000 5.14 300 09:31 18.10.2021
5829 Haze 31 1010 70 10000 7.72 220 05:32 18.10.2021
5830 Clouds 26 1012 89 10000 2.57 360 23:37 17.10.2021
5831 Clouds 25 1011 94 10000 2.57 340 21:55 17.10.2021
5832 Clouds 25 1011 89 10000 1.21 19 21:18 17.10.2021
5833 Clouds 25 1010 94 10000 2.57 300 20:38 17.10.2021
5834 Clouds 25 1010 94 10000 4.12 350 19:42 17.10.2021
5835 Clouds 25 1010 94 10000 4.12 350 19:23 17.10.2021
5836 Clouds 25 1010 94 10000 4.12 350 17:34 17.10.2021
5837 Clouds 26 1011 89 10000 3.09 340 15:46 17.10.2021
5838 Clouds 27 1011 83 10000 3.6 20 14:26 17.10.2021
5839 Haze 28 1011 89 10000 1.03 0 13:56 17.10.2021
5840 Haze 28 1009 83 10000 4.12 160 11:58 17.10.2021
5841 Haze 29 1009 79 10000 5.14 150 10:43 17.10.2021
5842 Haze 29 1008 79 10000 7.72 180 09:41 17.10.2021
5843 Haze 32 1007 66 10000 7.72 200 07:19 17.10.2021
5844 Clouds 28 1011 83 10000 3.09 20 00:55 17.10.2021
5845 Clouds 28 1011 83 10000 3.09 20 00:23 17.10.2021
5846 Clouds 25 1008 94 10000 2.57 310 21:52 16.10.2021
5847 Clouds 25 1008 94 10000 2.57 320 20:32 16.10.2021
5848 Clouds 24 1008 94 10000 1.91 355 19:46 16.10.2021
5849 Clouds 24 1008 93 10000 1.78 359 19:23 16.10.2021
5850 Clouds 25 1008 94 10000 2.57 340 18:56 16.10.2021
5851 Clouds 25 1008 94 10000 2.57 340 18:38 16.10.2021
5852 Clouds 25 1008 94 10000 2.57 340 18:38 16.10.2021
5853 Clouds 25 1008 94 10000 2.57 340 18:18 16.10.2021
5854 Clouds 24 1008 92 10000 1.74 73 17:25 16.10.2021
5855 Clouds 26 1009 89 10000 5.14 150 15:25 16.10.2021
5856 Clouds 25 1009 91 10000 4.74 128 12:26 16.10.2021
5857 Haze 28 1008 83 10000 5.14 160 10:47 16.10.2021
5858 Haze 30 1006 74 10000 5.14 170 08:23 16.10.2021
5859 Clouds 29 1011 65 10000 5.14 140 01:25 16.10.2021
5860 Clouds 29 1011 65 10000 5.14 140 01:25 16.10.2021
5861 Clouds 24 1010 94 10000 1.54 0 23:55 15.10.2021
5862 Clouds 24 1010 94 10000 1.54 0 23:24 15.10.2021
5863 Clouds 23 1009 94 10000 1.54 0 22:19 15.10.2021
5864 Clouds 24 1009 88 10000 1.54 0 21:26 15.10.2021
5865 Clouds 24 1008 88 10000 1.54 0 20:47 15.10.2021
5866 Clouds 24 1009 88 10000 1.54 0 19:31 15.10.2021
5867 Rain 24 1009 94 10000 3.09 330 18:40 15.10.2021
5868 Clouds 24 1010 94 10000 1.54 0 16:29 15.10.2021
5869 Clouds 25 1011 83 10000 1.54 0 15:36 15.10.2021
5870 Rain 25 1011 83 10000 1.54 0 13:29 15.10.2021
5871 Rain 26 1011 89 10000 1.54 0 11:36 15.10.2021
5872 Rain 24 1012 90 10000 2.34 349 10:57 15.10.2021
5873 Rain 28 1009 74 10000 2.06 180 09:49 15.10.2021
5874 Rain 30 1009 70 10000 5.14 230 05:32 15.10.2021
5875 Rain 26 1013 89 10000 5.14 340 01:47 15.10.2021
5876 Rain 26 1012 89 10000 5.14 340 00:22 15.10.2021
5877 Clouds 24 1010 100 10000 2.57 350 22:52 14.10.2021
5878 Clouds 25 1010 83 10000 3.4 355 21:44 14.10.2021
5879 Clouds 25 1010 81 10000 2.99 2 20:49 14.10.2021
5880 Clouds 25 1009 83 10000 3.09 0 20:19 14.10.2021
5881 Clouds 24 1008 100 10000 4.12 330 19:35 14.10.2021
5882 Clouds 24 1009 100 10000 3.6 340 17:31 14.10.2021
5883 Clouds 25 1009 94 10000 3.09 340 16:49 14.10.2021
5884 Clouds 25 1009 94 10000 1.54 330 15:44 14.10.2021
5885 Clouds 25 1009 94 10000 1.03 50 14:43 14.10.2021
5886 Clouds 25 1009 94 10000 1.03 50 14:21 14.10.2021
5887 Clouds 26 1008 88 10000 2.19 105 11:44 14.10.2021
5888 Rain 24 1008 100 3000 1.54 0 09:55 14.10.2021
5889 Clouds 27 1007 80 10000 1.58 259 06:56 14.10.2021
5890 Clouds 26 1010 86 10000 2.43 356 00:59 14.10.2021
5891 Clouds 25 1010 88 10000 2.32 349 00:25 14.10.2021
5892 Clouds 25 1007 94 10000 1.54 0 21:58 13.10.2021
5893 Clouds 25 1007 94 10000 1.54 0 21:32 13.10.2021
5894 Clouds 24 1007 100 10000 1.54 0 19:59 13.10.2021
5895 Clouds 25 1007 91 10000 2.5 113 18:54 13.10.2021
5896 Clouds 25 1007 91 10000 2.5 113 18:34 13.10.2021
5897 Clouds 25 1008 91 10000 3.07 122 15:32 13.10.2021
5898 Clouds 27 1008 83 10000 1.54 150 14:45 13.10.2021
5899 Clouds 27 1008 83 10000 1.54 150 14:21 13.10.2021
5900 Clouds 26 1009 91 10000 3.69 134 12:22 13.10.2021
5901 Clouds 28 1008 83 10000 5.14 160 11:34 13.10.2021
5902 Clouds 27 1006 83 10000 4.89 162 08:41 13.10.2021
5903 Clouds 32 1006 62 10000 7.72 210 06:42 13.10.2021
5904 Clouds 31 1009 66 10000 3.09 160 02:27 13.10.2021
5905 Clouds 29 1009 74 10000 2.06 0 01:37 13.10.2021
5906 Clouds 25 1009 88 10000 1.54 0 23:29 12.10.2021
5907 Clouds 24 1008 94 10000 2.06 0 22:45 12.10.2021
5908 Clouds 24 1007 94 10000 2.57 0 21:30 12.10.2021
5909 Clouds 24 1007 94 10000 1.54 0 20:34 12.10.2021
5910 Clouds 24 1007 94 10000 1.54 0 20:34 12.10.2021
5911 Clouds 24 1008 100 10000 2.57 70 19:57 12.10.2021
5912 Clouds 24 1008 100 10000 2.57 320 18:28 12.10.2021
5913 Clouds 25 1008 94 10000 3.6 340 17:44 12.10.2021
5914 Clouds 26 1009 94 10000 2.57 350 16:39 12.10.2021
5915 Clouds 25 1009 91 10000 1.96 110 15:46 12.10.2021
5916 Clouds 26 1008 94 10000 3.09 120 14:38 12.10.2021
5917 Clouds 25 1010 90 10000 1.94 155 13:42 12.10.2021
5918 Clouds 26 1008 94 10000 5.14 330 11:37 12.10.2021
5919 Haze 27 1007 83 10000 3.09 140 09:41 12.10.2021
5920 Clouds 29 1007 79 10000 6.17 130 08:42 12.10.2021
5921 Haze 29 1007 79 10000 5.14 220 06:56 12.10.2021
5922 Haze 29 1007 79 10000 5.14 230 05:29 12.10.2021
5923 Clouds 30 1008 70 10000 2.06 0 04:31 12.10.2021
5924 Haze 26 1010 89 10000 2.06 0 00:27 12.10.2021
5925 Haze 25 1009 94 10000 1.54 0 23:39 11.10.2021
5926 Clouds 24 1008 100 10000 2.06 0 22:56 11.10.2021
5927 Clouds 25 1008 87 10000 0.55 111 21:43 11.10.2021
5928 Rain 24 1007 100 10000 1.54 0 20:32 11.10.2021
5929 Rain 24 1007 100 10000 1.54 0 19:38 11.10.2021
5930 Clouds 25 1007 94 10000 1.54 0 18:24 11.10.2021
5931 Clouds 25 1008 100 10000 1.54 0 16:49 11.10.2021
5932 Clouds 25 1008 100 10000 1.54 0 16:31 11.10.2021
5933 Drizzle 25 1009 100 10000 1.54 0 15:46 11.10.2021
5934 Clouds 25 1009 94 10000 1.54 0 14:54 11.10.2021
5935 Clouds 25 1009 94 10000 1.54 0 14:22 11.10.2021
5936 Clouds 24 1010 89 10000 2.93 112 13:36 11.10.2021
5937 Clouds 25 1008 94 5000 2.57 0 11:37 11.10.2021
5938 Rain 28 1006 83 10000 5.14 130 09:55 11.10.2021
5939 Clouds 29 1005 79 10000 4.63 220 08:41 11.10.2021
5940 Clouds 29 1008 74 10000 7.72 340 03:49 11.10.2021
5941 Clouds 27 1010 75 10000 5.42 316 01:36 11.10.2021
5942 Clouds 25 1009 94 10000 2.57 320 00:44 11.10.2021
5943 Clouds 24 1008 100 10000 2.57 320 23:52 10.10.2021
5944 Clouds 24 1007 100 10000 1.54 0 21:51 10.10.2021
5945 Clouds 24 1007 100 10000 1.54 0 21:51 10.10.2021
5946 Clouds 24 1007 92 10000 1.57 97 21:28 10.10.2021
5947 Clouds 24 1007 100 10000 1.54 0 20:41 10.10.2021
5948 Clouds 24 1006 91 10000 2.59 120 20:20 10.10.2021
5949 Clouds 24 1006 100 10000 1.54 0 19:51 10.10.2021
5950 Clouds 24 1006 91 10000 2.59 120 19:31 10.10.2021
5951 Clouds 24 1006 91 10000 2.98 130 18:24 10.10.2021
5952 Rain 24 1008 100 10000 2.57 350 15:54 10.10.2021
5953 Clouds 24 1008 100 10000 2.57 350 15:36 10.10.2021
5954 Clouds 25 1008 94 10000 5.14 330 13:42 10.10.2021
5955 Clouds 26 1007 89 10000 5.14 120 12:44 10.10.2021
5956 Rain 25 1008 91 9240 4.91 125 12:22 10.10.2021
5957 Haze 27 1005 83 10000 5.14 150 10:33 10.10.2021
5958 Haze 27 1005 83 10000 7.72 150 09:22 10.10.2021
5959 Haze 28 1005 83 10000 5.14 150 08:51 10.10.2021
5960 Haze 30 1005 74 10000 5.14 150 06:19 10.10.2021
5961 Haze 30 1009 70 10000 2.57 140 02:20 10.10.2021
5962 Haze 28 1009 78 10000 2.06 0 00:52 10.10.2021
5963 Haze 26 1008 89 10000 2.06 0 23:46 09.10.2021
5964 Clouds 24 1007 89 10000 3.92 110 22:20 09.10.2021
5965 Clouds 25 1008 94 10000 2.06 0 21:30 09.10.2021
5966 Clouds 24 1007 89 10000 4.44 116 20:42 09.10.2021
5967 Clouds 24 1006 90 10000 4.38 118 19:41 09.10.2021
5968 Clouds 25 1006 91 10000 4.58 121 18:48 09.10.2021
5969 Clouds 25 1006 91 10000 4.89 123 18:27 09.10.2021
5970 Clouds 25 1008 94 10000 2.06 0 16:21 09.10.2021
5971 Clouds 25 1008 94 10000 2.57 350 14:37 09.10.2021
5972 Rain 25 1008 94 10000 5.14 340 13:39 09.10.2021
5973 Haze 26 1008 83 10000 5.14 340 12:28 09.10.2021
5974 Haze 28 1007 83 10000 2.57 170 10:47 09.10.2021
5975 Clouds 26 1006 87 10000 7.9 143 10:19 09.10.2021
5976 Clouds 26 1006 87 10000 8.45 145 09:23 09.10.2021
5977 Haze 31 1005 70 10000 7.72 140 08:20 09.10.2021
5978 Haze 32 1006 66 10000 7.72 150 06:37 09.10.2021
5979 Haze 32 1008 66 10000 5.14 220 04:43 09.10.2021
5980 Haze 31 1009 100 10000 2.57 150 02:46 09.10.2021
5981 Clouds 26 1010 83 10000 1.41 135 00:24 09.10.2021
5982 Clouds 25 1009 94 10000 1.54 0 23:31 08.10.2021
5983 Haze 24 1008 100 10000 2.57 310 22:46 08.10.2021
5984 Clouds 24 1008 91 10000 1.03 98 21:44 08.10.2021
5985 Clouds 25 1007 91 10000 1.21 98 20:27 08.10.2021
5986 Clouds 24 1008 100 10000 2.57 340 18:23 08.10.2021
5987 Clouds 25 1008 90 10000 2.08 109 16:55 08.10.2021
5988 Clouds 25 1008 91 10000 2.7 114 16:25 08.10.2021
5989 Clouds 26 1009 94 10000 1.54 0 14:57 08.10.2021
5990 Clouds 26 1009 94 10000 1.54 0 13:46 08.10.2021
5991 Rain 26 1008 87 10000 6.5 137 11:42 08.10.2021
5992 Clouds 27 1007 94 10000 4.12 150 10:42 08.10.2021
5993 Haze 27 1008 89 10000 5.14 140 09:47 08.10.2021
5994 Haze 31 1009 70 10000 5.14 210 03:38 08.10.2021
5995 Clouds 25 1010 90 10000 0.7 154 23:24 07.10.2021
5996 Clouds 25 1008 94 10000 1.54 0 22:35 07.10.2021
5997 Clouds 25 1007 94 10000 1.54 0 21:28 07.10.2021
5998 Clouds 25 1007 94 10000 1.54 0 21:28 07.10.2021
5999 Clouds 25 1007 94 10000 1.54 0 20:39 07.10.2021
6000 Clouds 25 1007 94 10000 1.54 0 19:32 07.10.2021
6001 Clouds 25 1007 94 10000 2.57 0 18:41 07.10.2021
6002 Clouds 26 1007 94 10000 1.54 0 17:32 07.10.2021
6003 Clouds 25 1009 92 10000 3.49 125 16:25 07.10.2021
6004 Clouds 26 1009 94 10000 1.54 0 14:48 07.10.2021
6005 Rain 26 1009 94 10000 2.57 0 13:43 07.10.2021
6006 Rain 27 1008 89 10000 2.57 0 12:53 07.10.2021
6007 Haze 28 1007 83 10000 5.14 160 10:58 07.10.2021
6008 Rain 28 1007 83 10000 5.14 160 10:22 07.10.2021
6009 Haze 28 1006 83 10000 5.14 160 09:42 07.10.2021
6010 Haze 29 1005 79 10000 7.72 160 08:53 07.10.2021
6011 Haze 30 1005 74 10000 5.14 140 07:57 07.10.2021
6012 Haze 30 1005 74 10000 5.14 140 07:37 07.10.2021
6013 Haze 31 1007 70 10000 5.14 200 04:24 07.10.2021
6014 Clouds 26 1010 83 10000 0.68 274 00:29 07.10.2021
6015 Haze 26 1007 94 10000 2.06 0 22:59 06.10.2021
6016 Haze 26 1007 94 10000 2.06 0 22:24 06.10.2021
6017 Clouds 26 1006 94 10000 1.54 0 20:51 06.10.2021
6018 Clouds 26 1006 94 10000 1.54 0 20:26 06.10.2021
6019 Clouds 26 1006 89 10000 1.54 0 18:43 06.10.2021
6020 Clouds 26 1007 89 10000 2.57 150 16:58 06.10.2021
6021 Clouds 26 1007 89 10000 1.54 0 15:33 06.10.2021
6022 Clouds 27 1007 83 10000 4.12 170 14:30 06.10.2021
6023 Clouds 25 1007 90 10000 5.66 138 13:23 06.10.2021
6024 Clouds 27 1006 83 10000 7.72 150 12:44 06.10.2021
6025 Clouds 26 1007 89 10000 6.29 138 12:22 06.10.2021
6026 Clouds 28 1005 83 10000 7.72 140 10:23 06.10.2021
6027 Haze 29 1004 79 10000 10.29 140 09:39 06.10.2021
6028 Clouds 27 1005 80 10000 7.57 156 08:52 06.10.2021
6029 Haze 30 1004 74 10000 10.29 140 07:50 06.10.2021
6030 Haze 30 1005 70 10000 5.14 130 05:27 06.10.2021
6031 Haze 30 1005 70 10000 5.14 130 05:27 06.10.2021
6032 Haze 30 1008 66 10000 2.06 0 01:23 06.10.2021
6033 Haze 28 1008 74 10000 1.54 0 00:18 06.10.2021
6034 Haze 26 1008 89 10000 1.54 0 23:45 05.10.2021
6035 Haze 26 1008 89 10000 1.54 0 23:27 05.10.2021
6036 Clouds 25 1007 94 10000 2.06 0 22:28 05.10.2021
6037 Clouds 25 1006 88 10000 1.54 0 21:50 05.10.2021
6038 Clouds 24 1007 89 10000 2.43 100 20:48 05.10.2021
6039 Clouds 24 1007 89 10000 2.83 105 20:24 05.10.2021
6040 Clouds 24 1007 89 10000 2.83 105 19:47 05.10.2021
6041 Clouds 25 1006 88 10000 5.14 140 18:57 05.10.2021
6042 Clouds 24 1007 88 10000 3.64 118 16:49 05.10.2021
6043 Clouds 26 1008 89 10000 5.14 150 14:38 05.10.2021
6044 Clouds 24 1009 86 10000 5.62 131 13:42 05.10.2021
6045 Clouds 25 1009 84 10000 6.03 134 12:48 05.10.2021
6046 Clouds 25 1008 83 10000 6.72 138 12:18 05.10.2021
6047 Clouds 25 1008 82 10000 7.29 146 11:19 05.10.2021
6048 Haze 29 1005 74 10000 5.14 150 09:26 05.10.2021
6049 Haze 31 1007 70 10000 5.14 160 04:47 05.10.2021
6050 Clouds 26 1008 89 10000 1.54 0 23:53 04.10.2021
6051 Clouds 26 1007 89 10000 1.54 0 22:38 04.10.2021
6052 Clouds 24 1006 89 10000 2.89 119 19:59 04.10.2021
6053 Clouds 26 1006 89 10000 5.14 160 18:34 04.10.2021
6054 Clouds 26 1006 89 10000 5.14 160 18:34 04.10.2021
6055 Clear 26 1008 89 10000 5.14 150 16:24 04.10.2021
6056 Clouds 26 1008 89 10000 5.14 160 15:31 04.10.2021
6057 Clouds 26 1008 89 10000 5.14 170 14:42 04.10.2021
6058 Clouds 27 1008 83 10000 5.14 160 13:57 04.10.2021
6059 Clouds 27 1008 83 10000 5.14 160 13:24 04.10.2021
6060 Clouds 27 1007 83 10000 5.14 170 12:27 04.10.2021
6061 Haze 27 1007 83 10000 5.14 160 11:31 04.10.2021
6062 Clouds 26 1006 88 10000 5.35 152 10:18 04.10.2021
6063 Clouds 28 1005 78 10000 7.72 180 08:41 04.10.2021
6064 Clouds 29 1005 74 10000 7.72 190 07:26 04.10.2021
6065 Clouds 27 1009 83 10000 1.54 0 00:33 04.10.2021
6066 Clouds 25 1008 94 10000 1.54 0 22:35 03.10.2021
6067 Clouds 25 1007 100 10000 1.54 0 21:39 03.10.2021
6068 Clouds 24 1007 90 10000 2.08 111 21:19 03.10.2021
6069 Clouds 25 1007 94 10000 1.54 150 19:58 03.10.2021
6070 Clouds 25 1007 94 10000 2.57 140 18:56 03.10.2021
6071 Clouds 25 1007 94 10000 2.57 140 18:27 03.10.2021
6072 Clouds 25 1008 100 10000 1.54 0 16:34 03.10.2021
6073 Clouds 25 1010 90 10000 1.3 101 14:46 03.10.2021
6074 Clouds 26 1009 94 10000 2.06 0 13:58 03.10.2021
6075 Clouds 26 1009 94 10000 2.06 0 13:22 03.10.2021
6076 Clouds 25 1009 90 10000 2.19 142 12:29 03.10.2021
6077 Clouds 27 1007 94 10000 1.54 0 10:37 03.10.2021
6078 Clouds 27 1006 89 10000 5.14 80 08:36 03.10.2021
6079 Clouds 28 1010 78 10000 2.57 330 01:44 03.10.2021
6080 Clouds 25 1009 89 10000 0.81 63 22:40 02.10.2021
6081 Clouds 26 1006 94 10000 1.54 0 20:56 02.10.2021
6082 Clouds 26 1006 94 10000 1.54 0 19:42 02.10.2021
6083 Clouds 26 1006 94 10000 1.54 0 18:51 02.10.2021
6084 Clouds 26 1006 94 10000 1.54 0 17:41 02.10.2021
6085 Clouds 25 1007 92 10000 2.97 132 17:19 02.10.2021
6086 Clouds 26 1008 94 10000 2.57 100 14:49 02.10.2021
6087 Haze 26 1009 89 10000 3.6 140 15:49 30.09.2021
6088 Clouds 25 1010 93 10000 5.1 134 14:48 30.09.2021
6089 Haze 27 1009 83 10000 7.2 150 12:36 30.09.2021
6090 Rain 25 1009 92 10000 5.93 136 11:34 30.09.2021
6091 Haze 28 1007 78 10000 12.86 150 10:40 30.09.2021
6092 Rain 26 1007 88 10000 7.06 151 08:56 30.09.2021
6093 Clouds 27 1007 85 10000 6.74 151 08:27 30.09.2021
6094 Haze 31 1006 70 10000 7.72 160 06:41 30.09.2021
6095 Clouds 28 1008 82 10000 4.94 158 04:36 30.09.2021
6096 Clouds 26 1011 85 10000 0.57 132 00:40 30.09.2021
6097 Rain 26 1010 94 10000 4.12 160 23:29 29.09.2021
6098 Rain 25 1009 83 10000 2.06 0 21:55 29.09.2021
6099 Rain 24 1009 94 10000 1.85 115 20:57 29.09.2021
6100 Rain 25 1008 93 10000 1.07 94 20:22 29.09.2021
6101 Clouds 24 1008 94 10000 2.45 96 19:28 29.09.2021
6102 Clouds 25 1008 94 10000 3.22 128 18:19 29.09.2021
6103 Clouds 26 1009 89 10000 5.14 170 16:56 29.09.2021
6104 Clouds 26 1009 89 10000 5.14 170 16:29 29.09.2021
6105 Clouds 25 1009 93 10000 4.47 129 15:35 29.09.2021
6106 Clouds 25 1010 92 10000 4.65 141 14:38 29.09.2021
6107 Clouds 27 1009 83 10000 7.72 150 13:33 29.09.2021
6108 Clouds 27 1009 83 10000 10.29 150 12:40 29.09.2021
6109 Rain 26 1008 90 10000 6.26 132 11:23 29.09.2021
6110 Haze 28 1008 78 10000 10.29 150 10:31 29.09.2021
6111 Haze 29 1008 74 10000 10.29 160 09:42 29.09.2021
6112 Clouds 31 1006 70 10000 5.14 150 07:52 29.09.2021
6113 Clouds 32 1007 66 10000 2.57 140 06:46 29.09.2021
6114 Clouds 27 1011 83 10000 2.57 0 00:28 29.09.2021
6115 Fog 24 1009 100 10000 1.54 0 22:45 28.09.2021
6116 Clouds 24 1010 92 10000 1.15 101 22:22 28.09.2021
6117 Fog 24 1009 100 10000 1.54 0 21:21 28.09.2021
6118 Rain 25 1008 94 10000 1.54 0 19:49 28.09.2021
6119 Clouds 25 1008 94 10000 1.54 0 19:29 28.09.2021
6120 Clouds 25 1009 94 10000 1.54 0 18:41 28.09.2021
6121 Clouds 25 1010 94 10000 3.09 130 16:57 28.09.2021
6122 Clouds 25 1010 94 10000 1.54 0 15:21 28.09.2021
6123 Clouds 25 1010 94 10000 1.54 0 13:27 28.09.2021
6124 Clouds 25 1008 90 10000 6.15 137 12:24 28.09.2021
6125 Clouds 26 1010 89 10000 5.14 310 11:48 28.09.2021
6126 Rain 26 1010 89 10000 5.14 310 11:27 28.09.2021
6127 Haze 26 1009 89 10000 5.14 330 10:27 28.09.2021
6128 Haze 28 1008 83 10000 7.72 150 09:29 28.09.2021
6129 Haze 29 1006 74 10000 5.14 170 08:43 28.09.2021
6130 Clouds 27 1006 81 10000 8.81 151 08:18 28.09.2021
6131 Haze 31 1006 70 10000 5.14 160 06:46 28.09.2021
6132 Haze 27 1011 83 10000 2.57 130 01:38 28.09.2021
6133 Haze 27 1010 83 10000 2.57 100 00:32 28.09.2021
6134 Clouds 26 1009 89 10000 1.54 0 23:49 27.09.2021
6135 Clouds 26 1009 89 10000 1.54 0 23:24 27.09.2021
6136 Clouds 25 1009 94 10000 2.57 0 22:21 27.09.2021
6137 Clouds 24 1008 91 10000 4.33 119 20:54 27.09.2021
6138 Clouds 24 1008 92 10000 4.89 124 20:26 27.09.2021
6139 Clouds 24 1008 92 10000 4.49 121 19:37 27.09.2021
6140 Clouds 26 1007 89 10000 5.14 140 18:52 27.09.2021
6141 Clouds 26 1009 89 10000 6.69 150 17:37 27.09.2021
6142 Clouds 26 1009 83 10000 5.14 130 16:56 27.09.2021
6143 Clouds 26 1009 83 10000 5.14 130 16:33 27.09.2021
6144 Haze 27 1009 83 10000 6.69 150 15:36 27.09.2021
6145 Haze 27 1009 83 10000 5.14 150 13:44 27.09.2021
6146 Haze 27 1008 78 10000 5.14 140 12:22 27.09.2021
6147 Haze 29 1006 74 10000 7.72 160 10:48 27.09.2021
6148 Haze 29 1006 74 10000 7.72 160 09:40 27.09.2021
6149 Clouds 31 1006 70 10000 5.14 170 07:44 27.09.2021
6150 Haze 31 1009 66 10000 5.14 160 03:31 27.09.2021
6151 Haze 26 1009 89 10000 2.06 0 23:42 26.09.2021
6152 Clouds 24 1008 100 10000 2.57 160 21:55 26.09.2021
6153 Clouds 24 1008 100 10000 2.57 160 21:27 26.09.2021
6154 Clouds 25 1007 94 10000 5.14 140 20:25 26.09.2021
6155 Clouds 24 1008 92 10000 2.85 107 19:54 26.09.2021
6156 Clouds 24 1007 93 10000 3.51 114 19:25 26.09.2021
6157 Clouds 24 1007 93 10000 3.51 114 19:25 26.09.2021
6158 Clouds 24 1007 93 10000 3.51 114 19:25 26.09.2021
6159 Clouds 24 1007 93 10000 3.51 114 19:25 26.09.2021
6160 Clouds 24 1007 93 10000 3.51 114 19:25 26.09.2021
6161 Clouds 24 1007 93 10000 3.51 114 19:25 26.09.2021
6162 Clouds 25 1008 94 10000 5.14 140 18:41 26.09.2021
6163 Clouds 26 1008 89 10000 5.14 170 17:38 26.09.2021
6164 Clouds 25 1008 93 10000 4.46 129 17:18 26.09.2021
6165 Clouds 26 1008 89 10000 4.12 170 16:22 26.09.2021
6166 Clouds 26 1009 89 10000 4.12 150 15:22 26.09.2021
6167 Clouds 25 1009 91 10000 4.8 133 14:18 26.09.2021
6168 Clouds 26 1009 83 10000 3.09 150 13:42 26.09.2021
6169 Rain 25 1008 90 10000 5.39 129 12:26 26.09.2021
6170 Rain 27 1007 83 10000 5.14 140 11:53 26.09.2021
6171 Rain 27 1008 89 10000 7.72 150 10:59 26.09.2021
6172 Clouds 28 1007 83 10000 7.72 150 09:38 26.09.2021
6173 Rain 26 1007 88 10000 7.67 146 08:31 26.09.2021
6174 Clouds 26 1009 89 10000 1.54 0 00:29 26.09.2021
6175 Clouds 25 1010 94 10000 1.54 0 23:43 25.09.2021
6176 Clouds 25 1010 94 10000 1.54 0 23:43 25.09.2021
6177 Clouds 24 1010 100 10000 1.54 0 22:39 25.09.2021
6178 Clouds 24 1009 100 10000 1.54 0 22:18 25.09.2021
6179 Clouds 24 1009 100 10000 1.54 0 22:18 25.09.2021
6180 Clouds 24 1009 92 10000 2.29 114 21:40 25.09.2021
6181 Clouds 24 1008 93 10000 2.8 121 20:52 25.09.2021
6182 Clouds 25 1008 94 10000 2.57 320 19:33 25.09.2021
6183 Clouds 25 1008 94 10000 2.57 0 18:28 25.09.2021
6184 Clouds 25 1009 93 10000 4.36 125 17:21 25.09.2021
6185 Rain 25 1010 88 10000 2.57 340 14:30 25.09.2021
6186 Rain 24 1010 94 10000 5.14 320 13:54 25.09.2021
6187 Clouds 24 1009 94 10000 5.14 320 12:37 25.09.2021
6188 Clouds 27 1008 89 10000 5.14 160 10:42 25.09.2021
6189 Rain 26 1008 88 10000 7.05 149 09:59 25.09.2021
6190 Rain 27 1007 84 10000 6.38 154 08:52 25.09.2021
6191 Haze 31 1008 70 10000 5.14 160 07:46 25.09.2021
6192 Clouds 26 1010 83 10000 2.06 350 00:50 25.09.2021
6193 Clouds 26 1010 83 10000 2.06 350 00:50 25.09.2021
6194 Clouds 25 1009 94 10000 1.54 0 21:58 24.09.2021
6195 Clouds 25 1009 94 10000 1.54 0 21:25 24.09.2021
6196 Clouds 25 1009 94 10000 1.54 0 20:31 24.09.2021
6197 Clouds 25 1009 94 10000 1.54 0 18:36 24.09.2021
6198 Clouds 26 1009 89 10000 3.6 150 17:56 24.09.2021
6199 Clouds 26 1009 89 10000 3.6 150 17:38 24.09.2021
6200 Clouds 24 1009 92 10000 2.72 116 17:19 24.09.2021
6201 Haze 26 1010 89 10000 4.63 150 15:38 24.09.2021
6202 Clouds 25 1010 90 10000 5.77 132 13:20 24.09.2021
6203 Haze 27 1010 78 10000 4.63 160 12:41 24.09.2021
6204 Haze 27 1010 78 10000 4.63 160 12:23 24.09.2021
6205 Haze 28 1008 78 10000 6.17 160 10:28 24.09.2021
6206 Clouds 26 1008 83 10000 7.62 153 08:59 24.09.2021
6207 Clouds 27 1008 81 10000 7.06 154 07:55 24.09.2021
6208 Haze 30 1008 66 10000 7.72 140 06:51 24.09.2021
6209 Haze 31 1009 62 10000 7.72 130 05:21 24.09.2021
6210 Haze 24 1011 88 10000 1.54 0 00:48 24.09.2021
6211 Haze 24 1010 88 10000 2.06 0 22:36 23.09.2021
6212 Haze 24 1009 88 10000 5.14 130 21:57 23.09.2021
6213 Haze 24 1009 88 10000 5.14 140 20:37 23.09.2021
6214 Clouds 23 1010 90 10000 4.13 129 20:19 23.09.2021
6215 Clouds 23 1010 90 10000 4.09 125 18:25 23.09.2021
6216 Clouds 25 1010 83 10000 2.57 140 15:37 23.09.2021
6217 Clouds 23 1011 90 10000 6.06 124 15:18 23.09.2021
6218 Rain 23 1011 89 10000 6 124 13:49 23.09.2021
6219 Rain 23 1011 90 10000 6.19 123 13:23 23.09.2021
6220 Rain 23 1011 90 10000 6.19 123 12:53 23.09.2021
6221 Rain 23 1011 90 10000 6.52 122 12:23 23.09.2021
6222 Rain 25 1010 83 10000 5.14 150 11:55 23.09.2021
6223 Clouds 26 1009 78 10000 7.72 150 10:27 23.09.2021
6224 Rain 27 1008 74 10000 7.72 140 09:53 23.09.2021
6225 Clouds 29 1008 65 10000 10.29 140 08:31 23.09.2021
6226 Clouds 28 1009 70 10000 7.58 161 05:27 23.09.2021
6227 Clouds 25 1010 78 10000 3.09 120 23:45 22.09.2021
6228 Clouds 24 1010 83 10000 5.14 140 22:42 22.09.2021
6229 Clouds 24 1010 83 10000 5.14 140 21:56 22.09.2021
6230 Clouds 24 1010 83 10000 5.14 140 21:34 22.09.2021
6231 Clouds 24 1010 83 10000 5.14 140 21:34 22.09.2021
6232 Clouds 24 1010 88 10000 6.1 124 20:57 22.09.2021
6233 Clouds 24 1010 88 10000 5.49 119 19:33 22.09.2021
6234 Clouds 24 1010 87 10000 6.17 122 18:40 22.09.2021
6235 Clouds 24 1010 87 10000 6.17 122 18:40 22.09.2021
6236 Clouds 24 1010 87 10000 6.24 127 17:48 22.09.2021
6237 Clouds 24 1011 86 10000 6.17 128 16:40 22.09.2021
6238 Clouds 24 1012 87 10000 6.23 129 15:29 22.09.2021
6239 Clouds 24 1010 88 10000 5.14 140 13:58 22.09.2021
6240 Rain 24 1010 87 10000 7.42 134 12:19 22.09.2021
6241 Haze 25 1009 88 10000 7.72 140 10:53 22.09.2021
6242 Haze 27 1008 78 10000 5.14 130 09:25 22.09.2021
6243 Haze 30 1007 66 10000 10.29 150 08:30 22.09.2021
6244 Haze 30 1007 66 10000 10.29 150 08:30 22.09.2021
6245 Haze 31 1006 66 10000 10.29 150 07:21 22.09.2021
6246 Clouds 31 1008 66 10000 10.29 160 05:56 22.09.2021
6247 Clouds 31 1008 66 10000 10.29 160 05:36 22.09.2021
6248 Haze 31 1010 62 10000 7.72 150 03:52 22.09.2021
6249 Haze 26 1011 83 10000 7.72 150 00:22 22.09.2021
6250 Clouds 24 1009 94 10000 1.54 0 22:56 21.09.2021
6251 Clouds 24 1008 94 10000 1.54 0 21:36 21.09.2021
6252 Clouds 24 1009 93 10000 5.31 135 20:26 21.09.2021
6253 Clouds 24 1009 93 10000 4.54 132 19:22 21.09.2021
6254 Clouds 24 1009 93 10000 5.15 130 17:36 21.09.2021
6255 Clouds 24 1009 94 10000 5.15 133 16:38 21.09.2021
6256 Haze 25 1011 94 10000 4.12 180 15:44 21.09.2021
6257 Rain 24 1010 93 10000 5.41 133 14:58 21.09.2021
6258 Clouds 25 1010 94 10000 2.06 0 13:56 21.09.2021
6259 Rain 25 1010 94 10000 2.06 0 13:36 21.09.2021
6260 Haze 25 1011 94 10000 2.06 0 12:35 21.09.2021
6261 Rain 25 1008 90 10000 6.27 140 10:26 21.09.2021
6262 Rain 26 1007 86 10000 6.85 151 08:29 21.09.2021
6263 Haze 30 1007 70 10000 5.14 170 06:53 21.09.2021
6264 Haze 27 1011 83 10000 2.57 0 00:30 21.09.2021
6265 Clouds 24 1009 100 10000 1.54 0 22:27 20.09.2021
6266 Clouds 24 1009 94 10000 1.54 0 21:40 20.09.2021
6267 Clouds 24 1009 94 10000 1.54 0 20:34 20.09.2021
6268 Clouds 25 1009 88 10000 1.54 0 19:31 20.09.2021
6269 Clouds 25 1009 88 10000 3.09 140 17:47 20.09.2021
6270 Clouds 26 1009 89 10000 2.06 140 16:43 20.09.2021
6271 Rain 25 1010 88 10000 5.14 140 15:50 20.09.2021
6272 Clouds 25 1010 88 10000 5.14 140 15:25 20.09.2021
6273 Clouds 25 1010 94 10000 6.17 140 14:24 20.09.2021
6274 Clouds 26 1009 89 10000 5.14 150 12:35 20.09.2021
6275 Rain 26 1009 89 10000 5.14 170 11:26 20.09.2021
6276 Rain 25 1010 89 10000 4.15 130 10:18 20.09.2021
6277 Rain 26 1009 89 10000 7.72 150 09:36 20.09.2021
6278 Rain 26 1009 87 10000 4.8 139 09:18 20.09.2021
6279 Haze 27 1009 83 10000 5.14 160 07:45 20.09.2021
6280 Clouds 25 1012 88 10000 2.57 320 00:36 20.09.2021
6281 Clouds 23 1011 100 10000 2.57 330 22:26 19.09.2021
6282 Clouds 23 1010 100 10000 2.57 310 21:43 19.09.2021
6283 Clouds 23 1010 94 10000 1.54 0 20:43 19.09.2021
6284 Clouds 24 1009 91 10000 3.56 121 19:32 19.09.2021
6285 Clouds 24 1010 94 10000 5.14 170 18:29 19.09.2021
6286 Clouds 24 1010 94 10000 2.57 310 17:23 19.09.2021
6287 Clouds 24 1011 94 10000 7.72 150 15:59 19.09.2021
6288 Clouds 24 1011 94 10000 7.72 150 15:30 19.09.2021
6289 Clouds 24 1011 94 10000 7.72 150 15:30 19.09.2021
6290 Clouds 24 1012 94 10000 2.57 0 14:48 19.09.2021
6291 Clouds 24 1012 94 10000 1.94 112 13:24 19.09.2021
6292 Rain 23 1011 100 10000 1.54 0 12:50 19.09.2021
6293 Rain 23 1012 94 10000 1.54 0 11:28 19.09.2021
6294 Rain 23 1012 94 10000 5.14 140 10:47 19.09.2021
6295 Rain 22 1011 100 10000 2.57 190 09:40 19.09.2021
6296 Rain 22 1011 100 10000 2.57 190 09:40 19.09.2021
6297 Rain 23 1011 94 3000 5.14 260 08:35 19.09.2021
6298 Rain 28 1010 74 10000 5.14 150 06:41 19.09.2021
6299 Clouds 25 1012 88 10000 7.72 140 23:43 18.09.2021
6300 Clouds 25 1011 88 10000 2.57 140 22:23 18.09.2021
6301 Clouds 25 1011 90 10000 4.71 131 20:52 18.09.2021
6302 Clouds 25 1011 90 10000 4.71 131 20:52 18.09.2021
6303 Clouds 25 1011 90 10000 4.71 131 20:32 18.09.2021
6304 Clouds 25 1010 88 10000 2.57 150 19:39 18.09.2021
6305 Clouds 25 1010 88 10000 2.57 150 19:20 18.09.2021
6306 Clouds 25 1011 88 10000 2.57 150 18:32 18.09.2021
6307 Clouds 24 1010 89 10000 4.99 130 17:31 18.09.2021
6308 Clouds 25 1012 88 10000 5.56 131 16:18 18.09.2021
6309 Clouds 25 1012 85 10000 7 134 13:49 18.09.2021
6310 Clouds 25 1012 85 10000 7.29 136 13:29 18.09.2021
6311 Clouds 26 1011 83 10000 7.29 136 12:49 18.09.2021
6312 Clouds 26 1011 83 10000 7.29 136 12:49 18.09.2021
6313 Clouds 27 1010 74 10000 7.72 150 11:40 18.09.2021
6314 Haze 27 1009 74 10000 7.72 150 10:32 18.09.2021
6315 Haze 29 1008 70 10000 7.72 160 09:27 18.09.2021
6316 Clouds 26 1009 80 10000 9.25 149 08:55 18.09.2021
6317 Clouds 28 1010 69 10000 7.62 163 03:51 18.09.2021
6318 Clouds 27 1012 67 10000 4.1 138 00:41 18.09.2021
6319 Clouds 25 1012 72 10000 4.28 124 23:48 17.09.2021
6320 Clear 23 1012 79 10000 4.31 116 22:37 17.09.2021
6321 Clear 22 1011 83 10000 4.38 114 22:18 17.09.2021
6322 Clouds 24 1009 78 10000 6.69 140 20:45 17.09.2021
6323 Clouds 24 1010 83 10000 5.14 140 18:54 17.09.2021
6324 Clouds 23 1010 80 10000 6.93 124 17:20 17.09.2021
6325 Haze 25 1011 78 10000 5.14 140 16:24 17.09.2021
6326 Haze 25 1011 73 10000 7.72 150 12:37 17.09.2021
6327 Haze 27 1009 65 10000 7.72 140 10:41 17.09.2021
6328 Haze 30 1008 58 10000 10.29 150 08:25 17.09.2021
6329 Haze 32 1008 51 10000 10.29 150 06:49 17.09.2021
6330 Clouds 27 1011 74 10000 7.72 140 00:49 17.09.2021
6331 Clouds 25 1010 78 10000 5.14 160 22:54 16.09.2021
6332 Clouds 25 1010 78 10000 5.14 160 22:24 16.09.2021
6333 Clouds 25 1010 78 10000 5.14 150 21:40 16.09.2021
6334 Clouds 23 1010 86 10000 4.81 117 20:50 16.09.2021
6335 Clouds 25 1010 78 10000 5.14 160 19:41 16.09.2021
6336 Clouds 23 1010 84 10000 6.11 123 18:19 16.09.2021
6337 Clouds 25 1010 78 10000 7.72 160 17:22 16.09.2021
6338 Clouds 24 1011 82 10000 7.58 128 14:53 16.09.2021
6339 Clouds 24 1011 80 10000 8.07 130 13:48 16.09.2021
6340 Clouds 26 1011 78 10000 7.72 150 12:47 16.09.2021
6341 Clouds 26 1011 78 10000 7.72 150 12:27 16.09.2021
6342 Clouds 26 1010 78 10000 7.72 150 11:24 16.09.2021
6343 Clouds 27 1009 74 10000 10.29 150 10:30 16.09.2021
6344 Clouds 28 1008 69 10000 12.86 150 09:39 16.09.2021
6345 Clouds 29 1008 70 10000 12.86 140 08:32 16.09.2021
6346 Haze 30 1008 62 10000 10.29 150 06:59 16.09.2021
6347 Haze 30 1008 62 10000 10.29 150 06:39 16.09.2021
6348 Clouds 29 1010 64 10000 9.92 157 04:18 16.09.2021
6349 Clouds 28 1012 69 10000 5.14 150 00:59 16.09.2021
6350 Clouds 27 1011 74 10000 5.14 160 23:31 15.09.2021
6351 Clouds 26 1010 78 10000 7.72 150 22:44 15.09.2021
6352 Clouds 26 1010 78 10000 7.2 150 21:31 15.09.2021
6353 Clouds 24 1010 85 10000 7.55 129 20:51 15.09.2021
6354 Clouds 24 1010 85 10000 7.82 130 19:34 15.09.2021
6355 Clouds 26 1010 78 10000 6.17 140 18:57 15.09.2021
6356 Clouds 24 1010 85 10000 7.7 131 17:45 15.09.2021
6357 Clouds 26 1011 78 10000 5.66 140 16:43 15.09.2021
6358 Rain 26 1011 78 10000 5.14 160 15:25 15.09.2021
6359 Clouds 27 1011 78 10000 5.14 160 14:43 15.09.2021
6360 Clouds 27 1011 78 10000 5.14 160 13:48 15.09.2021
6361 Rain 25 1011 82 10000 8.02 134 13:28 15.09.2021
6362 Haze 27 1010 78 10000 5.14 160 12:33 15.09.2021
6363 Haze 27 1010 78 10000 5.14 160 11:51 15.09.2021
6364 Haze 27 1009 78 10000 5.14 160 10:58 15.09.2021
6365 Haze 27 1009 78 10000 5.14 160 10:35 15.09.2021
6366 Haze 29 1007 74 10000 12.86 160 08:51 15.09.2021
6367 Haze 30 1008 66 10000 10.29 150 07:26 15.09.2021
6368 Haze 28 1012 78 10000 5.14 140 00:55 15.09.2021
6369 Clouds 24 1011 89 10000 2.93 119 22:24 14.09.2021
6370 Clouds 25 1010 88 10000 2.06 0 21:26 14.09.2021
6371 Clouds 24 1010 90 10000 2.7 113 20:21 14.09.2021
6372 Clouds 27 1010 83 10000 2.57 130 19:23 14.09.2021
6373 Clouds 27 1011 83 10000 5.66 140 17:33 14.09.2021
6374 Clouds 27 1011 83 10000 5.66 150 16:39 14.09.2021
6375 Clouds 25 1012 90 10000 5.43 132 14:52 14.09.2021
6376 Clouds 25 1012 90 10000 5.43 132 14:52 14.09.2021
6377 Clouds 25 1012 90 10000 6.01 136 14:19 14.09.2021
6378 Haze 27 1010 83 10000 7.72 140 11:46 14.09.2021
6379 Rain 26 1009 83 10000 6.34 150 10:25 14.09.2021
6380 Rain 28 1009 78 10000 5.14 160 09:48 14.09.2021
6381 Haze 30 1008 70 10000 5.14 170 07:51 14.09.2021
6382 Clouds 28 1012 77 10000 1.87 198 02:20 14.09.2021
6383 Clouds 26 1011 94 10000 2.06 0 23:27 13.09.2021
6384 Clouds 26 1010 94 10000 2.06 0 22:27 13.09.2021
6385 Clouds 26 1010 94 10000 1.54 0 21:55 13.09.2021
6386 Clouds 26 1010 94 10000 1.54 0 21:32 13.09.2021
6387 Clouds 25 1009 92 10000 1.24 63 19:35 13.09.2021
6388 Clouds 25 1009 93 10000 2.24 101 18:44 13.09.2021
6389 Clouds 25 1010 93 10000 3.13 131 17:27 13.09.2021
6390 Clouds 25 1010 93 10000 3.41 133 16:23 13.09.2021
6391 Clouds 26 1011 89 10000 5.14 140 14:43 13.09.2021
6392 Clouds 26 1009 94 10000 5.14 150 11:43 13.09.2021
6393 Clouds 26 1009 94 10000 7.72 150 10:26 13.09.2021
6394 Haze 30 1007 70 10000 7.72 150 07:57 13.09.2021
6395 Clouds 25 1011 84 10000 0.47 43 00:18 13.09.2021
6396 Haze 25 1009 94 10000 1.54 0 22:42 12.09.2021
6397 Clouds 24 1010 92 10000 1.63 66 22:20 12.09.2021
6398 Clouds 25 1009 94 10000 1.54 0 20:41 12.09.2021
6399 Clouds 26 1009 89 10000 2.57 120 19:56 12.09.2021
6400 Clouds 26 1009 89 10000 2.57 120 19:29 12.09.2021
6401 Clouds 26 1009 89 10000 5.14 140 18:50 12.09.2021
6402 Clouds 25 1010 88 10000 5.14 150 16:58 12.09.2021
6403 Clouds 25 1010 94 10000 5.14 140 15:37 12.09.2021
6404 Clouds 25 1010 94 10000 5.14 150 14:32 12.09.2021
6405 Clouds 25 1009 90 10000 4.94 137 11:49 12.09.2021
6406 Clouds 25 1008 87 10000 6.24 152 10:18 12.09.2021
6407 Haze 28 1007 78 10000 7.2 150 08:38 12.09.2021
6408 Haze 32 1008 58 10000 5.14 130 04:59 12.09.2021
6409 Haze 27 1010 78 10000 2.57 180 00:46 12.09.2021
6410 Clouds 24 1009 91 10000 1.41 78 22:29 11.09.2021
6411 Clouds 23 1009 100 10000 1.54 0 21:37 11.09.2021
6412 Clouds 25 1008 88 10000 1.54 0 19:34 11.09.2021
6413 Clouds 26 1008 89 10000 2.57 180 17:56 11.09.2021
6414 Clouds 26 1009 83 10000 5.14 140 16:24 11.09.2021
6415 Clouds 25 1009 90 10000 4.86 130 14:27 11.09.2021
6416 Clouds 25 1009 90 10000 4.87 134 13:20 11.09.2021
6417 Clouds 27 1008 83 10000 5.14 160 11:35 11.09.2021
6418 Haze 28 1008 78 10000 5.14 140 09:42 11.09.2021
6419 Haze 29 1008 70 10000 5.14 200 07:53 11.09.2021
6420 Haze 29 1008 70 10000 5.14 200 07:34 11.09.2021
6421 Haze 27 1011 89 10000 5.14 160 01:23 11.09.2021
6422 Clouds 25 1009 94 10000 1.03 0 22:27 10.09.2021
6423 Clouds 25 1009 94 10000 2.06 130 21:56 10.09.2021
6424 Clouds 26 1009 89 10000 2.57 130 20:41 10.09.2021
6425 Clouds 26 1008 89 10000 1.54 0 18:34 10.09.2021
6426 Clouds 26 1008 89 10000 2.57 150 17:27 10.09.2021
6427 Clouds 27 1009 83 10000 7.72 150 15:37 10.09.2021
6428 Clouds 26 1009 86 10000 4.67 127 13:18 10.09.2021
6429 Haze 27 1008 89 10000 2.57 140 10:21 10.09.2021
6430 Haze 32 1008 62 10000 7.72 150 07:51 10.09.2021
6431 Clouds 32 1009 55 10000 7.72 200 04:21 10.09.2021
6432 Clouds 23 1010 94 10000 2.57 160 22:33 09.09.2021
6433 Clouds 24 1009 88 10000 2.57 150 21:46 09.09.2021
6434 Clouds 23 1010 94 10000 5.14 150 20:47 09.09.2021
6435 Clouds 23 1010 94 10000 5.14 150 20:21 09.09.2021
6436 Clouds 24 1010 89 10000 4.01 119 18:34 09.09.2021
6437 Clouds 25 1012 83 10000 4.12 130 16:41 09.09.2021
6438 Clouds 25 1012 83 10000 4.12 130 16:21 09.09.2021
6439 Clouds 25 1012 87 10000 6.14 130 13:22 09.09.2021
6440 Clouds 26 1011 89 10000 7.72 150 11:48 09.09.2021
6441 Clouds 28 1010 74 10000 7.72 150 10:25 09.09.2021
6442 Haze 30 1009 66 10000 5.14 160 08:55 09.09.2021
6443 Haze 30 1009 66 10000 2.57 160 06:39 09.09.2021
6444 Haze 29 1013 61 10000 5.14 160 02:56 09.09.2021
6445 Clouds 24 1011 83 10000 5.14 150 22:45 08.09.2021
6446 Clouds 25 1011 78 10000 5.14 150 21:35 08.09.2021
6447 Clouds 25 1010 78 10000 5.14 150 19:56 08.09.2021
6448 Clouds 24 1011 84 10000 6.6 123 19:22 08.09.2021
6449 Clouds 24 1011 83 10000 7.1 125 18:29 08.09.2021
6450 Clouds 26 1011 73 10000 7.72 150 17:56 08.09.2021
6451 Clouds 26 1011 73 10000 7.72 150 16:34 08.09.2021
6452 Clouds 24 1012 80 10000 9.32 128 14:26 08.09.2021
6453 Clouds 27 1011 69 10000 12.86 160 12:47 08.09.2021
6454 Clouds 25 1012 80 10000 9.6 132 12:27 08.09.2021
6455 Rain 27 1011 69 10000 12.86 160 11:30 08.09.2021
6456 Haze 28 1009 65 10000 12.86 160 10:38 08.09.2021
6457 Clouds 25 1010 79 10000 9.78 133 10:20 08.09.2021
6458 Haze 29 1009 61 10000 7.72 140 08:36 08.09.2021
6459 Haze 30 1008 62 10000 12.86 160 07:35 08.09.2021
6460 Haze 30 1010 62 10000 10.29 160 05:28 08.09.2021
6461 Clouds 25 1010 78 10000 7.72 140 22:46 07.09.2021
6462 Clouds 25 1010 78 10000 7.72 140 21:52 07.09.2021
6463 Clouds 25 1010 78 10000 5.14 140 19:52 07.09.2021
6464 Clouds 24 1010 82 10000 6.66 123 18:45 07.09.2021
6465 Clouds 25 1011 78 10000 5.14 140 17:49 07.09.2021
6466 Clouds 25 1012 78 10000 7.72 150 16:33 07.09.2021
6467 Clouds 24 1012 80 10000 7.36 126 15:36 07.09.2021
6468 Clouds 25 1012 83 10000 7.72 150 14:42 07.09.2021
6469 Clouds 25 1011 83 10000 7.72 150 12:38 07.09.2021
6470 Clouds 27 1011 69 10000 7.72 150 11:36 07.09.2021
6471 Haze 27 1010 74 10000 10.29 150 10:40 07.09.2021
6472 Haze 29 1008 65 10000 12.86 160 08:23 07.09.2021
6473 Haze 31 1009 58 10000 10.29 160 06:45 07.09.2021
6474 Haze 32 1010 55 10000 10.29 160 05:24 07.09.2021
6475 Haze 30 1012 58 10000 10.29 140 02:32 07.09.2021
6476 Clouds 26 1012 73 10000 7.72 130 00:40 07.09.2021
6477 Clouds 26 1011 69 10000 5.66 140 23:31 06.09.2021
6478 Clouds 24 1012 79 10000 4.89 118 22:53 06.09.2021
6479 Clouds 24 1012 79 10000 4.89 118 22:32 06.09.2021
6480 Clouds 24 1010 81 10000 5.2 122 20:55 06.09.2021
6481 Clouds 24 1010 79 10000 4.8 117 19:22 06.09.2021
6482 Clouds 24 1010 79 10000 4.8 117 19:22 06.09.2021
6483 Clouds 24 1010 79 10000 4.8 117 19:22 06.09.2021
6484 Clouds 24 1010 79 10000 4.8 117 18:46 06.09.2021
6485 Clouds 23 1010 80 10000 5.29 120 18:18 06.09.2021
6486 Clouds 23 1010 80 10000 5.29 120 17:35 06.09.2021
6487 Clouds 26 1011 69 10000 5.14 150 15:43 06.09.2021
6488 Clouds 26 1010 73 10000 7.72 150 13:47 06.09.2021
6489 Clouds 25 1012 77 10000 6.68 133 12:46 06.09.2021
6490 Haze 27 1008 69 10000 10.29 160 10:44 06.09.2021
6491 Haze 30 1008 58 10000 7.72 150 07:58 06.09.2021
6492 Haze 32 1010 55 10000 10.29 150 04:43 06.09.2021
6493 Haze 27 1011 69 10000 7.72 150 23:26 05.09.2021
6494 Clouds 26 1010 78 10000 5.14 140 22:34 05.09.2021
6495 Clouds 26 1009 78 10000 5.14 140 21:57 05.09.2021
6496 Clouds 23 1010 89 10000 4.36 121 21:29 05.09.2021
6497 Clouds 26 1009 78 10000 5.14 140 19:48 05.09.2021
6498 Clouds 23 1010 89 10000 3.88 112 18:32 05.09.2021
6499 Clouds 26 1010 78 10000 5.14 140 17:22 05.09.2021
6500 Clouds 26 1011 73 10000 5.14 140 15:24 05.09.2021
6501 Clouds 27 1011 74 10000 5.14 140 13:40 05.09.2021
6502 Clouds 27 1009 74 10000 7.72 140 11:45 05.09.2021
6503 Haze 28 1008 74 10000 7.72 140 10:46 05.09.2021
6504 Haze 28 1008 74 10000 7.72 140 10:22 05.09.2021
6505 Haze 30 1007 66 10000 7.72 150 08:37 05.09.2021
6506 Haze 31 1007 66 10000 7.72 160 06:45 05.09.2021
6507 Clouds 28 1011 69 10000 5.14 150 00:42 05.09.2021
6508 Clouds 26 1010 78 10000 5.14 140 23:59 04.09.2021
6509 Clouds 26 1010 78 10000 5.14 140 23:26 04.09.2021
6510 Haze 25 1010 83 10000 5.14 140 22:35 04.09.2021
6511 Clouds 24 1010 88 10000 4.37 124 21:20 04.09.2021
6512 Clouds 26 1009 83 10000 4.12 130 19:40 04.09.2021
6513 Clouds 24 1010 88 10000 4.72 125 17:25 04.09.2021
6514 Clouds 26 1011 83 10000 10.29 150 15:41 04.09.2021
6515 Clouds 27 1008 78 10000 10.29 150 11:54 04.09.2021
6516 Clouds 28 1008 74 10000 7.72 150 10:55 04.09.2021
6517 Clouds 27 1007 77 10000 7.51 150 08:18 04.09.2021
6518 Clouds 27 1010 74 10000 5.14 160 00:50 04.09.2021
6519 Clouds 25 1010 77 10000 2.77 117 00:19 04.09.2021
6520 Clouds 25 1009 83 10000 2.57 130 23:21 03.09.2021
6521 Clouds 25 1008 83 10000 5.14 140 21:43 03.09.2021
6522 Clouds 25 1008 83 10000 5.14 140 20:58 03.09.2021
6523 Clouds 25 1008 83 10000 5.14 140 20:28 03.09.2021
6524 Clouds 26 1008 83 10000 5.14 150 19:38 03.09.2021
6525 Clouds 25 1008 83 10000 5.14 140 18:27 03.09.2021
6526 Clouds 26 1009 78 10000 6.17 140 16:50 03.09.2021
6527 Clouds 25 1008 84 10000 5.63 127 15:42 03.09.2021
6528 Clouds 26 1009 78 10000 8.75 140 14:28 03.09.2021
6529 Clouds 26 1009 78 10000 8.75 140 14:28 03.09.2021
6530 Clouds 27 1007 78 10000 10.29 150 11:21 03.09.2021
6531 Clouds 28 1006 74 10000 10.29 160 09:21 03.09.2021
6532 Clouds 28 1006 73 10000 10.59 151 08:18 03.09.2021
6533 Clouds 32 1006 58 10000 7.72 160 06:49 03.09.2021
6534 Haze 25 1010 83 10000 2.57 140 23:56 02.09.2021
6535 Haze 24 1009 88 10000 4.12 140 22:21 02.09.2021
6536 Clouds 24 1009 88 10000 2.57 170 20:46 02.09.2021
6537 Clouds 25 1009 83 10000 5.14 150 18:27 02.09.2021
6538 Clouds 26 1009 83 10000 8.75 150 16:38 02.09.2021
6539 Clouds 27 1009 78 10000 5.14 190 15:30 02.09.2021
6540 Clouds 26 1009 83 10000 5.14 140 13:33 02.09.2021
6541 Clouds 28 1008 74 10000 5.14 140 11:43 02.09.2021
6542 Haze 29 1008 74 10000 7.72 160 10:53 02.09.2021
6543 Haze 30 1006 70 10000 10.29 150 08:57 02.09.2021
6544 Haze 31 1007 66 10000 7.72 180 07:22 02.09.2021
6545 Haze 31 1007 66 10000 7.72 180 07:22 02.09.2021
6546 Haze 31 1008 62 10000 5.14 160 05:31 02.09.2021
6547 Haze 32 1010 58 10000 2.06 200 02:36 02.09.2021
6548 Haze 30 1010 70 10000 3.09 290 01:48 02.09.2021
6549 Clouds 26 1010 78 10000 1.12 141 23:41 01.09.2021
6550 Clouds 25 1010 84 10000 1.22 94 22:44 01.09.2021
6551 Clouds 24 1009 88 10000 1.54 0 21:46 01.09.2021
6552 Clouds 24 1009 88 10000 1.54 0 20:54 01.09.2021
6553 Clouds 24 1009 88 10000 2.57 140 19:33 01.09.2021
6554 Clouds 26 1009 78 10000 2.57 180 17:51 01.09.2021
6555 Clouds 26 1009 78 10000 2.57 180 17:51 01.09.2021
6556 Clouds 26 1010 83 10000 6.17 150 16:55 01.09.2021
6557 Clouds 26 1010 83 10000 6.17 150 16:33 01.09.2021
6558 Clouds 27 1010 83 10000 1.54 0 13:57 01.09.2021
6559 Clouds 28 1009 78 10000 2.57 120 11:47 01.09.2021
6560 Clouds 28 1009 78 10000 2.57 120 11:47 01.09.2021
6561 Haze 31 1008 66 10000 5.14 150 09:35 01.09.2021
6562 Haze 32 1008 58 10000 5.14 160 07:58 01.09.2021
6563 Haze 32 1008 62 10000 5.14 200 06:42 01.09.2021
6564 Haze 24 1010 94 10000 5.14 330 23:20 31.08.2021
6565 Clouds 24 1009 94 10000 1.54 0 21:41 31.08.2021
6566 Clouds 24 1009 90 10000 1.04 40 19:49 31.08.2021
6567 Clouds 25 1009 88 10000 1.54 0 18:56 31.08.2021
6568 Clouds 25 1009 88 10000 2.57 350 17:39 31.08.2021
6569 Clouds 25 1009 88 10000 2.57 350 17:21 31.08.2021
6570 Clouds 26 1010 89 10000 2.57 30 16:24 31.08.2021
6571 Clouds 25 1011 88 10000 0.3 72 14:28 31.08.2021
6572 Clouds 25 1010 90 10000 2.34 15 11:36 31.08.2021
6573 Clouds 28 1009 74 10000 5.14 160 10:56 31.08.2021
6574 Haze 30 1009 62 10000 2.06 120 09:45 31.08.2021
6575 Haze 32 1008 55 10000 2.06 110 08:41 31.08.2021
6576 Haze 31 1008 66 10000 5.14 130 07:38 31.08.2021
6577 Haze 32 1008 62 10000 7.72 160 05:55 31.08.2021
6578 Haze 25 1010 94 10000 2.57 140 23:35 30.08.2021
6579 Haze 25 1010 94 10000 2.57 140 23:35 30.08.2021
6580 Clouds 24 1010 85 10000 1.14 123 21:53 30.08.2021
6581 Clouds 24 1010 85 10000 1.14 123 21:32 30.08.2021
6582 Clouds 25 1009 94 10000 2.06 0 20:32 30.08.2021
6583 Clouds 24 1009 90 10000 2.2 35 19:29 30.08.2021
6584 Clouds 24 1009 90 10000 2.2 35 18:44 30.08.2021
6585 Clouds 24 1008 91 10000 2.5 25 17:47 30.08.2021
6586 Clouds 25 1009 88 10000 2.57 0 16:24 30.08.2021
6587 Clouds 25 1009 91 10000 2.7 6 15:39 30.08.2021
6588 Clouds 25 1009 92 10000 1.68 2 13:45 30.08.2021
6589 Clouds 28 1008 83 10000 4.12 220 12:29 30.08.2021
6590 Haze 31 1008 55 10000 2.06 230 10:33 30.08.2021
6591 Clouds 24 1008 94 10000 1.54 0 22:30 29.08.2021
6592 Clouds 24 1007 94 10000 1.54 0 21:33 29.08.2021
6593 Clouds 24 1008 90 10000 1.41 53 20:22 29.08.2021
6594 Clouds 25 1008 90 10000 1.66 59 19:19 29.08.2021
6595 Clouds 25 1008 94 10000 3.6 140 17:50 29.08.2021
6596 Clouds 26 1009 89 10000 4.12 140 15:48 29.08.2021
6597 Clouds 25 1009 90 10000 3.76 133 14:19 29.08.2021
6598 Clouds 27 1008 83 10000 6.69 160 13:43 29.08.2021
6599 Clouds 26 1009 90 10000 5.06 139 12:32 29.08.2021
6600 Clouds 28 1007 78 10000 7.72 150 11:48 29.08.2021
6601 Clouds 28 1007 78 10000 7.72 150 11:22 29.08.2021
6602 Haze 28 1008 78 10000 7.72 160 10:42 29.08.2021
6603 Haze 28 1007 78 10000 7.72 160 10:23 29.08.2021
6604 Haze 31 1006 66 10000 7.72 160 07:47 29.08.2021
6605 Haze 25 1010 94 10000 1.54 0 00:21 29.08.2021
6606 Clouds 24 1008 100 10000 2.57 330 21:50 28.08.2021
6607 Clouds 24 1008 94 10000 1.54 0 19:54 28.08.2021
6608 Clouds 24 1008 94 10000 1.54 0 18:28 28.08.2021
6609 Clouds 25 1008 94 10000 1.54 0 17:48 28.08.2021
6610 Clouds 25 1008 94 10000 1.54 0 17:48 28.08.2021
6611 Clouds 25 1009 94 10000 1.54 0 16:58 28.08.2021
6612 Clouds 25 1009 94 10000 1.54 0 15:32 28.08.2021
6613 Clouds 25 1009 90 10000 3.25 122 14:19 28.08.2021
6614 Clouds 25 1009 90 10000 3.25 122 13:43 28.08.2021
6615 Clouds 26 1009 90 10000 4.38 129 12:41 28.08.2021
6616 Clouds 26 1008 89 10000 4.84 135 11:51 28.08.2021
6617 Clouds 27 1007 83 10000 1.54 170 10:29 28.08.2021
6618 Clouds 31 1007 70 10000 5.14 140 08:38 28.08.2021
6619 Haze 33 1007 58 10000 7.72 150 06:23 28.08.2021
6620 Clouds 24 1009 90 10000 0.76 66 22:26 27.08.2021
6621 Clouds 25 1008 94 10000 1.03 0 20:56 27.08.2021
6622 Clouds 24 1008 90 10000 1.11 54 19:59 27.08.2021
6623 Clouds 24 1008 90 10000 1.34 61 18:39 27.08.2021
6624 Clouds 25 1008 90 10000 1.23 76 18:20 27.08.2021
6625 Clouds 26 1009 89 10000 2.57 150 16:47 27.08.2021
6626 Clouds 25 1009 90 10000 2.35 112 15:21 27.08.2021
6627 Clouds 25 1009 90 10000 2.35 112 14:37 27.08.2021
6628 Clouds 26 1009 91 10000 5.31 145 12:28 27.08.2021
6629 Clouds 26 1008 89 10000 5.9 149 11:23 27.08.2021
6630 Haze 28 1007 83 10000 7.72 160 10:41 27.08.2021
6631 Clouds 28 1006 77 10000 3.85 154 09:19 27.08.2021
6632 Haze 31 1006 66 10000 6.69 150 08:38 27.08.2021
6633 Clouds 32 1008 62 10000 7.72 220 05:51 27.08.2021
6634 Clouds 28 1010 78 10000 5.14 170 00:49 27.08.2021
6635 Clouds 28 1010 78 10000 5.14 170 00:28 27.08.2021
6636 Clouds 26 1009